<?xml version="1.0" encoding="UTF-8" standalone="no" ?>
<gpx xmlns="http://www.topografix.com/GPX/1/1" xmlns:xsi="http://www.w3.org/2001/XMLSchema-instance" xsi:schemaLocation="http://www.topografix.com/GPX/1/1 http://www.topografix.com/GPX/1/1/gpx.xsd" version="1.1" creator="VisuGPX - https://www.visugpx.com">
  <metadata>
    <name>Boucle avant pays savoyard</name>
    <desc><![CDATA[Circuit 2 jours St Pierre d\'Alvey/La Motte Servolex/St Pierre d\'Alvey]]></desc>
  </metadata>
  <trk>
    <name><![CDATA[Parcours 2012-11-24 09:21]]></name>
    <trkseg>
      <trkpt lat="45.6302" lon="5.72504">
        <ele>703.90002441406</ele>
        <time>2012-11-24T08:30:48Z</time>
      </trkpt>
      <trkpt lat="45.63043" lon="5.72481">
        <ele>704.69995117188</ele>
        <time>2012-11-24T08:31:11Z</time>
      </trkpt>
      <trkpt lat="45.6306" lon="5.72447">
        <ele>706.40002441406</ele>
        <time>2012-11-24T08:31:31Z</time>
      </trkpt>
      <trkpt lat="45.63437" lon="5.72436">
        <ele>683</ele>
        <time>2012-11-24T08:40:06Z</time>
      </trkpt>
      <trkpt lat="45.63468" lon="5.72433">
        <ele>683.5</ele>
        <time>2012-11-24T08:40:30Z</time>
      </trkpt>
      <trkpt lat="45.63498" lon="5.72441">
        <ele>685.80004882812</ele>
        <time>2012-11-24T08:40:50Z</time>
      </trkpt>
      <trkpt lat="45.63547" lon="5.72452">
        <ele>685.69995117188</ele>
        <time>2012-11-24T08:41:22Z</time>
      </trkpt>
      <trkpt lat="45.6358" lon="5.72449">
        <ele>684.5</ele>
        <time>2012-11-24T08:41:36Z</time>
      </trkpt>
      <trkpt lat="45.63609" lon="5.72448">
        <ele>684.5</ele>
        <time>2012-11-24T08:41:58Z</time>
      </trkpt>
      <trkpt lat="45.63637" lon="5.72449">
        <ele>683.69995117188</ele>
        <time>2012-11-24T08:42:17Z</time>
      </trkpt>
      <trkpt lat="45.63674" lon="5.72448">
        <ele>685.30004882812</ele>
        <time>2012-11-24T08:42:43Z</time>
      </trkpt>
      <trkpt lat="45.63702" lon="5.72451">
        <ele>686.80004882812</ele>
        <time>2012-11-24T08:43:03Z</time>
      </trkpt>
      <trkpt lat="45.63731" lon="5.72453">
        <ele>687.90002441406</ele>
        <time>2012-11-24T08:43:23Z</time>
      </trkpt>
      <trkpt lat="45.6376" lon="5.72455">
        <ele>689.40002441406</ele>
        <time>2012-11-24T08:43:44Z</time>
      </trkpt>
      <trkpt lat="45.63789" lon="5.72458">
        <ele>690.5</ele>
        <time>2012-11-24T08:44:03Z</time>
      </trkpt>
      <trkpt lat="45.63819" lon="5.72461">
        <ele>690</ele>
        <time>2012-11-24T08:44:23Z</time>
      </trkpt>
      <trkpt lat="45.63848" lon="5.72464">
        <ele>690.30004882812</ele>
        <time>2012-11-24T08:44:43Z</time>
      </trkpt>
      <trkpt lat="45.63877" lon="5.72462">
        <ele>689.30004882812</ele>
        <time>2012-11-24T08:45:06Z</time>
      </trkpt>
      <trkpt lat="45.63906" lon="5.72468">
        <ele>689.5</ele>
        <time>2012-11-24T08:45:26Z</time>
      </trkpt>
      <trkpt lat="45.63974" lon="5.72488">
        <ele>690.69995117188</ele>
        <time>2012-11-24T08:46:17Z</time>
      </trkpt>
      <trkpt lat="45.64002" lon="5.72499">
        <ele>689.09997558594</ele>
        <time>2012-11-24T08:46:38Z</time>
      </trkpt>
      <trkpt lat="45.64021" lon="5.72505">
        <ele>687.90002441406</ele>
        <time>2012-11-24T08:46:52Z</time>
      </trkpt>
      <trkpt lat="45.64051" lon="5.72513">
        <ele>686.90002441406</ele>
        <time>2012-11-24T08:47:14Z</time>
      </trkpt>
      <trkpt lat="45.64086" lon="5.72536">
        <ele>680.90002441406</ele>
        <time>2012-11-24T08:47:42Z</time>
      </trkpt>
      <trkpt lat="45.64111" lon="5.72562">
        <ele>678.59997558594</ele>
        <time>2012-11-24T08:47:58Z</time>
      </trkpt>
      <trkpt lat="45.64129" lon="5.7257">
        <ele>678.19995117188</ele>
        <time>2012-11-24T08:48:04Z</time>
      </trkpt>
      <trkpt lat="45.64148" lon="5.72574">
        <ele>677.80004882812</ele>
        <time>2012-11-24T08:48:12Z</time>
      </trkpt>
      <trkpt lat="45.64177" lon="5.72579">
        <ele>677.59997558594</ele>
        <time>2012-11-24T08:48:32Z</time>
      </trkpt>
      <trkpt lat="45.64196" lon="5.72584">
        <ele>678</ele>
        <time>2012-11-24T08:48:44Z</time>
      </trkpt>
      <trkpt lat="45.64216" lon="5.72584">
        <ele>678.90002441406</ele>
        <time>2012-11-24T08:48:59Z</time>
      </trkpt>
      <trkpt lat="45.64235" lon="5.7258">
        <ele>678.90002441406</ele>
        <time>2012-11-24T08:49:12Z</time>
      </trkpt>
      <trkpt lat="45.64265" lon="5.72574">
        <ele>681.19995117188</ele>
        <time>2012-11-24T08:49:33Z</time>
      </trkpt>
      <trkpt lat="45.64294" lon="5.72566">
        <ele>680.5</ele>
        <time>2012-11-24T08:49:56Z</time>
      </trkpt>
      <trkpt lat="45.64314" lon="5.72562">
        <ele>680.69995117188</ele>
        <time>2012-11-24T08:50:12Z</time>
      </trkpt>
      <trkpt lat="45.64333" lon="5.72558">
        <ele>680.90002441406</ele>
        <time>2012-11-24T08:50:24Z</time>
      </trkpt>
      <trkpt lat="45.64394" lon="5.72547">
        <ele>686</ele>
        <time>2012-11-24T08:50:58Z</time>
      </trkpt>
      <trkpt lat="45.64422" lon="5.72541">
        <ele>688.19995117188</ele>
        <time>2012-11-24T08:51:19Z</time>
      </trkpt>
      <trkpt lat="45.64452" lon="5.72537">
        <ele>690.59997558594</ele>
        <time>2012-11-24T08:51:42Z</time>
      </trkpt>
      <trkpt lat="45.6447" lon="5.72533">
        <ele>691</ele>
        <time>2012-11-24T08:51:56Z</time>
      </trkpt>
      <trkpt lat="45.6449" lon="5.72528">
        <ele>692.69995117188</ele>
        <time>2012-11-24T08:52:10Z</time>
      </trkpt>
      <trkpt lat="45.6451" lon="5.72523">
        <ele>694.5</ele>
        <time>2012-11-24T08:52:24Z</time>
      </trkpt>
      <trkpt lat="45.64529" lon="5.72517">
        <ele>696.19995117188</ele>
        <time>2012-11-24T08:52:38Z</time>
      </trkpt>
      <trkpt lat="45.64558" lon="5.72506">
        <ele>698.5</ele>
        <time>2012-11-24T08:53:00Z</time>
      </trkpt>
      <trkpt lat="45.64585" lon="5.72493">
        <ele>703.30004882812</ele>
        <time>2012-11-24T08:53:23Z</time>
      </trkpt>
      <trkpt lat="45.64604" lon="5.72488">
        <ele>703.40002441406</ele>
        <time>2012-11-24T08:53:35Z</time>
      </trkpt>
      <trkpt lat="45.64623" lon="5.72483">
        <ele>703.59997558594</ele>
        <time>2012-11-24T08:53:48Z</time>
      </trkpt>
      <trkpt lat="45.64642" lon="5.72488">
        <ele>703.59997558594</ele>
        <time>2012-11-24T08:53:58Z</time>
      </trkpt>
      <trkpt lat="45.64669" lon="5.72499">
        <ele>705.30004882812</ele>
        <time>2012-11-24T08:54:17Z</time>
      </trkpt>
      <trkpt lat="45.64698" lon="5.72502">
        <ele>705.80004882812</ele>
        <time>2012-11-24T08:54:37Z</time>
      </trkpt>
      <trkpt lat="45.64726" lon="5.72502">
        <ele>702.90002441406</ele>
        <time>2012-11-24T08:54:58Z</time>
      </trkpt>
      <trkpt lat="45.64746" lon="5.72503">
        <ele>701.5</ele>
        <time>2012-11-24T08:55:16Z</time>
      </trkpt>
      <trkpt lat="45.64775" lon="5.72507">
        <ele>698.90002441406</ele>
        <time>2012-11-24T08:55:35Z</time>
      </trkpt>
      <trkpt lat="45.64805" lon="5.72499">
        <ele>696.40002441406</ele>
        <time>2012-11-24T08:56:03Z</time>
      </trkpt>
      <trkpt lat="45.64894" lon="5.72573">
        <ele>691.19995117188</ele>
        <time>2012-11-24T08:56:57Z</time>
      </trkpt>
      <trkpt lat="45.64895" lon="5.72587">
        <ele>691.5</ele>
        <time>2012-11-24T08:57:01Z</time>
      </trkpt>
      <trkpt lat="45.64898" lon="5.72615">
        <ele>692.59997558594</ele>
        <time>2012-11-24T08:57:14Z</time>
      </trkpt>
      <trkpt lat="45.649" lon="5.72629">
        <ele>692.5</ele>
        <time>2012-11-24T08:57:20Z</time>
      </trkpt>
      <trkpt lat="45.64904" lon="5.72657">
        <ele>693.40002441406</ele>
        <time>2012-11-24T08:57:34Z</time>
      </trkpt>
      <trkpt lat="45.64909" lon="5.72669">
        <ele>694.19995117188</ele>
        <time>2012-11-24T08:57:41Z</time>
      </trkpt>
      <trkpt lat="45.64925" lon="5.72694">
        <ele>695</ele>
        <time>2012-11-24T08:57:49Z</time>
      </trkpt>
      <trkpt lat="45.64956" lon="5.72719">
        <ele>696.5</ele>
        <time>2012-11-24T08:57:55Z</time>
      </trkpt>
      <trkpt lat="45.64985" lon="5.72724">
        <ele>697.80004882812</ele>
        <time>2012-11-24T08:57:59Z</time>
      </trkpt>
      <trkpt lat="45.65012" lon="5.72723">
        <ele>699.90002441406</ele>
        <time>2012-11-24T08:58:03Z</time>
      </trkpt>
      <trkpt lat="45.65042" lon="5.72712">
        <ele>701.30004882812</ele>
        <time>2012-11-24T08:58:09Z</time>
      </trkpt>
      <trkpt lat="45.6506" lon="5.72699">
        <ele>701.30004882812</ele>
        <time>2012-11-24T08:58:13Z</time>
      </trkpt>
      <trkpt lat="45.6509" lon="5.72682">
        <ele>701.90002441406</ele>
        <time>2012-11-24T08:58:20Z</time>
      </trkpt>
      <trkpt lat="45.65105" lon="5.72698">
        <ele>707.90002441406</ele>
        <time>2012-11-24T08:58:32Z</time>
      </trkpt>
      <trkpt lat="45.65114" lon="5.72701">
        <ele>710</ele>
        <time>2012-11-24T08:58:39Z</time>
      </trkpt>
      <trkpt lat="45.65124" lon="5.72703">
        <ele>710.5</ele>
        <time>2012-11-24T08:58:46Z</time>
      </trkpt>
      <trkpt lat="45.65145" lon="5.72702">
        <ele>711</ele>
        <time>2012-11-24T08:59:04Z</time>
      </trkpt>
      <trkpt lat="45.65165" lon="5.727">
        <ele>709.5</ele>
        <time>2012-11-24T08:59:18Z</time>
      </trkpt>
      <trkpt lat="45.65185" lon="5.72702">
        <ele>708.69995117188</ele>
        <time>2012-11-24T08:59:32Z</time>
      </trkpt>
      <trkpt lat="45.65195" lon="5.72703">
        <ele>708.40002441406</ele>
        <time>2012-11-24T08:59:38Z</time>
      </trkpt>
      <trkpt lat="45.65205" lon="5.72704">
        <ele>707.5</ele>
        <time>2012-11-24T08:59:45Z</time>
      </trkpt>
      <trkpt lat="45.65215" lon="5.72706">
        <ele>707.09997558594</ele>
        <time>2012-11-24T08:59:51Z</time>
      </trkpt>
      <trkpt lat="45.65224" lon="5.72705">
        <ele>706.90002441406</ele>
        <time>2012-11-24T08:59:57Z</time>
      </trkpt>
      <trkpt lat="45.65238" lon="5.72688">
        <ele>706</ele>
        <time>2012-11-24T09:00:13Z</time>
      </trkpt>
      <trkpt lat="45.65248" lon="5.72682">
        <ele>706.30004882812</ele>
        <time>2012-11-24T09:00:18Z</time>
      </trkpt>
      <trkpt lat="45.65268" lon="5.72685">
        <ele>705.69995117188</ele>
        <time>2012-11-24T09:00:24Z</time>
      </trkpt>
      <trkpt lat="45.65292" lon="5.72688">
        <ele>705.19995117188</ele>
        <time>2012-11-24T09:00:30Z</time>
      </trkpt>
      <trkpt lat="45.65318" lon="5.72686">
        <ele>704.80004882812</ele>
        <time>2012-11-24T09:00:36Z</time>
      </trkpt>
      <trkpt lat="45.65337" lon="5.72686">
        <ele>704.69995117188</ele>
        <time>2012-11-24T09:00:40Z</time>
      </trkpt>
      <trkpt lat="45.65356" lon="5.72686">
        <ele>704.30004882812</ele>
        <time>2012-11-24T09:00:44Z</time>
      </trkpt>
      <trkpt lat="45.65379" lon="5.72684">
        <ele>703.40002441406</ele>
        <time>2012-11-24T09:00:50Z</time>
      </trkpt>
      <trkpt lat="45.65397" lon="5.72693">
        <ele>703.19995117188</ele>
        <time>2012-11-24T09:01:06Z</time>
      </trkpt>
      <trkpt lat="45.65408" lon="5.72692">
        <ele>702.40002441406</ele>
        <time>2012-11-24T09:01:13Z</time>
      </trkpt>
      <trkpt lat="45.65417" lon="5.72691">
        <ele>701.59997558594</ele>
        <time>2012-11-24T09:01:19Z</time>
      </trkpt>
      <trkpt lat="45.65426" lon="5.72691">
        <ele>701.19995117188</ele>
        <time>2012-11-24T09:01:25Z</time>
      </trkpt>
      <trkpt lat="45.65435" lon="5.7269">
        <ele>700.80004882812</ele>
        <time>2012-11-24T09:01:32Z</time>
      </trkpt>
      <trkpt lat="45.65445" lon="5.7269">
        <ele>701.80004882812</ele>
        <time>2012-11-24T09:01:39Z</time>
      </trkpt>
      <trkpt lat="45.65456" lon="5.7269">
        <ele>701.30004882812</ele>
        <time>2012-11-24T09:01:46Z</time>
      </trkpt>
      <trkpt lat="45.65476" lon="5.7269">
        <ele>701.40002441406</ele>
        <time>2012-11-24T09:02:00Z</time>
      </trkpt>
      <trkpt lat="45.65485" lon="5.72692">
        <ele>700.59997558594</ele>
        <time>2012-11-24T09:02:07Z</time>
      </trkpt>
      <trkpt lat="45.65495" lon="5.72696">
        <ele>700.40002441406</ele>
        <time>2012-11-24T09:02:14Z</time>
      </trkpt>
      <trkpt lat="45.65504" lon="5.72699">
        <ele>700.09997558594</ele>
        <time>2012-11-24T09:02:21Z</time>
      </trkpt>
      <trkpt lat="45.65514" lon="5.72703">
        <ele>699.5</ele>
        <time>2012-11-24T09:02:28Z</time>
      </trkpt>
      <trkpt lat="45.65523" lon="5.72708">
        <ele>698.59997558594</ele>
        <time>2012-11-24T09:02:35Z</time>
      </trkpt>
      <trkpt lat="45.65532" lon="5.72713">
        <ele>698.59997558594</ele>
        <time>2012-11-24T09:02:42Z</time>
      </trkpt>
      <trkpt lat="45.65541" lon="5.7272">
        <ele>698.90002441406</ele>
        <time>2012-11-24T09:02:49Z</time>
      </trkpt>
      <trkpt lat="45.65561" lon="5.7275">
        <ele>697.5</ele>
        <time>2012-11-24T09:03:10Z</time>
      </trkpt>
      <trkpt lat="45.65571" lon="5.72775">
        <ele>696.19995117188</ele>
        <time>2012-11-24T09:03:25Z</time>
      </trkpt>
      <trkpt lat="45.65584" lon="5.72796">
        <ele>696.19995117188</ele>
        <time>2012-11-24T09:03:38Z</time>
      </trkpt>
      <trkpt lat="45.65599" lon="5.72815">
        <ele>694.09997558594</ele>
        <time>2012-11-24T09:03:52Z</time>
      </trkpt>
      <trkpt lat="45.65613" lon="5.72832">
        <ele>693.40002441406</ele>
        <time>2012-11-24T09:04:05Z</time>
      </trkpt>
      <trkpt lat="45.65626" lon="5.7285">
        <ele>691.5</ele>
        <time>2012-11-24T09:04:17Z</time>
      </trkpt>
      <trkpt lat="45.65639" lon="5.72876">
        <ele>688.90002441406</ele>
        <time>2012-11-24T09:04:28Z</time>
      </trkpt>
      <trkpt lat="45.65649" lon="5.72905">
        <ele>688.59997558594</ele>
        <time>2012-11-24T09:04:36Z</time>
      </trkpt>
      <trkpt lat="45.65658" lon="5.72929">
        <ele>688.09997558594</ele>
        <time>2012-11-24T09:04:47Z</time>
      </trkpt>
      <trkpt lat="45.65668" lon="5.72954">
        <ele>687.69995117188</ele>
        <time>2012-11-24T09:05:01Z</time>
      </trkpt>
      <trkpt lat="45.65682" lon="5.72973">
        <ele>686.19995117188</ele>
        <time>2012-11-24T09:05:15Z</time>
      </trkpt>
      <trkpt lat="45.65696" lon="5.72992">
        <ele>685.40002441406</ele>
        <time>2012-11-24T09:05:29Z</time>
      </trkpt>
      <trkpt lat="45.65711" lon="5.73011">
        <ele>684.59997558594</ele>
        <time>2012-11-24T09:05:43Z</time>
      </trkpt>
      <trkpt lat="45.65718" lon="5.73021">
        <ele>684.59997558594</ele>
        <time>2012-11-24T09:05:50Z</time>
      </trkpt>
      <trkpt lat="45.65733" lon="5.73038">
        <ele>683.09997558594</ele>
        <time>2012-11-24T09:06:03Z</time>
      </trkpt>
      <trkpt lat="45.65741" lon="5.73046">
        <ele>683.19995117188</ele>
        <time>2012-11-24T09:06:10Z</time>
      </trkpt>
      <trkpt lat="45.65749" lon="5.73054">
        <ele>681.90002441406</ele>
        <time>2012-11-24T09:06:17Z</time>
      </trkpt>
      <trkpt lat="45.65756" lon="5.73061">
        <ele>681.40002441406</ele>
        <time>2012-11-24T09:06:23Z</time>
      </trkpt>
      <trkpt lat="45.65763" lon="5.7307">
        <ele>680.90002441406</ele>
        <time>2012-11-24T09:06:29Z</time>
      </trkpt>
      <trkpt lat="45.65778" lon="5.73089">
        <ele>680.19995117188</ele>
        <time>2012-11-24T09:06:44Z</time>
      </trkpt>
      <trkpt lat="45.65786" lon="5.73094">
        <ele>679.69995117188</ele>
        <time>2012-11-24T09:06:51Z</time>
      </trkpt>
      <trkpt lat="45.65795" lon="5.731">
        <ele>678.5</ele>
        <time>2012-11-24T09:07:52Z</time>
      </trkpt>
      <trkpt lat="45.65804" lon="5.73108">
        <ele>679.30004882812</ele>
        <time>2012-11-24T09:08:00Z</time>
      </trkpt>
      <trkpt lat="45.65813" lon="5.73114">
        <ele>680.30004882812</ele>
        <time>2012-11-24T09:08:08Z</time>
      </trkpt>
      <trkpt lat="45.65822" lon="5.7312">
        <ele>681.19995117188</ele>
        <time>2012-11-24T09:08:17Z</time>
      </trkpt>
      <trkpt lat="45.6584" lon="5.73131">
        <ele>681.90002441406</ele>
        <time>2012-11-24T09:08:30Z</time>
      </trkpt>
      <trkpt lat="45.65849" lon="5.73135">
        <ele>683.09997558594</ele>
        <time>2012-11-24T09:08:36Z</time>
      </trkpt>
      <trkpt lat="45.65858" lon="5.7314">
        <ele>686.80004882812</ele>
        <time>2012-11-24T09:08:43Z</time>
      </trkpt>
      <trkpt lat="45.65868" lon="5.73144">
        <ele>687.5</ele>
        <time>2012-11-24T09:08:50Z</time>
      </trkpt>
      <trkpt lat="45.65878" lon="5.73149">
        <ele>687.59997558594</ele>
        <time>2012-11-24T09:08:57Z</time>
      </trkpt>
      <trkpt lat="45.65886" lon="5.73154">
        <ele>686.69995117188</ele>
        <time>2012-11-24T09:09:04Z</time>
      </trkpt>
      <trkpt lat="45.65894" lon="5.73162">
        <ele>685.80004882812</ele>
        <time>2012-11-24T09:09:11Z</time>
      </trkpt>
      <trkpt lat="45.65901" lon="5.73171">
        <ele>683.40002441406</ele>
        <time>2012-11-24T09:09:18Z</time>
      </trkpt>
      <trkpt lat="45.65908" lon="5.73181">
        <ele>681.19995117188</ele>
        <time>2012-11-24T09:09:25Z</time>
      </trkpt>
      <trkpt lat="45.65915" lon="5.73191">
        <ele>679.40002441406</ele>
        <time>2012-11-24T09:09:32Z</time>
      </trkpt>
      <trkpt lat="45.65922" lon="5.73201">
        <ele>676</ele>
        <time>2012-11-24T09:09:39Z</time>
      </trkpt>
      <trkpt lat="45.65929" lon="5.73211">
        <ele>674.19995117188</ele>
        <time>2012-11-24T09:09:46Z</time>
      </trkpt>
      <trkpt lat="45.65934" lon="5.73223">
        <ele>671.59997558594</ele>
        <time>2012-11-24T09:09:53Z</time>
      </trkpt>
      <trkpt lat="45.65936" lon="5.73237">
        <ele>669.69995117188</ele>
        <time>2012-11-24T09:10:00Z</time>
      </trkpt>
      <trkpt lat="45.6594" lon="5.73249">
        <ele>668.59997558594</ele>
        <time>2012-11-24T09:10:07Z</time>
      </trkpt>
      <trkpt lat="45.65946" lon="5.73261">
        <ele>666.69995117188</ele>
        <time>2012-11-24T09:10:15Z</time>
      </trkpt>
      <trkpt lat="45.65952" lon="5.73271">
        <ele>665.59997558594</ele>
        <time>2012-11-24T09:10:21Z</time>
      </trkpt>
      <trkpt lat="45.65959" lon="5.7328">
        <ele>664.80004882812</ele>
        <time>2012-11-24T09:10:27Z</time>
      </trkpt>
      <trkpt lat="45.65966" lon="5.73291">
        <ele>663.30004882812</ele>
        <time>2012-11-24T09:10:34Z</time>
      </trkpt>
      <trkpt lat="45.65974" lon="5.73298">
        <ele>662.19995117188</ele>
        <time>2012-11-24T09:10:40Z</time>
      </trkpt>
      <trkpt lat="45.65981" lon="5.73308">
        <ele>662.5</ele>
        <time>2012-11-24T09:10:47Z</time>
      </trkpt>
      <trkpt lat="45.65986" lon="5.7332">
        <ele>661.19995117188</ele>
        <time>2012-11-24T09:10:54Z</time>
      </trkpt>
      <trkpt lat="45.6599" lon="5.73333">
        <ele>659.90002441406</ele>
        <time>2012-11-24T09:11:01Z</time>
      </trkpt>
      <trkpt lat="45.65997" lon="5.73345">
        <ele>658.90002441406</ele>
        <time>2012-11-24T09:11:08Z</time>
      </trkpt>
      <trkpt lat="45.66003" lon="5.73357">
        <ele>659.09997558594</ele>
        <time>2012-11-24T09:11:15Z</time>
      </trkpt>
      <trkpt lat="45.66011" lon="5.73366">
        <ele>658.09997558594</ele>
        <time>2012-11-24T09:11:22Z</time>
      </trkpt>
      <trkpt lat="45.66019" lon="5.73373">
        <ele>659</ele>
        <time>2012-11-24T09:11:30Z</time>
      </trkpt>
      <trkpt lat="45.66028" lon="5.73379">
        <ele>659.5</ele>
        <time>2012-11-24T09:11:37Z</time>
      </trkpt>
      <trkpt lat="45.66036" lon="5.73389">
        <ele>658.80004882812</ele>
        <time>2012-11-24T09:11:45Z</time>
      </trkpt>
      <trkpt lat="45.66041" lon="5.734">
        <ele>656</ele>
        <time>2012-11-24T09:11:51Z</time>
      </trkpt>
      <trkpt lat="45.66046" lon="5.7341">
        <ele>654.59997558594</ele>
        <time>2012-11-24T09:11:57Z</time>
      </trkpt>
      <trkpt lat="45.66051" lon="5.73421">
        <ele>652.09997558594</ele>
        <time>2012-11-24T09:12:03Z</time>
      </trkpt>
      <trkpt lat="45.6606" lon="5.73447">
        <ele>646.19995117188</ele>
        <time>2012-11-24T09:12:17Z</time>
      </trkpt>
      <trkpt lat="45.66065" lon="5.73458">
        <ele>645.59997558594</ele>
        <time>2012-11-24T09:12:25Z</time>
      </trkpt>
      <trkpt lat="45.66072" lon="5.73468">
        <ele>644.5</ele>
        <time>2012-11-24T09:12:43Z</time>
      </trkpt>
      <trkpt lat="45.66079" lon="5.73475">
        <ele>643.59997558594</ele>
        <time>2012-11-24T09:12:50Z</time>
      </trkpt>
      <trkpt lat="45.66087" lon="5.73482">
        <ele>643.30004882812</ele>
        <time>2012-11-24T09:12:57Z</time>
      </trkpt>
      <trkpt lat="45.66095" lon="5.7349">
        <ele>642.09997558594</ele>
        <time>2012-11-24T09:13:04Z</time>
      </trkpt>
      <trkpt lat="45.66103" lon="5.73497">
        <ele>641.19995117188</ele>
        <time>2012-11-24T09:13:12Z</time>
      </trkpt>
      <trkpt lat="45.66112" lon="5.73505">
        <ele>640</ele>
        <time>2012-11-24T09:13:19Z</time>
      </trkpt>
      <trkpt lat="45.66121" lon="5.73512">
        <ele>638.5</ele>
        <time>2012-11-24T09:13:26Z</time>
      </trkpt>
      <trkpt lat="45.66129" lon="5.73519">
        <ele>636.90002441406</ele>
        <time>2012-11-24T09:13:33Z</time>
      </trkpt>
      <trkpt lat="45.66138" lon="5.73526">
        <ele>635.40002441406</ele>
        <time>2012-11-24T09:13:40Z</time>
      </trkpt>
      <trkpt lat="45.66146" lon="5.73532">
        <ele>634.19995117188</ele>
        <time>2012-11-24T09:13:46Z</time>
      </trkpt>
      <trkpt lat="45.66155" lon="5.73537">
        <ele>633.59997558594</ele>
        <time>2012-11-24T09:13:53Z</time>
      </trkpt>
      <trkpt lat="45.66164" lon="5.73543">
        <ele>633</ele>
        <time>2012-11-24T09:14:00Z</time>
      </trkpt>
      <trkpt lat="45.66174" lon="5.73547">
        <ele>631</ele>
        <time>2012-11-24T09:14:07Z</time>
      </trkpt>
      <trkpt lat="45.66183" lon="5.73551">
        <ele>628.40002441406</ele>
        <time>2012-11-24T09:14:14Z</time>
      </trkpt>
      <trkpt lat="45.66193" lon="5.73548">
        <ele>620.30004882812</ele>
        <time>2012-11-24T09:15:46Z</time>
      </trkpt>
      <trkpt lat="45.66212" lon="5.73556">
        <ele>618.40002441406</ele>
        <time>2012-11-24T09:19:08Z</time>
      </trkpt>
      <trkpt lat="45.66219" lon="5.73566">
        <ele>617.19995117188</ele>
        <time>2012-11-24T09:19:15Z</time>
      </trkpt>
      <trkpt lat="45.66224" lon="5.73579">
        <ele>616.09997558594</ele>
        <time>2012-11-24T09:19:22Z</time>
      </trkpt>
      <trkpt lat="45.66227" lon="5.73591">
        <ele>615.80004882812</ele>
        <time>2012-11-24T09:19:28Z</time>
      </trkpt>
      <trkpt lat="45.6623" lon="5.73604">
        <ele>615.59997558594</ele>
        <time>2012-11-24T09:19:34Z</time>
      </trkpt>
      <trkpt lat="45.66232" lon="5.73619">
        <ele>614.59997558594</ele>
        <time>2012-11-24T09:19:41Z</time>
      </trkpt>
      <trkpt lat="45.66233" lon="5.73632">
        <ele>613.09997558594</ele>
        <time>2012-11-24T09:19:48Z</time>
      </trkpt>
      <trkpt lat="45.66235" lon="5.73646">
        <ele>611.90002441406</ele>
        <time>2012-11-24T09:19:55Z</time>
      </trkpt>
      <trkpt lat="45.66234" lon="5.7366">
        <ele>611.5</ele>
        <time>2012-11-24T09:20:01Z</time>
      </trkpt>
      <trkpt lat="45.66233" lon="5.73674">
        <ele>611.19995117188</ele>
        <time>2012-11-24T09:20:08Z</time>
      </trkpt>
      <trkpt lat="45.66226" lon="5.73701">
        <ele>608.19995117188</ele>
        <time>2012-11-24T09:20:20Z</time>
      </trkpt>
      <trkpt lat="45.66223" lon="5.73714">
        <ele>607.40002441406</ele>
        <time>2012-11-24T09:20:23Z</time>
      </trkpt>
      <trkpt lat="45.6622" lon="5.73747">
        <ele>606.69995117188</ele>
        <time>2012-11-24T09:20:28Z</time>
      </trkpt>
      <trkpt lat="45.66226" lon="5.73776">
        <ele>606.40002441406</ele>
        <time>2012-11-24T09:20:32Z</time>
      </trkpt>
      <trkpt lat="45.6623" lon="5.73807">
        <ele>606.09997558594</ele>
        <time>2012-11-24T09:20:36Z</time>
      </trkpt>
      <trkpt lat="45.66228" lon="5.73826">
        <ele>605.69995117188</ele>
        <time>2012-11-24T09:20:38Z</time>
      </trkpt>
      <trkpt lat="45.66227" lon="5.73846">
        <ele>605.30004882812</ele>
        <time>2012-11-24T09:20:40Z</time>
      </trkpt>
      <trkpt lat="45.66227" lon="5.73866">
        <ele>605.59997558594</ele>
        <time>2012-11-24T09:20:42Z</time>
      </trkpt>
      <trkpt lat="45.66226" lon="5.73884">
        <ele>606.09997558594</ele>
        <time>2012-11-24T09:20:44Z</time>
      </trkpt>
      <trkpt lat="45.66223" lon="5.73899">
        <ele>606</ele>
        <time>2012-11-24T09:20:46Z</time>
      </trkpt>
      <trkpt lat="45.6622" lon="5.73911">
        <ele>606.80004882812</ele>
        <time>2012-11-24T09:20:48Z</time>
      </trkpt>
      <trkpt lat="45.66213" lon="5.73927">
        <ele>607.59997558594</ele>
        <time>2012-11-24T09:20:51Z</time>
      </trkpt>
      <trkpt lat="45.66207" lon="5.73939">
        <ele>608.30004882812</ele>
        <time>2012-11-24T09:20:54Z</time>
      </trkpt>
      <trkpt lat="45.66201" lon="5.7395">
        <ele>609.09997558594</ele>
        <time>2012-11-24T09:20:58Z</time>
      </trkpt>
      <trkpt lat="45.66194" lon="5.7396">
        <ele>610.90002441406</ele>
        <time>2012-11-24T09:21:04Z</time>
      </trkpt>
      <trkpt lat="45.66189" lon="5.7397">
        <ele>611.5</ele>
        <time>2012-11-24T09:21:11Z</time>
      </trkpt>
      <trkpt lat="45.66183" lon="5.73982">
        <ele>611.90002441406</ele>
        <time>2012-11-24T09:21:19Z</time>
      </trkpt>
      <trkpt lat="45.66176" lon="5.7399">
        <ele>611.90002441406</ele>
        <time>2012-11-24T09:21:26Z</time>
      </trkpt>
      <trkpt lat="45.66168" lon="5.73999">
        <ele>610.90002441406</ele>
        <time>2012-11-24T09:21:34Z</time>
      </trkpt>
      <trkpt lat="45.66159" lon="5.74006">
        <ele>609.5</ele>
        <time>2012-11-24T09:21:41Z</time>
      </trkpt>
      <trkpt lat="45.66151" lon="5.74011">
        <ele>608.59997558594</ele>
        <time>2012-11-24T09:21:48Z</time>
      </trkpt>
      <trkpt lat="45.66142" lon="5.74016">
        <ele>607.80004882812</ele>
        <time>2012-11-24T09:21:55Z</time>
      </trkpt>
      <trkpt lat="45.66133" lon="5.74021">
        <ele>606.69995117188</ele>
        <time>2012-11-24T09:22:01Z</time>
      </trkpt>
      <trkpt lat="45.66125" lon="5.74028">
        <ele>605.69995117188</ele>
        <time>2012-11-24T09:22:07Z</time>
      </trkpt>
      <trkpt lat="45.66117" lon="5.74035">
        <ele>604.40002441406</ele>
        <time>2012-11-24T09:22:13Z</time>
      </trkpt>
      <trkpt lat="45.66107" lon="5.74041">
        <ele>603.09997558594</ele>
        <time>2012-11-24T09:22:20Z</time>
      </trkpt>
      <trkpt lat="45.66098" lon="5.74047">
        <ele>600.90002441406</ele>
        <time>2012-11-24T09:22:27Z</time>
      </trkpt>
      <trkpt lat="45.66088" lon="5.74052">
        <ele>598.5</ele>
        <time>2012-11-24T09:22:34Z</time>
      </trkpt>
      <trkpt lat="45.66079" lon="5.74056">
        <ele>597.40002441406</ele>
        <time>2012-11-24T09:22:41Z</time>
      </trkpt>
      <trkpt lat="45.6607" lon="5.74063">
        <ele>594.90002441406</ele>
        <time>2012-11-24T09:22:48Z</time>
      </trkpt>
      <trkpt lat="45.66055" lon="5.74083">
        <ele>590.80004882812</ele>
        <time>2012-11-24T09:23:01Z</time>
      </trkpt>
      <trkpt lat="45.66049" lon="5.74094">
        <ele>589.40002441406</ele>
        <time>2012-11-24T09:23:07Z</time>
      </trkpt>
      <trkpt lat="45.66045" lon="5.74106">
        <ele>588</ele>
        <time>2012-11-24T09:23:13Z</time>
      </trkpt>
      <trkpt lat="45.66043" lon="5.74119">
        <ele>586.80004882812</ele>
        <time>2012-11-24T09:23:18Z</time>
      </trkpt>
      <trkpt lat="45.66041" lon="5.74133">
        <ele>584.90002441406</ele>
        <time>2012-11-24T09:23:24Z</time>
      </trkpt>
      <trkpt lat="45.66039" lon="5.74147">
        <ele>583.40002441406</ele>
        <time>2012-11-24T09:23:30Z</time>
      </trkpt>
      <trkpt lat="45.66036" lon="5.7416">
        <ele>581.59997558594</ele>
        <time>2012-11-24T09:23:36Z</time>
      </trkpt>
      <trkpt lat="45.66034" lon="5.74174">
        <ele>579.90002441406</ele>
        <time>2012-11-24T09:23:43Z</time>
      </trkpt>
      <trkpt lat="45.66035" lon="5.74187">
        <ele>577.90002441406</ele>
        <time>2012-11-24T09:24:00Z</time>
      </trkpt>
      <trkpt lat="45.66029" lon="5.74198">
        <ele>576.19995117188</ele>
        <time>2012-11-24T09:24:54Z</time>
      </trkpt>
      <trkpt lat="45.66025" lon="5.74211">
        <ele>575.59997558594</ele>
        <time>2012-11-24T09:25:04Z</time>
      </trkpt>
      <trkpt lat="45.66022" lon="5.74223">
        <ele>574.19995117188</ele>
        <time>2012-11-24T09:25:11Z</time>
      </trkpt>
      <trkpt lat="45.66018" lon="5.74236">
        <ele>572.5</ele>
        <time>2012-11-24T09:25:18Z</time>
      </trkpt>
      <trkpt lat="45.66011" lon="5.74263">
        <ele>567.19995117188</ele>
        <time>2012-11-24T09:25:58Z</time>
      </trkpt>
      <trkpt lat="45.66006" lon="5.74274">
        <ele>564</ele>
        <time>2012-11-24T09:27:26Z</time>
      </trkpt>
      <trkpt lat="45.66003" lon="5.74287">
        <ele>564.30004882812</ele>
        <time>2012-11-24T09:28:36Z</time>
      </trkpt>
      <trkpt lat="45.65999" lon="5.74299">
        <ele>562.80004882812</ele>
        <time>2012-11-24T09:28:51Z</time>
      </trkpt>
      <trkpt lat="45.65993" lon="5.7431">
        <ele>561</ele>
        <time>2012-11-24T09:28:59Z</time>
      </trkpt>
      <trkpt lat="45.65988" lon="5.74322">
        <ele>558.69995117188</ele>
        <time>2012-11-24T09:29:09Z</time>
      </trkpt>
      <trkpt lat="45.65983" lon="5.74333">
        <ele>556.19995117188</ele>
        <time>2012-11-24T09:29:19Z</time>
      </trkpt>
      <trkpt lat="45.65978" lon="5.74345">
        <ele>554.90002441406</ele>
        <time>2012-11-24T09:29:27Z</time>
      </trkpt>
      <trkpt lat="45.65972" lon="5.74356">
        <ele>553.80004882812</ele>
        <time>2012-11-24T09:29:33Z</time>
      </trkpt>
      <trkpt lat="45.65964" lon="5.74364">
        <ele>552.5</ele>
        <time>2012-11-24T09:29:40Z</time>
      </trkpt>
      <trkpt lat="45.65955" lon="5.74369">
        <ele>552</ele>
        <time>2012-11-24T09:29:48Z</time>
      </trkpt>
      <trkpt lat="45.65946" lon="5.74373">
        <ele>551.40002441406</ele>
        <time>2012-11-24T09:29:56Z</time>
      </trkpt>
      <trkpt lat="45.65939" lon="5.74382">
        <ele>550.30004882812</ele>
        <time>2012-11-24T09:30:04Z</time>
      </trkpt>
      <trkpt lat="45.65933" lon="5.74392">
        <ele>549.09997558594</ele>
        <time>2012-11-24T09:30:12Z</time>
      </trkpt>
      <trkpt lat="45.65936" lon="5.74404">
        <ele>546</ele>
        <time>2012-11-24T09:31:35Z</time>
      </trkpt>
      <trkpt lat="45.65939" lon="5.74418">
        <ele>546</ele>
        <time>2012-11-24T09:31:43Z</time>
      </trkpt>
      <trkpt lat="45.65943" lon="5.7443">
        <ele>545.59997558594</ele>
        <time>2012-11-24T09:31:50Z</time>
      </trkpt>
      <trkpt lat="45.6595" lon="5.74441">
        <ele>545.40002441406</ele>
        <time>2012-11-24T09:31:57Z</time>
      </trkpt>
      <trkpt lat="45.65957" lon="5.74451">
        <ele>545</ele>
        <time>2012-11-24T09:32:04Z</time>
      </trkpt>
      <trkpt lat="45.65963" lon="5.74463">
        <ele>544.69995117188</ele>
        <time>2012-11-24T09:32:11Z</time>
      </trkpt>
      <trkpt lat="45.65968" lon="5.74476">
        <ele>544.69995117188</ele>
        <time>2012-11-24T09:32:18Z</time>
      </trkpt>
      <trkpt lat="45.65975" lon="5.74485">
        <ele>544</ele>
        <time>2012-11-24T09:32:24Z</time>
      </trkpt>
      <trkpt lat="45.65983" lon="5.74493">
        <ele>542.69995117188</ele>
        <time>2012-11-24T09:32:31Z</time>
      </trkpt>
      <trkpt lat="45.65999" lon="5.74509">
        <ele>541.69995117188</ele>
        <time>2012-11-24T09:32:44Z</time>
      </trkpt>
      <trkpt lat="45.66019" lon="5.74517">
        <ele>541.19995117188</ele>
        <time>2012-11-24T09:32:57Z</time>
      </trkpt>
      <trkpt lat="45.66039" lon="5.7452">
        <ele>540.5</ele>
        <time>2012-11-24T09:33:11Z</time>
      </trkpt>
      <trkpt lat="45.66049" lon="5.74519">
        <ele>540.09997558594</ele>
        <time>2012-11-24T09:33:17Z</time>
      </trkpt>
      <trkpt lat="45.66058" lon="5.74519">
        <ele>540.19995117188</ele>
        <time>2012-11-24T09:33:23Z</time>
      </trkpt>
      <trkpt lat="45.66068" lon="5.74518">
        <ele>539.30004882812</ele>
        <time>2012-11-24T09:33:30Z</time>
      </trkpt>
      <trkpt lat="45.66077" lon="5.74518">
        <ele>540.90002441406</ele>
        <time>2012-11-24T09:33:36Z</time>
      </trkpt>
      <trkpt lat="45.66087" lon="5.74523">
        <ele>542.09997558594</ele>
        <time>2012-11-24T09:33:43Z</time>
      </trkpt>
      <trkpt lat="45.66096" lon="5.74525">
        <ele>542.69995117188</ele>
        <time>2012-11-24T09:33:49Z</time>
      </trkpt>
      <trkpt lat="45.66105" lon="5.74528">
        <ele>543.09997558594</ele>
        <time>2012-11-24T09:33:55Z</time>
      </trkpt>
      <trkpt lat="45.66114" lon="5.74531">
        <ele>543.90002441406</ele>
        <time>2012-11-24T09:34:02Z</time>
      </trkpt>
      <trkpt lat="45.66124" lon="5.74534">
        <ele>544</ele>
        <time>2012-11-24T09:34:09Z</time>
      </trkpt>
      <trkpt lat="45.66134" lon="5.74538">
        <ele>545.09997558594</ele>
        <time>2012-11-24T09:34:16Z</time>
      </trkpt>
      <trkpt lat="45.66144" lon="5.74541">
        <ele>545.19995117188</ele>
        <time>2012-11-24T09:34:22Z</time>
      </trkpt>
      <trkpt lat="45.66153" lon="5.74544">
        <ele>545.09997558594</ele>
        <time>2012-11-24T09:34:28Z</time>
      </trkpt>
      <trkpt lat="45.66162" lon="5.74547">
        <ele>546</ele>
        <time>2012-11-24T09:34:34Z</time>
      </trkpt>
      <trkpt lat="45.66173" lon="5.74548">
        <ele>546.40002441406</ele>
        <time>2012-11-24T09:34:40Z</time>
      </trkpt>
      <trkpt lat="45.66194" lon="5.7455">
        <ele>547.09997558594</ele>
        <time>2012-11-24T09:34:51Z</time>
      </trkpt>
      <trkpt lat="45.66212" lon="5.7455">
        <ele>548.09997558594</ele>
        <time>2012-11-24T09:35:03Z</time>
      </trkpt>
      <trkpt lat="45.66231" lon="5.74552">
        <ele>549.19995117188</ele>
        <time>2012-11-24T09:35:15Z</time>
      </trkpt>
      <trkpt lat="45.6625" lon="5.74556">
        <ele>549</ele>
        <time>2012-11-24T09:35:29Z</time>
      </trkpt>
      <trkpt lat="45.66269" lon="5.74556">
        <ele>550.09997558594</ele>
        <time>2012-11-24T09:35:42Z</time>
      </trkpt>
      <trkpt lat="45.66287" lon="5.74557">
        <ele>549.5</ele>
        <time>2012-11-24T09:35:59Z</time>
      </trkpt>
      <trkpt lat="45.66307" lon="5.74559">
        <ele>550</ele>
        <time>2012-11-24T09:36:12Z</time>
      </trkpt>
      <trkpt lat="45.66327" lon="5.74559">
        <ele>550.09997558594</ele>
        <time>2012-11-24T09:36:25Z</time>
      </trkpt>
      <trkpt lat="45.66338" lon="5.74559">
        <ele>550.19995117188</ele>
        <time>2012-11-24T09:36:32Z</time>
      </trkpt>
      <trkpt lat="45.66356" lon="5.74557">
        <ele>550.5</ele>
        <time>2012-11-24T09:36:46Z</time>
      </trkpt>
      <trkpt lat="45.66376" lon="5.74554">
        <ele>550.59997558594</ele>
        <time>2012-11-24T09:37:00Z</time>
      </trkpt>
      <trkpt lat="45.66393" lon="5.74543">
        <ele>550.19995117188</ele>
        <time>2012-11-24T09:37:13Z</time>
      </trkpt>
      <trkpt lat="45.66411" lon="5.74548">
        <ele>549.80004882812</ele>
        <time>2012-11-24T09:37:31Z</time>
      </trkpt>
      <trkpt lat="45.66427" lon="5.7456">
        <ele>549.19995117188</ele>
        <time>2012-11-24T09:37:42Z</time>
      </trkpt>
      <trkpt lat="45.66446" lon="5.7457">
        <ele>550.19995117188</ele>
        <time>2012-11-24T09:37:57Z</time>
      </trkpt>
      <trkpt lat="45.66468" lon="5.74597">
        <ele>550.59997558594</ele>
        <time>2012-11-24T09:38:20Z</time>
      </trkpt>
      <trkpt lat="45.66491" lon="5.7462">
        <ele>548.59997558594</ele>
        <time>2012-11-24T09:38:40Z</time>
      </trkpt>
      <trkpt lat="45.66515" lon="5.74645">
        <ele>548.09997558594</ele>
        <time>2012-11-24T09:38:59Z</time>
      </trkpt>
      <trkpt lat="45.66514" lon="5.74671">
        <ele>547.80004882812</ele>
        <time>2012-11-24T09:39:11Z</time>
      </trkpt>
      <trkpt lat="45.66512" lon="5.74685">
        <ele>547.19995117188</ele>
        <time>2012-11-24T09:39:18Z</time>
      </trkpt>
      <trkpt lat="45.66513" lon="5.74711">
        <ele>546.19995117188</ele>
        <time>2012-11-24T09:39:35Z</time>
      </trkpt>
      <trkpt lat="45.66513" lon="5.74739">
        <ele>545.40002441406</ele>
        <time>2012-11-24T09:39:50Z</time>
      </trkpt>
      <trkpt lat="45.66514" lon="5.74766">
        <ele>544.19995117188</ele>
        <time>2012-11-24T09:40:05Z</time>
      </trkpt>
      <trkpt lat="45.66513" lon="5.74794">
        <ele>542.19995117188</ele>
        <time>2012-11-24T09:40:19Z</time>
      </trkpt>
      <trkpt lat="45.66514" lon="5.74822">
        <ele>537</ele>
        <time>2012-11-24T09:40:35Z</time>
      </trkpt>
      <trkpt lat="45.66514" lon="5.74848">
        <ele>535.40002441406</ele>
        <time>2012-11-24T09:40:50Z</time>
      </trkpt>
      <trkpt lat="45.66515" lon="5.74862">
        <ele>531.30004882812</ele>
        <time>2012-11-24T09:40:58Z</time>
      </trkpt>
      <trkpt lat="45.66524" lon="5.74885">
        <ele>526.30004882812</ele>
        <time>2012-11-24T09:41:12Z</time>
      </trkpt>
      <trkpt lat="45.66529" lon="5.74911">
        <ele>524.40002441406</ele>
        <time>2012-11-24T09:41:26Z</time>
      </trkpt>
      <trkpt lat="45.66531" lon="5.74924">
        <ele>523.79998779297</ele>
        <time>2012-11-24T09:41:33Z</time>
      </trkpt>
      <trkpt lat="45.66532" lon="5.74938">
        <ele>523.09997558594</ele>
        <time>2012-11-24T09:41:40Z</time>
      </trkpt>
      <trkpt lat="45.66533" lon="5.74951">
        <ele>521.79998779297</ele>
        <time>2012-11-24T09:41:47Z</time>
      </trkpt>
      <trkpt lat="45.66534" lon="5.74964">
        <ele>521.90002441406</ele>
        <time>2012-11-24T09:41:53Z</time>
      </trkpt>
      <trkpt lat="45.66536" lon="5.74977">
        <ele>521.79998779297</ele>
        <time>2012-11-24T09:41:59Z</time>
      </trkpt>
      <trkpt lat="45.66539" lon="5.74991">
        <ele>521.5</ele>
        <time>2012-11-24T09:42:06Z</time>
      </trkpt>
      <trkpt lat="45.66543" lon="5.75003">
        <ele>521.90002441406</ele>
        <time>2012-11-24T09:42:12Z</time>
      </trkpt>
      <trkpt lat="45.6655" lon="5.75014">
        <ele>522.09997558594</ele>
        <time>2012-11-24T09:42:19Z</time>
      </trkpt>
      <trkpt lat="45.66563" lon="5.75035">
        <ele>522.29998779297</ele>
        <time>2012-11-24T09:42:33Z</time>
      </trkpt>
      <trkpt lat="45.66569" lon="5.75046">
        <ele>522.5</ele>
        <time>2012-11-24T09:42:40Z</time>
      </trkpt>
      <trkpt lat="45.66575" lon="5.75057">
        <ele>523.90002441406</ele>
        <time>2012-11-24T09:42:47Z</time>
      </trkpt>
      <trkpt lat="45.66581" lon="5.75068">
        <ele>525.09997558594</ele>
        <time>2012-11-24T09:42:54Z</time>
      </trkpt>
      <trkpt lat="45.66585" lon="5.7508">
        <ele>528.90002441406</ele>
        <time>2012-11-24T09:50:32Z</time>
      </trkpt>
      <trkpt lat="45.66592" lon="5.7509">
        <ele>528.59997558594</ele>
        <time>2012-11-24T09:50:44Z</time>
      </trkpt>
      <trkpt lat="45.66606" lon="5.75108">
        <ele>527.40002441406</ele>
        <time>2012-11-24T09:50:58Z</time>
      </trkpt>
      <trkpt lat="45.66618" lon="5.75128">
        <ele>526.69995117188</ele>
        <time>2012-11-24T09:51:13Z</time>
      </trkpt>
      <trkpt lat="45.66631" lon="5.75149">
        <ele>525.30004882812</ele>
        <time>2012-11-24T09:51:26Z</time>
      </trkpt>
      <trkpt lat="45.66646" lon="5.75167">
        <ele>523.90002441406</ele>
        <time>2012-11-24T09:51:40Z</time>
      </trkpt>
      <trkpt lat="45.66659" lon="5.75188">
        <ele>522.90002441406</ele>
        <time>2012-11-24T09:51:55Z</time>
      </trkpt>
      <trkpt lat="45.66672" lon="5.75206">
        <ele>520.90002441406</ele>
        <time>2012-11-24T09:52:09Z</time>
      </trkpt>
      <trkpt lat="45.66687" lon="5.75224">
        <ele>517.70001220703</ele>
        <time>2012-11-24T09:52:25Z</time>
      </trkpt>
      <trkpt lat="45.66702" lon="5.75242">
        <ele>514.5</ele>
        <time>2012-11-24T09:52:43Z</time>
      </trkpt>
      <trkpt lat="45.66715" lon="5.75261">
        <ele>511.90002441406</ele>
        <time>2012-11-24T09:53:00Z</time>
      </trkpt>
      <trkpt lat="45.66707" lon="5.75273">
        <ele>511</ele>
        <time>2012-11-24T09:53:05Z</time>
      </trkpt>
      <trkpt lat="45.66697" lon="5.7528">
        <ele>510.59997558594</ele>
        <time>2012-11-24T09:53:09Z</time>
      </trkpt>
      <trkpt lat="45.66689" lon="5.75284">
        <ele>510.40002441406</ele>
        <time>2012-11-24T09:53:15Z</time>
      </trkpt>
      <trkpt lat="45.66678" lon="5.75284">
        <ele>511</ele>
        <time>2012-11-24T09:53:22Z</time>
      </trkpt>
      <trkpt lat="45.66668" lon="5.75283">
        <ele>512.59997558594</ele>
        <time>2012-11-24T09:53:29Z</time>
      </trkpt>
      <trkpt lat="45.66659" lon="5.75281">
        <ele>513.09997558594</ele>
        <time>2012-11-24T09:53:36Z</time>
      </trkpt>
      <trkpt lat="45.66649" lon="5.75281">
        <ele>513.59997558594</ele>
        <time>2012-11-24T09:53:43Z</time>
      </trkpt>
      <trkpt lat="45.6664" lon="5.75281">
        <ele>514.40002441406</ele>
        <time>2012-11-24T09:53:50Z</time>
      </trkpt>
      <trkpt lat="45.6663" lon="5.75279">
        <ele>515.5</ele>
        <time>2012-11-24T09:53:57Z</time>
      </trkpt>
      <trkpt lat="45.6662" lon="5.75278">
        <ele>515.90002441406</ele>
        <time>2012-11-24T09:54:04Z</time>
      </trkpt>
      <trkpt lat="45.6661" lon="5.75277">
        <ele>515.5</ele>
        <time>2012-11-24T09:54:11Z</time>
      </trkpt>
      <trkpt lat="45.666" lon="5.75275">
        <ele>515.40002441406</ele>
        <time>2012-11-24T09:54:18Z</time>
      </trkpt>
      <trkpt lat="45.66591" lon="5.75273">
        <ele>515.59997558594</ele>
        <time>2012-11-24T09:54:25Z</time>
      </trkpt>
      <trkpt lat="45.66581" lon="5.7527">
        <ele>515.70001220703</ele>
        <time>2012-11-24T09:54:32Z</time>
      </trkpt>
      <trkpt lat="45.66571" lon="5.75273">
        <ele>515.5</ele>
        <time>2012-11-24T09:54:40Z</time>
      </trkpt>
      <trkpt lat="45.66562" lon="5.75277">
        <ele>515.09997558594</ele>
        <time>2012-11-24T09:54:48Z</time>
      </trkpt>
      <trkpt lat="45.66553" lon="5.75281">
        <ele>514.09997558594</ele>
        <time>2012-11-24T09:54:55Z</time>
      </trkpt>
      <trkpt lat="45.66543" lon="5.75286">
        <ele>514.29998779297</ele>
        <time>2012-11-24T09:55:03Z</time>
      </trkpt>
      <trkpt lat="45.66536" lon="5.75295">
        <ele>513.09997558594</ele>
        <time>2012-11-24T09:55:10Z</time>
      </trkpt>
      <trkpt lat="45.66528" lon="5.7532">
        <ele>508.40002441406</ele>
        <time>2012-11-24T09:55:23Z</time>
      </trkpt>
      <trkpt lat="45.66525" lon="5.75333">
        <ele>507.70001220703</ele>
        <time>2012-11-24T09:55:30Z</time>
      </trkpt>
      <trkpt lat="45.66521" lon="5.75347">
        <ele>507</ele>
        <time>2012-11-24T09:55:37Z</time>
      </trkpt>
      <trkpt lat="45.66516" lon="5.75361">
        <ele>507</ele>
        <time>2012-11-24T09:55:42Z</time>
      </trkpt>
      <trkpt lat="45.66511" lon="5.75374">
        <ele>507.29998779297</ele>
        <time>2012-11-24T09:55:46Z</time>
      </trkpt>
      <trkpt lat="45.66507" lon="5.75386">
        <ele>507</ele>
        <time>2012-11-24T09:55:53Z</time>
      </trkpt>
      <trkpt lat="45.66502" lon="5.75399">
        <ele>505.90002441406</ele>
        <time>2012-11-24T09:56:00Z</time>
      </trkpt>
      <trkpt lat="45.66497" lon="5.75412">
        <ele>504.90002441406</ele>
        <time>2012-11-24T09:56:07Z</time>
      </trkpt>
      <trkpt lat="45.66493" lon="5.75423">
        <ele>504.29998779297</ele>
        <time>2012-11-24T09:56:14Z</time>
      </trkpt>
      <trkpt lat="45.66488" lon="5.75436">
        <ele>504.20001220703</ele>
        <time>2012-11-24T09:56:21Z</time>
      </trkpt>
      <trkpt lat="45.66483" lon="5.75449">
        <ele>504</ele>
        <time>2012-11-24T09:56:28Z</time>
      </trkpt>
      <trkpt lat="45.66478" lon="5.75461">
        <ele>504.40002441406</ele>
        <time>2012-11-24T09:56:35Z</time>
      </trkpt>
      <trkpt lat="45.66471" lon="5.7547">
        <ele>504.20001220703</ele>
        <time>2012-11-24T09:56:42Z</time>
      </trkpt>
      <trkpt lat="45.6646" lon="5.75472">
        <ele>503.90002441406</ele>
        <time>2012-11-24T09:56:49Z</time>
      </trkpt>
      <trkpt lat="45.6645" lon="5.75468">
        <ele>503.40002441406</ele>
        <time>2012-11-24T09:56:56Z</time>
      </trkpt>
      <trkpt lat="45.66441" lon="5.75464">
        <ele>503.40002441406</ele>
        <time>2012-11-24T09:57:03Z</time>
      </trkpt>
      <trkpt lat="45.66432" lon="5.75458">
        <ele>504</ele>
        <time>2012-11-24T09:57:11Z</time>
      </trkpt>
      <trkpt lat="45.66423" lon="5.75454">
        <ele>504</ele>
        <time>2012-11-24T09:57:18Z</time>
      </trkpt>
      <trkpt lat="45.66414" lon="5.75448">
        <ele>503.09997558594</ele>
        <time>2012-11-24T09:57:25Z</time>
      </trkpt>
      <trkpt lat="45.66405" lon="5.75442">
        <ele>502.79998779297</ele>
        <time>2012-11-24T09:57:32Z</time>
      </trkpt>
      <trkpt lat="45.66397" lon="5.75436">
        <ele>502</ele>
        <time>2012-11-24T09:57:39Z</time>
      </trkpt>
      <trkpt lat="45.66387" lon="5.7543">
        <ele>501</ele>
        <time>2012-11-24T09:57:46Z</time>
      </trkpt>
      <trkpt lat="45.66379" lon="5.75425">
        <ele>500.20001220703</ele>
        <time>2012-11-24T09:57:53Z</time>
      </trkpt>
      <trkpt lat="45.6637" lon="5.75421">
        <ele>500.20001220703</ele>
        <time>2012-11-24T09:58:00Z</time>
      </trkpt>
      <trkpt lat="45.6636" lon="5.75416">
        <ele>499.90002441406</ele>
        <time>2012-11-24T09:58:07Z</time>
      </trkpt>
      <trkpt lat="45.66351" lon="5.75412">
        <ele>499.5</ele>
        <time>2012-11-24T09:58:14Z</time>
      </trkpt>
      <trkpt lat="45.66341" lon="5.75407">
        <ele>499.09997558594</ele>
        <time>2012-11-24T09:58:22Z</time>
      </trkpt>
      <trkpt lat="45.66331" lon="5.75406">
        <ele>497.40002441406</ele>
        <time>2012-11-24T09:58:29Z</time>
      </trkpt>
      <trkpt lat="45.66321" lon="5.75405">
        <ele>496.59997558594</ele>
        <time>2012-11-24T09:58:36Z</time>
      </trkpt>
      <trkpt lat="45.66311" lon="5.75405">
        <ele>495.59997558594</ele>
        <time>2012-11-24T09:58:43Z</time>
      </trkpt>
      <trkpt lat="45.66301" lon="5.75405">
        <ele>495.09997558594</ele>
        <time>2012-11-24T09:58:50Z</time>
      </trkpt>
      <trkpt lat="45.66291" lon="5.75405">
        <ele>493.59997558594</ele>
        <time>2012-11-24T09:58:57Z</time>
      </trkpt>
      <trkpt lat="45.66281" lon="5.75404">
        <ele>492.79998779297</ele>
        <time>2012-11-24T09:59:05Z</time>
      </trkpt>
      <trkpt lat="45.66272" lon="5.75406">
        <ele>491.79998779297</ele>
        <time>2012-11-24T09:59:12Z</time>
      </trkpt>
      <trkpt lat="45.66264" lon="5.75413">
        <ele>490.90002441406</ele>
        <time>2012-11-24T09:59:19Z</time>
      </trkpt>
      <trkpt lat="45.66262" lon="5.75427">
        <ele>490.09997558594</ele>
        <time>2012-11-24T09:59:26Z</time>
      </trkpt>
      <trkpt lat="45.66267" lon="5.75438">
        <ele>487.5</ele>
        <time>2012-11-24T09:59:33Z</time>
      </trkpt>
      <trkpt lat="45.66274" lon="5.75448">
        <ele>485.59997558594</ele>
        <time>2012-11-24T09:59:40Z</time>
      </trkpt>
      <trkpt lat="45.66281" lon="5.75458">
        <ele>483.59997558594</ele>
        <time>2012-11-24T09:59:48Z</time>
      </trkpt>
      <trkpt lat="45.66285" lon="5.75471">
        <ele>482.70001220703</ele>
        <time>2012-11-24T09:59:55Z</time>
      </trkpt>
      <trkpt lat="45.66288" lon="5.75484">
        <ele>481.79998779297</ele>
        <time>2012-11-24T10:00:03Z</time>
      </trkpt>
      <trkpt lat="45.66291" lon="5.75497">
        <ele>479.29998779297</ele>
        <time>2012-11-24T10:00:12Z</time>
      </trkpt>
      <trkpt lat="45.66295" lon="5.7551">
        <ele>477.29998779297</ele>
        <time>2012-11-24T10:00:21Z</time>
      </trkpt>
      <trkpt lat="45.66298" lon="5.75522">
        <ele>475.09997558594</ele>
        <time>2012-11-24T10:00:29Z</time>
      </trkpt>
      <trkpt lat="45.66301" lon="5.75535">
        <ele>473.79998779297</ele>
        <time>2012-11-24T10:00:36Z</time>
      </trkpt>
      <trkpt lat="45.66309" lon="5.7556">
        <ele>471.70001220703</ele>
        <time>2012-11-24T10:00:51Z</time>
      </trkpt>
      <trkpt lat="45.66313" lon="5.75573">
        <ele>470.40002441406</ele>
        <time>2012-11-24T10:00:58Z</time>
      </trkpt>
      <trkpt lat="45.66318" lon="5.75584">
        <ele>469.20001220703</ele>
        <time>2012-11-24T10:01:05Z</time>
      </trkpt>
      <trkpt lat="45.66323" lon="5.75595">
        <ele>468.59997558594</ele>
        <time>2012-11-24T10:01:11Z</time>
      </trkpt>
      <trkpt lat="45.66331" lon="5.75604">
        <ele>468</ele>
        <time>2012-11-24T10:01:17Z</time>
      </trkpt>
      <trkpt lat="45.66338" lon="5.75612">
        <ele>467.5</ele>
        <time>2012-11-24T10:01:24Z</time>
      </trkpt>
      <trkpt lat="45.66346" lon="5.75622">
        <ele>467.40002441406</ele>
        <time>2012-11-24T10:01:31Z</time>
      </trkpt>
      <trkpt lat="45.66353" lon="5.75631">
        <ele>467.20001220703</ele>
        <time>2012-11-24T10:01:37Z</time>
      </trkpt>
      <trkpt lat="45.6636" lon="5.7564">
        <ele>467.09997558594</ele>
        <time>2012-11-24T10:01:43Z</time>
      </trkpt>
      <trkpt lat="45.66368" lon="5.75649">
        <ele>467.20001220703</ele>
        <time>2012-11-24T10:01:49Z</time>
      </trkpt>
      <trkpt lat="45.66376" lon="5.75657">
        <ele>466.29998779297</ele>
        <time>2012-11-24T10:01:56Z</time>
      </trkpt>
      <trkpt lat="45.66385" lon="5.75665">
        <ele>465.79998779297</ele>
        <time>2012-11-24T10:02:03Z</time>
      </trkpt>
      <trkpt lat="45.664" lon="5.75681">
        <ele>464.90002441406</ele>
        <time>2012-11-24T10:02:18Z</time>
      </trkpt>
      <trkpt lat="45.66417" lon="5.75694">
        <ele>461.20001220703</ele>
        <time>2012-11-24T10:02:30Z</time>
      </trkpt>
      <trkpt lat="45.66434" lon="5.7571">
        <ele>460.79998779297</ele>
        <time>2012-11-24T10:02:43Z</time>
      </trkpt>
      <trkpt lat="45.66448" lon="5.75727">
        <ele>461.5</ele>
        <time>2012-11-24T10:02:56Z</time>
      </trkpt>
      <trkpt lat="45.66465" lon="5.75743">
        <ele>457.70001220703</ele>
        <time>2012-11-24T10:03:10Z</time>
      </trkpt>
      <trkpt lat="45.66474" lon="5.75738">
        <ele>456.5</ele>
        <time>2012-11-24T10:03:17Z</time>
      </trkpt>
      <trkpt lat="45.66484" lon="5.75735">
        <ele>456.09997558594</ele>
        <time>2012-11-24T10:03:24Z</time>
      </trkpt>
      <trkpt lat="45.66493" lon="5.7574">
        <ele>457.59997558594</ele>
        <time>2012-11-24T10:03:30Z</time>
      </trkpt>
      <trkpt lat="45.66502" lon="5.75746">
        <ele>458.09997558594</ele>
        <time>2012-11-24T10:03:37Z</time>
      </trkpt>
      <trkpt lat="45.6652" lon="5.75756">
        <ele>456.59997558594</ele>
        <time>2012-11-24T10:03:50Z</time>
      </trkpt>
      <trkpt lat="45.66527" lon="5.75765">
        <ele>456.09997558594</ele>
        <time>2012-11-24T10:03:56Z</time>
      </trkpt>
      <trkpt lat="45.66533" lon="5.75775">
        <ele>456</ele>
        <time>2012-11-24T10:04:02Z</time>
      </trkpt>
      <trkpt lat="45.66537" lon="5.75786">
        <ele>455.40002441406</ele>
        <time>2012-11-24T10:04:09Z</time>
      </trkpt>
      <trkpt lat="45.66536" lon="5.758">
        <ele>453.70001220703</ele>
        <time>2012-11-24T10:04:46Z</time>
      </trkpt>
      <trkpt lat="45.66537" lon="5.75814">
        <ele>451.09997558594</ele>
        <time>2012-11-24T10:04:54Z</time>
      </trkpt>
      <trkpt lat="45.66542" lon="5.75826">
        <ele>451.70001220703</ele>
        <time>2012-11-24T10:05:01Z</time>
      </trkpt>
      <trkpt lat="45.66547" lon="5.75837">
        <ele>451.59997558594</ele>
        <time>2012-11-24T10:05:08Z</time>
      </trkpt>
      <trkpt lat="45.66553" lon="5.75848">
        <ele>450.79998779297</ele>
        <time>2012-11-24T10:05:15Z</time>
      </trkpt>
      <trkpt lat="45.66558" lon="5.75859">
        <ele>450.20001220703</ele>
        <time>2012-11-24T10:05:22Z</time>
      </trkpt>
      <trkpt lat="45.66563" lon="5.75869">
        <ele>449.20001220703</ele>
        <time>2012-11-24T10:05:30Z</time>
      </trkpt>
      <trkpt lat="45.66568" lon="5.75882">
        <ele>449.20001220703</ele>
        <time>2012-11-24T10:05:39Z</time>
      </trkpt>
      <trkpt lat="45.66571" lon="5.75895">
        <ele>448.5</ele>
        <time>2012-11-24T10:05:46Z</time>
      </trkpt>
      <trkpt lat="45.66573" lon="5.7591">
        <ele>447.90002441406</ele>
        <time>2012-11-24T10:05:54Z</time>
      </trkpt>
      <trkpt lat="45.66572" lon="5.75924">
        <ele>447.79998779297</ele>
        <time>2012-11-24T10:06:01Z</time>
      </trkpt>
      <trkpt lat="45.6657" lon="5.75938">
        <ele>447.40002441406</ele>
        <time>2012-11-24T10:06:08Z</time>
      </trkpt>
      <trkpt lat="45.66568" lon="5.75951">
        <ele>447.40002441406</ele>
        <time>2012-11-24T10:06:16Z</time>
      </trkpt>
      <trkpt lat="45.66567" lon="5.75964">
        <ele>446.5</ele>
        <time>2012-11-24T10:06:24Z</time>
      </trkpt>
      <trkpt lat="45.66566" lon="5.75978">
        <ele>446.09997558594</ele>
        <time>2012-11-24T10:06:30Z</time>
      </trkpt>
      <trkpt lat="45.66564" lon="5.75992">
        <ele>445.29998779297</ele>
        <time>2012-11-24T10:06:37Z</time>
      </trkpt>
      <trkpt lat="45.66564" lon="5.76005">
        <ele>444.09997558594</ele>
        <time>2012-11-24T10:06:43Z</time>
      </trkpt>
      <trkpt lat="45.66565" lon="5.76019">
        <ele>441.90002441406</ele>
        <time>2012-11-24T10:06:50Z</time>
      </trkpt>
      <trkpt lat="45.6657" lon="5.76032">
        <ele>441.5</ele>
        <time>2012-11-24T10:06:57Z</time>
      </trkpt>
      <trkpt lat="45.66587" lon="5.76043">
        <ele>440.29998779297</ele>
        <time>2012-11-24T10:07:10Z</time>
      </trkpt>
      <trkpt lat="45.66595" lon="5.76048">
        <ele>440.29998779297</ele>
        <time>2012-11-24T10:07:17Z</time>
      </trkpt>
      <trkpt lat="45.66604" lon="5.76054">
        <ele>440.09997558594</ele>
        <time>2012-11-24T10:07:25Z</time>
      </trkpt>
      <trkpt lat="45.66614" lon="5.76059">
        <ele>440.70001220703</ele>
        <time>2012-11-24T10:07:31Z</time>
      </trkpt>
      <trkpt lat="45.66632" lon="5.76064">
        <ele>441.20001220703</ele>
        <time>2012-11-24T10:07:47Z</time>
      </trkpt>
      <trkpt lat="45.66651" lon="5.7606">
        <ele>440.79998779297</ele>
        <time>2012-11-24T10:08:03Z</time>
      </trkpt>
      <trkpt lat="45.6667" lon="5.76059">
        <ele>440.5</ele>
        <time>2012-11-24T10:08:16Z</time>
      </trkpt>
      <trkpt lat="45.66682" lon="5.76076">
        <ele>439.09997558594</ele>
        <time>2012-11-24T10:08:29Z</time>
      </trkpt>
      <trkpt lat="45.66677" lon="5.76102">
        <ele>441.5</ele>
        <time>2012-11-24T10:08:43Z</time>
      </trkpt>
      <trkpt lat="45.66676" lon="5.76128">
        <ele>439.59997558594</ele>
        <time>2012-11-24T10:08:56Z</time>
      </trkpt>
      <trkpt lat="45.66684" lon="5.76154">
        <ele>429.09997558594</ele>
        <time>2012-11-24T10:09:08Z</time>
      </trkpt>
      <trkpt lat="45.66695" lon="5.76174">
        <ele>429.5</ele>
        <time>2012-11-24T10:09:23Z</time>
      </trkpt>
      <trkpt lat="45.66713" lon="5.76188">
        <ele>431</ele>
        <time>2012-11-24T10:09:37Z</time>
      </trkpt>
      <trkpt lat="45.6673" lon="5.76201">
        <ele>431.40002441406</ele>
        <time>2012-11-24T10:09:52Z</time>
      </trkpt>
      <trkpt lat="45.66749" lon="5.7621">
        <ele>425.90002441406</ele>
        <time>2012-11-24T10:10:05Z</time>
      </trkpt>
      <trkpt lat="45.66766" lon="5.76226">
        <ele>424.59997558594</ele>
        <time>2012-11-24T10:10:18Z</time>
      </trkpt>
      <trkpt lat="45.66784" lon="5.76226">
        <ele>420.20001220703</ele>
        <time>2012-11-24T10:10:32Z</time>
      </trkpt>
      <trkpt lat="45.668" lon="5.76209">
        <ele>416.59997558594</ele>
        <time>2012-11-24T10:10:45Z</time>
      </trkpt>
      <trkpt lat="45.66819" lon="5.76204">
        <ele>415.70001220703</ele>
        <time>2012-11-24T10:11:01Z</time>
      </trkpt>
      <trkpt lat="45.66836" lon="5.76218">
        <ele>416.20001220703</ele>
        <time>2012-11-24T10:11:13Z</time>
      </trkpt>
      <trkpt lat="45.66842" lon="5.76229">
        <ele>416.5</ele>
        <time>2012-11-24T10:11:20Z</time>
      </trkpt>
      <trkpt lat="45.66848" lon="5.7624">
        <ele>417</ele>
        <time>2012-11-24T10:11:28Z</time>
      </trkpt>
      <trkpt lat="45.66862" lon="5.7626">
        <ele>412.5</ele>
        <time>2012-11-24T10:11:43Z</time>
      </trkpt>
      <trkpt lat="45.66869" lon="5.7627">
        <ele>412.20001220703</ele>
        <time>2012-11-24T10:11:50Z</time>
      </trkpt>
      <trkpt lat="45.66883" lon="5.76289">
        <ele>410.20001220703</ele>
        <time>2012-11-24T10:12:05Z</time>
      </trkpt>
      <trkpt lat="45.66895" lon="5.76309">
        <ele>410</ele>
        <time>2012-11-24T10:12:20Z</time>
      </trkpt>
      <trkpt lat="45.66921" lon="5.76306">
        <ele>406.29998779297</ele>
        <time>2012-11-24T10:12:42Z</time>
      </trkpt>
      <trkpt lat="45.66937" lon="5.76294">
        <ele>405.20001220703</ele>
        <time>2012-11-24T10:12:58Z</time>
      </trkpt>
      <trkpt lat="45.66938" lon="5.76321">
        <ele>401.20001220703</ele>
        <time>2012-11-24T10:13:13Z</time>
      </trkpt>
      <trkpt lat="45.66933" lon="5.76332">
        <ele>400</ele>
        <time>2012-11-24T10:13:20Z</time>
      </trkpt>
      <trkpt lat="45.66928" lon="5.76343">
        <ele>399.5</ele>
        <time>2012-11-24T10:13:26Z</time>
      </trkpt>
      <trkpt lat="45.66921" lon="5.76354">
        <ele>399.29998779297</ele>
        <time>2012-11-24T10:13:33Z</time>
      </trkpt>
      <trkpt lat="45.66911" lon="5.76359">
        <ele>399.5</ele>
        <time>2012-11-24T10:13:40Z</time>
      </trkpt>
      <trkpt lat="45.66895" lon="5.76345">
        <ele>397.70001220703</ele>
        <time>2012-11-24T10:13:54Z</time>
      </trkpt>
      <trkpt lat="45.66877" lon="5.76331">
        <ele>396.70001220703</ele>
        <time>2012-11-24T10:14:08Z</time>
      </trkpt>
      <trkpt lat="45.66857" lon="5.76327">
        <ele>396.5</ele>
        <time>2012-11-24T10:14:20Z</time>
      </trkpt>
      <trkpt lat="45.66838" lon="5.76324">
        <ele>397.40002441406</ele>
        <time>2012-11-24T10:14:33Z</time>
      </trkpt>
      <trkpt lat="45.66817" lon="5.76325">
        <ele>399.5</ele>
        <time>2012-11-24T10:14:47Z</time>
      </trkpt>
      <trkpt lat="45.66828" lon="5.76347">
        <ele>385.70001220703</ele>
        <time>2012-11-24T10:15:31Z</time>
      </trkpt>
      <trkpt lat="45.66834" lon="5.76358">
        <ele>385.70001220703</ele>
        <time>2012-11-24T10:15:38Z</time>
      </trkpt>
      <trkpt lat="45.66841" lon="5.76368">
        <ele>385.29998779297</ele>
        <time>2012-11-24T10:15:44Z</time>
      </trkpt>
      <trkpt lat="45.66848" lon="5.76378">
        <ele>383.79998779297</ele>
        <time>2012-11-24T10:15:51Z</time>
      </trkpt>
      <trkpt lat="45.66855" lon="5.76388">
        <ele>382.09997558594</ele>
        <time>2012-11-24T10:15:57Z</time>
      </trkpt>
      <trkpt lat="45.66862" lon="5.76399">
        <ele>382.20001220703</ele>
        <time>2012-11-24T10:16:04Z</time>
      </trkpt>
      <trkpt lat="45.66867" lon="5.76411">
        <ele>379.70001220703</ele>
        <time>2012-11-24T10:16:11Z</time>
      </trkpt>
      <trkpt lat="45.66869" lon="5.76431">
        <ele>375.40002441406</ele>
        <time>2012-11-24T10:16:33Z</time>
      </trkpt>
      <trkpt lat="45.66887" lon="5.76441">
        <ele>373</ele>
        <time>2012-11-24T10:16:46Z</time>
      </trkpt>
      <trkpt lat="45.66905" lon="5.76448">
        <ele>373.70001220703</ele>
        <time>2012-11-24T10:16:59Z</time>
      </trkpt>
      <trkpt lat="45.66924" lon="5.76445">
        <ele>373</ele>
        <time>2012-11-24T10:17:12Z</time>
      </trkpt>
      <trkpt lat="45.66943" lon="5.76435">
        <ele>373.29998779297</ele>
        <time>2012-11-24T10:17:26Z</time>
      </trkpt>
      <trkpt lat="45.66952" lon="5.76428">
        <ele>373.59997558594</ele>
        <time>2012-11-24T10:17:33Z</time>
      </trkpt>
      <trkpt lat="45.6696" lon="5.76421">
        <ele>374.40002441406</ele>
        <time>2012-11-24T10:17:40Z</time>
      </trkpt>
      <trkpt lat="45.66969" lon="5.76414">
        <ele>375.59997558594</ele>
        <time>2012-11-24T10:17:47Z</time>
      </trkpt>
      <trkpt lat="45.66978" lon="5.76409">
        <ele>376.29998779297</ele>
        <time>2012-11-24T10:17:54Z</time>
      </trkpt>
      <trkpt lat="45.66988" lon="5.76405">
        <ele>376.29998779297</ele>
        <time>2012-11-24T10:18:01Z</time>
      </trkpt>
      <trkpt lat="45.66997" lon="5.76404">
        <ele>375.79998779297</ele>
        <time>2012-11-24T10:18:07Z</time>
      </trkpt>
      <trkpt lat="45.67006" lon="5.76404">
        <ele>375.5</ele>
        <time>2012-11-24T10:18:13Z</time>
      </trkpt>
      <trkpt lat="45.67016" lon="5.76407">
        <ele>375.09997558594</ele>
        <time>2012-11-24T10:18:19Z</time>
      </trkpt>
      <trkpt lat="45.67025" lon="5.7641">
        <ele>375.90002441406</ele>
        <time>2012-11-24T10:18:25Z</time>
      </trkpt>
      <trkpt lat="45.67034" lon="5.76414">
        <ele>376.20001220703</ele>
        <time>2012-11-24T10:18:31Z</time>
      </trkpt>
      <trkpt lat="45.67059" lon="5.76435">
        <ele>377.5</ele>
        <time>2012-11-24T10:18:48Z</time>
      </trkpt>
      <trkpt lat="45.67074" lon="5.76452">
        <ele>376.70001220703</ele>
        <time>2012-11-24T10:18:59Z</time>
      </trkpt>
      <trkpt lat="45.6709" lon="5.76466">
        <ele>374.40002441406</ele>
        <time>2012-11-24T10:19:12Z</time>
      </trkpt>
      <trkpt lat="45.67107" lon="5.76477">
        <ele>374.29998779297</ele>
        <time>2012-11-24T10:19:25Z</time>
      </trkpt>
      <trkpt lat="45.67116" lon="5.76481">
        <ele>373.29998779297</ele>
        <time>2012-11-24T10:19:31Z</time>
      </trkpt>
      <trkpt lat="45.67126" lon="5.76485">
        <ele>373.70001220703</ele>
        <time>2012-11-24T10:19:42Z</time>
      </trkpt>
      <trkpt lat="45.67145" lon="5.76493">
        <ele>373.79998779297</ele>
        <time>2012-11-24T10:19:53Z</time>
      </trkpt>
      <trkpt lat="45.67164" lon="5.76501">
        <ele>372.70001220703</ele>
        <time>2012-11-24T10:20:04Z</time>
      </trkpt>
      <trkpt lat="45.67173" lon="5.76505">
        <ele>372.29998779297</ele>
        <time>2012-11-24T10:20:11Z</time>
      </trkpt>
      <trkpt lat="45.67182" lon="5.7651">
        <ele>372.40002441406</ele>
        <time>2012-11-24T10:20:16Z</time>
      </trkpt>
      <trkpt lat="45.6719" lon="5.76515">
        <ele>372.09997558594</ele>
        <time>2012-11-24T10:20:22Z</time>
      </trkpt>
      <trkpt lat="45.67189" lon="5.76529">
        <ele>369.40002441406</ele>
        <time>2012-11-24T10:20:29Z</time>
      </trkpt>
      <trkpt lat="45.6718" lon="5.76537">
        <ele>367.59997558594</ele>
        <time>2012-11-24T10:20:35Z</time>
      </trkpt>
      <trkpt lat="45.67172" lon="5.76543">
        <ele>366.70001220703</ele>
        <time>2012-11-24T10:20:41Z</time>
      </trkpt>
      <trkpt lat="45.6718" lon="5.76538">
        <ele>366.29998779297</ele>
        <time>2012-11-24T10:21:33Z</time>
      </trkpt>
      <trkpt lat="45.67189" lon="5.7653">
        <ele>366.59997558594</ele>
        <time>2012-11-24T10:21:41Z</time>
      </trkpt>
      <trkpt lat="45.67195" lon="5.7652">
        <ele>367.20001220703</ele>
        <time>2012-11-24T10:21:45Z</time>
      </trkpt>
      <trkpt lat="45.67205" lon="5.76523">
        <ele>365.90002441406</ele>
        <time>2012-11-24T10:21:52Z</time>
      </trkpt>
      <trkpt lat="45.67236" lon="5.76537">
        <ele>365</ele>
        <time>2012-11-24T10:22:05Z</time>
      </trkpt>
      <trkpt lat="45.67286" lon="5.76557">
        <ele>366.20001220703</ele>
        <time>2012-11-24T10:22:22Z</time>
      </trkpt>
      <trkpt lat="45.67316" lon="5.76573">
        <ele>366.5</ele>
        <time>2012-11-24T10:22:31Z</time>
      </trkpt>
      <trkpt lat="45.67389" lon="5.76613">
        <ele>365.09997558594</ele>
        <time>2012-11-24T10:22:52Z</time>
      </trkpt>
      <trkpt lat="45.67399" lon="5.76613">
        <ele>365.09997558594</ele>
        <time>2012-11-24T10:22:55Z</time>
      </trkpt>
      <trkpt lat="45.67419" lon="5.76622">
        <ele>364.5</ele>
        <time>2012-11-24T10:23:02Z</time>
      </trkpt>
      <trkpt lat="45.6744" lon="5.76628">
        <ele>365.20001220703</ele>
        <time>2012-11-24T10:23:09Z</time>
      </trkpt>
      <trkpt lat="45.67459" lon="5.7663">
        <ele>365.29998779297</ele>
        <time>2012-11-24T10:23:15Z</time>
      </trkpt>
      <trkpt lat="45.6748" lon="5.7663">
        <ele>365.90002441406</ele>
        <time>2012-11-24T10:23:21Z</time>
      </trkpt>
      <trkpt lat="45.67501" lon="5.76629">
        <ele>366.59997558594</ele>
        <time>2012-11-24T10:23:27Z</time>
      </trkpt>
      <trkpt lat="45.67532" lon="5.76625">
        <ele>364.90002441406</ele>
        <time>2012-11-24T10:23:36Z</time>
      </trkpt>
      <trkpt lat="45.67555" lon="5.76622">
        <ele>363.09997558594</ele>
        <time>2012-11-24T10:23:42Z</time>
      </trkpt>
      <trkpt lat="45.67585" lon="5.76604">
        <ele>359.90002441406</ele>
        <time>2012-11-24T10:23:51Z</time>
      </trkpt>
      <trkpt lat="45.67603" lon="5.76596">
        <ele>358.70001220703</ele>
        <time>2012-11-24T10:24:01Z</time>
      </trkpt>
      <trkpt lat="45.67594" lon="5.76621">
        <ele>357.40002441406</ele>
        <time>2012-11-24T10:24:15Z</time>
      </trkpt>
      <trkpt lat="45.67581" lon="5.76643">
        <ele>358.79998779297</ele>
        <time>2012-11-24T10:24:29Z</time>
      </trkpt>
      <trkpt lat="45.67568" lon="5.76661">
        <ele>360.90002441406</ele>
        <time>2012-11-24T10:24:41Z</time>
      </trkpt>
      <trkpt lat="45.6756" lon="5.76669">
        <ele>361.79998779297</ele>
        <time>2012-11-24T10:24:48Z</time>
      </trkpt>
      <trkpt lat="45.67552" lon="5.76677">
        <ele>363.09997558594</ele>
        <time>2012-11-24T10:24:54Z</time>
      </trkpt>
      <trkpt lat="45.67535" lon="5.76686">
        <ele>365.09997558594</ele>
        <time>2012-11-24T10:25:07Z</time>
      </trkpt>
      <trkpt lat="45.67517" lon="5.76693">
        <ele>368</ele>
        <time>2012-11-24T10:25:19Z</time>
      </trkpt>
      <trkpt lat="45.67498" lon="5.76698">
        <ele>371.29998779297</ele>
        <time>2012-11-24T10:25:33Z</time>
      </trkpt>
      <trkpt lat="45.67477" lon="5.76701">
        <ele>373.79998779297</ele>
        <time>2012-11-24T10:25:48Z</time>
      </trkpt>
      <trkpt lat="45.67458" lon="5.76698">
        <ele>376.79998779297</ele>
        <time>2012-11-24T10:26:02Z</time>
      </trkpt>
      <trkpt lat="45.67439" lon="5.76692">
        <ele>379.70001220703</ele>
        <time>2012-11-24T10:26:15Z</time>
      </trkpt>
      <trkpt lat="45.67429" lon="5.7669">
        <ele>381.59997558594</ele>
        <time>2012-11-24T10:26:48Z</time>
      </trkpt>
      <trkpt lat="45.67467" lon="5.76728">
        <ele>387.59997558594</ele>
        <time>2012-11-24T10:27:09Z</time>
      </trkpt>
      <trkpt lat="45.6748" lon="5.76749">
        <ele>387.59997558594</ele>
        <time>2012-11-24T10:27:24Z</time>
      </trkpt>
      <trkpt lat="45.67491" lon="5.76772">
        <ele>388</ele>
        <time>2012-11-24T10:27:37Z</time>
      </trkpt>
      <trkpt lat="45.67496" lon="5.76799">
        <ele>390.79998779297</ele>
        <time>2012-11-24T10:27:51Z</time>
      </trkpt>
      <trkpt lat="45.67502" lon="5.76825">
        <ele>392.70001220703</ele>
        <time>2012-11-24T10:28:06Z</time>
      </trkpt>
      <trkpt lat="45.67519" lon="5.76836">
        <ele>391.40002441406</ele>
        <time>2012-11-24T10:28:23Z</time>
      </trkpt>
      <trkpt lat="45.67538" lon="5.76844">
        <ele>391.20001220703</ele>
        <time>2012-11-24T10:28:38Z</time>
      </trkpt>
      <trkpt lat="45.67558" lon="5.76851">
        <ele>393.70001220703</ele>
        <time>2012-11-24T10:28:55Z</time>
      </trkpt>
      <trkpt lat="45.67577" lon="5.76855">
        <ele>395.79998779297</ele>
        <time>2012-11-24T10:29:08Z</time>
      </trkpt>
      <trkpt lat="45.67587" lon="5.76855">
        <ele>397.20001220703</ele>
        <time>2012-11-24T10:29:16Z</time>
      </trkpt>
      <trkpt lat="45.67597" lon="5.76853">
        <ele>398.90002441406</ele>
        <time>2012-11-24T10:29:24Z</time>
      </trkpt>
      <trkpt lat="45.67607" lon="5.76849">
        <ele>399.20001220703</ele>
        <time>2012-11-24T10:29:32Z</time>
      </trkpt>
      <trkpt lat="45.67617" lon="5.76846">
        <ele>399.5</ele>
        <time>2012-11-24T10:29:39Z</time>
      </trkpt>
      <trkpt lat="45.67626" lon="5.76843">
        <ele>399.90002441406</ele>
        <time>2012-11-24T10:29:46Z</time>
      </trkpt>
      <trkpt lat="45.67635" lon="5.76836">
        <ele>400.40002441406</ele>
        <time>2012-11-24T10:29:53Z</time>
      </trkpt>
      <trkpt lat="45.67643" lon="5.76829">
        <ele>401.5</ele>
        <time>2012-11-24T10:30:00Z</time>
      </trkpt>
      <trkpt lat="45.67652" lon="5.76824">
        <ele>403.40002441406</ele>
        <time>2012-11-24T10:30:07Z</time>
      </trkpt>
      <trkpt lat="45.67661" lon="5.7682">
        <ele>404.70001220703</ele>
        <time>2012-11-24T10:30:15Z</time>
      </trkpt>
      <trkpt lat="45.67679" lon="5.76809">
        <ele>406.29998779297</ele>
        <time>2012-11-24T10:30:27Z</time>
      </trkpt>
      <trkpt lat="45.67696" lon="5.76793">
        <ele>408.29998779297</ele>
        <time>2012-11-24T10:30:36Z</time>
      </trkpt>
      <trkpt lat="45.67702" lon="5.76784">
        <ele>409.59997558594</ele>
        <time>2012-11-24T10:30:43Z</time>
      </trkpt>
      <trkpt lat="45.6771" lon="5.76774">
        <ele>410.5</ele>
        <time>2012-11-24T10:30:51Z</time>
      </trkpt>
      <trkpt lat="45.67724" lon="5.76755">
        <ele>410</ele>
        <time>2012-11-24T10:31:07Z</time>
      </trkpt>
      <trkpt lat="45.67741" lon="5.76768">
        <ele>410.59997558594</ele>
        <time>2012-11-24T10:31:24Z</time>
      </trkpt>
      <trkpt lat="45.67757" lon="5.76783">
        <ele>412.5</ele>
        <time>2012-11-24T10:31:37Z</time>
      </trkpt>
      <trkpt lat="45.67773" lon="5.76796">
        <ele>413.90002441406</ele>
        <time>2012-11-24T10:31:54Z</time>
      </trkpt>
      <trkpt lat="45.6779" lon="5.76808">
        <ele>416.70001220703</ele>
        <time>2012-11-24T10:32:05Z</time>
      </trkpt>
      <trkpt lat="45.67808" lon="5.7682">
        <ele>418.79998779297</ele>
        <time>2012-11-24T10:32:27Z</time>
      </trkpt>
      <trkpt lat="45.67826" lon="5.76829">
        <ele>420.79998779297</ele>
        <time>2012-11-24T10:32:43Z</time>
      </trkpt>
      <trkpt lat="45.67845" lon="5.76838">
        <ele>424.79998779297</ele>
        <time>2012-11-24T10:32:57Z</time>
      </trkpt>
      <trkpt lat="45.67864" lon="5.76853">
        <ele>426.59997558594</ele>
        <time>2012-11-24T10:33:08Z</time>
      </trkpt>
      <trkpt lat="45.67879" lon="5.76868">
        <ele>428.29998779297</ele>
        <time>2012-11-24T10:33:23Z</time>
      </trkpt>
      <trkpt lat="45.67895" lon="5.76883">
        <ele>429.29998779297</ele>
        <time>2012-11-24T10:33:36Z</time>
      </trkpt>
      <trkpt lat="45.6791" lon="5.769">
        <ele>431.79998779297</ele>
        <time>2012-11-24T10:33:53Z</time>
      </trkpt>
      <trkpt lat="45.67926" lon="5.76915">
        <ele>432.20001220703</ele>
        <time>2012-11-24T10:34:09Z</time>
      </trkpt>
      <trkpt lat="45.6793" lon="5.76942">
        <ele>431.79998779297</ele>
        <time>2012-11-24T10:34:21Z</time>
      </trkpt>
      <trkpt lat="45.67929" lon="5.76969">
        <ele>431.09997558594</ele>
        <time>2012-11-24T10:34:33Z</time>
      </trkpt>
      <trkpt lat="45.6793" lon="5.76982">
        <ele>431.40002441406</ele>
        <time>2012-11-24T10:34:39Z</time>
      </trkpt>
      <trkpt lat="45.6793" lon="5.76996">
        <ele>431.70001220703</ele>
        <time>2012-11-24T10:34:46Z</time>
      </trkpt>
      <trkpt lat="45.67928" lon="5.7701">
        <ele>432.79998779297</ele>
        <time>2012-11-24T10:34:53Z</time>
      </trkpt>
      <trkpt lat="45.67926" lon="5.77023">
        <ele>433.79998779297</ele>
        <time>2012-11-24T10:35:01Z</time>
      </trkpt>
      <trkpt lat="45.67924" lon="5.77037">
        <ele>434.90002441406</ele>
        <time>2012-11-24T10:35:17Z</time>
      </trkpt>
      <trkpt lat="45.67922" lon="5.7705">
        <ele>435.29998779297</ele>
        <time>2012-11-24T10:35:25Z</time>
      </trkpt>
      <trkpt lat="45.6792" lon="5.77078">
        <ele>435.79998779297</ele>
        <time>2012-11-24T10:35:40Z</time>
      </trkpt>
      <trkpt lat="45.6792" lon="5.77091">
        <ele>435.79998779297</ele>
        <time>2012-11-24T10:35:46Z</time>
      </trkpt>
      <trkpt lat="45.6792" lon="5.77105">
        <ele>436.09997558594</ele>
        <time>2012-11-24T10:35:53Z</time>
      </trkpt>
      <trkpt lat="45.67918" lon="5.77133">
        <ele>435.5</ele>
        <time>2012-11-24T10:36:07Z</time>
      </trkpt>
      <trkpt lat="45.6791" lon="5.77141">
        <ele>436.59997558594</ele>
        <time>2012-11-24T10:36:15Z</time>
      </trkpt>
      <trkpt lat="45.679" lon="5.77143">
        <ele>438.09997558594</ele>
        <time>2012-11-24T10:36:23Z</time>
      </trkpt>
      <trkpt lat="45.67882" lon="5.77137">
        <ele>438.40002441406</ele>
        <time>2012-11-24T10:36:39Z</time>
      </trkpt>
      <trkpt lat="45.67862" lon="5.77138">
        <ele>437.40002441406</ele>
        <time>2012-11-24T10:36:52Z</time>
      </trkpt>
      <trkpt lat="45.67844" lon="5.77148">
        <ele>436.20001220703</ele>
        <time>2012-11-24T10:37:05Z</time>
      </trkpt>
      <trkpt lat="45.67824" lon="5.7715">
        <ele>433.90002441406</ele>
        <time>2012-11-24T10:37:17Z</time>
      </trkpt>
      <trkpt lat="45.67807" lon="5.77137">
        <ele>430.40002441406</ele>
        <time>2012-11-24T10:37:31Z</time>
      </trkpt>
      <trkpt lat="45.67788" lon="5.77128">
        <ele>430</ele>
        <time>2012-11-24T10:37:46Z</time>
      </trkpt>
      <trkpt lat="45.6777" lon="5.77118">
        <ele>431.20001220703</ele>
        <time>2012-11-24T10:37:59Z</time>
      </trkpt>
      <trkpt lat="45.67753" lon="5.77107">
        <ele>434</ele>
        <time>2012-11-24T10:38:13Z</time>
      </trkpt>
      <trkpt lat="45.67744" lon="5.77105">
        <ele>435.5</ele>
        <time>2012-11-24T10:38:20Z</time>
      </trkpt>
      <trkpt lat="45.67735" lon="5.77102">
        <ele>436.09997558594</ele>
        <time>2012-11-24T10:38:28Z</time>
      </trkpt>
      <trkpt lat="45.67726" lon="5.77097">
        <ele>437.40002441406</ele>
        <time>2012-11-24T10:38:35Z</time>
      </trkpt>
      <trkpt lat="45.67716" lon="5.77094">
        <ele>438.5</ele>
        <time>2012-11-24T10:38:43Z</time>
      </trkpt>
      <trkpt lat="45.67698" lon="5.77084">
        <ele>443.20001220703</ele>
        <time>2012-11-24T10:39:03Z</time>
      </trkpt>
      <trkpt lat="45.6768" lon="5.77079">
        <ele>448.70001220703</ele>
        <time>2012-11-24T10:39:20Z</time>
      </trkpt>
      <trkpt lat="45.6766" lon="5.77082">
        <ele>453.59997558594</ele>
        <time>2012-11-24T10:39:37Z</time>
      </trkpt>
      <trkpt lat="45.67642" lon="5.77091">
        <ele>453.79998779297</ele>
        <time>2012-11-24T10:39:51Z</time>
      </trkpt>
      <trkpt lat="45.67624" lon="5.77099">
        <ele>454.09997558594</ele>
        <time>2012-11-24T10:40:04Z</time>
      </trkpt>
      <trkpt lat="45.67606" lon="5.77104">
        <ele>454.20001220703</ele>
        <time>2012-11-24T10:40:19Z</time>
      </trkpt>
      <trkpt lat="45.67587" lon="5.77096">
        <ele>452.5</ele>
        <time>2012-11-24T10:40:33Z</time>
      </trkpt>
      <trkpt lat="45.67568" lon="5.77103">
        <ele>449.20001220703</ele>
        <time>2012-11-24T10:40:48Z</time>
      </trkpt>
      <trkpt lat="45.67549" lon="5.77107">
        <ele>447.79998779297</ele>
        <time>2012-11-24T10:40:58Z</time>
      </trkpt>
      <trkpt lat="45.67531" lon="5.77099">
        <ele>446.40002441406</ele>
        <time>2012-11-24T10:41:07Z</time>
      </trkpt>
      <trkpt lat="45.67511" lon="5.77093">
        <ele>445.59997558594</ele>
        <time>2012-11-24T10:41:18Z</time>
      </trkpt>
      <trkpt lat="45.67494" lon="5.77083">
        <ele>444.09997558594</ele>
        <time>2012-11-24T10:41:32Z</time>
      </trkpt>
      <trkpt lat="45.67484" lon="5.7708">
        <ele>442.29998779297</ele>
        <time>2012-11-24T10:41:38Z</time>
      </trkpt>
      <trkpt lat="45.67474" lon="5.77075">
        <ele>441.90002441406</ele>
        <time>2012-11-24T10:41:43Z</time>
      </trkpt>
      <trkpt lat="45.67466" lon="5.77068">
        <ele>441.09997558594</ele>
        <time>2012-11-24T10:41:50Z</time>
      </trkpt>
      <trkpt lat="45.67443" lon="5.77043">
        <ele>438.59997558594</ele>
        <time>2012-11-24T10:42:10Z</time>
      </trkpt>
      <trkpt lat="45.67427" lon="5.77028">
        <ele>438.59997558594</ele>
        <time>2012-11-24T10:42:20Z</time>
      </trkpt>
      <trkpt lat="45.67418" lon="5.7702">
        <ele>438.29998779297</ele>
        <time>2012-11-24T10:42:26Z</time>
      </trkpt>
      <trkpt lat="45.67402" lon="5.77005">
        <ele>437.79998779297</ele>
        <time>2012-11-24T10:42:43Z</time>
      </trkpt>
      <trkpt lat="45.67385" lon="5.76989">
        <ele>438.29998779297</ele>
        <time>2012-11-24T10:42:56Z</time>
      </trkpt>
      <trkpt lat="45.6737" lon="5.76973">
        <ele>439.40002441406</ele>
        <time>2012-11-24T10:43:07Z</time>
      </trkpt>
      <trkpt lat="45.67362" lon="5.76966">
        <ele>440.40002441406</ele>
        <time>2012-11-24T10:43:12Z</time>
      </trkpt>
      <trkpt lat="45.67344" lon="5.76957">
        <ele>440.79998779297</ele>
        <time>2012-11-24T10:43:23Z</time>
      </trkpt>
      <trkpt lat="45.67325" lon="5.76948">
        <ele>443.5</ele>
        <time>2012-11-24T10:43:37Z</time>
      </trkpt>
      <trkpt lat="45.67315" lon="5.76948">
        <ele>445.40002441406</ele>
        <time>2012-11-24T10:43:44Z</time>
      </trkpt>
      <trkpt lat="45.67307" lon="5.76953">
        <ele>446.70001220703</ele>
        <time>2012-11-24T10:43:50Z</time>
      </trkpt>
      <trkpt lat="45.67299" lon="5.76961">
        <ele>446.90002441406</ele>
        <time>2012-11-24T10:43:56Z</time>
      </trkpt>
      <trkpt lat="45.67291" lon="5.76968">
        <ele>447.40002441406</ele>
        <time>2012-11-24T10:44:02Z</time>
      </trkpt>
      <trkpt lat="45.67284" lon="5.76977">
        <ele>448.09997558594</ele>
        <time>2012-11-24T10:44:08Z</time>
      </trkpt>
      <trkpt lat="45.67277" lon="5.76985">
        <ele>448.70001220703</ele>
        <time>2012-11-24T10:44:14Z</time>
      </trkpt>
      <trkpt lat="45.6727" lon="5.76994">
        <ele>449.20001220703</ele>
        <time>2012-11-24T10:44:24Z</time>
      </trkpt>
      <trkpt lat="45.67262" lon="5.77002">
        <ele>449.5</ele>
        <time>2012-11-24T10:44:31Z</time>
      </trkpt>
      <trkpt lat="45.67255" lon="5.77013">
        <ele>450</ele>
        <time>2012-11-24T10:44:38Z</time>
      </trkpt>
      <trkpt lat="45.67248" lon="5.77023">
        <ele>450.59997558594</ele>
        <time>2012-11-24T10:44:44Z</time>
      </trkpt>
      <trkpt lat="45.67241" lon="5.77033">
        <ele>451</ele>
        <time>2012-11-24T10:44:53Z</time>
      </trkpt>
      <trkpt lat="45.67235" lon="5.77042">
        <ele>450.79998779297</ele>
        <time>2012-11-24T10:45:00Z</time>
      </trkpt>
      <trkpt lat="45.6723" lon="5.77055">
        <ele>450.79998779297</ele>
        <time>2012-11-24T10:45:07Z</time>
      </trkpt>
      <trkpt lat="45.67229" lon="5.77067">
        <ele>451.90002441406</ele>
        <time>2012-11-24T10:45:35Z</time>
      </trkpt>
      <trkpt lat="45.67247" lon="5.77073">
        <ele>446.70001220703</ele>
        <time>2012-11-24T10:46:57Z</time>
      </trkpt>
      <trkpt lat="45.67266" lon="5.77079">
        <ele>445.40002441406</ele>
        <time>2012-11-24T10:47:11Z</time>
      </trkpt>
      <trkpt lat="45.67276" lon="5.77081">
        <ele>445.40002441406</ele>
        <time>2012-11-24T10:47:18Z</time>
      </trkpt>
      <trkpt lat="45.67294" lon="5.77093">
        <ele>446.5</ele>
        <time>2012-11-24T10:47:30Z</time>
      </trkpt>
      <trkpt lat="45.67303" lon="5.77099">
        <ele>447.70001220703</ele>
        <time>2012-11-24T10:47:41Z</time>
      </trkpt>
      <trkpt lat="45.67323" lon="5.7711">
        <ele>447.79998779297</ele>
        <time>2012-11-24T10:47:52Z</time>
      </trkpt>
      <trkpt lat="45.67342" lon="5.77126">
        <ele>449.79998779297</ele>
        <time>2012-11-24T10:48:00Z</time>
      </trkpt>
      <trkpt lat="45.6737" lon="5.7715">
        <ele>451.09997558594</ele>
        <time>2012-11-24T10:48:09Z</time>
      </trkpt>
      <trkpt lat="45.67394" lon="5.77196">
        <ele>451.70001220703</ele>
        <time>2012-11-24T10:48:15Z</time>
      </trkpt>
      <trkpt lat="45.67413" lon="5.77229">
        <ele>453.09997558594</ele>
        <time>2012-11-24T10:48:19Z</time>
      </trkpt>
      <trkpt lat="45.67428" lon="5.77258">
        <ele>454.70001220703</ele>
        <time>2012-11-24T10:48:23Z</time>
      </trkpt>
      <trkpt lat="45.67442" lon="5.77287">
        <ele>456</ele>
        <time>2012-11-24T10:48:27Z</time>
      </trkpt>
      <trkpt lat="45.67456" lon="5.77314">
        <ele>456.79998779297</ele>
        <time>2012-11-24T10:48:31Z</time>
      </trkpt>
      <trkpt lat="45.67473" lon="5.77335">
        <ele>457.70001220703</ele>
        <time>2012-11-24T10:48:35Z</time>
      </trkpt>
      <trkpt lat="45.67493" lon="5.77355">
        <ele>459.5</ele>
        <time>2012-11-24T10:48:39Z</time>
      </trkpt>
      <trkpt lat="45.67512" lon="5.77376">
        <ele>461.40002441406</ele>
        <time>2012-11-24T10:48:43Z</time>
      </trkpt>
      <trkpt lat="45.67536" lon="5.77406">
        <ele>465</ele>
        <time>2012-11-24T10:48:49Z</time>
      </trkpt>
      <trkpt lat="45.67553" lon="5.77416">
        <ele>474.79998779297</ele>
        <time>2012-11-24T10:49:02Z</time>
      </trkpt>
      <trkpt lat="45.67566" lon="5.77436">
        <ele>484</ele>
        <time>2012-11-24T10:49:19Z</time>
      </trkpt>
      <trkpt lat="45.6758" lon="5.77454">
        <ele>493.79998779297</ele>
        <time>2012-11-24T10:49:36Z</time>
      </trkpt>
      <trkpt lat="45.67595" lon="5.77471">
        <ele>500.20001220703</ele>
        <time>2012-11-24T10:49:51Z</time>
      </trkpt>
      <trkpt lat="45.67609" lon="5.7749">
        <ele>504.90002441406</ele>
        <time>2012-11-24T10:50:03Z</time>
      </trkpt>
      <trkpt lat="45.67624" lon="5.77507">
        <ele>509.79998779297</ele>
        <time>2012-11-24T10:50:14Z</time>
      </trkpt>
      <trkpt lat="45.67645" lon="5.77525">
        <ele>508.70001220703</ele>
        <time>2012-11-24T10:50:25Z</time>
      </trkpt>
      <trkpt lat="45.67659" lon="5.77545">
        <ele>504.70001220703</ele>
        <time>2012-11-24T10:50:36Z</time>
      </trkpt>
      <trkpt lat="45.67668" lon="5.7757">
        <ele>502.09997558594</ele>
        <time>2012-11-24T10:50:45Z</time>
      </trkpt>
      <trkpt lat="45.67663" lon="5.77581">
        <ele>497.79998779297</ele>
        <time>2012-11-24T10:50:49Z</time>
      </trkpt>
      <trkpt lat="45.67658" lon="5.77592">
        <ele>496.70001220703</ele>
        <time>2012-11-24T10:50:53Z</time>
      </trkpt>
      <trkpt lat="45.67654" lon="5.77604">
        <ele>495.59997558594</ele>
        <time>2012-11-24T10:50:58Z</time>
      </trkpt>
      <trkpt lat="45.67653" lon="5.77618">
        <ele>494.70001220703</ele>
        <time>2012-11-24T10:51:04Z</time>
      </trkpt>
      <trkpt lat="45.67654" lon="5.77646">
        <ele>495.20001220703</ele>
        <time>2012-11-24T10:51:18Z</time>
      </trkpt>
      <trkpt lat="45.67655" lon="5.77673">
        <ele>489.59997558594</ele>
        <time>2012-11-24T10:51:33Z</time>
      </trkpt>
      <trkpt lat="45.67654" lon="5.77687">
        <ele>485.90002441406</ele>
        <time>2012-11-24T10:52:13Z</time>
      </trkpt>
      <trkpt lat="45.67659" lon="5.777">
        <ele>485.09997558594</ele>
        <time>2012-11-24T10:53:09Z</time>
      </trkpt>
      <trkpt lat="45.67663" lon="5.77712">
        <ele>485.20001220703</ele>
        <time>2012-11-24T10:53:16Z</time>
      </trkpt>
      <trkpt lat="45.67667" lon="5.77723">
        <ele>485.20001220703</ele>
        <time>2012-11-24T10:53:23Z</time>
      </trkpt>
      <trkpt lat="45.67676" lon="5.77748">
        <ele>484.20001220703</ele>
        <time>2012-11-24T10:53:58Z</time>
      </trkpt>
      <trkpt lat="45.6768" lon="5.77762">
        <ele>483</ele>
        <time>2012-11-24T10:54:04Z</time>
      </trkpt>
      <trkpt lat="45.67684" lon="5.77774">
        <ele>481.70001220703</ele>
        <time>2012-11-24T10:54:10Z</time>
      </trkpt>
      <trkpt lat="45.67688" lon="5.77787">
        <ele>480.40002441406</ele>
        <time>2012-11-24T10:54:16Z</time>
      </trkpt>
      <trkpt lat="45.67702" lon="5.77806">
        <ele>481.70001220703</ele>
        <time>2012-11-24T10:54:30Z</time>
      </trkpt>
      <trkpt lat="45.67711" lon="5.77809">
        <ele>480.70001220703</ele>
        <time>2012-11-24T10:54:36Z</time>
      </trkpt>
      <trkpt lat="45.6772" lon="5.77809">
        <ele>479.40002441406</ele>
        <time>2012-11-24T10:54:41Z</time>
      </trkpt>
      <trkpt lat="45.67731" lon="5.77806">
        <ele>478.5</ele>
        <time>2012-11-24T10:54:45Z</time>
      </trkpt>
      <trkpt lat="45.6774" lon="5.77803">
        <ele>478</ele>
        <time>2012-11-24T10:54:49Z</time>
      </trkpt>
      <trkpt lat="45.6775" lon="5.77799">
        <ele>477.70001220703</ele>
        <time>2012-11-24T10:54:54Z</time>
      </trkpt>
      <trkpt lat="45.67759" lon="5.77798">
        <ele>476.09997558594</ele>
        <time>2012-11-24T10:55:01Z</time>
      </trkpt>
      <trkpt lat="45.67772" lon="5.77822">
        <ele>475</ele>
        <time>2012-11-24T10:55:10Z</time>
      </trkpt>
      <trkpt lat="45.67778" lon="5.77833">
        <ele>475</ele>
        <time>2012-11-24T10:55:16Z</time>
      </trkpt>
      <trkpt lat="45.67782" lon="5.77845">
        <ele>475.20001220703</ele>
        <time>2012-11-24T10:55:23Z</time>
      </trkpt>
      <trkpt lat="45.67784" lon="5.77859">
        <ele>474.90002441406</ele>
        <time>2012-11-24T10:55:30Z</time>
      </trkpt>
      <trkpt lat="45.67788" lon="5.77873">
        <ele>475.09997558594</ele>
        <time>2012-11-24T10:55:37Z</time>
      </trkpt>
      <trkpt lat="45.67791" lon="5.77886">
        <ele>475.20001220703</ele>
        <time>2012-11-24T10:55:44Z</time>
      </trkpt>
      <trkpt lat="45.67794" lon="5.779">
        <ele>475.79998779297</ele>
        <time>2012-11-24T10:55:51Z</time>
      </trkpt>
      <trkpt lat="45.67799" lon="5.77928">
        <ele>475.5</ele>
        <time>2012-11-24T10:56:05Z</time>
      </trkpt>
      <trkpt lat="45.67804" lon="5.77955">
        <ele>474.40002441406</ele>
        <time>2012-11-24T10:56:19Z</time>
      </trkpt>
      <trkpt lat="45.6781" lon="5.77983">
        <ele>474.29998779297</ele>
        <time>2012-11-24T10:56:33Z</time>
      </trkpt>
      <trkpt lat="45.67811" lon="5.77997">
        <ele>473.90002441406</ele>
        <time>2012-11-24T10:56:40Z</time>
      </trkpt>
      <trkpt lat="45.67813" lon="5.78012">
        <ele>473.59997558594</ele>
        <time>2012-11-24T10:56:47Z</time>
      </trkpt>
      <trkpt lat="45.67815" lon="5.78026">
        <ele>473.20001220703</ele>
        <time>2012-11-24T10:56:53Z</time>
      </trkpt>
      <trkpt lat="45.67814" lon="5.78041">
        <ele>473</ele>
        <time>2012-11-24T10:56:57Z</time>
      </trkpt>
      <trkpt lat="45.67811" lon="5.78054">
        <ele>473</ele>
        <time>2012-11-24T10:57:03Z</time>
      </trkpt>
      <trkpt lat="45.67805" lon="5.78066">
        <ele>472</ele>
        <time>2012-11-24T10:57:10Z</time>
      </trkpt>
      <trkpt lat="45.67798" lon="5.78076">
        <ele>472.09997558594</ele>
        <time>2012-11-24T10:57:17Z</time>
      </trkpt>
      <trkpt lat="45.6779" lon="5.78085">
        <ele>472.29998779297</ele>
        <time>2012-11-24T10:57:24Z</time>
      </trkpt>
      <trkpt lat="45.67782" lon="5.78094">
        <ele>472.79998779297</ele>
        <time>2012-11-24T10:57:31Z</time>
      </trkpt>
      <trkpt lat="45.67774" lon="5.78101">
        <ele>474</ele>
        <time>2012-11-24T10:57:37Z</time>
      </trkpt>
      <trkpt lat="45.67766" lon="5.78108">
        <ele>474.79998779297</ele>
        <time>2012-11-24T10:57:44Z</time>
      </trkpt>
      <trkpt lat="45.67759" lon="5.78117">
        <ele>478.29998779297</ele>
        <time>2012-11-24T10:57:49Z</time>
      </trkpt>
      <trkpt lat="45.67751" lon="5.78125">
        <ele>479.70001220703</ele>
        <time>2012-11-24T10:57:56Z</time>
      </trkpt>
      <trkpt lat="45.67746" lon="5.78136">
        <ele>480.90002441406</ele>
        <time>2012-11-24T10:58:03Z</time>
      </trkpt>
      <trkpt lat="45.67743" lon="5.78149">
        <ele>482.29998779297</ele>
        <time>2012-11-24T10:58:10Z</time>
      </trkpt>
      <trkpt lat="45.67742" lon="5.78162">
        <ele>482.59997558594</ele>
        <time>2012-11-24T10:58:17Z</time>
      </trkpt>
      <trkpt lat="45.67743" lon="5.78176">
        <ele>482.70001220703</ele>
        <time>2012-11-24T10:58:24Z</time>
      </trkpt>
      <trkpt lat="45.67742" lon="5.7819">
        <ele>483.40002441406</ele>
        <time>2012-11-24T10:58:31Z</time>
      </trkpt>
      <trkpt lat="45.67744" lon="5.78203">
        <ele>484.5</ele>
        <time>2012-11-24T10:58:38Z</time>
      </trkpt>
      <trkpt lat="45.67743" lon="5.78217">
        <ele>485.79998779297</ele>
        <time>2012-11-24T10:58:45Z</time>
      </trkpt>
      <trkpt lat="45.67745" lon="5.7823">
        <ele>486</ele>
        <time>2012-11-24T10:58:51Z</time>
      </trkpt>
      <trkpt lat="45.67744" lon="5.78245">
        <ele>487.59997558594</ele>
        <time>2012-11-24T10:58:58Z</time>
      </trkpt>
      <trkpt lat="45.67743" lon="5.78259">
        <ele>488.59997558594</ele>
        <time>2012-11-24T10:59:06Z</time>
      </trkpt>
      <trkpt lat="45.67743" lon="5.78273">
        <ele>490.29998779297</ele>
        <time>2012-11-24T10:59:14Z</time>
      </trkpt>
      <trkpt lat="45.67742" lon="5.78286">
        <ele>490.70001220703</ele>
        <time>2012-11-24T10:59:21Z</time>
      </trkpt>
      <trkpt lat="45.67742" lon="5.78299">
        <ele>491.79998779297</ele>
        <time>2012-11-24T10:59:28Z</time>
      </trkpt>
      <trkpt lat="45.6774" lon="5.78312">
        <ele>492.79998779297</ele>
        <time>2012-11-24T10:59:35Z</time>
      </trkpt>
      <trkpt lat="45.6774" lon="5.78326">
        <ele>493.20001220703</ele>
        <time>2012-11-24T10:59:42Z</time>
      </trkpt>
      <trkpt lat="45.67739" lon="5.78339">
        <ele>494.29998779297</ele>
        <time>2012-11-24T10:59:49Z</time>
      </trkpt>
      <trkpt lat="45.6774" lon="5.78353">
        <ele>495.40002441406</ele>
        <time>2012-11-24T10:59:56Z</time>
      </trkpt>
      <trkpt lat="45.6774" lon="5.78367">
        <ele>496.59997558594</ele>
        <time>2012-11-24T11:00:03Z</time>
      </trkpt>
      <trkpt lat="45.67741" lon="5.7838">
        <ele>496</ele>
        <time>2012-11-24T11:00:09Z</time>
      </trkpt>
      <trkpt lat="45.67743" lon="5.78395">
        <ele>496.70001220703</ele>
        <time>2012-11-24T11:00:17Z</time>
      </trkpt>
      <trkpt lat="45.67746" lon="5.78408">
        <ele>497</ele>
        <time>2012-11-24T11:00:24Z</time>
      </trkpt>
      <trkpt lat="45.67749" lon="5.7842">
        <ele>497.40002441406</ele>
        <time>2012-11-24T11:00:31Z</time>
      </trkpt>
      <trkpt lat="45.67751" lon="5.78434">
        <ele>496.79998779297</ele>
        <time>2012-11-24T11:00:39Z</time>
      </trkpt>
      <trkpt lat="45.67751" lon="5.78447">
        <ele>499.29998779297</ele>
        <time>2012-11-24T11:00:46Z</time>
      </trkpt>
      <trkpt lat="45.67745" lon="5.78458">
        <ele>498.90002441406</ele>
        <time>2012-11-24T11:00:54Z</time>
      </trkpt>
      <trkpt lat="45.67736" lon="5.78463">
        <ele>499</ele>
        <time>2012-11-24T11:01:03Z</time>
      </trkpt>
      <trkpt lat="45.67735" lon="5.78476">
        <ele>498.40002441406</ele>
        <time>2012-11-24T11:01:12Z</time>
      </trkpt>
      <trkpt lat="45.67731" lon="5.78488">
        <ele>497.90002441406</ele>
        <time>2012-11-24T11:01:19Z</time>
      </trkpt>
      <trkpt lat="45.67726" lon="5.78499">
        <ele>495.90002441406</ele>
        <time>2012-11-24T11:01:31Z</time>
      </trkpt>
      <trkpt lat="45.67716" lon="5.78498">
        <ele>495.20001220703</ele>
        <time>2012-11-24T11:01:37Z</time>
      </trkpt>
      <trkpt lat="45.67706" lon="5.78505">
        <ele>493.90002441406</ele>
        <time>2012-11-24T11:01:42Z</time>
      </trkpt>
      <trkpt lat="45.67697" lon="5.78511">
        <ele>493.70001220703</ele>
        <time>2012-11-24T11:01:46Z</time>
      </trkpt>
      <trkpt lat="45.6769" lon="5.78519">
        <ele>494.79998779297</ele>
        <time>2012-11-24T11:01:52Z</time>
      </trkpt>
      <trkpt lat="45.67683" lon="5.78528">
        <ele>495</ele>
        <time>2012-11-24T11:01:59Z</time>
      </trkpt>
      <trkpt lat="45.67676" lon="5.78538">
        <ele>494.90002441406</ele>
        <time>2012-11-24T11:02:06Z</time>
      </trkpt>
      <trkpt lat="45.67671" lon="5.7855">
        <ele>496.90002441406</ele>
        <time>2012-11-24T11:02:13Z</time>
      </trkpt>
      <trkpt lat="45.67665" lon="5.78561">
        <ele>498.79998779297</ele>
        <time>2012-11-24T11:02:20Z</time>
      </trkpt>
      <trkpt lat="45.6766" lon="5.78573">
        <ele>499.40002441406</ele>
        <time>2012-11-24T11:02:27Z</time>
      </trkpt>
      <trkpt lat="45.67656" lon="5.78585">
        <ele>499.20001220703</ele>
        <time>2012-11-24T11:02:33Z</time>
      </trkpt>
      <trkpt lat="45.6765" lon="5.78596">
        <ele>499.59997558594</ele>
        <time>2012-11-24T11:02:41Z</time>
      </trkpt>
      <trkpt lat="45.67645" lon="5.78607">
        <ele>500.29998779297</ele>
        <time>2012-11-24T11:02:48Z</time>
      </trkpt>
      <trkpt lat="45.67639" lon="5.78619">
        <ele>500.70001220703</ele>
        <time>2012-11-24T11:02:55Z</time>
      </trkpt>
      <trkpt lat="45.67634" lon="5.78631">
        <ele>501.20001220703</ele>
        <time>2012-11-24T11:03:02Z</time>
      </trkpt>
      <trkpt lat="45.67629" lon="5.78642">
        <ele>501.59997558594</ele>
        <time>2012-11-24T11:03:08Z</time>
      </trkpt>
      <trkpt lat="45.67625" lon="5.78654">
        <ele>502.20001220703</ele>
        <time>2012-11-24T11:03:15Z</time>
      </trkpt>
      <trkpt lat="45.67621" lon="5.78666">
        <ele>501.5</ele>
        <time>2012-11-24T11:03:22Z</time>
      </trkpt>
      <trkpt lat="45.67621" lon="5.78679">
        <ele>500.09997558594</ele>
        <time>2012-11-24T11:03:29Z</time>
      </trkpt>
      <trkpt lat="45.67624" lon="5.78692">
        <ele>498.59997558594</ele>
        <time>2012-11-24T11:03:36Z</time>
      </trkpt>
      <trkpt lat="45.67625" lon="5.78705">
        <ele>498.59997558594</ele>
        <time>2012-11-24T11:03:43Z</time>
      </trkpt>
      <trkpt lat="45.67626" lon="5.78719">
        <ele>498</ele>
        <time>2012-11-24T11:03:50Z</time>
      </trkpt>
      <trkpt lat="45.67625" lon="5.78733">
        <ele>497.40002441406</ele>
        <time>2012-11-24T11:03:57Z</time>
      </trkpt>
      <trkpt lat="45.67627" lon="5.78747">
        <ele>496.70001220703</ele>
        <time>2012-11-24T11:04:04Z</time>
      </trkpt>
      <trkpt lat="45.67633" lon="5.78774">
        <ele>497.59997558594</ele>
        <time>2012-11-24T11:04:17Z</time>
      </trkpt>
      <trkpt lat="45.67637" lon="5.78787">
        <ele>498.40002441406</ele>
        <time>2012-11-24T11:04:23Z</time>
      </trkpt>
      <trkpt lat="45.67639" lon="5.788">
        <ele>498.70001220703</ele>
        <time>2012-11-24T11:04:29Z</time>
      </trkpt>
      <trkpt lat="45.67641" lon="5.78814">
        <ele>498.40002441406</ele>
        <time>2012-11-24T11:04:36Z</time>
      </trkpt>
      <trkpt lat="45.67643" lon="5.78827">
        <ele>496.90002441406</ele>
        <time>2012-11-24T11:04:43Z</time>
      </trkpt>
      <trkpt lat="45.67644" lon="5.7884">
        <ele>495.79998779297</ele>
        <time>2012-11-24T11:04:50Z</time>
      </trkpt>
      <trkpt lat="45.67647" lon="5.78853">
        <ele>496.09997558594</ele>
        <time>2012-11-24T11:04:58Z</time>
      </trkpt>
      <trkpt lat="45.6765" lon="5.78866">
        <ele>495.90002441406</ele>
        <time>2012-11-24T11:05:05Z</time>
      </trkpt>
      <trkpt lat="45.67655" lon="5.78879">
        <ele>497.40002441406</ele>
        <time>2012-11-24T11:05:12Z</time>
      </trkpt>
      <trkpt lat="45.67659" lon="5.78891">
        <ele>497.40002441406</ele>
        <time>2012-11-24T11:05:19Z</time>
      </trkpt>
      <trkpt lat="45.67665" lon="5.78903">
        <ele>496.09997558594</ele>
        <time>2012-11-24T11:05:27Z</time>
      </trkpt>
      <trkpt lat="45.67677" lon="5.78924">
        <ele>495.29998779297</ele>
        <time>2012-11-24T11:05:41Z</time>
      </trkpt>
      <trkpt lat="45.67683" lon="5.78933">
        <ele>494.20001220703</ele>
        <time>2012-11-24T11:05:49Z</time>
      </trkpt>
      <trkpt lat="45.6769" lon="5.78943">
        <ele>493</ele>
        <time>2012-11-24T11:05:57Z</time>
      </trkpt>
      <trkpt lat="45.67697" lon="5.78953">
        <ele>492.09997558594</ele>
        <time>2012-11-24T11:06:05Z</time>
      </trkpt>
      <trkpt lat="45.67702" lon="5.78965">
        <ele>491.09997558594</ele>
        <time>2012-11-24T11:06:13Z</time>
      </trkpt>
      <trkpt lat="45.67708" lon="5.78976">
        <ele>490.59997558594</ele>
        <time>2012-11-24T11:06:24Z</time>
      </trkpt>
      <trkpt lat="45.67715" lon="5.78986">
        <ele>490.09997558594</ele>
        <time>2012-11-24T11:06:30Z</time>
      </trkpt>
      <trkpt lat="45.67721" lon="5.78996">
        <ele>488.90002441406</ele>
        <time>2012-11-24T11:06:37Z</time>
      </trkpt>
      <trkpt lat="45.67728" lon="5.79007">
        <ele>488</ele>
        <time>2012-11-24T11:06:44Z</time>
      </trkpt>
      <trkpt lat="45.67735" lon="5.79017">
        <ele>487</ele>
        <time>2012-11-24T11:06:51Z</time>
      </trkpt>
      <trkpt lat="45.67742" lon="5.79026">
        <ele>486.20001220703</ele>
        <time>2012-11-24T11:06:57Z</time>
      </trkpt>
      <trkpt lat="45.67756" lon="5.79046">
        <ele>485.09997558594</ele>
        <time>2012-11-24T11:07:12Z</time>
      </trkpt>
      <trkpt lat="45.67763" lon="5.79055">
        <ele>484.70001220703</ele>
        <time>2012-11-24T11:07:18Z</time>
      </trkpt>
      <trkpt lat="45.67777" lon="5.79074">
        <ele>483.59997558594</ele>
        <time>2012-11-24T11:07:32Z</time>
      </trkpt>
      <trkpt lat="45.67785" lon="5.79082">
        <ele>483.5</ele>
        <time>2012-11-24T11:07:39Z</time>
      </trkpt>
      <trkpt lat="45.67798" lon="5.79102">
        <ele>482.20001220703</ele>
        <time>2012-11-24T11:07:54Z</time>
      </trkpt>
      <trkpt lat="45.67804" lon="5.79114">
        <ele>481.29998779297</ele>
        <time>2012-11-24T11:08:02Z</time>
      </trkpt>
      <trkpt lat="45.67809" lon="5.79125">
        <ele>480</ele>
        <time>2012-11-24T11:08:09Z</time>
      </trkpt>
      <trkpt lat="45.67814" lon="5.79152">
        <ele>477.90002441406</ele>
        <time>2012-11-24T11:08:24Z</time>
      </trkpt>
      <trkpt lat="45.67815" lon="5.79165">
        <ele>477.20001220703</ele>
        <time>2012-11-24T11:08:34Z</time>
      </trkpt>
      <trkpt lat="45.67816" lon="5.79179">
        <ele>476.59997558594</ele>
        <time>2012-11-24T11:08:44Z</time>
      </trkpt>
      <trkpt lat="45.67816" lon="5.79193">
        <ele>476.90002441406</ele>
        <time>2012-11-24T11:08:51Z</time>
      </trkpt>
      <trkpt lat="45.67817" lon="5.79206">
        <ele>477.20001220703</ele>
        <time>2012-11-24T11:08:58Z</time>
      </trkpt>
      <trkpt lat="45.67818" lon="5.79218">
        <ele>479.29998779297</ele>
        <time>2012-11-24T11:09:04Z</time>
      </trkpt>
      <trkpt lat="45.67823" lon="5.79245">
        <ele>478.70001220703</ele>
        <time>2012-11-24T11:09:18Z</time>
      </trkpt>
      <trkpt lat="45.67827" lon="5.79272">
        <ele>477.59997558594</ele>
        <time>2012-11-24T11:09:32Z</time>
      </trkpt>
      <trkpt lat="45.67828" lon="5.79286">
        <ele>477</ele>
        <time>2012-11-24T11:09:40Z</time>
      </trkpt>
      <trkpt lat="45.67837" lon="5.7931">
        <ele>476.59997558594</ele>
        <time>2012-11-24T11:09:56Z</time>
      </trkpt>
      <trkpt lat="45.67844" lon="5.7932">
        <ele>476.70001220703</ele>
        <time>2012-11-24T11:10:03Z</time>
      </trkpt>
      <trkpt lat="45.67857" lon="5.79346">
        <ele>477.20001220703</ele>
        <time>2012-11-24T11:10:15Z</time>
      </trkpt>
      <trkpt lat="45.67872" lon="5.79376">
        <ele>476.29998779297</ele>
        <time>2012-11-24T11:10:21Z</time>
      </trkpt>
      <trkpt lat="45.67886" lon="5.79404">
        <ele>475.90002441406</ele>
        <time>2012-11-24T11:10:27Z</time>
      </trkpt>
      <trkpt lat="45.67902" lon="5.7943">
        <ele>476.29998779297</ele>
        <time>2012-11-24T11:10:33Z</time>
      </trkpt>
      <trkpt lat="45.67916" lon="5.79451">
        <ele>476.20001220703</ele>
        <time>2012-11-24T11:10:39Z</time>
      </trkpt>
      <trkpt lat="45.67931" lon="5.79474">
        <ele>476.5</ele>
        <time>2012-11-24T11:10:45Z</time>
      </trkpt>
      <trkpt lat="45.67942" lon="5.79498">
        <ele>476.09997558594</ele>
        <time>2012-11-24T11:10:51Z</time>
      </trkpt>
      <trkpt lat="45.67944" lon="5.79526">
        <ele>476.90002441406</ele>
        <time>2012-11-24T11:11:04Z</time>
      </trkpt>
      <trkpt lat="45.67957" lon="5.79546">
        <ele>477.5</ele>
        <time>2012-11-24T11:11:18Z</time>
      </trkpt>
      <trkpt lat="45.67973" lon="5.79564">
        <ele>478.5</ele>
        <time>2012-11-24T11:11:36Z</time>
      </trkpt>
      <trkpt lat="45.67998" lon="5.79587">
        <ele>476</ele>
        <time>2012-11-24T11:11:57Z</time>
      </trkpt>
      <trkpt lat="45.68015" lon="5.79599">
        <ele>472.20001220703</ele>
        <time>2012-11-24T11:12:14Z</time>
      </trkpt>
      <trkpt lat="45.68033" lon="5.79612">
        <ele>472.20001220703</ele>
        <time>2012-11-24T11:12:29Z</time>
      </trkpt>
      <trkpt lat="45.6806" lon="5.79631">
        <ele>471.5</ele>
        <time>2012-11-24T11:12:41Z</time>
      </trkpt>
      <trkpt lat="45.68089" lon="5.79644">
        <ele>471.29998779297</ele>
        <time>2012-11-24T11:12:47Z</time>
      </trkpt>
      <trkpt lat="45.68119" lon="5.79662">
        <ele>471.90002441406</ele>
        <time>2012-11-24T11:12:53Z</time>
      </trkpt>
      <trkpt lat="45.68144" lon="5.79693">
        <ele>470.70001220703</ele>
        <time>2012-11-24T11:13:00Z</time>
      </trkpt>
      <trkpt lat="45.68166" lon="5.79728">
        <ele>472</ele>
        <time>2012-11-24T11:13:15Z</time>
      </trkpt>
      <trkpt lat="45.68185" lon="5.7976">
        <ele>468.79998779297</ele>
        <time>2012-11-24T11:13:37Z</time>
      </trkpt>
      <trkpt lat="45.68204" lon="5.79778">
        <ele>466.40002441406</ele>
        <time>2012-11-24T11:14:10Z</time>
      </trkpt>
      <trkpt lat="45.68213" lon="5.79787">
        <ele>466.09997558594</ele>
        <time>2012-11-24T11:14:13Z</time>
      </trkpt>
      <trkpt lat="45.68226" lon="5.79806">
        <ele>466.40002441406</ele>
        <time>2012-11-24T11:14:17Z</time>
      </trkpt>
      <trkpt lat="45.68241" lon="5.79831">
        <ele>466.5</ele>
        <time>2012-11-24T11:14:22Z</time>
      </trkpt>
      <trkpt lat="45.68257" lon="5.79856">
        <ele>467.79998779297</ele>
        <time>2012-11-24T11:14:28Z</time>
      </trkpt>
      <trkpt lat="45.68273" lon="5.79873">
        <ele>469.40002441406</ele>
        <time>2012-11-24T11:14:40Z</time>
      </trkpt>
      <trkpt lat="45.68288" lon="5.7989">
        <ele>469.29998779297</ele>
        <time>2012-11-24T11:14:54Z</time>
      </trkpt>
      <trkpt lat="45.68303" lon="5.79909">
        <ele>469.5</ele>
        <time>2012-11-24T11:15:08Z</time>
      </trkpt>
      <trkpt lat="45.68319" lon="5.79927">
        <ele>469.90002441406</ele>
        <time>2012-11-24T11:15:22Z</time>
      </trkpt>
      <trkpt lat="45.68335" lon="5.7994">
        <ele>470.09997558594</ele>
        <time>2012-11-24T11:15:34Z</time>
      </trkpt>
      <trkpt lat="45.68352" lon="5.79953">
        <ele>468.79998779297</ele>
        <time>2012-11-24T11:15:49Z</time>
      </trkpt>
      <trkpt lat="45.6836" lon="5.7996">
        <ele>468.5</ele>
        <time>2012-11-24T11:15:56Z</time>
      </trkpt>
      <trkpt lat="45.68376" lon="5.79976">
        <ele>467.59997558594</ele>
        <time>2012-11-24T11:16:11Z</time>
      </trkpt>
      <trkpt lat="45.68386" lon="5.8">
        <ele>464.5</ele>
        <time>2012-11-24T11:16:27Z</time>
      </trkpt>
      <trkpt lat="45.68396" lon="5.80024">
        <ele>462.5</ele>
        <time>2012-11-24T11:16:41Z</time>
      </trkpt>
      <trkpt lat="45.68405" lon="5.80047">
        <ele>460.5</ele>
        <time>2012-11-24T11:16:55Z</time>
      </trkpt>
      <trkpt lat="45.68415" lon="5.80072">
        <ele>458.90002441406</ele>
        <time>2012-11-24T11:17:09Z</time>
      </trkpt>
      <trkpt lat="45.68426" lon="5.80094">
        <ele>458.09997558594</ele>
        <time>2012-11-24T11:17:21Z</time>
      </trkpt>
      <trkpt lat="45.68437" lon="5.80114">
        <ele>457.79998779297</ele>
        <time>2012-11-24T11:17:33Z</time>
      </trkpt>
      <trkpt lat="45.6845" lon="5.80134">
        <ele>458.29998779297</ele>
        <time>2012-11-24T11:17:45Z</time>
      </trkpt>
      <trkpt lat="45.68463" lon="5.80156">
        <ele>457.90002441406</ele>
        <time>2012-11-24T11:17:59Z</time>
      </trkpt>
      <trkpt lat="45.68477" lon="5.80176">
        <ele>457</ele>
        <time>2012-11-24T11:18:14Z</time>
      </trkpt>
      <trkpt lat="45.68483" lon="5.80186">
        <ele>457</ele>
        <time>2012-11-24T11:18:21Z</time>
      </trkpt>
      <trkpt lat="45.68491" lon="5.80196">
        <ele>456.40002441406</ele>
        <time>2012-11-24T11:18:28Z</time>
      </trkpt>
      <trkpt lat="45.68505" lon="5.80216">
        <ele>455.70001220703</ele>
        <time>2012-11-24T11:18:41Z</time>
      </trkpt>
      <trkpt lat="45.68512" lon="5.80226">
        <ele>455.09997558594</ele>
        <time>2012-11-24T11:18:48Z</time>
      </trkpt>
      <trkpt lat="45.68527" lon="5.80244">
        <ele>455.40002441406</ele>
        <time>2012-11-24T11:19:01Z</time>
      </trkpt>
      <trkpt lat="45.6854" lon="5.80264">
        <ele>455.5</ele>
        <time>2012-11-24T11:19:14Z</time>
      </trkpt>
      <trkpt lat="45.68558" lon="5.80297">
        <ele>454.5</ele>
        <time>2012-11-24T11:19:37Z</time>
      </trkpt>
      <trkpt lat="45.68573" lon="5.80297">
        <ele>453.40002441406</ele>
        <time>2012-11-24T11:19:54Z</time>
      </trkpt>
      <trkpt lat="45.68581" lon="5.80289">
        <ele>452.59997558594</ele>
        <time>2012-11-24T11:20:03Z</time>
      </trkpt>
      <trkpt lat="45.68589" lon="5.80295">
        <ele>450.09997558594</ele>
        <time>2012-11-24T11:20:11Z</time>
      </trkpt>
      <trkpt lat="45.68594" lon="5.80307">
        <ele>449.59997558594</ele>
        <time>2012-11-24T11:20:19Z</time>
      </trkpt>
      <trkpt lat="45.68599" lon="5.80318">
        <ele>448.79998779297</ele>
        <time>2012-11-24T11:20:27Z</time>
      </trkpt>
      <trkpt lat="45.68603" lon="5.80331">
        <ele>447.59997558594</ele>
        <time>2012-11-24T11:20:36Z</time>
      </trkpt>
      <trkpt lat="45.68616" lon="5.80349">
        <ele>444.29998779297</ele>
        <time>2012-11-24T11:20:49Z</time>
      </trkpt>
      <trkpt lat="45.68634" lon="5.80353">
        <ele>441.09997558594</ele>
        <time>2012-11-24T11:21:03Z</time>
      </trkpt>
      <trkpt lat="45.68643" lon="5.8035">
        <ele>440.70001220703</ele>
        <time>2012-11-24T11:21:11Z</time>
      </trkpt>
      <trkpt lat="45.68661" lon="5.80342">
        <ele>438.09997558594</ele>
        <time>2012-11-24T11:21:25Z</time>
      </trkpt>
      <trkpt lat="45.6867" lon="5.80338">
        <ele>437.40002441406</ele>
        <time>2012-11-24T11:21:32Z</time>
      </trkpt>
      <trkpt lat="45.68679" lon="5.80333">
        <ele>436.40002441406</ele>
        <time>2012-11-24T11:21:39Z</time>
      </trkpt>
      <trkpt lat="45.68688" lon="5.80328">
        <ele>435</ele>
        <time>2012-11-24T11:21:46Z</time>
      </trkpt>
      <trkpt lat="45.68697" lon="5.80323">
        <ele>434.70001220703</ele>
        <time>2012-11-24T11:21:53Z</time>
      </trkpt>
      <trkpt lat="45.68707" lon="5.8032">
        <ele>434.79998779297</ele>
        <time>2012-11-24T11:22:00Z</time>
      </trkpt>
      <trkpt lat="45.68716" lon="5.80319">
        <ele>435.20001220703</ele>
        <time>2012-11-24T11:22:06Z</time>
      </trkpt>
      <trkpt lat="45.68725" lon="5.80317">
        <ele>435.59997558594</ele>
        <time>2012-11-24T11:22:12Z</time>
      </trkpt>
      <trkpt lat="45.68735" lon="5.80312">
        <ele>435.59997558594</ele>
        <time>2012-11-24T11:22:19Z</time>
      </trkpt>
      <trkpt lat="45.68743" lon="5.80304">
        <ele>434.59997558594</ele>
        <time>2012-11-24T11:22:26Z</time>
      </trkpt>
      <trkpt lat="45.68751" lon="5.80296">
        <ele>433.70001220703</ele>
        <time>2012-11-24T11:22:34Z</time>
      </trkpt>
      <trkpt lat="45.68761" lon="5.80291">
        <ele>433.40002441406</ele>
        <time>2012-11-24T11:23:27Z</time>
      </trkpt>
      <trkpt lat="45.68765" lon="5.80297">
        <ele>472.20001220703</ele>
        <time>2012-11-24T12:11:36Z</time>
      </trkpt>
      <trkpt lat="45.6879" lon="5.80303">
        <ele>436.20001220703</ele>
        <time>2012-11-24T12:12:14Z</time>
      </trkpt>
      <trkpt lat="45.68816" lon="5.80315">
        <ele>426.5</ele>
        <time>2012-11-24T12:13:02Z</time>
      </trkpt>
      <trkpt lat="45.68825" lon="5.80318">
        <ele>426</ele>
        <time>2012-11-24T12:13:09Z</time>
      </trkpt>
      <trkpt lat="45.68835" lon="5.80321">
        <ele>424.79998779297</ele>
        <time>2012-11-24T12:13:17Z</time>
      </trkpt>
      <trkpt lat="45.68862" lon="5.80332">
        <ele>420.5</ele>
        <time>2012-11-24T12:13:38Z</time>
      </trkpt>
      <trkpt lat="45.68869" lon="5.80342">
        <ele>420.09997558594</ele>
        <time>2012-11-24T12:13:46Z</time>
      </trkpt>
      <trkpt lat="45.68879" lon="5.80346">
        <ele>419.09997558594</ele>
        <time>2012-11-24T12:13:54Z</time>
      </trkpt>
      <trkpt lat="45.68896" lon="5.80355">
        <ele>416.5</ele>
        <time>2012-11-24T12:14:08Z</time>
      </trkpt>
      <trkpt lat="45.68913" lon="5.80368">
        <ele>412</ele>
        <time>2012-11-24T12:15:02Z</time>
      </trkpt>
      <trkpt lat="45.68923" lon="5.80373">
        <ele>411.09997558594</ele>
        <time>2012-11-24T12:15:10Z</time>
      </trkpt>
      <trkpt lat="45.68941" lon="5.80381">
        <ele>408.59997558594</ele>
        <time>2012-11-24T12:15:25Z</time>
      </trkpt>
      <trkpt lat="45.68942" lon="5.80393">
        <ele>406.29998779297</ele>
        <time>2012-11-24T12:15:36Z</time>
      </trkpt>
      <trkpt lat="45.68947" lon="5.80422">
        <ele>405</ele>
        <time>2012-11-24T12:15:45Z</time>
      </trkpt>
      <trkpt lat="45.68952" lon="5.80454">
        <ele>404.70001220703</ele>
        <time>2012-11-24T12:15:51Z</time>
      </trkpt>
      <trkpt lat="45.68956" lon="5.8049">
        <ele>404.29998779297</ele>
        <time>2012-11-24T12:15:57Z</time>
      </trkpt>
      <trkpt lat="45.68959" lon="5.80521">
        <ele>403.5</ele>
        <time>2012-11-24T12:16:02Z</time>
      </trkpt>
      <trkpt lat="45.68963" lon="5.80552">
        <ele>402.90002441406</ele>
        <time>2012-11-24T12:16:09Z</time>
      </trkpt>
      <trkpt lat="45.68964" lon="5.80566">
        <ele>403.09997558594</ele>
        <time>2012-11-24T12:16:16Z</time>
      </trkpt>
      <trkpt lat="45.68968" lon="5.80592">
        <ele>403.29998779297</ele>
        <time>2012-11-24T12:16:31Z</time>
      </trkpt>
      <trkpt lat="45.68972" lon="5.80619">
        <ele>403.09997558594</ele>
        <time>2012-11-24T12:16:46Z</time>
      </trkpt>
      <trkpt lat="45.68975" lon="5.80645">
        <ele>403</ele>
        <time>2012-11-24T12:17:01Z</time>
      </trkpt>
      <trkpt lat="45.68978" lon="5.80657">
        <ele>402.59997558594</ele>
        <time>2012-11-24T12:17:09Z</time>
      </trkpt>
      <trkpt lat="45.68978" lon="5.8067">
        <ele>402.09997558594</ele>
        <time>2012-11-24T12:17:17Z</time>
      </trkpt>
      <trkpt lat="45.68981" lon="5.807">
        <ele>401.09997558594</ele>
        <time>2012-11-24T12:17:32Z</time>
      </trkpt>
      <trkpt lat="45.68986" lon="5.80727">
        <ele>401</ele>
        <time>2012-11-24T12:17:46Z</time>
      </trkpt>
      <trkpt lat="45.68994" lon="5.80752">
        <ele>399.5</ele>
        <time>2012-11-24T12:17:59Z</time>
      </trkpt>
      <trkpt lat="45.68998" lon="5.80765">
        <ele>399.20001220703</ele>
        <time>2012-11-24T12:18:06Z</time>
      </trkpt>
      <trkpt lat="45.69002" lon="5.80778">
        <ele>398.59997558594</ele>
        <time>2012-11-24T12:18:14Z</time>
      </trkpt>
      <trkpt lat="45.69005" lon="5.80791">
        <ele>397.90002441406</ele>
        <time>2012-11-24T12:18:21Z</time>
      </trkpt>
      <trkpt lat="45.69009" lon="5.80804">
        <ele>397.09997558594</ele>
        <time>2012-11-24T12:18:28Z</time>
      </trkpt>
      <trkpt lat="45.69012" lon="5.80817">
        <ele>396.09997558594</ele>
        <time>2012-11-24T12:18:35Z</time>
      </trkpt>
      <trkpt lat="45.69016" lon="5.8083">
        <ele>394.90002441406</ele>
        <time>2012-11-24T12:18:42Z</time>
      </trkpt>
      <trkpt lat="45.69022" lon="5.80841">
        <ele>394.09997558594</ele>
        <time>2012-11-24T12:18:49Z</time>
      </trkpt>
      <trkpt lat="45.69027" lon="5.80852">
        <ele>393.09997558594</ele>
        <time>2012-11-24T12:18:56Z</time>
      </trkpt>
      <trkpt lat="45.69031" lon="5.80864">
        <ele>391.79998779297</ele>
        <time>2012-11-24T12:19:03Z</time>
      </trkpt>
      <trkpt lat="45.69033" lon="5.80878">
        <ele>390.5</ele>
        <time>2012-11-24T12:19:11Z</time>
      </trkpt>
      <trkpt lat="45.69035" lon="5.80891">
        <ele>389.40002441406</ele>
        <time>2012-11-24T12:19:19Z</time>
      </trkpt>
      <trkpt lat="45.69038" lon="5.80904">
        <ele>388.20001220703</ele>
        <time>2012-11-24T12:19:27Z</time>
      </trkpt>
      <trkpt lat="45.69044" lon="5.80915">
        <ele>386.90002441406</ele>
        <time>2012-11-24T12:19:35Z</time>
      </trkpt>
      <trkpt lat="45.69049" lon="5.80927">
        <ele>385.5</ele>
        <time>2012-11-24T12:19:44Z</time>
      </trkpt>
      <trkpt lat="45.69053" lon="5.8094">
        <ele>384.20001220703</ele>
        <time>2012-11-24T12:19:53Z</time>
      </trkpt>
      <trkpt lat="45.69056" lon="5.80953">
        <ele>382.59997558594</ele>
        <time>2012-11-24T12:20:02Z</time>
      </trkpt>
      <trkpt lat="45.69058" lon="5.80967">
        <ele>381.29998779297</ele>
        <time>2012-11-24T12:20:11Z</time>
      </trkpt>
      <trkpt lat="45.6906" lon="5.8098">
        <ele>380.59997558594</ele>
        <time>2012-11-24T12:20:20Z</time>
      </trkpt>
      <trkpt lat="45.69062" lon="5.80993">
        <ele>380.09997558594</ele>
        <time>2012-11-24T12:20:28Z</time>
      </trkpt>
      <trkpt lat="45.69062" lon="5.81007">
        <ele>380.20001220703</ele>
        <time>2012-11-24T12:20:36Z</time>
      </trkpt>
      <trkpt lat="45.69064" lon="5.81034">
        <ele>379.09997558594</ele>
        <time>2012-11-24T12:20:52Z</time>
      </trkpt>
      <trkpt lat="45.69061" lon="5.81046">
        <ele>378</ele>
        <time>2012-11-24T12:21:00Z</time>
      </trkpt>
      <trkpt lat="45.69052" lon="5.8107">
        <ele>376.70001220703</ele>
        <time>2012-11-24T12:21:14Z</time>
      </trkpt>
      <trkpt lat="45.6904" lon="5.8109">
        <ele>374.70001220703</ele>
        <time>2012-11-24T12:21:28Z</time>
      </trkpt>
      <trkpt lat="45.69028" lon="5.81115">
        <ele>373.20001220703</ele>
        <time>2012-11-24T12:21:38Z</time>
      </trkpt>
      <trkpt lat="45.69017" lon="5.81139">
        <ele>373</ele>
        <time>2012-11-24T12:21:50Z</time>
      </trkpt>
      <trkpt lat="45.69006" lon="5.81161">
        <ele>372.79998779297</ele>
        <time>2012-11-24T12:22:04Z</time>
      </trkpt>
      <trkpt lat="45.68995" lon="5.81184">
        <ele>373.5</ele>
        <time>2012-11-24T12:22:18Z</time>
      </trkpt>
      <trkpt lat="45.68985" lon="5.81207">
        <ele>375.29998779297</ele>
        <time>2012-11-24T12:22:31Z</time>
      </trkpt>
      <trkpt lat="45.68976" lon="5.81232">
        <ele>376.5</ele>
        <time>2012-11-24T12:22:47Z</time>
      </trkpt>
      <trkpt lat="45.68975" lon="5.81245">
        <ele>375.59997558594</ele>
        <time>2012-11-24T12:22:54Z</time>
      </trkpt>
      <trkpt lat="45.68972" lon="5.81273">
        <ele>373.79998779297</ele>
        <time>2012-11-24T12:23:10Z</time>
      </trkpt>
      <trkpt lat="45.68967" lon="5.81301">
        <ele>373.09997558594</ele>
        <time>2012-11-24T12:23:27Z</time>
      </trkpt>
      <trkpt lat="45.68962" lon="5.81327">
        <ele>373.20001220703</ele>
        <time>2012-11-24T12:23:42Z</time>
      </trkpt>
      <trkpt lat="45.68957" lon="5.81355">
        <ele>373.5</ele>
        <time>2012-11-24T12:23:55Z</time>
      </trkpt>
      <trkpt lat="45.68951" lon="5.81383">
        <ele>374.79998779297</ele>
        <time>2012-11-24T12:24:07Z</time>
      </trkpt>
      <trkpt lat="45.68945" lon="5.81409">
        <ele>376.09997558594</ele>
        <time>2012-11-24T12:24:20Z</time>
      </trkpt>
      <trkpt lat="45.68942" lon="5.81436">
        <ele>375.40002441406</ele>
        <time>2012-11-24T12:24:33Z</time>
      </trkpt>
      <trkpt lat="45.68935" lon="5.81461">
        <ele>375.90002441406</ele>
        <time>2012-11-24T12:24:50Z</time>
      </trkpt>
      <trkpt lat="45.68928" lon="5.81472">
        <ele>376.20001220703</ele>
        <time>2012-11-24T12:24:57Z</time>
      </trkpt>
      <trkpt lat="45.68921" lon="5.81482">
        <ele>376.5</ele>
        <time>2012-11-24T12:25:04Z</time>
      </trkpt>
      <trkpt lat="45.68913" lon="5.8149">
        <ele>375.20001220703</ele>
        <time>2012-11-24T12:25:17Z</time>
      </trkpt>
      <trkpt lat="45.68906" lon="5.81499">
        <ele>375.70001220703</ele>
        <time>2012-11-24T12:25:24Z</time>
      </trkpt>
      <trkpt lat="45.68898" lon="5.81508">
        <ele>376.20001220703</ele>
        <time>2012-11-24T12:25:31Z</time>
      </trkpt>
      <trkpt lat="45.68891" lon="5.81516">
        <ele>376.20001220703</ele>
        <time>2012-11-24T12:25:38Z</time>
      </trkpt>
      <trkpt lat="45.68884" lon="5.81527">
        <ele>376.29998779297</ele>
        <time>2012-11-24T12:25:46Z</time>
      </trkpt>
      <trkpt lat="45.68868" lon="5.81544">
        <ele>377.79998779297</ele>
        <time>2012-11-24T12:26:00Z</time>
      </trkpt>
      <trkpt lat="45.6887" lon="5.8157">
        <ele>377.29998779297</ele>
        <time>2012-11-24T12:26:20Z</time>
      </trkpt>
      <trkpt lat="45.68881" lon="5.81593">
        <ele>375.20001220703</ele>
        <time>2012-11-24T12:26:37Z</time>
      </trkpt>
      <trkpt lat="45.68891" lon="5.81617">
        <ele>375.5</ele>
        <time>2012-11-24T12:26:51Z</time>
      </trkpt>
      <trkpt lat="45.68897" lon="5.81645">
        <ele>376.20001220703</ele>
        <time>2012-11-24T12:26:57Z</time>
      </trkpt>
      <trkpt lat="45.68903" lon="5.81686">
        <ele>376</ele>
        <time>2012-11-24T12:27:03Z</time>
      </trkpt>
      <trkpt lat="45.68907" lon="5.81729">
        <ele>376.29998779297</ele>
        <time>2012-11-24T12:27:10Z</time>
      </trkpt>
      <trkpt lat="45.68907" lon="5.81757">
        <ele>377.20001220703</ele>
        <time>2012-11-24T12:27:20Z</time>
      </trkpt>
      <trkpt lat="45.68911" lon="5.81782">
        <ele>379.5</ele>
        <time>2012-11-24T12:27:33Z</time>
      </trkpt>
      <trkpt lat="45.68926" lon="5.81798">
        <ele>380.79998779297</ele>
        <time>2012-11-24T12:27:47Z</time>
      </trkpt>
      <trkpt lat="45.6894" lon="5.81817">
        <ele>382.59997558594</ele>
        <time>2012-11-24T12:28:01Z</time>
      </trkpt>
      <trkpt lat="45.68958" lon="5.81823">
        <ele>382.40002441406</ele>
        <time>2012-11-24T12:28:15Z</time>
      </trkpt>
      <trkpt lat="45.68975" lon="5.81833">
        <ele>381</ele>
        <time>2012-11-24T12:28:28Z</time>
      </trkpt>
      <trkpt lat="45.68985" lon="5.81856">
        <ele>381.70001220703</ele>
        <time>2012-11-24T12:28:41Z</time>
      </trkpt>
      <trkpt lat="45.68985" lon="5.81884">
        <ele>380.59997558594</ele>
        <time>2012-11-24T12:28:55Z</time>
      </trkpt>
      <trkpt lat="45.68989" lon="5.81909">
        <ele>381.90002441406</ele>
        <time>2012-11-24T12:29:08Z</time>
      </trkpt>
      <trkpt lat="45.69" lon="5.81934">
        <ele>382</ele>
        <time>2012-11-24T12:29:22Z</time>
      </trkpt>
      <trkpt lat="45.69005" lon="5.81946">
        <ele>382.40002441406</ele>
        <time>2012-11-24T12:29:29Z</time>
      </trkpt>
      <trkpt lat="45.68986" lon="5.81962">
        <ele>383.20001220703</ele>
        <time>2012-11-24T12:29:50Z</time>
      </trkpt>
      <trkpt lat="45.68967" lon="5.81958">
        <ele>384</ele>
        <time>2012-11-24T12:30:04Z</time>
      </trkpt>
      <trkpt lat="45.68977" lon="5.81962">
        <ele>383.29998779297</ele>
        <time>2012-11-24T12:31:31Z</time>
      </trkpt>
      <trkpt lat="45.68996" lon="5.81964">
        <ele>383.20001220703</ele>
        <time>2012-11-24T12:31:47Z</time>
      </trkpt>
      <trkpt lat="45.69006" lon="5.81986">
        <ele>381.70001220703</ele>
        <time>2012-11-24T12:32:01Z</time>
      </trkpt>
      <trkpt lat="45.69006" lon="5.82012">
        <ele>382.59997558594</ele>
        <time>2012-11-24T12:32:14Z</time>
      </trkpt>
      <trkpt lat="45.68998" lon="5.82038">
        <ele>383</ele>
        <time>2012-11-24T12:32:28Z</time>
      </trkpt>
      <trkpt lat="45.68989" lon="5.82061">
        <ele>383.79998779297</ele>
        <time>2012-11-24T12:32:41Z</time>
      </trkpt>
      <trkpt lat="45.68978" lon="5.82086">
        <ele>387.20001220703</ele>
        <time>2012-11-24T12:32:55Z</time>
      </trkpt>
      <trkpt lat="45.68967" lon="5.82109">
        <ele>390</ele>
        <time>2012-11-24T12:33:09Z</time>
      </trkpt>
      <trkpt lat="45.68955" lon="5.82131">
        <ele>390.5</ele>
        <time>2012-11-24T12:33:22Z</time>
      </trkpt>
      <trkpt lat="45.68943" lon="5.82153">
        <ele>391.20001220703</ele>
        <time>2012-11-24T12:33:37Z</time>
      </trkpt>
      <trkpt lat="45.68932" lon="5.82176">
        <ele>392.5</ele>
        <time>2012-11-24T12:33:50Z</time>
      </trkpt>
      <trkpt lat="45.6892" lon="5.82198">
        <ele>393.90002441406</ele>
        <time>2012-11-24T12:34:04Z</time>
      </trkpt>
      <trkpt lat="45.68908" lon="5.8222">
        <ele>395.79998779297</ele>
        <time>2012-11-24T12:34:17Z</time>
      </trkpt>
      <trkpt lat="45.68897" lon="5.82244">
        <ele>397</ele>
        <time>2012-11-24T12:34:31Z</time>
      </trkpt>
      <trkpt lat="45.68886" lon="5.82269">
        <ele>401.79998779297</ele>
        <time>2012-11-24T12:34:43Z</time>
      </trkpt>
      <trkpt lat="45.68878" lon="5.82293">
        <ele>401.70001220703</ele>
        <time>2012-11-24T12:34:59Z</time>
      </trkpt>
      <trkpt lat="45.6887" lon="5.82319">
        <ele>401.5</ele>
        <time>2012-11-24T12:35:13Z</time>
      </trkpt>
      <trkpt lat="45.68864" lon="5.82347">
        <ele>402.29998779297</ele>
        <time>2012-11-24T12:35:27Z</time>
      </trkpt>
      <trkpt lat="45.68864" lon="5.82375">
        <ele>404.20001220703</ele>
        <time>2012-11-24T12:35:40Z</time>
      </trkpt>
      <trkpt lat="45.6887" lon="5.82385">
        <ele>403</ele>
        <time>2012-11-24T12:35:47Z</time>
      </trkpt>
      <trkpt lat="45.68875" lon="5.82397">
        <ele>403.29998779297</ele>
        <time>2012-11-24T12:35:54Z</time>
      </trkpt>
      <trkpt lat="45.68885" lon="5.82421">
        <ele>404.90002441406</ele>
        <time>2012-11-24T12:36:07Z</time>
      </trkpt>
      <trkpt lat="45.68887" lon="5.82435">
        <ele>405.79998779297</ele>
        <time>2012-11-24T12:36:14Z</time>
      </trkpt>
      <trkpt lat="45.68883" lon="5.82473">
        <ele>406.29998779297</ele>
        <time>2012-11-24T12:36:32Z</time>
      </trkpt>
      <trkpt lat="45.68877" lon="5.82514">
        <ele>407</ele>
        <time>2012-11-24T12:36:51Z</time>
      </trkpt>
      <trkpt lat="45.68874" lon="5.82542">
        <ele>408.70001220703</ele>
        <time>2012-11-24T12:37:05Z</time>
      </trkpt>
      <trkpt lat="45.68869" lon="5.82569">
        <ele>410.70001220703</ele>
        <time>2012-11-24T12:37:20Z</time>
      </trkpt>
      <trkpt lat="45.68865" lon="5.82607">
        <ele>412.20001220703</ele>
        <time>2012-11-24T12:37:37Z</time>
      </trkpt>
      <trkpt lat="45.68863" lon="5.82648">
        <ele>413.29998779297</ele>
        <time>2012-11-24T12:37:52Z</time>
      </trkpt>
      <trkpt lat="45.68861" lon="5.82676">
        <ele>414.09997558594</ele>
        <time>2012-11-24T12:38:08Z</time>
      </trkpt>
      <trkpt lat="45.68859" lon="5.82702">
        <ele>416.70001220703</ele>
        <time>2012-11-24T12:38:21Z</time>
      </trkpt>
      <trkpt lat="45.68857" lon="5.82728">
        <ele>418.90002441406</ele>
        <time>2012-11-24T12:38:34Z</time>
      </trkpt>
      <trkpt lat="45.68855" lon="5.82759">
        <ele>422.20001220703</ele>
        <time>2012-11-24T12:38:49Z</time>
      </trkpt>
      <trkpt lat="45.68855" lon="5.82807">
        <ele>423.09997558594</ele>
        <time>2012-11-24T12:38:56Z</time>
      </trkpt>
      <trkpt lat="45.68854" lon="5.82857">
        <ele>423.70001220703</ele>
        <time>2012-11-24T12:39:02Z</time>
      </trkpt>
      <trkpt lat="45.68849" lon="5.8291">
        <ele>424.90002441406</ele>
        <time>2012-11-24T12:39:08Z</time>
      </trkpt>
      <trkpt lat="45.68853" lon="5.82994">
        <ele>427.90002441406</ele>
        <time>2012-11-24T12:39:19Z</time>
      </trkpt>
      <trkpt lat="45.68856" lon="5.83035">
        <ele>436.70001220703</ele>
        <time>2012-11-24T12:39:33Z</time>
      </trkpt>
      <trkpt lat="45.68863" lon="5.83074">
        <ele>445.29998779297</ele>
        <time>2012-11-24T12:39:53Z</time>
      </trkpt>
      <trkpt lat="45.68869" lon="5.83101">
        <ele>449.59997558594</ele>
        <time>2012-11-24T12:40:07Z</time>
      </trkpt>
      <trkpt lat="45.68871" lon="5.83142">
        <ele>453.90002441406</ele>
        <time>2012-11-24T12:40:41Z</time>
      </trkpt>
      <trkpt lat="45.68881" lon="5.8318">
        <ele>456</ele>
        <time>2012-11-24T12:41:01Z</time>
      </trkpt>
      <trkpt lat="45.68889" lon="5.83206">
        <ele>457.59997558594</ele>
        <time>2012-11-24T12:41:13Z</time>
      </trkpt>
      <trkpt lat="45.68915" lon="5.83321">
        <ele>467.20001220703</ele>
        <time>2012-11-24T12:42:15Z</time>
      </trkpt>
      <trkpt lat="45.68926" lon="5.83358">
        <ele>474.40002441406</ele>
        <time>2012-11-24T12:42:37Z</time>
      </trkpt>
      <trkpt lat="45.68926" lon="5.83397">
        <ele>487.09997558594</ele>
        <time>2012-11-24T12:43:02Z</time>
      </trkpt>
      <trkpt lat="45.68938" lon="5.83421">
        <ele>489.70001220703</ele>
        <time>2012-11-24T12:43:16Z</time>
      </trkpt>
      <trkpt lat="45.68956" lon="5.83453">
        <ele>493.70001220703</ele>
        <time>2012-11-24T12:43:42Z</time>
      </trkpt>
      <trkpt lat="45.69" lon="5.83502">
        <ele>505.90002441406</ele>
        <time>2012-11-24T12:44:36Z</time>
      </trkpt>
      <trkpt lat="45.69126" lon="5.83593">
        <ele>531.09997558594</ele>
        <time>2012-11-24T12:46:34Z</time>
      </trkpt>
      <trkpt lat="45.69228" lon="5.83664">
        <ele>552.40002441406</ele>
        <time>2012-11-24T12:48:24Z</time>
      </trkpt>
      <trkpt lat="45.69254" lon="5.83682">
        <ele>555.80004882812</ele>
        <time>2012-11-24T12:48:45Z</time>
      </trkpt>
      <trkpt lat="45.69279" lon="5.83704">
        <ele>560.90002441406</ele>
        <time>2012-11-24T12:49:11Z</time>
      </trkpt>
      <trkpt lat="45.69305" lon="5.83723">
        <ele>563.19995117188</ele>
        <time>2012-11-24T12:49:29Z</time>
      </trkpt>
      <trkpt lat="45.69326" lon="5.83749">
        <ele>565.30004882812</ele>
        <time>2012-11-24T12:49:46Z</time>
      </trkpt>
      <trkpt lat="45.6936" lon="5.8379">
        <ele>579.80004882812</ele>
        <time>2012-11-24T12:53:38Z</time>
      </trkpt>
      <trkpt lat="45.69423" lon="5.83812">
        <ele>583.19995117188</ele>
        <time>2012-11-24T12:56:03Z</time>
      </trkpt>
      <trkpt lat="45.69451" lon="5.83822">
        <ele>588.09997558594</ele>
        <time>2012-11-24T12:56:24Z</time>
      </trkpt>
      <trkpt lat="45.69478" lon="5.83837">
        <ele>591.80004882812</ele>
        <time>2012-11-24T12:56:50Z</time>
      </trkpt>
      <trkpt lat="45.69508" lon="5.83838">
        <ele>592.59997558594</ele>
        <time>2012-11-24T12:57:13Z</time>
      </trkpt>
      <trkpt lat="45.69536" lon="5.83833">
        <ele>594.69995117188</ele>
        <time>2012-11-24T12:57:36Z</time>
      </trkpt>
      <trkpt lat="45.69571" lon="5.83849">
        <ele>594.80004882812</ele>
        <time>2012-11-24T12:58:11Z</time>
      </trkpt>
      <trkpt lat="45.69589" lon="5.83878">
        <ele>599.30004882812</ele>
        <time>2012-11-24T12:58:34Z</time>
      </trkpt>
      <trkpt lat="45.69595" lon="5.83919">
        <ele>601.80004882812</ele>
        <time>2012-11-24T12:58:56Z</time>
      </trkpt>
      <trkpt lat="45.69599" lon="5.83946">
        <ele>604.80004882812</ele>
        <time>2012-11-24T12:59:11Z</time>
      </trkpt>
      <trkpt lat="45.69603" lon="5.83972">
        <ele>605.59997558594</ele>
        <time>2012-11-24T12:59:27Z</time>
      </trkpt>
      <trkpt lat="45.69606" lon="5.83999">
        <ele>608.80004882812</ele>
        <time>2012-11-24T12:59:44Z</time>
      </trkpt>
      <trkpt lat="45.69611" lon="5.8404">
        <ele>612.5</ele>
        <time>2012-11-24T13:00:08Z</time>
      </trkpt>
      <trkpt lat="45.6961" lon="5.84081">
        <ele>615.30004882812</ele>
        <time>2012-11-24T13:00:31Z</time>
      </trkpt>
      <trkpt lat="45.69594" lon="5.84115">
        <ele>618.5</ele>
        <time>2012-11-24T13:00:56Z</time>
      </trkpt>
      <trkpt lat="45.69581" lon="5.84136">
        <ele>619.80004882812</ele>
        <time>2012-11-24T13:01:11Z</time>
      </trkpt>
      <trkpt lat="45.69564" lon="5.84153">
        <ele>620.09997558594</ele>
        <time>2012-11-24T13:01:23Z</time>
      </trkpt>
      <trkpt lat="45.69545" lon="5.8416">
        <ele>622.30004882812</ele>
        <time>2012-11-24T13:01:36Z</time>
      </trkpt>
      <trkpt lat="45.69526" lon="5.8416">
        <ele>625.30004882812</ele>
        <time>2012-11-24T13:01:51Z</time>
      </trkpt>
      <trkpt lat="45.69507" lon="5.84157">
        <ele>627.90002441406</ele>
        <time>2012-11-24T13:02:07Z</time>
      </trkpt>
      <trkpt lat="45.69477" lon="5.84153">
        <ele>632.5</ele>
        <time>2012-11-24T13:02:30Z</time>
      </trkpt>
      <trkpt lat="45.69467" lon="5.84152">
        <ele>633.40002441406</ele>
        <time>2012-11-24T13:02:56Z</time>
      </trkpt>
      <trkpt lat="45.69443" lon="5.84209">
        <ele>640.40002441406</ele>
        <time>2012-11-24T13:03:20Z</time>
      </trkpt>
      <trkpt lat="45.69428" lon="5.84228">
        <ele>643.69995117188</ele>
        <time>2012-11-24T13:03:34Z</time>
      </trkpt>
      <trkpt lat="45.694" lon="5.84244">
        <ele>645.59997558594</ele>
        <time>2012-11-24T13:03:54Z</time>
      </trkpt>
      <trkpt lat="45.69373" lon="5.84258">
        <ele>646</ele>
        <time>2012-11-24T13:04:15Z</time>
      </trkpt>
      <trkpt lat="45.69363" lon="5.84293">
        <ele>646.59997558594</ele>
        <time>2012-11-24T13:04:40Z</time>
      </trkpt>
      <trkpt lat="45.69345" lon="5.84304">
        <ele>646.90002441406</ele>
        <time>2012-11-24T13:05:01Z</time>
      </trkpt>
      <trkpt lat="45.69334" lon="5.84283">
        <ele>649.5</ele>
        <time>2012-11-24T13:05:15Z</time>
      </trkpt>
      <trkpt lat="45.69316" lon="5.84284">
        <ele>652.59997558594</ele>
        <time>2012-11-24T13:05:36Z</time>
      </trkpt>
      <trkpt lat="45.69333" lon="5.84318">
        <ele>654.80004882812</ele>
        <time>2012-11-24T13:05:55Z</time>
      </trkpt>
      <trkpt lat="45.69342" lon="5.84357">
        <ele>657.69995117188</ele>
        <time>2012-11-24T13:06:17Z</time>
      </trkpt>
      <trkpt lat="45.69344" lon="5.84398">
        <ele>659.90002441406</ele>
        <time>2012-11-24T13:06:40Z</time>
      </trkpt>
      <trkpt lat="45.69337" lon="5.84438">
        <ele>662.59997558594</ele>
        <time>2012-11-24T13:07:04Z</time>
      </trkpt>
      <trkpt lat="45.69336" lon="5.84479">
        <ele>666.59997558594</ele>
        <time>2012-11-24T13:07:25Z</time>
      </trkpt>
      <trkpt lat="45.69363" lon="5.84491">
        <ele>667.80004882812</ele>
        <time>2012-11-24T13:07:49Z</time>
      </trkpt>
      <trkpt lat="45.69379" lon="5.84506">
        <ele>668.09997558594</ele>
        <time>2012-11-24T13:08:02Z</time>
      </trkpt>
      <trkpt lat="45.6938" lon="5.84542">
        <ele>672.69995117188</ele>
        <time>2012-11-24T13:08:25Z</time>
      </trkpt>
      <trkpt lat="45.69368" lon="5.84562">
        <ele>675.59997558594</ele>
        <time>2012-11-24T13:08:40Z</time>
      </trkpt>
      <trkpt lat="45.69352" lon="5.84596">
        <ele>678.59997558594</ele>
        <time>2012-11-24T13:09:00Z</time>
      </trkpt>
      <trkpt lat="45.69339" lon="5.84617">
        <ele>679.59997558594</ele>
        <time>2012-11-24T13:09:15Z</time>
      </trkpt>
      <trkpt lat="45.69325" lon="5.84634">
        <ele>679</ele>
        <time>2012-11-24T13:09:27Z</time>
      </trkpt>
      <trkpt lat="45.69305" lon="5.84663">
        <ele>682.19995117188</ele>
        <time>2012-11-24T13:09:51Z</time>
      </trkpt>
      <trkpt lat="45.69291" lon="5.84698">
        <ele>688.40002441406</ele>
        <time>2012-11-24T13:10:13Z</time>
      </trkpt>
      <trkpt lat="45.6928" lon="5.84736">
        <ele>691.19995117188</ele>
        <time>2012-11-24T13:10:37Z</time>
      </trkpt>
      <trkpt lat="45.69265" lon="5.84771">
        <ele>691</ele>
        <time>2012-11-24T13:10:59Z</time>
      </trkpt>
      <trkpt lat="45.69249" lon="5.84804">
        <ele>694.19995117188</ele>
        <time>2012-11-24T13:11:19Z</time>
      </trkpt>
      <trkpt lat="45.6923" lon="5.84838">
        <ele>691.59997558594</ele>
        <time>2012-11-24T13:11:39Z</time>
      </trkpt>
      <trkpt lat="45.69219" lon="5.84861">
        <ele>692.40002441406</ele>
        <time>2012-11-24T13:11:56Z</time>
      </trkpt>
      <trkpt lat="45.69208" lon="5.84884">
        <ele>693.09997558594</ele>
        <time>2012-11-24T13:12:10Z</time>
      </trkpt>
      <trkpt lat="45.69199" lon="5.84908">
        <ele>688.69995117188</ele>
        <time>2012-11-24T13:12:24Z</time>
      </trkpt>
      <trkpt lat="45.69201" lon="5.84937">
        <ele>678.69995117188</ele>
        <time>2012-11-24T13:13:15Z</time>
      </trkpt>
      <trkpt lat="45.69203" lon="5.8495">
        <ele>677.19995117188</ele>
        <time>2012-11-24T13:13:21Z</time>
      </trkpt>
      <trkpt lat="45.69203" lon="5.84963">
        <ele>675</ele>
        <time>2012-11-24T13:13:27Z</time>
      </trkpt>
      <trkpt lat="45.69201" lon="5.84978">
        <ele>674</ele>
        <time>2012-11-24T13:13:34Z</time>
      </trkpt>
      <trkpt lat="45.69192" lon="5.85003">
        <ele>674.59997558594</ele>
        <time>2012-11-24T13:13:47Z</time>
      </trkpt>
      <trkpt lat="45.69184" lon="5.85029">
        <ele>674.59997558594</ele>
        <time>2012-11-24T13:14:03Z</time>
      </trkpt>
      <trkpt lat="45.69185" lon="5.85056">
        <ele>671.59997558594</ele>
        <time>2012-11-24T13:14:24Z</time>
      </trkpt>
      <trkpt lat="45.6918" lon="5.85083">
        <ele>669.80004882812</ele>
        <time>2012-11-24T13:14:38Z</time>
      </trkpt>
      <trkpt lat="45.69172" lon="5.85107">
        <ele>669.90002441406</ele>
        <time>2012-11-24T13:14:59Z</time>
      </trkpt>
      <trkpt lat="45.69162" lon="5.8513">
        <ele>668.30004882812</ele>
        <time>2012-11-24T13:15:16Z</time>
      </trkpt>
      <trkpt lat="45.69153" lon="5.85153">
        <ele>665.09997558594</ele>
        <time>2012-11-24T13:15:31Z</time>
      </trkpt>
      <trkpt lat="45.69141" lon="5.85173">
        <ele>662.80004882812</ele>
        <time>2012-11-24T13:15:46Z</time>
      </trkpt>
      <trkpt lat="45.69134" lon="5.85183">
        <ele>661.19995117188</ele>
        <time>2012-11-24T13:15:55Z</time>
      </trkpt>
      <trkpt lat="45.69118" lon="5.852">
        <ele>659.09997558594</ele>
        <time>2012-11-24T13:16:09Z</time>
      </trkpt>
      <trkpt lat="45.69113" lon="5.85211">
        <ele>656.80004882812</ele>
        <time>2012-11-24T13:16:16Z</time>
      </trkpt>
      <trkpt lat="45.69115" lon="5.85224">
        <ele>654.19995117188</ele>
        <time>2012-11-24T13:16:23Z</time>
      </trkpt>
      <trkpt lat="45.69126" lon="5.85248">
        <ele>652.40002441406</ele>
        <time>2012-11-24T13:16:37Z</time>
      </trkpt>
      <trkpt lat="45.69134" lon="5.85257">
        <ele>650.59997558594</ele>
        <time>2012-11-24T13:16:44Z</time>
      </trkpt>
      <trkpt lat="45.69142" lon="5.85266">
        <ele>648.69995117188</ele>
        <time>2012-11-24T13:16:51Z</time>
      </trkpt>
      <trkpt lat="45.69149" lon="5.85274">
        <ele>647.19995117188</ele>
        <time>2012-11-24T13:16:58Z</time>
      </trkpt>
      <trkpt lat="45.69157" lon="5.85282">
        <ele>646</ele>
        <time>2012-11-24T13:17:05Z</time>
      </trkpt>
      <trkpt lat="45.69164" lon="5.8529">
        <ele>644.80004882812</ele>
        <time>2012-11-24T13:17:12Z</time>
      </trkpt>
      <trkpt lat="45.69151" lon="5.85299">
        <ele>642.59997558594</ele>
        <time>2012-11-24T13:17:44Z</time>
      </trkpt>
      <trkpt lat="45.69142" lon="5.85294">
        <ele>640.69995117188</ele>
        <time>2012-11-24T13:17:51Z</time>
      </trkpt>
      <trkpt lat="45.69124" lon="5.85294">
        <ele>637.80004882812</ele>
        <time>2012-11-24T13:18:05Z</time>
      </trkpt>
      <trkpt lat="45.69114" lon="5.85296">
        <ele>636</ele>
        <time>2012-11-24T13:18:13Z</time>
      </trkpt>
      <trkpt lat="45.69104" lon="5.85299">
        <ele>633.19995117188</ele>
        <time>2012-11-24T13:18:21Z</time>
      </trkpt>
      <trkpt lat="45.69094" lon="5.853">
        <ele>630.90002441406</ele>
        <time>2012-11-24T13:18:29Z</time>
      </trkpt>
      <trkpt lat="45.69085" lon="5.85299">
        <ele>631.5</ele>
        <time>2012-11-24T13:18:36Z</time>
      </trkpt>
      <trkpt lat="45.69077" lon="5.85294">
        <ele>631.69995117188</ele>
        <time>2012-11-24T13:18:44Z</time>
      </trkpt>
      <trkpt lat="45.69069" lon="5.85284">
        <ele>631.19995117188</ele>
        <time>2012-11-24T13:18:57Z</time>
      </trkpt>
      <trkpt lat="45.69061" lon="5.85279">
        <ele>629.80004882812</ele>
        <time>2012-11-24T13:19:06Z</time>
      </trkpt>
      <trkpt lat="45.69052" lon="5.85277">
        <ele>628.40002441406</ele>
        <time>2012-11-24T13:19:16Z</time>
      </trkpt>
      <trkpt lat="45.69042" lon="5.85277">
        <ele>624.69995117188</ele>
        <time>2012-11-24T13:19:26Z</time>
      </trkpt>
      <trkpt lat="45.69034" lon="5.85272">
        <ele>621.19995117188</ele>
        <time>2012-11-24T13:19:38Z</time>
      </trkpt>
      <trkpt lat="45.69024" lon="5.85269">
        <ele>617.40002441406</ele>
        <time>2012-11-24T13:19:53Z</time>
      </trkpt>
      <trkpt lat="45.69006" lon="5.85278">
        <ele>615.09997558594</ele>
        <time>2012-11-24T13:22:16Z</time>
      </trkpt>
      <trkpt lat="45.68995" lon="5.85256">
        <ele>610.90002441406</ele>
        <time>2012-11-24T13:22:34Z</time>
      </trkpt>
      <trkpt lat="45.68979" lon="5.8526">
        <ele>604.69995117188</ele>
        <time>2012-11-24T13:22:49Z</time>
      </trkpt>
      <trkpt lat="45.6897" lon="5.85255">
        <ele>601.5</ele>
        <time>2012-11-24T13:23:04Z</time>
      </trkpt>
      <trkpt lat="45.68965" lon="5.85228">
        <ele>598.40002441406</ele>
        <time>2012-11-24T13:23:20Z</time>
      </trkpt>
      <trkpt lat="45.68949" lon="5.85224">
        <ele>586.5</ele>
        <time>2012-11-24T13:24:05Z</time>
      </trkpt>
      <trkpt lat="45.6894" lon="5.85236">
        <ele>583.80004882812</ele>
        <time>2012-11-24T13:24:35Z</time>
      </trkpt>
      <trkpt lat="45.68935" lon="5.85247">
        <ele>583</ele>
        <time>2012-11-24T13:24:44Z</time>
      </trkpt>
      <trkpt lat="45.68934" lon="5.85261">
        <ele>582.69995117188</ele>
        <time>2012-11-24T13:24:51Z</time>
      </trkpt>
      <trkpt lat="45.68935" lon="5.85276">
        <ele>583.19995117188</ele>
        <time>2012-11-24T13:24:58Z</time>
      </trkpt>
      <trkpt lat="45.68932" lon="5.85303">
        <ele>581.19995117188</ele>
        <time>2012-11-24T13:25:15Z</time>
      </trkpt>
      <trkpt lat="45.68924" lon="5.85327">
        <ele>580.59997558594</ele>
        <time>2012-11-24T13:25:32Z</time>
      </trkpt>
      <trkpt lat="45.68907" lon="5.85363">
        <ele>572.40002441406</ele>
        <time>2012-11-24T13:25:56Z</time>
      </trkpt>
      <trkpt lat="45.68898" lon="5.85403">
        <ele>566.5</ele>
        <time>2012-11-24T13:26:17Z</time>
      </trkpt>
      <trkpt lat="45.68887" lon="5.85441">
        <ele>563.80004882812</ele>
        <time>2012-11-24T13:26:39Z</time>
      </trkpt>
      <trkpt lat="45.68878" lon="5.85477">
        <ele>562.40002441406</ele>
        <time>2012-11-24T13:27:01Z</time>
      </trkpt>
      <trkpt lat="45.68881" lon="5.85504">
        <ele>560</ele>
        <time>2012-11-24T13:27:12Z</time>
      </trkpt>
      <trkpt lat="45.68874" lon="5.85495">
        <ele>552.19995117188</ele>
        <time>2012-11-24T13:27:28Z</time>
      </trkpt>
      <trkpt lat="45.68878" lon="5.85482">
        <ele>551.19995117188</ele>
        <time>2012-11-24T13:27:36Z</time>
      </trkpt>
      <trkpt lat="45.6888" lon="5.85469">
        <ele>551.40002441406</ele>
        <time>2012-11-24T13:27:44Z</time>
      </trkpt>
      <trkpt lat="45.68882" lon="5.85457">
        <ele>551.80004882812</ele>
        <time>2012-11-24T13:27:51Z</time>
      </trkpt>
      <trkpt lat="45.68885" lon="5.85444">
        <ele>552.19995117188</ele>
        <time>2012-11-24T13:27:58Z</time>
      </trkpt>
      <trkpt lat="45.68888" lon="5.85417">
        <ele>551.69995117188</ele>
        <time>2012-11-24T13:28:12Z</time>
      </trkpt>
      <trkpt lat="45.68886" lon="5.85391">
        <ele>550.80004882812</ele>
        <time>2012-11-24T13:28:26Z</time>
      </trkpt>
      <trkpt lat="45.68883" lon="5.85363">
        <ele>550.40002441406</ele>
        <time>2012-11-24T13:28:40Z</time>
      </trkpt>
      <trkpt lat="45.68886" lon="5.85351">
        <ele>549.59997558594</ele>
        <time>2012-11-24T13:28:47Z</time>
      </trkpt>
      <trkpt lat="45.68894" lon="5.85326">
        <ele>549.5</ele>
        <time>2012-11-24T13:29:01Z</time>
      </trkpt>
      <trkpt lat="45.68893" lon="5.85298">
        <ele>549.40002441406</ele>
        <time>2012-11-24T13:29:15Z</time>
      </trkpt>
      <trkpt lat="45.6889" lon="5.85271">
        <ele>547.40002441406</ele>
        <time>2012-11-24T13:29:29Z</time>
      </trkpt>
      <trkpt lat="45.68884" lon="5.85243">
        <ele>549.69995117188</ele>
        <time>2012-11-24T13:29:43Z</time>
      </trkpt>
      <trkpt lat="45.68875" lon="5.8522">
        <ele>551.59997558594</ele>
        <time>2012-11-24T13:29:56Z</time>
      </trkpt>
      <trkpt lat="45.68856" lon="5.85219">
        <ele>549</ele>
        <time>2012-11-24T13:30:23Z</time>
      </trkpt>
      <trkpt lat="45.68837" lon="5.85221">
        <ele>542.80004882812</ele>
        <time>2012-11-24T13:30:39Z</time>
      </trkpt>
      <trkpt lat="45.68828" lon="5.8522">
        <ele>541</ele>
        <time>2012-11-24T13:30:46Z</time>
      </trkpt>
      <trkpt lat="45.68819" lon="5.85221">
        <ele>540.30004882812</ele>
        <time>2012-11-24T13:30:53Z</time>
      </trkpt>
      <trkpt lat="45.68801" lon="5.85232">
        <ele>539.80004882812</ele>
        <time>2012-11-24T13:31:18Z</time>
      </trkpt>
      <trkpt lat="45.68783" lon="5.85238">
        <ele>539</ele>
        <time>2012-11-24T13:31:32Z</time>
      </trkpt>
      <trkpt lat="45.68757" lon="5.85229">
        <ele>533.80004882812</ele>
        <time>2012-11-24T13:31:53Z</time>
      </trkpt>
      <trkpt lat="45.68737" lon="5.85228">
        <ele>531</ele>
        <time>2012-11-24T13:32:08Z</time>
      </trkpt>
      <trkpt lat="45.68718" lon="5.85228">
        <ele>526.40002441406</ele>
        <time>2012-11-24T13:32:22Z</time>
      </trkpt>
      <trkpt lat="45.687" lon="5.85233">
        <ele>523.09997558594</ele>
        <time>2012-11-24T13:32:36Z</time>
      </trkpt>
      <trkpt lat="45.68681" lon="5.85235">
        <ele>520.29998779297</ele>
        <time>2012-11-24T13:32:51Z</time>
      </trkpt>
      <trkpt lat="45.68662" lon="5.85231">
        <ele>515.29998779297</ele>
        <time>2012-11-24T13:33:06Z</time>
      </trkpt>
      <trkpt lat="45.68653" lon="5.85229">
        <ele>513.5</ele>
        <time>2012-11-24T13:33:13Z</time>
      </trkpt>
      <trkpt lat="45.68644" lon="5.85247">
        <ele>514.09997558594</ele>
        <time>2012-11-24T13:33:37Z</time>
      </trkpt>
      <trkpt lat="45.68662" lon="5.85253">
        <ele>513.40002441406</ele>
        <time>2012-11-24T13:33:57Z</time>
      </trkpt>
      <trkpt lat="45.68682" lon="5.85255">
        <ele>512.40002441406</ele>
        <time>2012-11-24T13:34:12Z</time>
      </trkpt>
      <trkpt lat="45.687" lon="5.85258">
        <ele>511.59997558594</ele>
        <time>2012-11-24T13:34:25Z</time>
      </trkpt>
      <trkpt lat="45.68719" lon="5.85261">
        <ele>512.09997558594</ele>
        <time>2012-11-24T13:34:38Z</time>
      </trkpt>
      <trkpt lat="45.68738" lon="5.85265">
        <ele>512.70001220703</ele>
        <time>2012-11-24T13:34:53Z</time>
      </trkpt>
      <trkpt lat="45.68758" lon="5.8527">
        <ele>513.59997558594</ele>
        <time>2012-11-24T13:35:08Z</time>
      </trkpt>
      <trkpt lat="45.68777" lon="5.85275">
        <ele>513.5</ele>
        <time>2012-11-24T13:35:23Z</time>
      </trkpt>
      <trkpt lat="45.68796" lon="5.85279">
        <ele>514.5</ele>
        <time>2012-11-24T13:35:38Z</time>
      </trkpt>
      <trkpt lat="45.68816" lon="5.85281">
        <ele>517.29998779297</ele>
        <time>2012-11-24T13:35:51Z</time>
      </trkpt>
      <trkpt lat="45.6881" lon="5.85291">
        <ele>510.09997558594</ele>
        <time>2012-11-24T13:36:01Z</time>
      </trkpt>
      <trkpt lat="45.688" lon="5.8529">
        <ele>507.20001220703</ele>
        <time>2012-11-24T13:36:08Z</time>
      </trkpt>
      <trkpt lat="45.68791" lon="5.85284">
        <ele>505</ele>
        <time>2012-11-24T13:36:15Z</time>
      </trkpt>
      <trkpt lat="45.68781" lon="5.85282">
        <ele>504.90002441406</ele>
        <time>2012-11-24T13:36:22Z</time>
      </trkpt>
      <trkpt lat="45.68771" lon="5.85284">
        <ele>504.90002441406</ele>
        <time>2012-11-24T13:36:30Z</time>
      </trkpt>
      <trkpt lat="45.68751" lon="5.85287">
        <ele>503.79998779297</ele>
        <time>2012-11-24T13:36:45Z</time>
      </trkpt>
      <trkpt lat="45.68732" lon="5.85293">
        <ele>501.70001220703</ele>
        <time>2012-11-24T13:37:00Z</time>
      </trkpt>
      <trkpt lat="45.68717" lon="5.85309">
        <ele>500.09997558594</ele>
        <time>2012-11-24T13:37:13Z</time>
      </trkpt>
      <trkpt lat="45.68698" lon="5.85304">
        <ele>497.09997558594</ele>
        <time>2012-11-24T13:37:28Z</time>
      </trkpt>
      <trkpt lat="45.6868" lon="5.85296">
        <ele>494.29998779297</ele>
        <time>2012-11-24T13:37:43Z</time>
      </trkpt>
      <trkpt lat="45.68662" lon="5.8529">
        <ele>492.40002441406</ele>
        <time>2012-11-24T13:37:57Z</time>
      </trkpt>
      <trkpt lat="45.68643" lon="5.8529">
        <ele>492.70001220703</ele>
        <time>2012-11-24T13:38:13Z</time>
      </trkpt>
      <trkpt lat="45.68625" lon="5.85286">
        <ele>491</ele>
        <time>2012-11-24T13:38:28Z</time>
      </trkpt>
      <trkpt lat="45.68607" lon="5.8527">
        <ele>486.20001220703</ele>
        <time>2012-11-24T13:38:41Z</time>
      </trkpt>
      <trkpt lat="45.686" lon="5.8526">
        <ele>485.5</ele>
        <time>2012-11-24T13:38:47Z</time>
      </trkpt>
      <trkpt lat="45.68597" lon="5.85247">
        <ele>484.40002441406</ele>
        <time>2012-11-24T13:38:54Z</time>
      </trkpt>
      <trkpt lat="45.68596" lon="5.85233">
        <ele>485.79998779297</ele>
        <time>2012-11-24T13:39:01Z</time>
      </trkpt>
      <trkpt lat="45.68594" lon="5.85219">
        <ele>487.20001220703</ele>
        <time>2012-11-24T13:39:08Z</time>
      </trkpt>
      <trkpt lat="45.68591" lon="5.85205">
        <ele>489.09997558594</ele>
        <time>2012-11-24T13:39:15Z</time>
      </trkpt>
      <trkpt lat="45.68588" lon="5.85193">
        <ele>490.09997558594</ele>
        <time>2012-11-24T13:39:22Z</time>
      </trkpt>
      <trkpt lat="45.68583" lon="5.85181">
        <ele>490.90002441406</ele>
        <time>2012-11-24T13:39:29Z</time>
      </trkpt>
      <trkpt lat="45.68578" lon="5.8517">
        <ele>490.70001220703</ele>
        <time>2012-11-24T13:39:36Z</time>
      </trkpt>
      <trkpt lat="45.68571" lon="5.85161">
        <ele>489.70001220703</ele>
        <time>2012-11-24T13:39:43Z</time>
      </trkpt>
      <trkpt lat="45.68564" lon="5.85151">
        <ele>487.79998779297</ele>
        <time>2012-11-24T13:39:51Z</time>
      </trkpt>
      <trkpt lat="45.68556" lon="5.85146">
        <ele>485.29998779297</ele>
        <time>2012-11-24T13:39:59Z</time>
      </trkpt>
      <trkpt lat="45.68547" lon="5.85141">
        <ele>482.79998779297</ele>
        <time>2012-11-24T13:40:08Z</time>
      </trkpt>
      <trkpt lat="45.68538" lon="5.85136">
        <ele>480.70001220703</ele>
        <time>2012-11-24T13:40:16Z</time>
      </trkpt>
      <trkpt lat="45.6853" lon="5.85129">
        <ele>479.09997558594</ele>
        <time>2012-11-24T13:40:23Z</time>
      </trkpt>
      <trkpt lat="45.68522" lon="5.8512">
        <ele>478.59997558594</ele>
        <time>2012-11-24T13:40:30Z</time>
      </trkpt>
      <trkpt lat="45.68504" lon="5.85115">
        <ele>478.79998779297</ele>
        <time>2012-11-24T13:40:49Z</time>
      </trkpt>
      <trkpt lat="45.68476" lon="5.8511">
        <ele>481</ele>
        <time>2012-11-24T13:41:10Z</time>
      </trkpt>
      <trkpt lat="45.68447" lon="5.85102">
        <ele>481.40002441406</ele>
        <time>2012-11-24T13:41:30Z</time>
      </trkpt>
      <trkpt lat="45.68428" lon="5.85095">
        <ele>478</ele>
        <time>2012-11-24T13:41:46Z</time>
      </trkpt>
      <trkpt lat="45.6841" lon="5.85088">
        <ele>472.40002441406</ele>
        <time>2012-11-24T13:42:01Z</time>
      </trkpt>
      <trkpt lat="45.6839" lon="5.85085">
        <ele>471.90002441406</ele>
        <time>2012-11-24T13:42:16Z</time>
      </trkpt>
      <trkpt lat="45.68371" lon="5.85083">
        <ele>469.70001220703</ele>
        <time>2012-11-24T13:42:31Z</time>
      </trkpt>
      <trkpt lat="45.68352" lon="5.85082">
        <ele>469.79998779297</ele>
        <time>2012-11-24T13:42:45Z</time>
      </trkpt>
      <trkpt lat="45.68323" lon="5.85079">
        <ele>468.40002441406</ele>
        <time>2012-11-24T13:43:08Z</time>
      </trkpt>
      <trkpt lat="45.68295" lon="5.85078">
        <ele>467.29998779297</ele>
        <time>2012-11-24T13:43:31Z</time>
      </trkpt>
      <trkpt lat="45.68267" lon="5.85073">
        <ele>467.20001220703</ele>
        <time>2012-11-24T13:43:53Z</time>
      </trkpt>
      <trkpt lat="45.6824" lon="5.85063">
        <ele>460.59997558594</ele>
        <time>2012-11-24T13:44:11Z</time>
      </trkpt>
      <trkpt lat="45.68212" lon="5.8506">
        <ele>459.79998779297</ele>
        <time>2012-11-24T13:44:31Z</time>
      </trkpt>
      <trkpt lat="45.68183" lon="5.8506">
        <ele>456.90002441406</ele>
        <time>2012-11-24T13:44:52Z</time>
      </trkpt>
      <trkpt lat="45.68164" lon="5.85058">
        <ele>453.29998779297</ele>
        <time>2012-11-24T13:45:07Z</time>
      </trkpt>
      <trkpt lat="45.68145" lon="5.85059">
        <ele>452.5</ele>
        <time>2012-11-24T13:45:22Z</time>
      </trkpt>
      <trkpt lat="45.68126" lon="5.85059">
        <ele>450.29998779297</ele>
        <time>2012-11-24T13:45:36Z</time>
      </trkpt>
      <trkpt lat="45.68107" lon="5.85053">
        <ele>446.70001220703</ele>
        <time>2012-11-24T13:45:50Z</time>
      </trkpt>
      <trkpt lat="45.68089" lon="5.85046">
        <ele>445.29998779297</ele>
        <time>2012-11-24T13:46:04Z</time>
      </trkpt>
      <trkpt lat="45.68069" lon="5.85044">
        <ele>444</ele>
        <time>2012-11-24T13:46:19Z</time>
      </trkpt>
      <trkpt lat="45.68051" lon="5.8505">
        <ele>443.20001220703</ele>
        <time>2012-11-24T13:46:34Z</time>
      </trkpt>
      <trkpt lat="45.68033" lon="5.85058">
        <ele>442.70001220703</ele>
        <time>2012-11-24T13:46:48Z</time>
      </trkpt>
      <trkpt lat="45.68014" lon="5.8506">
        <ele>440.20001220703</ele>
        <time>2012-11-24T13:47:03Z</time>
      </trkpt>
      <trkpt lat="45.67995" lon="5.85053">
        <ele>437.40002441406</ele>
        <time>2012-11-24T13:47:18Z</time>
      </trkpt>
      <trkpt lat="45.67987" lon="5.85046">
        <ele>436.70001220703</ele>
        <time>2012-11-24T13:47:25Z</time>
      </trkpt>
      <trkpt lat="45.67981" lon="5.85037">
        <ele>435.79998779297</ele>
        <time>2012-11-24T13:47:30Z</time>
      </trkpt>
      <trkpt lat="45.67972" lon="5.85029">
        <ele>436.09997558594</ele>
        <time>2012-11-24T13:47:37Z</time>
      </trkpt>
      <trkpt lat="45.67963" lon="5.85024">
        <ele>436.5</ele>
        <time>2012-11-24T13:47:46Z</time>
      </trkpt>
      <trkpt lat="45.67944" lon="5.85021">
        <ele>436.79998779297</ele>
        <time>2012-11-24T13:48:02Z</time>
      </trkpt>
      <trkpt lat="45.67916" lon="5.85014">
        <ele>436.79998779297</ele>
        <time>2012-11-24T13:48:23Z</time>
      </trkpt>
      <trkpt lat="45.67888" lon="5.85016">
        <ele>434.90002441406</ele>
        <time>2012-11-24T13:48:44Z</time>
      </trkpt>
      <trkpt lat="45.67869" lon="5.85015">
        <ele>432.20001220703</ele>
        <time>2012-11-24T13:48:59Z</time>
      </trkpt>
      <trkpt lat="45.6786" lon="5.85015">
        <ele>431.40002441406</ele>
        <time>2012-11-24T13:49:06Z</time>
      </trkpt>
      <trkpt lat="45.6784" lon="5.85013">
        <ele>427.09997558594</ele>
        <time>2012-11-24T13:49:21Z</time>
      </trkpt>
      <trkpt lat="45.67821" lon="5.85015">
        <ele>426.5</ele>
        <time>2012-11-24T13:49:35Z</time>
      </trkpt>
      <trkpt lat="45.67803" lon="5.85015">
        <ele>424.20001220703</ele>
        <time>2012-11-24T13:49:49Z</time>
      </trkpt>
      <trkpt lat="45.67784" lon="5.85017">
        <ele>421.79998779297</ele>
        <time>2012-11-24T13:50:03Z</time>
      </trkpt>
      <trkpt lat="45.67774" lon="5.85015">
        <ele>419.5</ele>
        <time>2012-11-24T13:50:10Z</time>
      </trkpt>
      <trkpt lat="45.67764" lon="5.85015">
        <ele>417.40002441406</ele>
        <time>2012-11-24T13:50:17Z</time>
      </trkpt>
      <trkpt lat="45.67745" lon="5.85015">
        <ele>417.5</ele>
        <time>2012-11-24T13:50:32Z</time>
      </trkpt>
      <trkpt lat="45.67736" lon="5.85015">
        <ele>417.70001220703</ele>
        <time>2012-11-24T13:50:39Z</time>
      </trkpt>
      <trkpt lat="45.67726" lon="5.85017">
        <ele>417.79998779297</ele>
        <time>2012-11-24T13:50:47Z</time>
      </trkpt>
      <trkpt lat="45.67709" lon="5.85029">
        <ele>417.70001220703</ele>
        <time>2012-11-24T13:51:01Z</time>
      </trkpt>
      <trkpt lat="45.67692" lon="5.85044">
        <ele>416.90002441406</ele>
        <time>2012-11-24T13:52:07Z</time>
      </trkpt>
      <trkpt lat="45.6768" lon="5.85066">
        <ele>415.09997558594</ele>
        <time>2012-11-24T13:52:22Z</time>
      </trkpt>
      <trkpt lat="45.67668" lon="5.8509">
        <ele>415.70001220703</ele>
        <time>2012-11-24T13:52:35Z</time>
      </trkpt>
      <trkpt lat="45.67656" lon="5.8511">
        <ele>415.79998779297</ele>
        <time>2012-11-24T13:52:47Z</time>
      </trkpt>
      <trkpt lat="45.67639" lon="5.85142">
        <ele>413.29998779297</ele>
        <time>2012-11-24T13:53:09Z</time>
      </trkpt>
      <trkpt lat="45.67627" lon="5.85163">
        <ele>410.90002441406</ele>
        <time>2012-11-24T13:53:23Z</time>
      </trkpt>
      <trkpt lat="45.67616" lon="5.85186">
        <ele>408.90002441406</ele>
        <time>2012-11-24T13:53:38Z</time>
      </trkpt>
      <trkpt lat="45.67603" lon="5.85209">
        <ele>409.20001220703</ele>
        <time>2012-11-24T13:53:52Z</time>
      </trkpt>
      <trkpt lat="45.67591" lon="5.85229">
        <ele>407.20001220703</ele>
        <time>2012-11-24T13:56:25Z</time>
      </trkpt>
      <trkpt lat="45.67582" lon="5.85253">
        <ele>405.70001220703</ele>
        <time>2012-11-24T13:56:40Z</time>
      </trkpt>
      <trkpt lat="45.67569" lon="5.85276">
        <ele>405.59997558594</ele>
        <time>2012-11-24T13:56:52Z</time>
      </trkpt>
      <trkpt lat="45.67551" lon="5.8528">
        <ele>400.5</ele>
        <time>2012-11-24T13:57:06Z</time>
      </trkpt>
      <trkpt lat="45.67525" lon="5.85294">
        <ele>400</ele>
        <time>2012-11-24T13:57:27Z</time>
      </trkpt>
      <trkpt lat="45.67515" lon="5.85293">
        <ele>399.79998779297</ele>
        <time>2012-11-24T13:57:35Z</time>
      </trkpt>
      <trkpt lat="45.67506" lon="5.85291">
        <ele>399.29998779297</ele>
        <time>2012-11-24T13:57:42Z</time>
      </trkpt>
      <trkpt lat="45.67493" lon="5.8527">
        <ele>399.40002441406</ele>
        <time>2012-11-24T13:57:58Z</time>
      </trkpt>
      <trkpt lat="45.67476" lon="5.85255">
        <ele>399.5</ele>
        <time>2012-11-24T13:58:13Z</time>
      </trkpt>
      <trkpt lat="45.67458" lon="5.85248">
        <ele>400.90002441406</ele>
        <time>2012-11-24T13:58:26Z</time>
      </trkpt>
      <trkpt lat="45.67439" lon="5.85247">
        <ele>401.70001220703</ele>
        <time>2012-11-24T13:58:40Z</time>
      </trkpt>
      <trkpt lat="45.67421" lon="5.85253">
        <ele>404.40002441406</ele>
        <time>2012-11-24T13:58:52Z</time>
      </trkpt>
      <trkpt lat="45.67394" lon="5.85241">
        <ele>405.5</ele>
        <time>2012-11-24T13:59:13Z</time>
      </trkpt>
      <trkpt lat="45.67367" lon="5.85234">
        <ele>406.59997558594</ele>
        <time>2012-11-24T13:59:36Z</time>
      </trkpt>
      <trkpt lat="45.67346" lon="5.85234">
        <ele>403.70001220703</ele>
        <time>2012-11-24T13:59:50Z</time>
      </trkpt>
      <trkpt lat="45.67327" lon="5.85233">
        <ele>404.20001220703</ele>
        <time>2012-11-24T14:00:05Z</time>
      </trkpt>
      <trkpt lat="45.67309" lon="5.85223">
        <ele>402.79998779297</ele>
        <time>2012-11-24T14:00:21Z</time>
      </trkpt>
      <trkpt lat="45.6729" lon="5.85214">
        <ele>408.70001220703</ele>
        <time>2012-11-24T14:00:35Z</time>
      </trkpt>
      <trkpt lat="45.67262" lon="5.85206">
        <ele>410</ele>
        <time>2012-11-24T14:00:56Z</time>
      </trkpt>
      <trkpt lat="45.67123" lon="5.85187">
        <ele>410.79998779297</ele>
        <time>2012-11-24T14:02:31Z</time>
      </trkpt>
      <trkpt lat="45.67093" lon="5.85184">
        <ele>410.90002441406</ele>
        <time>2012-11-24T14:02:43Z</time>
      </trkpt>
      <trkpt lat="45.6706" lon="5.85183">
        <ele>410.70001220703</ele>
        <time>2012-11-24T14:02:49Z</time>
      </trkpt>
      <trkpt lat="45.67038" lon="5.85188">
        <ele>410.70001220703</ele>
        <time>2012-11-24T14:02:53Z</time>
      </trkpt>
      <trkpt lat="45.67006" lon="5.85175">
        <ele>416.70001220703</ele>
        <time>2012-11-24T14:03:11Z</time>
      </trkpt>
      <trkpt lat="45.66983" lon="5.85154">
        <ele>420.40002441406</ele>
        <time>2012-11-24T14:03:33Z</time>
      </trkpt>
      <trkpt lat="45.66958" lon="5.85134">
        <ele>425.70001220703</ele>
        <time>2012-11-24T14:03:53Z</time>
      </trkpt>
      <trkpt lat="45.66931" lon="5.85123">
        <ele>427.90002441406</ele>
        <time>2012-11-24T14:04:18Z</time>
      </trkpt>
      <trkpt lat="45.66907" lon="5.85101">
        <ele>432.90002441406</ele>
        <time>2012-11-24T14:04:43Z</time>
      </trkpt>
      <trkpt lat="45.66877" lon="5.85095">
        <ele>433</ele>
        <time>2012-11-24T14:05:06Z</time>
      </trkpt>
      <trkpt lat="45.66847" lon="5.85097">
        <ele>437</ele>
        <time>2012-11-24T14:05:26Z</time>
      </trkpt>
      <trkpt lat="45.66828" lon="5.85096">
        <ele>437.29998779297</ele>
        <time>2012-11-24T14:05:42Z</time>
      </trkpt>
      <trkpt lat="45.6681" lon="5.851">
        <ele>436.70001220703</ele>
        <time>2012-11-24T14:06:00Z</time>
      </trkpt>
      <trkpt lat="45.66791" lon="5.85104">
        <ele>435</ele>
        <time>2012-11-24T14:06:17Z</time>
      </trkpt>
      <trkpt lat="45.66766" lon="5.85127">
        <ele>436.70001220703</ele>
        <time>2012-11-24T14:06:42Z</time>
      </trkpt>
      <trkpt lat="45.66742" lon="5.85149">
        <ele>439.29998779297</ele>
        <time>2012-11-24T14:07:05Z</time>
      </trkpt>
      <trkpt lat="45.66716" lon="5.85169">
        <ele>436.59997558594</ele>
        <time>2012-11-24T14:07:25Z</time>
      </trkpt>
      <trkpt lat="45.66679" lon="5.85181">
        <ele>438.59997558594</ele>
        <time>2012-11-24T14:07:54Z</time>
      </trkpt>
      <trkpt lat="45.66649" lon="5.8519">
        <ele>439.5</ele>
        <time>2012-11-24T14:08:16Z</time>
      </trkpt>
      <trkpt lat="45.66594" lon="5.85198">
        <ele>436.5</ele>
        <time>2012-11-24T14:09:05Z</time>
      </trkpt>
      <trkpt lat="45.66562" lon="5.85192">
        <ele>429.70001220703</ele>
        <time>2012-11-24T14:10:28Z</time>
      </trkpt>
      <trkpt lat="45.66533" lon="5.85188">
        <ele>429</ele>
        <time>2012-11-24T14:13:17Z</time>
      </trkpt>
      <trkpt lat="45.66459" lon="5.85154">
        <ele>425.20001220703</ele>
        <time>2012-11-24T14:14:20Z</time>
      </trkpt>
      <trkpt lat="45.66411" lon="5.85155">
        <ele>420.90002441406</ele>
        <time>2012-11-24T14:15:04Z</time>
      </trkpt>
      <trkpt lat="45.66365" lon="5.85142">
        <ele>418.20001220703</ele>
        <time>2012-11-24T14:15:42Z</time>
      </trkpt>
      <trkpt lat="45.66283" lon="5.85112">
        <ele>416.29998779297</ele>
        <time>2012-11-24T14:16:43Z</time>
      </trkpt>
      <trkpt lat="45.66168" lon="5.85037">
        <ele>419.79998779297</ele>
        <time>2012-11-24T14:17:54Z</time>
      </trkpt>
      <trkpt lat="45.6614" lon="5.85026">
        <ele>424.70001220703</ele>
        <time>2012-11-24T14:18:13Z</time>
      </trkpt>
      <trkpt lat="45.66104" lon="5.85013">
        <ele>430.40002441406</ele>
        <time>2012-11-24T14:18:50Z</time>
      </trkpt>
      <trkpt lat="45.6603" lon="5.85034">
        <ele>422.29998779297</ele>
        <time>2012-11-24T14:19:59Z</time>
      </trkpt>
      <trkpt lat="45.66002" lon="5.85036">
        <ele>419.40002441406</ele>
        <time>2012-11-24T14:20:23Z</time>
      </trkpt>
      <trkpt lat="45.65972" lon="5.85045">
        <ele>415.79998779297</ele>
        <time>2012-11-24T14:20:44Z</time>
      </trkpt>
      <trkpt lat="45.65953" lon="5.85046">
        <ele>414.79998779297</ele>
        <time>2012-11-24T14:20:58Z</time>
      </trkpt>
      <trkpt lat="45.65923" lon="5.85045">
        <ele>409.70001220703</ele>
        <time>2012-11-24T14:21:22Z</time>
      </trkpt>
      <trkpt lat="45.65904" lon="5.85049">
        <ele>406.29998779297</ele>
        <time>2012-11-24T14:21:41Z</time>
      </trkpt>
      <trkpt lat="45.65886" lon="5.85054">
        <ele>405.09997558594</ele>
        <time>2012-11-24T14:21:55Z</time>
      </trkpt>
      <trkpt lat="45.65859" lon="5.8506">
        <ele>403.79998779297</ele>
        <time>2012-11-24T14:22:16Z</time>
      </trkpt>
      <trkpt lat="45.65829" lon="5.85069">
        <ele>402.20001220703</ele>
        <time>2012-11-24T14:22:37Z</time>
      </trkpt>
      <trkpt lat="45.65799" lon="5.85068">
        <ele>400</ele>
        <time>2012-11-24T14:22:56Z</time>
      </trkpt>
      <trkpt lat="45.65772" lon="5.85053">
        <ele>398.59997558594</ele>
        <time>2012-11-24T14:23:13Z</time>
      </trkpt>
      <trkpt lat="45.65745" lon="5.85044">
        <ele>397.79998779297</ele>
        <time>2012-11-24T14:23:34Z</time>
      </trkpt>
      <trkpt lat="45.65716" lon="5.85041">
        <ele>395.79998779297</ele>
        <time>2012-11-24T14:23:54Z</time>
      </trkpt>
      <trkpt lat="45.65687" lon="5.85039">
        <ele>393.59997558594</ele>
        <time>2012-11-24T14:24:13Z</time>
      </trkpt>
      <trkpt lat="45.65666" lon="5.85032">
        <ele>391.59997558594</ele>
        <time>2012-11-24T14:24:28Z</time>
      </trkpt>
      <trkpt lat="45.65647" lon="5.85027">
        <ele>391.09997558594</ele>
        <time>2012-11-24T14:24:40Z</time>
      </trkpt>
      <trkpt lat="45.65627" lon="5.85029">
        <ele>391.90002441406</ele>
        <time>2012-11-24T14:24:52Z</time>
      </trkpt>
      <trkpt lat="45.65609" lon="5.85039">
        <ele>391.59997558594</ele>
        <time>2012-11-24T14:25:04Z</time>
      </trkpt>
      <trkpt lat="45.656" lon="5.85045">
        <ele>391.40002441406</ele>
        <time>2012-11-24T14:25:10Z</time>
      </trkpt>
      <trkpt lat="45.65582" lon="5.85051">
        <ele>391.20001220703</ele>
        <time>2012-11-24T14:25:22Z</time>
      </trkpt>
      <trkpt lat="45.65563" lon="5.85053">
        <ele>389.79998779297</ele>
        <time>2012-11-24T14:25:35Z</time>
      </trkpt>
      <trkpt lat="45.65543" lon="5.85056">
        <ele>387.90002441406</ele>
        <time>2012-11-24T14:25:49Z</time>
      </trkpt>
      <trkpt lat="45.65523" lon="5.85058">
        <ele>384.70001220703</ele>
        <time>2012-11-24T14:26:03Z</time>
      </trkpt>
      <trkpt lat="45.65504" lon="5.85064">
        <ele>384.59997558594</ele>
        <time>2012-11-24T14:26:16Z</time>
      </trkpt>
      <trkpt lat="45.65489" lon="5.85084">
        <ele>383.20001220703</ele>
        <time>2012-11-24T14:26:30Z</time>
      </trkpt>
      <trkpt lat="45.65476" lon="5.85107">
        <ele>382.09997558594</ele>
        <time>2012-11-24T14:26:44Z</time>
      </trkpt>
      <trkpt lat="45.65459" lon="5.85117">
        <ele>380.70001220703</ele>
        <time>2012-11-24T14:26:56Z</time>
      </trkpt>
      <trkpt lat="45.65438" lon="5.85124">
        <ele>380.29998779297</ele>
        <time>2012-11-24T14:27:06Z</time>
      </trkpt>
      <trkpt lat="45.65418" lon="5.85128">
        <ele>378.40002441406</ele>
        <time>2012-11-24T14:27:16Z</time>
      </trkpt>
      <trkpt lat="45.6539" lon="5.85129">
        <ele>377.70001220703</ele>
        <time>2012-11-24T14:27:37Z</time>
      </trkpt>
      <trkpt lat="45.65362" lon="5.85135">
        <ele>376.90002441406</ele>
        <time>2012-11-24T14:27:58Z</time>
      </trkpt>
      <trkpt lat="45.65349" lon="5.85157">
        <ele>374.59997558594</ele>
        <time>2012-11-24T14:28:13Z</time>
      </trkpt>
      <trkpt lat="45.65327" lon="5.85184">
        <ele>373.09997558594</ele>
        <time>2012-11-24T14:28:34Z</time>
      </trkpt>
      <trkpt lat="45.65313" lon="5.8522">
        <ele>370.79998779297</ele>
        <time>2012-11-24T14:28:54Z</time>
      </trkpt>
      <trkpt lat="45.65295" lon="5.85253">
        <ele>368.5</ele>
        <time>2012-11-24T14:29:14Z</time>
      </trkpt>
      <trkpt lat="45.6528" lon="5.85272">
        <ele>367.90002441406</ele>
        <time>2012-11-24T14:29:28Z</time>
      </trkpt>
      <trkpt lat="45.65264" lon="5.85287">
        <ele>366</ele>
        <time>2012-11-24T14:29:42Z</time>
      </trkpt>
      <trkpt lat="45.65255" lon="5.85292">
        <ele>364.90002441406</ele>
        <time>2012-11-24T14:29:49Z</time>
      </trkpt>
      <trkpt lat="45.65235" lon="5.85292">
        <ele>363.59997558594</ele>
        <time>2012-11-24T14:30:05Z</time>
      </trkpt>
      <trkpt lat="45.65216" lon="5.85287">
        <ele>361.20001220703</ele>
        <time>2012-11-24T14:30:19Z</time>
      </trkpt>
      <trkpt lat="45.65196" lon="5.85284">
        <ele>358.70001220703</ele>
        <time>2012-11-24T14:30:35Z</time>
      </trkpt>
      <trkpt lat="45.65182" lon="5.85303">
        <ele>357.40002441406</ele>
        <time>2012-11-24T14:30:49Z</time>
      </trkpt>
      <trkpt lat="45.65184" lon="5.85344">
        <ele>357.09997558594</ele>
        <time>2012-11-24T14:31:08Z</time>
      </trkpt>
      <trkpt lat="45.65184" lon="5.85372">
        <ele>358.59997558594</ele>
        <time>2012-11-24T14:31:19Z</time>
      </trkpt>
      <trkpt lat="45.65176" lon="5.85398">
        <ele>352.20001220703</ele>
        <time>2012-11-24T14:31:35Z</time>
      </trkpt>
      <trkpt lat="45.65164" lon="5.85421">
        <ele>349</ele>
        <time>2012-11-24T14:31:49Z</time>
      </trkpt>
      <trkpt lat="45.65146" lon="5.85431">
        <ele>347.70001220703</ele>
        <time>2012-11-24T14:32:03Z</time>
      </trkpt>
      <trkpt lat="45.65137" lon="5.85433">
        <ele>347.5</ele>
        <time>2012-11-24T14:32:10Z</time>
      </trkpt>
      <trkpt lat="45.65127" lon="5.85434">
        <ele>347.09997558594</ele>
        <time>2012-11-24T14:32:17Z</time>
      </trkpt>
      <trkpt lat="45.65118" lon="5.85436">
        <ele>346.90002441406</ele>
        <time>2012-11-24T14:32:24Z</time>
      </trkpt>
      <trkpt lat="45.65098" lon="5.85443">
        <ele>345.20001220703</ele>
        <time>2012-11-24T14:32:40Z</time>
      </trkpt>
      <trkpt lat="45.6509" lon="5.85451">
        <ele>344.59997558594</ele>
        <time>2012-11-24T14:32:47Z</time>
      </trkpt>
      <trkpt lat="45.65078" lon="5.85473">
        <ele>344.29998779297</ele>
        <time>2012-11-24T14:33:01Z</time>
      </trkpt>
      <trkpt lat="45.65056" lon="5.85496">
        <ele>342.20001220703</ele>
        <time>2012-11-24T14:33:19Z</time>
      </trkpt>
      <trkpt lat="45.65037" lon="5.85504">
        <ele>337.90002441406</ele>
        <time>2012-11-24T14:33:32Z</time>
      </trkpt>
      <trkpt lat="45.65019" lon="5.85512">
        <ele>334.90002441406</ele>
        <time>2012-11-24T14:33:45Z</time>
      </trkpt>
      <trkpt lat="45.65" lon="5.85522">
        <ele>334.5</ele>
        <time>2012-11-24T14:33:58Z</time>
      </trkpt>
      <trkpt lat="45.64982" lon="5.85531">
        <ele>330.90002441406</ele>
        <time>2012-11-24T14:34:11Z</time>
      </trkpt>
      <trkpt lat="45.64963" lon="5.85536">
        <ele>328.40002441406</ele>
        <time>2012-11-24T14:34:23Z</time>
      </trkpt>
      <trkpt lat="45.64944" lon="5.85541">
        <ele>325.79998779297</ele>
        <time>2012-11-24T14:34:42Z</time>
      </trkpt>
      <trkpt lat="45.64925" lon="5.85545">
        <ele>323.20001220703</ele>
        <time>2012-11-24T14:34:53Z</time>
      </trkpt>
      <trkpt lat="45.64906" lon="5.85557">
        <ele>321</ele>
        <time>2012-11-24T14:35:06Z</time>
      </trkpt>
      <trkpt lat="45.64889" lon="5.85567">
        <ele>320.59997558594</ele>
        <time>2012-11-24T14:35:18Z</time>
      </trkpt>
      <trkpt lat="45.64869" lon="5.85569">
        <ele>319.59997558594</ele>
        <time>2012-11-24T14:35:31Z</time>
      </trkpt>
      <trkpt lat="45.6486" lon="5.85567">
        <ele>319.40002441406</ele>
        <time>2012-11-24T14:35:37Z</time>
      </trkpt>
      <trkpt lat="45.64841" lon="5.8556">
        <ele>319.20001220703</ele>
        <time>2012-11-24T14:35:51Z</time>
      </trkpt>
      <trkpt lat="45.64822" lon="5.85558">
        <ele>319.29998779297</ele>
        <time>2012-11-24T14:36:04Z</time>
      </trkpt>
      <trkpt lat="45.64805" lon="5.85568">
        <ele>319</ele>
        <time>2012-11-24T14:36:18Z</time>
      </trkpt>
      <trkpt lat="45.6479" lon="5.85584">
        <ele>316.09997558594</ele>
        <time>2012-11-24T14:36:31Z</time>
      </trkpt>
      <trkpt lat="45.64789" lon="5.85611">
        <ele>314.40002441406</ele>
        <time>2012-11-24T14:36:45Z</time>
      </trkpt>
      <trkpt lat="45.64798" lon="5.85635">
        <ele>313.29998779297</ele>
        <time>2012-11-24T14:36:59Z</time>
      </trkpt>
      <trkpt lat="45.64808" lon="5.85657">
        <ele>313.90002441406</ele>
        <time>2012-11-24T14:37:13Z</time>
      </trkpt>
      <trkpt lat="45.64815" lon="5.85681">
        <ele>314.5</ele>
        <time>2012-11-24T14:37:34Z</time>
      </trkpt>
      <trkpt lat="45.64826" lon="5.85703">
        <ele>315.5</ele>
        <time>2012-11-24T14:37:46Z</time>
      </trkpt>
      <trkpt lat="45.64837" lon="5.85728">
        <ele>316.09997558594</ele>
        <time>2012-11-24T14:38:00Z</time>
      </trkpt>
      <trkpt lat="45.6484" lon="5.85753">
        <ele>312.90002441406</ele>
        <time>2012-11-24T14:38:11Z</time>
      </trkpt>
      <trkpt lat="45.64843" lon="5.85781">
        <ele>309.59997558594</ele>
        <time>2012-11-24T14:38:27Z</time>
      </trkpt>
      <trkpt lat="45.64845" lon="5.85809">
        <ele>306</ele>
        <time>2012-11-24T14:38:43Z</time>
      </trkpt>
      <trkpt lat="45.64849" lon="5.85836">
        <ele>305.90002441406</ele>
        <time>2012-11-24T14:38:57Z</time>
      </trkpt>
      <trkpt lat="45.64849" lon="5.85864">
        <ele>305.29998779297</ele>
        <time>2012-11-24T14:39:09Z</time>
      </trkpt>
      <trkpt lat="45.64851" lon="5.85891">
        <ele>307.90002441406</ele>
        <time>2012-11-24T14:39:22Z</time>
      </trkpt>
      <trkpt lat="45.64853" lon="5.85919">
        <ele>308.70001220703</ele>
        <time>2012-11-24T14:39:34Z</time>
      </trkpt>
      <trkpt lat="45.64866" lon="5.8594">
        <ele>308.29998779297</ele>
        <time>2012-11-24T14:39:54Z</time>
      </trkpt>
      <trkpt lat="45.64867" lon="5.85969">
        <ele>305.79998779297</ele>
        <time>2012-11-24T14:40:07Z</time>
      </trkpt>
      <trkpt lat="45.64866" lon="5.85997">
        <ele>304.5</ele>
        <time>2012-11-24T14:40:20Z</time>
      </trkpt>
      <trkpt lat="45.64857" lon="5.85997">
        <ele>298.29998779297</ele>
        <time>2012-11-24T14:43:41Z</time>
      </trkpt>
      <trkpt lat="45.64838" lon="5.85999">
        <ele>295.40002441406</ele>
        <time>2012-11-24T14:44:23Z</time>
      </trkpt>
      <trkpt lat="45.64819" lon="5.86002">
        <ele>295.70001220703</ele>
        <time>2012-11-24T14:44:37Z</time>
      </trkpt>
      <trkpt lat="45.64798" lon="5.86004">
        <ele>297.70001220703</ele>
        <time>2012-11-24T14:44:51Z</time>
      </trkpt>
      <trkpt lat="45.64779" lon="5.86005">
        <ele>302.70001220703</ele>
        <time>2012-11-24T14:45:04Z</time>
      </trkpt>
      <trkpt lat="45.64765" lon="5.86031">
        <ele>308</ele>
        <time>2012-11-24T14:45:25Z</time>
      </trkpt>
      <trkpt lat="45.64772" lon="5.86058">
        <ele>312</ele>
        <time>2012-11-24T14:45:43Z</time>
      </trkpt>
      <trkpt lat="45.64777" lon="5.86087">
        <ele>304.20001220703</ele>
        <time>2012-11-24T14:45:52Z</time>
      </trkpt>
      <trkpt lat="45.6478" lon="5.86113">
        <ele>300.20001220703</ele>
        <time>2012-11-24T14:46:04Z</time>
      </trkpt>
      <trkpt lat="45.64778" lon="5.8614">
        <ele>298.59997558594</ele>
        <time>2012-11-24T14:46:16Z</time>
      </trkpt>
      <trkpt lat="45.64782" lon="5.86167">
        <ele>297.59997558594</ele>
        <time>2012-11-24T14:46:28Z</time>
      </trkpt>
      <trkpt lat="45.64781" lon="5.86196">
        <ele>297</ele>
        <time>2012-11-24T14:46:41Z</time>
      </trkpt>
      <trkpt lat="45.6478" lon="5.86224">
        <ele>295.59997558594</ele>
        <time>2012-11-24T14:46:55Z</time>
      </trkpt>
      <trkpt lat="45.64783" lon="5.86252">
        <ele>296.70001220703</ele>
        <time>2012-11-24T14:47:07Z</time>
      </trkpt>
      <trkpt lat="45.64783" lon="5.86279">
        <ele>296.20001220703</ele>
        <time>2012-11-24T14:47:21Z</time>
      </trkpt>
      <trkpt lat="45.64784" lon="5.86308">
        <ele>297.09997558594</ele>
        <time>2012-11-24T14:47:41Z</time>
      </trkpt>
      <trkpt lat="45.64772" lon="5.86329">
        <ele>293.29998779297</ele>
        <time>2012-11-24T14:47:57Z</time>
      </trkpt>
      <trkpt lat="45.64757" lon="5.86347">
        <ele>292.59997558594</ele>
        <time>2012-11-24T14:48:10Z</time>
      </trkpt>
      <trkpt lat="45.64744" lon="5.86369">
        <ele>294.09997558594</ele>
        <time>2012-11-24T14:48:22Z</time>
      </trkpt>
      <trkpt lat="45.64711" lon="5.86402">
        <ele>293</ele>
        <time>2012-11-24T14:48:50Z</time>
      </trkpt>
      <trkpt lat="45.64695" lon="5.86418">
        <ele>291.59997558594</ele>
        <time>2012-11-24T14:49:03Z</time>
      </trkpt>
      <trkpt lat="45.64679" lon="5.86432">
        <ele>288.70001220703</ele>
        <time>2012-11-24T14:49:16Z</time>
      </trkpt>
      <trkpt lat="45.64655" lon="5.86463">
        <ele>287.40002441406</ele>
        <time>2012-11-24T14:49:34Z</time>
      </trkpt>
      <trkpt lat="45.64643" lon="5.86486">
        <ele>290.29998779297</ele>
        <time>2012-11-24T14:49:43Z</time>
      </trkpt>
      <trkpt lat="45.6462" lon="5.86512">
        <ele>288.59997558594</ele>
        <time>2012-11-24T14:50:04Z</time>
      </trkpt>
      <trkpt lat="45.64598" lon="5.86539">
        <ele>289.5</ele>
        <time>2012-11-24T14:50:24Z</time>
      </trkpt>
      <trkpt lat="45.64583" lon="5.86557">
        <ele>289</ele>
        <time>2012-11-24T14:50:36Z</time>
      </trkpt>
      <trkpt lat="45.64559" lon="5.86578">
        <ele>289.20001220703</ele>
        <time>2012-11-24T14:50:56Z</time>
      </trkpt>
      <trkpt lat="45.64545" lon="5.86595">
        <ele>290.59997558594</ele>
        <time>2012-11-24T14:51:06Z</time>
      </trkpt>
      <trkpt lat="45.64526" lon="5.86605">
        <ele>289.29998779297</ele>
        <time>2012-11-24T14:51:19Z</time>
      </trkpt>
      <trkpt lat="45.64508" lon="5.86612">
        <ele>289.09997558594</ele>
        <time>2012-11-24T14:51:34Z</time>
      </trkpt>
      <trkpt lat="45.64481" lon="5.86617">
        <ele>286.79998779297</ele>
        <time>2012-11-24T14:51:50Z</time>
      </trkpt>
      <trkpt lat="45.6445" lon="5.86619">
        <ele>287.59997558594</ele>
        <time>2012-11-24T14:52:08Z</time>
      </trkpt>
      <trkpt lat="45.64431" lon="5.86622">
        <ele>287.09997558594</ele>
        <time>2012-11-24T14:52:18Z</time>
      </trkpt>
      <trkpt lat="45.64411" lon="5.86622">
        <ele>287.5</ele>
        <time>2012-11-24T14:52:30Z</time>
      </trkpt>
      <trkpt lat="45.64406" lon="5.86643">
        <ele>289.79998779297</ele>
        <time>2012-11-24T14:52:46Z</time>
      </trkpt>
      <trkpt lat="45.64414" lon="5.86668">
        <ele>288.09997558594</ele>
        <time>2012-11-24T14:53:01Z</time>
      </trkpt>
      <trkpt lat="45.64421" lon="5.86694">
        <ele>287.40002441406</ele>
        <time>2012-11-24T14:53:14Z</time>
      </trkpt>
      <trkpt lat="45.64425" lon="5.86707">
        <ele>289.70001220703</ele>
        <time>2012-11-24T14:53:23Z</time>
      </trkpt>
      <trkpt lat="45.64427" lon="5.8672">
        <ele>289</ele>
        <time>2012-11-24T14:53:30Z</time>
      </trkpt>
      <trkpt lat="45.64434" lon="5.86746">
        <ele>290.40002441406</ele>
        <time>2012-11-24T14:53:44Z</time>
      </trkpt>
      <trkpt lat="45.64438" lon="5.86774">
        <ele>288.79998779297</ele>
        <time>2012-11-24T14:54:00Z</time>
      </trkpt>
      <trkpt lat="45.64444" lon="5.86801">
        <ele>288.20001220703</ele>
        <time>2012-11-24T14:54:13Z</time>
      </trkpt>
      <trkpt lat="45.64442" lon="5.86816">
        <ele>288.79998779297</ele>
        <time>2012-11-24T14:54:19Z</time>
      </trkpt>
      <trkpt lat="45.64438" lon="5.86842">
        <ele>290.90002441406</ele>
        <time>2012-11-24T14:54:31Z</time>
      </trkpt>
      <trkpt lat="45.64438" lon="5.86855">
        <ele>292.29998779297</ele>
        <time>2012-11-24T14:54:39Z</time>
      </trkpt>
      <trkpt lat="45.64448" lon="5.86878">
        <ele>294.40002441406</ele>
        <time>2012-11-24T14:54:53Z</time>
      </trkpt>
      <trkpt lat="45.64454" lon="5.86903">
        <ele>292.70001220703</ele>
        <time>2012-11-24T14:55:03Z</time>
      </trkpt>
      <trkpt lat="45.64458" lon="5.86919">
        <ele>290.20001220703</ele>
        <time>2012-11-24T14:55:08Z</time>
      </trkpt>
      <trkpt lat="45.64465" lon="5.86946">
        <ele>288.59997558594</ele>
        <time>2012-11-24T14:55:18Z</time>
      </trkpt>
      <trkpt lat="45.64457" lon="5.86957">
        <ele>287.70001220703</ele>
        <time>2012-11-24T14:55:24Z</time>
      </trkpt>
      <trkpt lat="45.64457" lon="5.86969">
        <ele>287.5</ele>
        <time>2012-11-24T14:55:31Z</time>
      </trkpt>
      <trkpt lat="45.64463" lon="5.86981">
        <ele>288.09997558594</ele>
        <time>2012-11-24T14:55:38Z</time>
      </trkpt>
      <trkpt lat="45.6448" lon="5.86993">
        <ele>288.29998779297</ele>
        <time>2012-11-24T14:55:51Z</time>
      </trkpt>
      <trkpt lat="45.64489" lon="5.86996">
        <ele>287.40002441406</ele>
        <time>2012-11-24T14:55:59Z</time>
      </trkpt>
      <trkpt lat="45.64506" lon="5.87012">
        <ele>287.90002441406</ele>
        <time>2012-11-24T14:56:14Z</time>
      </trkpt>
      <trkpt lat="45.64521" lon="5.87031">
        <ele>289</ele>
        <time>2012-11-24T14:56:28Z</time>
      </trkpt>
      <trkpt lat="45.64537" lon="5.87049">
        <ele>289.90002441406</ele>
        <time>2012-11-24T14:56:41Z</time>
      </trkpt>
      <trkpt lat="45.64552" lon="5.87066">
        <ele>290.20001220703</ele>
        <time>2012-11-24T14:56:54Z</time>
      </trkpt>
      <trkpt lat="45.64568" lon="5.87082">
        <ele>291.20001220703</ele>
        <time>2012-11-24T14:57:05Z</time>
      </trkpt>
      <trkpt lat="45.64583" lon="5.87097">
        <ele>292.70001220703</ele>
        <time>2012-11-24T14:57:16Z</time>
      </trkpt>
      <trkpt lat="45.64595" lon="5.87118">
        <ele>292.09997558594</ele>
        <time>2012-11-24T14:57:31Z</time>
      </trkpt>
      <trkpt lat="45.6461" lon="5.87134">
        <ele>293.79998779297</ele>
        <time>2012-11-24T14:57:43Z</time>
      </trkpt>
      <trkpt lat="45.64624" lon="5.87154">
        <ele>297.20001220703</ele>
        <time>2012-11-24T14:57:55Z</time>
      </trkpt>
      <trkpt lat="45.64627" lon="5.87182">
        <ele>299.20001220703</ele>
        <time>2012-11-24T14:58:12Z</time>
      </trkpt>
      <trkpt lat="45.64643" lon="5.8719">
        <ele>294.40002441406</ele>
        <time>2012-11-24T14:58:37Z</time>
      </trkpt>
      <trkpt lat="45.64659" lon="5.87209">
        <ele>292.79998779297</ele>
        <time>2012-11-24T14:58:46Z</time>
      </trkpt>
      <trkpt lat="45.64673" lon="5.87229">
        <ele>293</ele>
        <time>2012-11-24T14:58:59Z</time>
      </trkpt>
      <trkpt lat="45.64686" lon="5.87249">
        <ele>291.09997558594</ele>
        <time>2012-11-24T14:59:14Z</time>
      </trkpt>
      <trkpt lat="45.64701" lon="5.87266">
        <ele>289.79998779297</ele>
        <time>2012-11-24T14:59:28Z</time>
      </trkpt>
      <trkpt lat="45.64715" lon="5.87284">
        <ele>289.29998779297</ele>
        <time>2012-11-24T14:59:40Z</time>
      </trkpt>
      <trkpt lat="45.6473" lon="5.87303">
        <ele>288.79998779297</ele>
        <time>2012-11-24T14:59:53Z</time>
      </trkpt>
      <trkpt lat="45.64743" lon="5.87325">
        <ele>289.5</ele>
        <time>2012-11-24T15:00:04Z</time>
      </trkpt>
      <trkpt lat="45.64757" lon="5.87343">
        <ele>290.09997558594</ele>
        <time>2012-11-24T15:00:16Z</time>
      </trkpt>
      <trkpt lat="45.64763" lon="5.87363">
        <ele>289.20001220703</ele>
        <time>2012-11-24T15:00:29Z</time>
      </trkpt>
      <trkpt lat="45.6476" lon="5.87375">
        <ele>291.5</ele>
        <time>2012-11-24T15:00:39Z</time>
      </trkpt>
      <trkpt lat="45.64751" lon="5.87371">
        <ele>290.09997558594</ele>
        <time>2012-11-24T15:00:55Z</time>
      </trkpt>
      <trkpt lat="45.64742" lon="5.87369">
        <ele>291.09997558594</ele>
        <time>2012-11-24T15:01:01Z</time>
      </trkpt>
      <trkpt lat="45.64727" lon="5.87384">
        <ele>293.09997558594</ele>
        <time>2012-11-24T15:01:13Z</time>
      </trkpt>
      <trkpt lat="45.64715" lon="5.87406">
        <ele>293.20001220703</ele>
        <time>2012-11-24T15:01:26Z</time>
      </trkpt>
      <trkpt lat="45.64712" lon="5.87418">
        <ele>291.70001220703</ele>
        <time>2012-11-24T15:01:33Z</time>
      </trkpt>
      <trkpt lat="45.6471" lon="5.87433">
        <ele>290.40002441406</ele>
        <time>2012-11-24T15:01:40Z</time>
      </trkpt>
      <trkpt lat="45.64706" lon="5.87444">
        <ele>289</ele>
        <time>2012-11-24T15:01:46Z</time>
      </trkpt>
      <trkpt lat="45.64698" lon="5.87451">
        <ele>288.09997558594</ele>
        <time>2012-11-24T15:01:52Z</time>
      </trkpt>
      <trkpt lat="45.64688" lon="5.87454">
        <ele>287.40002441406</ele>
        <time>2012-11-24T15:01:58Z</time>
      </trkpt>
      <trkpt lat="45.6467" lon="5.87455">
        <ele>285.90002441406</ele>
        <time>2012-11-24T15:02:10Z</time>
      </trkpt>
      <trkpt lat="45.64651" lon="5.87459">
        <ele>285.5</ele>
        <time>2012-11-24T15:02:22Z</time>
      </trkpt>
      <trkpt lat="45.64633" lon="5.87463">
        <ele>285.09997558594</ele>
        <time>2012-11-24T15:02:34Z</time>
      </trkpt>
      <trkpt lat="45.64624" lon="5.87463">
        <ele>284.59997558594</ele>
        <time>2012-11-24T15:02:40Z</time>
      </trkpt>
      <trkpt lat="45.64614" lon="5.87463">
        <ele>284.29998779297</ele>
        <time>2012-11-24T15:02:46Z</time>
      </trkpt>
      <trkpt lat="45.64604" lon="5.87465">
        <ele>284.09997558594</ele>
        <time>2012-11-24T15:02:52Z</time>
      </trkpt>
      <trkpt lat="45.64594" lon="5.87466">
        <ele>284.09997558594</ele>
        <time>2012-11-24T15:02:56Z</time>
      </trkpt>
      <trkpt lat="45.64576" lon="5.87465">
        <ele>283.70001220703</ele>
        <time>2012-11-24T15:03:06Z</time>
      </trkpt>
      <trkpt lat="45.64558" lon="5.87471">
        <ele>285.09997558594</ele>
        <time>2012-11-24T15:03:18Z</time>
      </trkpt>
      <trkpt lat="45.6454" lon="5.87481">
        <ele>285.5</ele>
        <time>2012-11-24T15:03:30Z</time>
      </trkpt>
      <trkpt lat="45.64523" lon="5.87497">
        <ele>285.5</ele>
        <time>2012-11-24T15:03:43Z</time>
      </trkpt>
      <trkpt lat="45.64514" lon="5.87521">
        <ele>285</ele>
        <time>2012-11-24T15:03:56Z</time>
      </trkpt>
      <trkpt lat="45.64503" lon="5.87545">
        <ele>284.5</ele>
        <time>2012-11-24T15:04:09Z</time>
      </trkpt>
      <trkpt lat="45.64493" lon="5.87567">
        <ele>283.90002441406</ele>
        <time>2012-11-24T15:04:29Z</time>
      </trkpt>
      <trkpt lat="45.64471" lon="5.87574">
        <ele>283.5</ele>
        <time>2012-11-24T15:04:35Z</time>
      </trkpt>
      <trkpt lat="45.6445" lon="5.87579">
        <ele>283.20001220703</ele>
        <time>2012-11-24T15:04:39Z</time>
      </trkpt>
      <trkpt lat="45.6443" lon="5.87583">
        <ele>282.29998779297</ele>
        <time>2012-11-24T15:04:43Z</time>
      </trkpt>
      <trkpt lat="45.6441" lon="5.87588">
        <ele>282.20001220703</ele>
        <time>2012-11-24T15:04:47Z</time>
      </trkpt>
      <trkpt lat="45.64388" lon="5.87594">
        <ele>282.40002441406</ele>
        <time>2012-11-24T15:04:54Z</time>
      </trkpt>
      <trkpt lat="45.64371" lon="5.87602">
        <ele>284</ele>
        <time>2012-11-24T15:05:11Z</time>
      </trkpt>
      <trkpt lat="45.64351" lon="5.87608">
        <ele>283</ele>
        <time>2012-11-24T15:05:26Z</time>
      </trkpt>
      <trkpt lat="45.64333" lon="5.87611">
        <ele>282.70001220703</ele>
        <time>2012-11-24T15:05:32Z</time>
      </trkpt>
      <trkpt lat="45.64313" lon="5.87616">
        <ele>283.79998779297</ele>
        <time>2012-11-24T15:05:55Z</time>
      </trkpt>
      <trkpt lat="45.64304" lon="5.87619">
        <ele>284.20001220703</ele>
        <time>2012-11-24T15:06:01Z</time>
      </trkpt>
      <trkpt lat="45.6428" lon="5.87625">
        <ele>284.09997558594</ele>
        <time>2012-11-24T15:06:08Z</time>
      </trkpt>
      <trkpt lat="45.6426" lon="5.8763">
        <ele>283.59997558594</ele>
        <time>2012-11-24T15:06:12Z</time>
      </trkpt>
      <trkpt lat="45.64251" lon="5.87633">
        <ele>283.59997558594</ele>
        <time>2012-11-24T15:06:14Z</time>
      </trkpt>
      <trkpt lat="45.64241" lon="5.87635">
        <ele>283.20001220703</ele>
        <time>2012-11-24T15:06:16Z</time>
      </trkpt>
      <trkpt lat="45.64221" lon="5.87636">
        <ele>283</ele>
        <time>2012-11-24T15:06:20Z</time>
      </trkpt>
      <trkpt lat="45.642" lon="5.87634">
        <ele>283.29998779297</ele>
        <time>2012-11-24T15:06:25Z</time>
      </trkpt>
      <trkpt lat="45.64178" lon="5.87636">
        <ele>283.59997558594</ele>
        <time>2012-11-24T15:06:30Z</time>
      </trkpt>
      <trkpt lat="45.64168" lon="5.87636">
        <ele>283.79998779297</ele>
        <time>2012-11-24T15:06:32Z</time>
      </trkpt>
      <trkpt lat="45.64158" lon="5.87636">
        <ele>283.70001220703</ele>
        <time>2012-11-24T15:06:34Z</time>
      </trkpt>
      <trkpt lat="45.64147" lon="5.87636">
        <ele>283.5</ele>
        <time>2012-11-24T15:06:36Z</time>
      </trkpt>
      <trkpt lat="45.64126" lon="5.87636">
        <ele>283.5</ele>
        <time>2012-11-24T15:06:40Z</time>
      </trkpt>
      <trkpt lat="45.64105" lon="5.87637">
        <ele>283.40002441406</ele>
        <time>2012-11-24T15:06:44Z</time>
      </trkpt>
      <trkpt lat="45.64084" lon="5.8764">
        <ele>283.5</ele>
        <time>2012-11-24T15:06:48Z</time>
      </trkpt>
      <trkpt lat="45.64059" lon="5.87642">
        <ele>283.09997558594</ele>
        <time>2012-11-24T15:06:52Z</time>
      </trkpt>
      <trkpt lat="45.64045" lon="5.87643">
        <ele>282.59997558594</ele>
        <time>2012-11-24T15:06:54Z</time>
      </trkpt>
      <trkpt lat="45.64017" lon="5.87645">
        <ele>282.90002441406</ele>
        <time>2012-11-24T15:06:58Z</time>
      </trkpt>
      <trkpt lat="45.63991" lon="5.87647">
        <ele>283.09997558594</ele>
        <time>2012-11-24T15:07:02Z</time>
      </trkpt>
      <trkpt lat="45.63958" lon="5.87651">
        <ele>282.90002441406</ele>
        <time>2012-11-24T15:07:08Z</time>
      </trkpt>
      <trkpt lat="45.63927" lon="5.87657">
        <ele>283</ele>
        <time>2012-11-24T15:07:16Z</time>
      </trkpt>
      <trkpt lat="45.63909" lon="5.87652">
        <ele>282.5</ele>
        <time>2012-11-24T15:07:39Z</time>
      </trkpt>
      <trkpt lat="45.63889" lon="5.8766">
        <ele>282.70001220703</ele>
        <time>2012-11-24T15:07:47Z</time>
      </trkpt>
      <trkpt lat="45.63867" lon="5.87674">
        <ele>282.79998779297</ele>
        <time>2012-11-24T15:07:52Z</time>
      </trkpt>
      <trkpt lat="45.6385" lon="5.87687">
        <ele>282.90002441406</ele>
        <time>2012-11-24T15:07:56Z</time>
      </trkpt>
      <trkpt lat="45.63829" lon="5.87701">
        <ele>283</ele>
        <time>2012-11-24T15:08:01Z</time>
      </trkpt>
      <trkpt lat="45.63808" lon="5.87715">
        <ele>283.70001220703</ele>
        <time>2012-11-24T15:08:07Z</time>
      </trkpt>
      <trkpt lat="45.63777" lon="5.87717">
        <ele>283.5</ele>
        <time>2012-11-24T15:08:20Z</time>
      </trkpt>
      <trkpt lat="45.63759" lon="5.87713">
        <ele>283.40002441406</ele>
        <time>2012-11-24T15:08:32Z</time>
      </trkpt>
      <trkpt lat="45.63737" lon="5.87714">
        <ele>284.40002441406</ele>
        <time>2012-11-24T15:08:45Z</time>
      </trkpt>
      <trkpt lat="45.63716" lon="5.87716">
        <ele>285.40002441406</ele>
        <time>2012-11-24T15:08:51Z</time>
      </trkpt>
      <trkpt lat="45.63694" lon="5.87716">
        <ele>285.29998779297</ele>
        <time>2012-11-24T15:08:57Z</time>
      </trkpt>
      <trkpt lat="45.63675" lon="5.87724">
        <ele>284.20001220703</ele>
        <time>2012-11-24T15:09:13Z</time>
      </trkpt>
      <trkpt lat="45.63653" lon="5.87731">
        <ele>283.90002441406</ele>
        <time>2012-11-24T15:09:19Z</time>
      </trkpt>
      <trkpt lat="45.63631" lon="5.87732">
        <ele>283.29998779297</ele>
        <time>2012-11-24T15:09:24Z</time>
      </trkpt>
      <trkpt lat="45.6361" lon="5.87727">
        <ele>283.29998779297</ele>
        <time>2012-11-24T15:09:28Z</time>
      </trkpt>
      <trkpt lat="45.63591" lon="5.87717">
        <ele>282.59997558594</ele>
        <time>2012-11-24T15:09:32Z</time>
      </trkpt>
      <trkpt lat="45.6357" lon="5.87707">
        <ele>282.29998779297</ele>
        <time>2012-11-24T15:09:36Z</time>
      </trkpt>
      <trkpt lat="45.63538" lon="5.87704">
        <ele>282.5</ele>
        <time>2012-11-24T15:09:42Z</time>
      </trkpt>
      <trkpt lat="45.63506" lon="5.87708">
        <ele>282.09997558594</ele>
        <time>2012-11-24T15:09:48Z</time>
      </trkpt>
      <trkpt lat="45.63476" lon="5.87713">
        <ele>283</ele>
        <time>2012-11-24T15:09:54Z</time>
      </trkpt>
      <trkpt lat="45.63447" lon="5.87726">
        <ele>283.29998779297</ele>
        <time>2012-11-24T15:10:07Z</time>
      </trkpt>
      <trkpt lat="45.63436" lon="5.87706">
        <ele>283.09997558594</ele>
        <time>2012-11-24T15:10:27Z</time>
      </trkpt>
      <trkpt lat="45.63413" lon="5.87707">
        <ele>283.5</ele>
        <time>2012-11-24T15:10:36Z</time>
      </trkpt>
      <trkpt lat="45.6339" lon="5.87709">
        <ele>284.5</ele>
        <time>2012-11-24T15:10:41Z</time>
      </trkpt>
      <trkpt lat="45.6336" lon="5.87711">
        <ele>284.29998779297</ele>
        <time>2012-11-24T15:10:47Z</time>
      </trkpt>
      <trkpt lat="45.63327" lon="5.87711">
        <ele>283.79998779297</ele>
        <time>2012-11-24T15:10:53Z</time>
      </trkpt>
      <trkpt lat="45.63294" lon="5.87713">
        <ele>283.09997558594</ele>
        <time>2012-11-24T15:10:59Z</time>
      </trkpt>
      <trkpt lat="45.63271" lon="5.87715">
        <ele>283.20001220703</ele>
        <time>2012-11-24T15:11:03Z</time>
      </trkpt>
      <trkpt lat="45.63237" lon="5.87719">
        <ele>283.70001220703</ele>
        <time>2012-11-24T15:11:09Z</time>
      </trkpt>
      <trkpt lat="45.63213" lon="5.87721">
        <ele>283.90002441406</ele>
        <time>2012-11-24T15:11:13Z</time>
      </trkpt>
      <trkpt lat="45.63187" lon="5.87722">
        <ele>284.40002441406</ele>
        <time>2012-11-24T15:11:17Z</time>
      </trkpt>
      <trkpt lat="45.63155" lon="5.87725">
        <ele>284.40002441406</ele>
        <time>2012-11-24T15:11:23Z</time>
      </trkpt>
      <trkpt lat="45.63132" lon="5.87728">
        <ele>285.20001220703</ele>
        <time>2012-11-24T15:11:28Z</time>
      </trkpt>
      <trkpt lat="45.63111" lon="5.87724">
        <ele>286.5</ele>
        <time>2012-11-24T15:11:37Z</time>
      </trkpt>
      <trkpt lat="45.63096" lon="5.87707">
        <ele>286.09997558594</ele>
        <time>2012-11-24T15:11:50Z</time>
      </trkpt>
      <trkpt lat="45.63078" lon="5.87703">
        <ele>284.79998779297</ele>
        <time>2012-11-24T15:12:06Z</time>
      </trkpt>
      <trkpt lat="45.63059" lon="5.8771">
        <ele>284.29998779297</ele>
        <time>2012-11-24T15:12:19Z</time>
      </trkpt>
      <trkpt lat="45.63041" lon="5.87709">
        <ele>284.20001220703</ele>
        <time>2012-11-24T15:12:32Z</time>
      </trkpt>
      <trkpt lat="45.63023" lon="5.87699">
        <ele>285.40002441406</ele>
        <time>2012-11-24T15:12:47Z</time>
      </trkpt>
      <trkpt lat="45.63004" lon="5.87688">
        <ele>286.20001220703</ele>
        <time>2012-11-24T15:13:01Z</time>
      </trkpt>
      <trkpt lat="45.62995" lon="5.87682">
        <ele>287.09997558594</ele>
        <time>2012-11-24T15:13:08Z</time>
      </trkpt>
      <trkpt lat="45.62988" lon="5.87671">
        <ele>287</ele>
        <time>2012-11-24T15:13:15Z</time>
      </trkpt>
      <trkpt lat="45.62978" lon="5.87646">
        <ele>286.09997558594</ele>
        <time>2012-11-24T15:13:29Z</time>
      </trkpt>
      <trkpt lat="45.6297" lon="5.8762">
        <ele>286.09997558594</ele>
        <time>2012-11-24T15:13:45Z</time>
      </trkpt>
      <trkpt lat="45.62962" lon="5.87597">
        <ele>285.70001220703</ele>
        <time>2012-11-24T15:13:59Z</time>
      </trkpt>
      <trkpt lat="45.6295" lon="5.87577">
        <ele>284.90002441406</ele>
        <time>2012-11-24T15:14:13Z</time>
      </trkpt>
      <trkpt lat="45.62946" lon="5.8755">
        <ele>283.70001220703</ele>
        <time>2012-11-24T15:14:28Z</time>
      </trkpt>
      <trkpt lat="45.62956" lon="5.87512">
        <ele>283.5</ele>
        <time>2012-11-24T15:14:48Z</time>
      </trkpt>
      <trkpt lat="45.62968" lon="5.87474">
        <ele>283.09997558594</ele>
        <time>2012-11-24T15:15:07Z</time>
      </trkpt>
      <trkpt lat="45.62972" lon="5.87447">
        <ele>282.59997558594</ele>
        <time>2012-11-24T15:15:20Z</time>
      </trkpt>
      <trkpt lat="45.62971" lon="5.87417">
        <ele>282.20001220703</ele>
        <time>2012-11-24T15:15:34Z</time>
      </trkpt>
      <trkpt lat="45.62967" lon="5.8739">
        <ele>282.59997558594</ele>
        <time>2012-11-24T15:15:48Z</time>
      </trkpt>
      <trkpt lat="45.62959" lon="5.87365">
        <ele>283.90002441406</ele>
        <time>2012-11-24T15:16:03Z</time>
      </trkpt>
      <trkpt lat="45.62948" lon="5.87342">
        <ele>286.90002441406</ele>
        <time>2012-11-24T15:16:18Z</time>
      </trkpt>
      <trkpt lat="45.62942" lon="5.87317">
        <ele>289.40002441406</ele>
        <time>2012-11-24T15:16:31Z</time>
      </trkpt>
      <trkpt lat="45.62941" lon="5.87288">
        <ele>291.70001220703</ele>
        <time>2012-11-24T15:16:45Z</time>
      </trkpt>
      <trkpt lat="45.62923" lon="5.87291">
        <ele>289.29998779297</ele>
        <time>2012-11-24T15:16:59Z</time>
      </trkpt>
      <trkpt lat="45.62908" lon="5.87308">
        <ele>289.70001220703</ele>
        <time>2012-11-24T15:17:13Z</time>
      </trkpt>
      <trkpt lat="45.62893" lon="5.87326">
        <ele>290</ele>
        <time>2012-11-24T15:17:27Z</time>
      </trkpt>
      <trkpt lat="45.62878" lon="5.87343">
        <ele>290.20001220703</ele>
        <time>2012-11-24T15:17:39Z</time>
      </trkpt>
      <trkpt lat="45.6287" lon="5.87352">
        <ele>290.40002441406</ele>
        <time>2012-11-24T15:17:46Z</time>
      </trkpt>
      <trkpt lat="45.62861" lon="5.87359">
        <ele>290.59997558594</ele>
        <time>2012-11-24T15:17:53Z</time>
      </trkpt>
      <trkpt lat="45.62841" lon="5.87366">
        <ele>289.90002441406</ele>
        <time>2012-11-24T15:18:07Z</time>
      </trkpt>
      <trkpt lat="45.62821" lon="5.87366">
        <ele>289</ele>
        <time>2012-11-24T15:18:20Z</time>
      </trkpt>
      <trkpt lat="45.62805" lon="5.87353">
        <ele>289.70001220703</ele>
        <time>2012-11-24T15:18:34Z</time>
      </trkpt>
      <trkpt lat="45.62801" lon="5.87325">
        <ele>292.20001220703</ele>
        <time>2012-11-24T15:19:12Z</time>
      </trkpt>
      <trkpt lat="45.62801" lon="5.87298">
        <ele>290.40002441406</ele>
        <time>2012-11-24T15:19:26Z</time>
      </trkpt>
      <trkpt lat="45.628" lon="5.8727">
        <ele>289.5</ele>
        <time>2012-11-24T15:19:44Z</time>
      </trkpt>
      <trkpt lat="45.62795" lon="5.87246">
        <ele>288.90002441406</ele>
        <time>2012-11-24T15:19:59Z</time>
      </trkpt>
      <trkpt lat="45.62785" lon="5.87227">
        <ele>287.40002441406</ele>
        <time>2012-11-24T15:20:15Z</time>
      </trkpt>
      <trkpt lat="45.62766" lon="5.87233">
        <ele>288.59997558594</ele>
        <time>2012-11-24T15:22:02Z</time>
      </trkpt>
      <trkpt lat="45.62747" lon="5.87241">
        <ele>289.90002441406</ele>
        <time>2012-11-24T15:22:14Z</time>
      </trkpt>
      <trkpt lat="45.62725" lon="5.8725">
        <ele>291.70001220703</ele>
        <time>2012-11-24T15:22:24Z</time>
      </trkpt>
      <trkpt lat="45.62706" lon="5.87249">
        <ele>290</ele>
        <time>2012-11-24T15:22:38Z</time>
      </trkpt>
      <trkpt lat="45.62686" lon="5.87245">
        <ele>289.5</ele>
        <time>2012-11-24T15:22:54Z</time>
      </trkpt>
      <trkpt lat="45.62677" lon="5.87244">
        <ele>289.20001220703</ele>
        <time>2012-11-24T15:23:17Z</time>
      </trkpt>
      <trkpt lat="45.62658" lon="5.87254">
        <ele>289.40002441406</ele>
        <time>2012-11-24T15:23:27Z</time>
      </trkpt>
      <trkpt lat="45.62639" lon="5.87258">
        <ele>289.20001220703</ele>
        <time>2012-11-24T15:23:37Z</time>
      </trkpt>
      <trkpt lat="45.6262" lon="5.87262">
        <ele>289.40002441406</ele>
        <time>2012-11-24T15:23:48Z</time>
      </trkpt>
      <trkpt lat="45.62601" lon="5.8727">
        <ele>289.90002441406</ele>
        <time>2012-11-24T15:24:01Z</time>
      </trkpt>
      <trkpt lat="45.62582" lon="5.8728">
        <ele>290.20001220703</ele>
        <time>2012-11-24T15:24:14Z</time>
      </trkpt>
      <trkpt lat="45.62564" lon="5.87289">
        <ele>292.5</ele>
        <time>2012-11-24T15:24:27Z</time>
      </trkpt>
      <trkpt lat="45.62541" lon="5.873">
        <ele>292.20001220703</ele>
        <time>2012-11-24T15:24:37Z</time>
      </trkpt>
      <trkpt lat="45.62522" lon="5.87308">
        <ele>293.29998779297</ele>
        <time>2012-11-24T15:24:48Z</time>
      </trkpt>
      <trkpt lat="45.6249" lon="5.87303">
        <ele>294.09997558594</ele>
        <time>2012-11-24T15:25:03Z</time>
      </trkpt>
      <trkpt lat="45.62458" lon="5.87306">
        <ele>295</ele>
        <time>2012-11-24T15:25:10Z</time>
      </trkpt>
      <trkpt lat="45.62427" lon="5.87306">
        <ele>295.70001220703</ele>
        <time>2012-11-24T15:25:16Z</time>
      </trkpt>
      <trkpt lat="45.62394" lon="5.87303">
        <ele>296.79998779297</ele>
        <time>2012-11-24T15:25:23Z</time>
      </trkpt>
      <trkpt lat="45.62374" lon="5.87302">
        <ele>297.90002441406</ele>
        <time>2012-11-24T15:25:32Z</time>
      </trkpt>
      <trkpt lat="45.62356" lon="5.87299">
        <ele>295.90002441406</ele>
        <time>2012-11-24T15:25:46Z</time>
      </trkpt>
      <trkpt lat="45.62336" lon="5.87303">
        <ele>296.59997558594</ele>
        <time>2012-11-24T15:25:59Z</time>
      </trkpt>
      <trkpt lat="45.62308" lon="5.87314">
        <ele>295.79998779297</ele>
        <time>2012-11-24T15:26:22Z</time>
      </trkpt>
      <trkpt lat="45.62279" lon="5.87319">
        <ele>297.40002441406</ele>
        <time>2012-11-24T15:26:42Z</time>
      </trkpt>
      <trkpt lat="45.62251" lon="5.8733">
        <ele>297.79998779297</ele>
        <time>2012-11-24T15:26:58Z</time>
      </trkpt>
      <trkpt lat="45.62221" lon="5.87341">
        <ele>298.09997558594</ele>
        <time>2012-11-24T15:27:18Z</time>
      </trkpt>
      <trkpt lat="45.62204" lon="5.87365">
        <ele>295.09997558594</ele>
        <time>2012-11-24T15:27:41Z</time>
      </trkpt>
      <trkpt lat="45.62185" lon="5.87378">
        <ele>293</ele>
        <time>2012-11-24T15:27:54Z</time>
      </trkpt>
      <trkpt lat="45.62164" lon="5.87387">
        <ele>292.5</ele>
        <time>2012-11-24T15:28:04Z</time>
      </trkpt>
      <trkpt lat="45.62141" lon="5.87396">
        <ele>291.70001220703</ele>
        <time>2012-11-24T15:28:10Z</time>
      </trkpt>
      <trkpt lat="45.62119" lon="5.874">
        <ele>291.40002441406</ele>
        <time>2012-11-24T15:28:16Z</time>
      </trkpt>
      <trkpt lat="45.62096" lon="5.87398">
        <ele>290.90002441406</ele>
        <time>2012-11-24T15:28:22Z</time>
      </trkpt>
      <trkpt lat="45.62071" lon="5.87395">
        <ele>290.90002441406</ele>
        <time>2012-11-24T15:28:28Z</time>
      </trkpt>
      <trkpt lat="45.62043" lon="5.87396">
        <ele>290.20001220703</ele>
        <time>2012-11-24T15:28:34Z</time>
      </trkpt>
      <trkpt lat="45.62013" lon="5.87402">
        <ele>290.90002441406</ele>
        <time>2012-11-24T15:28:40Z</time>
      </trkpt>
      <trkpt lat="45.61985" lon="5.87416">
        <ele>291.40002441406</ele>
        <time>2012-11-24T15:28:46Z</time>
      </trkpt>
      <trkpt lat="45.61955" lon="5.87432">
        <ele>291.20001220703</ele>
        <time>2012-11-24T15:28:53Z</time>
      </trkpt>
      <trkpt lat="45.61933" lon="5.87444">
        <ele>292.09997558594</ele>
        <time>2012-11-24T15:28:59Z</time>
      </trkpt>
      <trkpt lat="45.61915" lon="5.87452">
        <ele>293.79998779297</ele>
        <time>2012-11-24T15:29:12Z</time>
      </trkpt>
      <trkpt lat="45.61885" lon="5.87453">
        <ele>297.09997558594</ele>
        <time>2012-11-24T15:29:41Z</time>
      </trkpt>
      <trkpt lat="45.61854" lon="5.87457">
        <ele>296.79998779297</ele>
        <time>2012-11-24T15:29:55Z</time>
      </trkpt>
      <trkpt lat="45.61835" lon="5.87461">
        <ele>295.09997558594</ele>
        <time>2012-11-24T15:30:05Z</time>
      </trkpt>
      <trkpt lat="45.61816" lon="5.87459">
        <ele>292.90002441406</ele>
        <time>2012-11-24T15:30:12Z</time>
      </trkpt>
      <trkpt lat="45.61791" lon="5.87464">
        <ele>292.90002441406</ele>
        <time>2012-11-24T15:30:18Z</time>
      </trkpt>
      <trkpt lat="45.61762" lon="5.87471">
        <ele>292.70001220703</ele>
        <time>2012-11-24T15:30:24Z</time>
      </trkpt>
      <trkpt lat="45.61733" lon="5.87486">
        <ele>293.29998779297</ele>
        <time>2012-11-24T15:30:30Z</time>
      </trkpt>
      <trkpt lat="45.61706" lon="5.87503">
        <ele>292.5</ele>
        <time>2012-11-24T15:30:36Z</time>
      </trkpt>
      <trkpt lat="45.61679" lon="5.8752">
        <ele>292.79998779297</ele>
        <time>2012-11-24T15:30:43Z</time>
      </trkpt>
      <trkpt lat="45.61648" lon="5.87537">
        <ele>292.29998779297</ele>
        <time>2012-11-24T15:30:49Z</time>
      </trkpt>
      <trkpt lat="45.61618" lon="5.87555">
        <ele>291.59997558594</ele>
        <time>2012-11-24T15:30:55Z</time>
      </trkpt>
      <trkpt lat="45.61589" lon="5.87569">
        <ele>291.5</ele>
        <time>2012-11-24T15:31:01Z</time>
      </trkpt>
      <trkpt lat="45.61559" lon="5.87584">
        <ele>291.5</ele>
        <time>2012-11-24T15:31:07Z</time>
      </trkpt>
      <trkpt lat="45.61537" lon="5.87596">
        <ele>291.20001220703</ele>
        <time>2012-11-24T15:31:11Z</time>
      </trkpt>
      <trkpt lat="45.61515" lon="5.87611">
        <ele>291.90002441406</ele>
        <time>2012-11-24T15:31:15Z</time>
      </trkpt>
      <trkpt lat="45.61491" lon="5.87628">
        <ele>291.59997558594</ele>
        <time>2012-11-24T15:31:19Z</time>
      </trkpt>
      <trkpt lat="45.61466" lon="5.87647">
        <ele>291</ele>
        <time>2012-11-24T15:31:23Z</time>
      </trkpt>
      <trkpt lat="45.61443" lon="5.87666">
        <ele>292.09997558594</ele>
        <time>2012-11-24T15:31:27Z</time>
      </trkpt>
      <trkpt lat="45.61395" lon="5.87696">
        <ele>292.79998779297</ele>
        <time>2012-11-24T15:31:44Z</time>
      </trkpt>
      <trkpt lat="45.61368" lon="5.8771">
        <ele>293</ele>
        <time>2012-11-24T15:32:06Z</time>
      </trkpt>
      <trkpt lat="45.61342" lon="5.87727">
        <ele>293.20001220703</ele>
        <time>2012-11-24T15:32:24Z</time>
      </trkpt>
      <trkpt lat="45.61324" lon="5.87736">
        <ele>292</ele>
        <time>2012-11-24T15:32:36Z</time>
      </trkpt>
      <trkpt lat="45.61302" lon="5.87745">
        <ele>291.70001220703</ele>
        <time>2012-11-24T15:32:43Z</time>
      </trkpt>
      <trkpt lat="45.61273" lon="5.87755">
        <ele>290.79998779297</ele>
        <time>2012-11-24T15:32:49Z</time>
      </trkpt>
      <trkpt lat="45.61245" lon="5.87763">
        <ele>291</ele>
        <time>2012-11-24T15:32:55Z</time>
      </trkpt>
      <trkpt lat="45.61226" lon="5.8777">
        <ele>291.59997558594</ele>
        <time>2012-11-24T15:32:59Z</time>
      </trkpt>
      <trkpt lat="45.61195" lon="5.8778">
        <ele>291.59997558594</ele>
        <time>2012-11-24T15:33:06Z</time>
      </trkpt>
      <trkpt lat="45.61167" lon="5.87789">
        <ele>291.5</ele>
        <time>2012-11-24T15:33:12Z</time>
      </trkpt>
      <trkpt lat="45.61138" lon="5.87799">
        <ele>291.59997558594</ele>
        <time>2012-11-24T15:33:18Z</time>
      </trkpt>
      <trkpt lat="45.61116" lon="5.87809">
        <ele>292.40002441406</ele>
        <time>2012-11-24T15:33:22Z</time>
      </trkpt>
      <trkpt lat="45.61093" lon="5.87819">
        <ele>292</ele>
        <time>2012-11-24T15:33:26Z</time>
      </trkpt>
      <trkpt lat="45.61061" lon="5.87833">
        <ele>292.40002441406</ele>
        <time>2012-11-24T15:33:32Z</time>
      </trkpt>
      <trkpt lat="45.61026" lon="5.87848">
        <ele>293.40002441406</ele>
        <time>2012-11-24T15:33:38Z</time>
      </trkpt>
      <trkpt lat="45.60992" lon="5.87863">
        <ele>293.5</ele>
        <time>2012-11-24T15:33:44Z</time>
      </trkpt>
      <trkpt lat="45.60959" lon="5.87879">
        <ele>294.20001220703</ele>
        <time>2012-11-24T15:33:50Z</time>
      </trkpt>
      <trkpt lat="45.60866" lon="5.8794">
        <ele>294.79998779297</ele>
        <time>2012-11-24T15:34:06Z</time>
      </trkpt>
      <trkpt lat="45.60839" lon="5.87958">
        <ele>298</ele>
        <time>2012-11-24T15:34:15Z</time>
      </trkpt>
      <trkpt lat="45.60811" lon="5.8798">
        <ele>299.70001220703</ele>
        <time>2012-11-24T15:34:30Z</time>
      </trkpt>
      <trkpt lat="45.60783" lon="5.88004">
        <ele>299.20001220703</ele>
        <time>2012-11-24T15:34:37Z</time>
      </trkpt>
      <trkpt lat="45.60755" lon="5.8803">
        <ele>300</ele>
        <time>2012-11-24T15:34:44Z</time>
      </trkpt>
      <trkpt lat="45.60727" lon="5.88054">
        <ele>299.90002441406</ele>
        <time>2012-11-24T15:34:50Z</time>
      </trkpt>
      <trkpt lat="45.60636" lon="5.8812">
        <ele>302.20001220703</ele>
        <time>2012-11-24T15:35:10Z</time>
      </trkpt>
      <trkpt lat="45.606" lon="5.8813">
        <ele>300.20001220703</ele>
        <time>2012-11-24T15:35:19Z</time>
      </trkpt>
      <trkpt lat="45.60567" lon="5.88137">
        <ele>301</ele>
        <time>2012-11-24T15:35:28Z</time>
      </trkpt>
      <trkpt lat="45.60531" lon="5.88143">
        <ele>298.09997558594</ele>
        <time>2012-11-24T15:35:36Z</time>
      </trkpt>
      <trkpt lat="45.60509" lon="5.88142">
        <ele>296.29998779297</ele>
        <time>2012-11-24T15:35:41Z</time>
      </trkpt>
      <trkpt lat="45.60487" lon="5.88138">
        <ele>296.59997558594</ele>
        <time>2012-11-24T15:35:46Z</time>
      </trkpt>
      <trkpt lat="45.60463" lon="5.88129">
        <ele>295.5</ele>
        <time>2012-11-24T15:35:52Z</time>
      </trkpt>
      <trkpt lat="45.60442" lon="5.88121">
        <ele>295.59997558594</ele>
        <time>2012-11-24T15:35:59Z</time>
      </trkpt>
      <trkpt lat="45.60423" lon="5.88116">
        <ele>297.40002441406</ele>
        <time>2012-11-24T15:36:26Z</time>
      </trkpt>
      <trkpt lat="45.60404" lon="5.88118">
        <ele>298.20001220703</ele>
        <time>2012-11-24T15:36:39Z</time>
      </trkpt>
      <trkpt lat="45.60387" lon="5.88105">
        <ele>297.59997558594</ele>
        <time>2012-11-24T15:36:52Z</time>
      </trkpt>
      <trkpt lat="45.60375" lon="5.88085">
        <ele>297.09997558594</ele>
        <time>2012-11-24T15:37:05Z</time>
      </trkpt>
      <trkpt lat="45.60362" lon="5.88046">
        <ele>297.09997558594</ele>
        <time>2012-11-24T15:37:25Z</time>
      </trkpt>
      <trkpt lat="45.60356" lon="5.88021">
        <ele>296.5</ele>
        <time>2012-11-24T15:37:36Z</time>
      </trkpt>
      <trkpt lat="45.60349" lon="5.87979">
        <ele>295.29998779297</ele>
        <time>2012-11-24T15:37:55Z</time>
      </trkpt>
      <trkpt lat="45.60342" lon="5.87952">
        <ele>295.79998779297</ele>
        <time>2012-11-24T15:38:08Z</time>
      </trkpt>
      <trkpt lat="45.60337" lon="5.87925">
        <ele>296.20001220703</ele>
        <time>2012-11-24T15:38:22Z</time>
      </trkpt>
      <trkpt lat="45.60331" lon="5.87898">
        <ele>296.40002441406</ele>
        <time>2012-11-24T15:38:34Z</time>
      </trkpt>
      <trkpt lat="45.60326" lon="5.87872">
        <ele>296.70001220703</ele>
        <time>2012-11-24T15:38:46Z</time>
      </trkpt>
      <trkpt lat="45.6032" lon="5.87844">
        <ele>297.09997558594</ele>
        <time>2012-11-24T15:38:59Z</time>
      </trkpt>
      <trkpt lat="45.60316" lon="5.87819">
        <ele>297.09997558594</ele>
        <time>2012-11-24T15:39:11Z</time>
      </trkpt>
      <trkpt lat="45.60315" lon="5.87791">
        <ele>297.20001220703</ele>
        <time>2012-11-24T15:39:25Z</time>
      </trkpt>
      <trkpt lat="45.60312" lon="5.87763">
        <ele>298</ele>
        <time>2012-11-24T15:39:43Z</time>
      </trkpt>
      <trkpt lat="45.60311" lon="5.87737">
        <ele>298.29998779297</ele>
        <time>2012-11-24T15:39:56Z</time>
      </trkpt>
      <trkpt lat="45.60308" lon="5.87709">
        <ele>297.79998779297</ele>
        <time>2012-11-24T15:40:09Z</time>
      </trkpt>
      <trkpt lat="45.60304" lon="5.87683">
        <ele>298.70001220703</ele>
        <time>2012-11-24T15:40:21Z</time>
      </trkpt>
      <trkpt lat="45.60303" lon="5.87655">
        <ele>298.90002441406</ele>
        <time>2012-11-24T15:40:35Z</time>
      </trkpt>
      <trkpt lat="45.60287" lon="5.87641">
        <ele>299.79998779297</ele>
        <time>2012-11-24T15:40:48Z</time>
      </trkpt>
      <trkpt lat="45.60251" lon="5.87645">
        <ele>300.29998779297</ele>
        <time>2012-11-24T15:41:10Z</time>
      </trkpt>
      <trkpt lat="45.6023" lon="5.87621">
        <ele>305.79998779297</ele>
        <time>2012-11-24T15:41:29Z</time>
      </trkpt>
      <trkpt lat="45.60211" lon="5.8762">
        <ele>304.5</ele>
        <time>2012-11-24T15:41:43Z</time>
      </trkpt>
      <trkpt lat="45.60185" lon="5.87637">
        <ele>306.59997558594</ele>
        <time>2012-11-24T15:42:03Z</time>
      </trkpt>
      <trkpt lat="45.60155" lon="5.87642">
        <ele>309.29998779297</ele>
        <time>2012-11-24T15:42:22Z</time>
      </trkpt>
      <trkpt lat="45.60126" lon="5.87644">
        <ele>314.70001220703</ele>
        <time>2012-11-24T15:42:41Z</time>
      </trkpt>
      <trkpt lat="45.60107" lon="5.87635">
        <ele>312.70001220703</ele>
        <time>2012-11-24T15:42:54Z</time>
      </trkpt>
      <trkpt lat="45.60102" lon="5.87623">
        <ele>311.09997558594</ele>
        <time>2012-11-24T15:43:00Z</time>
      </trkpt>
      <trkpt lat="45.60103" lon="5.8761">
        <ele>308.90002441406</ele>
        <time>2012-11-24T15:43:06Z</time>
      </trkpt>
      <trkpt lat="45.60105" lon="5.87582">
        <ele>307.59997558594</ele>
        <time>2012-11-24T15:43:19Z</time>
      </trkpt>
      <trkpt lat="45.60104" lon="5.87555">
        <ele>307.70001220703</ele>
        <time>2012-11-24T15:43:31Z</time>
      </trkpt>
      <trkpt lat="45.60104" lon="5.87526">
        <ele>308.70001220703</ele>
        <time>2012-11-24T15:43:42Z</time>
      </trkpt>
      <trkpt lat="45.60103" lon="5.87495">
        <ele>309.09997558594</ele>
        <time>2012-11-24T15:43:48Z</time>
      </trkpt>
      <trkpt lat="45.60103" lon="5.87464">
        <ele>309.20001220703</ele>
        <time>2012-11-24T15:43:54Z</time>
      </trkpt>
      <trkpt lat="45.60103" lon="5.87434">
        <ele>309.5</ele>
        <time>2012-11-24T15:44:00Z</time>
      </trkpt>
      <trkpt lat="45.60103" lon="5.87404">
        <ele>309.79998779297</ele>
        <time>2012-11-24T15:44:06Z</time>
      </trkpt>
      <trkpt lat="45.60104" lon="5.87369">
        <ele>310.59997558594</ele>
        <time>2012-11-24T15:44:12Z</time>
      </trkpt>
      <trkpt lat="45.60103" lon="5.87337">
        <ele>310.90002441406</ele>
        <time>2012-11-24T15:44:18Z</time>
      </trkpt>
      <trkpt lat="45.60104" lon="5.8731">
        <ele>312.09997558594</ele>
        <time>2012-11-24T15:44:32Z</time>
      </trkpt>
      <trkpt lat="45.60106" lon="5.87286">
        <ele>312.79998779297</ele>
        <time>2012-11-24T15:44:48Z</time>
      </trkpt>
      <trkpt lat="45.60097" lon="5.87281">
        <ele>312.59997558594</ele>
        <time>2012-11-24T15:44:53Z</time>
      </trkpt>
      <trkpt lat="45.60087" lon="5.8728">
        <ele>312.59997558594</ele>
        <time>2012-11-24T15:44:57Z</time>
      </trkpt>
      <trkpt lat="45.60079" lon="5.87287">
        <ele>312.70001220703</ele>
        <time>2012-11-24T15:45:01Z</time>
      </trkpt>
      <trkpt lat="45.60062" lon="5.87302">
        <ele>314.29998779297</ele>
        <time>2012-11-24T15:45:11Z</time>
      </trkpt>
      <trkpt lat="45.60044" lon="5.87303">
        <ele>314.5</ele>
        <time>2012-11-24T15:45:23Z</time>
      </trkpt>
      <trkpt lat="45.60034" lon="5.87307">
        <ele>314.79998779297</ele>
        <time>2012-11-24T15:45:30Z</time>
      </trkpt>
      <trkpt lat="45.60016" lon="5.87317">
        <ele>316</ele>
        <time>2012-11-24T15:45:43Z</time>
      </trkpt>
      <trkpt lat="45.59996" lon="5.87323">
        <ele>315.59997558594</ele>
        <time>2012-11-24T15:45:57Z</time>
      </trkpt>
      <trkpt lat="45.59988" lon="5.87327">
        <ele>315.79998779297</ele>
        <time>2012-11-24T15:46:03Z</time>
      </trkpt>
      <trkpt lat="45.59978" lon="5.8733">
        <ele>315.90002441406</ele>
        <time>2012-11-24T15:46:10Z</time>
      </trkpt>
      <trkpt lat="45.59968" lon="5.87333">
        <ele>315.29998779297</ele>
        <time>2012-11-24T15:46:18Z</time>
      </trkpt>
      <trkpt lat="45.59953" lon="5.8735">
        <ele>314.90002441406</ele>
        <time>2012-11-24T15:46:30Z</time>
      </trkpt>
      <trkpt lat="45.59937" lon="5.87365">
        <ele>315.59997558594</ele>
        <time>2012-11-24T15:46:42Z</time>
      </trkpt>
      <trkpt lat="45.59919" lon="5.87381">
        <ele>318.20001220703</ele>
        <time>2012-11-24T15:46:53Z</time>
      </trkpt>
      <trkpt lat="45.599" lon="5.87392">
        <ele>320.59997558594</ele>
        <time>2012-11-24T15:47:06Z</time>
      </trkpt>
      <trkpt lat="45.59882" lon="5.87397">
        <ele>322.40002441406</ele>
        <time>2012-11-24T15:47:18Z</time>
      </trkpt>
      <trkpt lat="45.59864" lon="5.87406">
        <ele>321.40002441406</ele>
        <time>2012-11-24T15:47:32Z</time>
      </trkpt>
      <trkpt lat="45.59847" lon="5.87416">
        <ele>323.5</ele>
        <time>2012-11-24T15:47:43Z</time>
      </trkpt>
      <trkpt lat="45.59829" lon="5.87423">
        <ele>321.70001220703</ele>
        <time>2012-11-24T15:47:57Z</time>
      </trkpt>
      <trkpt lat="45.5981" lon="5.87435">
        <ele>324.40002441406</ele>
        <time>2012-11-24T15:48:10Z</time>
      </trkpt>
      <trkpt lat="45.59791" lon="5.87444">
        <ele>321.79998779297</ele>
        <time>2012-11-24T15:48:25Z</time>
      </trkpt>
      <trkpt lat="45.59775" lon="5.87459">
        <ele>322.59997558594</ele>
        <time>2012-11-24T15:48:38Z</time>
      </trkpt>
      <trkpt lat="45.59765" lon="5.87463">
        <ele>323.20001220703</ele>
        <time>2012-11-24T15:48:45Z</time>
      </trkpt>
      <trkpt lat="45.59747" lon="5.87472">
        <ele>322.20001220703</ele>
        <time>2012-11-24T15:48:58Z</time>
      </trkpt>
      <trkpt lat="45.59727" lon="5.87473">
        <ele>320</ele>
        <time>2012-11-24T15:49:19Z</time>
      </trkpt>
      <trkpt lat="45.59717" lon="5.87495">
        <ele>320.29998779297</ele>
        <time>2012-11-24T15:49:34Z</time>
      </trkpt>
      <trkpt lat="45.59708" lon="5.87498">
        <ele>320.20001220703</ele>
        <time>2012-11-24T15:49:40Z</time>
      </trkpt>
      <trkpt lat="45.5969" lon="5.87503">
        <ele>319.5</ele>
        <time>2012-11-24T15:49:52Z</time>
      </trkpt>
      <trkpt lat="45.59671" lon="5.87503">
        <ele>318.09997558594</ele>
        <time>2012-11-24T15:50:06Z</time>
      </trkpt>
      <trkpt lat="45.59653" lon="5.87502">
        <ele>316.5</ele>
        <time>2012-11-24T15:50:23Z</time>
      </trkpt>
      <trkpt lat="45.59635" lon="5.87497">
        <ele>315.5</ele>
        <time>2012-11-24T15:50:35Z</time>
      </trkpt>
      <trkpt lat="45.59627" lon="5.8749">
        <ele>315.20001220703</ele>
        <time>2012-11-24T15:50:44Z</time>
      </trkpt>
      <trkpt lat="45.59617" lon="5.87484">
        <ele>314.70001220703</ele>
        <time>2012-11-24T15:50:50Z</time>
      </trkpt>
      <trkpt lat="45.59607" lon="5.87482">
        <ele>315.29998779297</ele>
        <time>2012-11-24T15:50:57Z</time>
      </trkpt>
      <trkpt lat="45.596" lon="5.87489">
        <ele>315</ele>
        <time>2012-11-24T15:51:06Z</time>
      </trkpt>
      <trkpt lat="45.5959" lon="5.87492">
        <ele>314.90002441406</ele>
        <time>2012-11-24T15:51:13Z</time>
      </trkpt>
      <trkpt lat="45.59581" lon="5.87497">
        <ele>315.09997558594</ele>
        <time>2012-11-24T15:51:19Z</time>
      </trkpt>
      <trkpt lat="45.59562" lon="5.87508">
        <ele>316.20001220703</ele>
        <time>2012-11-24T15:51:33Z</time>
      </trkpt>
      <trkpt lat="45.59553" lon="5.87514">
        <ele>316.40002441406</ele>
        <time>2012-11-24T15:51:40Z</time>
      </trkpt>
      <trkpt lat="45.59533" lon="5.87513">
        <ele>316.5</ele>
        <time>2012-11-24T15:51:54Z</time>
      </trkpt>
      <trkpt lat="45.59513" lon="5.8751">
        <ele>316.40002441406</ele>
        <time>2012-11-24T15:52:07Z</time>
      </trkpt>
      <trkpt lat="45.59503" lon="5.87507">
        <ele>316.09997558594</ele>
        <time>2012-11-24T15:52:14Z</time>
      </trkpt>
      <trkpt lat="45.59494" lon="5.87503">
        <ele>315.70001220703</ele>
        <time>2012-11-24T15:52:20Z</time>
      </trkpt>
      <trkpt lat="45.59484" lon="5.87498">
        <ele>315.29998779297</ele>
        <time>2012-11-24T15:52:27Z</time>
      </trkpt>
      <trkpt lat="45.59474" lon="5.87492">
        <ele>315.09997558594</ele>
        <time>2012-11-24T15:52:34Z</time>
      </trkpt>
      <trkpt lat="45.59465" lon="5.87486">
        <ele>315.5</ele>
        <time>2012-11-24T15:52:41Z</time>
      </trkpt>
      <trkpt lat="45.59455" lon="5.8748">
        <ele>316.70001220703</ele>
        <time>2012-11-24T15:52:48Z</time>
      </trkpt>
      <trkpt lat="45.59447" lon="5.87475">
        <ele>316.59997558594</ele>
        <time>2012-11-24T15:52:54Z</time>
      </trkpt>
      <trkpt lat="45.59438" lon="5.87471">
        <ele>318.29998779297</ele>
        <time>2012-11-24T15:53:00Z</time>
      </trkpt>
      <trkpt lat="45.5943" lon="5.87464">
        <ele>319.09997558594</ele>
        <time>2012-11-24T15:53:06Z</time>
      </trkpt>
      <trkpt lat="45.59421" lon="5.87458">
        <ele>318.5</ele>
        <time>2012-11-24T15:53:13Z</time>
      </trkpt>
      <trkpt lat="45.59402" lon="5.8745">
        <ele>319.09997558594</ele>
        <time>2012-11-24T15:53:27Z</time>
      </trkpt>
      <trkpt lat="45.59387" lon="5.87436">
        <ele>317.70001220703</ele>
        <time>2012-11-24T15:53:40Z</time>
      </trkpt>
      <trkpt lat="45.59368" lon="5.87426">
        <ele>318.5</ele>
        <time>2012-11-24T15:53:55Z</time>
      </trkpt>
      <trkpt lat="45.5936" lon="5.87421">
        <ele>318.40002441406</ele>
        <time>2012-11-24T15:54:02Z</time>
      </trkpt>
      <trkpt lat="45.59351" lon="5.87415">
        <ele>318.20001220703</ele>
        <time>2012-11-24T15:54:08Z</time>
      </trkpt>
      <trkpt lat="45.59334" lon="5.87402">
        <ele>317.79998779297</ele>
        <time>2012-11-24T15:54:21Z</time>
      </trkpt>
      <trkpt lat="45.59316" lon="5.87398">
        <ele>317.90002441406</ele>
        <time>2012-11-24T15:54:34Z</time>
      </trkpt>
      <trkpt lat="45.59307" lon="5.87391">
        <ele>318.29998779297</ele>
        <time>2012-11-24T15:54:41Z</time>
      </trkpt>
      <trkpt lat="45.59293" lon="5.87406">
        <ele>319.59997558594</ele>
        <time>2012-11-24T15:54:57Z</time>
      </trkpt>
      <trkpt lat="45.59278" lon="5.87388">
        <ele>320.40002441406</ele>
        <time>2012-11-24T15:55:10Z</time>
      </trkpt>
      <trkpt lat="45.59264" lon="5.87366">
        <ele>319.59997558594</ele>
        <time>2012-11-24T15:55:23Z</time>
      </trkpt>
      <trkpt lat="45.59256" lon="5.87342">
        <ele>320</ele>
        <time>2012-11-24T15:55:36Z</time>
      </trkpt>
      <trkpt lat="45.59248" lon="5.87315">
        <ele>320.09997558594</ele>
        <time>2012-11-24T15:55:48Z</time>
      </trkpt>
      <trkpt lat="45.59241" lon="5.87287">
        <ele>321.09997558594</ele>
        <time>2012-11-24T15:56:02Z</time>
      </trkpt>
      <trkpt lat="45.59233" lon="5.8726">
        <ele>321</ele>
        <time>2012-11-24T15:56:16Z</time>
      </trkpt>
      <trkpt lat="45.59225" lon="5.87234">
        <ele>321.5</ele>
        <time>2012-11-24T15:56:30Z</time>
      </trkpt>
      <trkpt lat="45.59214" lon="5.87212">
        <ele>322.09997558594</ele>
        <time>2012-11-24T15:56:45Z</time>
      </trkpt>
      <trkpt lat="45.59199" lon="5.87192">
        <ele>322.79998779297</ele>
        <time>2012-11-24T15:57:00Z</time>
      </trkpt>
      <trkpt lat="45.59185" lon="5.87174">
        <ele>323.70001220703</ele>
        <time>2012-11-24T15:57:12Z</time>
      </trkpt>
      <trkpt lat="45.5917" lon="5.87157">
        <ele>323.40002441406</ele>
        <time>2012-11-24T15:57:26Z</time>
      </trkpt>
      <trkpt lat="45.59156" lon="5.8714">
        <ele>321.5</ele>
        <time>2012-11-24T15:57:40Z</time>
      </trkpt>
      <trkpt lat="45.5914" lon="5.87123">
        <ele>321.79998779297</ele>
        <time>2012-11-24T15:57:53Z</time>
      </trkpt>
      <trkpt lat="45.59124" lon="5.87106">
        <ele>324.59997558594</ele>
        <time>2012-11-24T15:58:05Z</time>
      </trkpt>
      <trkpt lat="45.59107" lon="5.87096">
        <ele>324.59997558594</ele>
        <time>2012-11-24T15:58:19Z</time>
      </trkpt>
      <trkpt lat="45.59089" lon="5.87102">
        <ele>325.5</ele>
        <time>2012-11-24T15:58:33Z</time>
      </trkpt>
      <trkpt lat="45.59077" lon="5.87124">
        <ele>324.09997558594</ele>
        <time>2012-11-24T15:58:46Z</time>
      </trkpt>
      <trkpt lat="45.59056" lon="5.87152">
        <ele>325.40002441406</ele>
        <time>2012-11-24T15:59:05Z</time>
      </trkpt>
      <trkpt lat="45.59036" lon="5.87159">
        <ele>325.5</ele>
        <time>2012-11-24T15:59:19Z</time>
      </trkpt>
      <trkpt lat="45.59018" lon="5.87161">
        <ele>326.40002441406</ele>
        <time>2012-11-24T15:59:32Z</time>
      </trkpt>
      <trkpt lat="45.58999" lon="5.87166">
        <ele>329.20001220703</ele>
        <time>2012-11-24T15:59:45Z</time>
      </trkpt>
      <trkpt lat="45.58991" lon="5.87168">
        <ele>328.79998779297</ele>
        <time>2012-11-24T15:59:52Z</time>
      </trkpt>
      <trkpt lat="45.5898" lon="5.87171">
        <ele>329.29998779297</ele>
        <time>2012-11-24T15:59:59Z</time>
      </trkpt>
      <trkpt lat="45.58962" lon="5.87176">
        <ele>329</ele>
        <time>2012-11-24T16:00:12Z</time>
      </trkpt>
      <trkpt lat="45.58944" lon="5.87181">
        <ele>329.59997558594</ele>
        <time>2012-11-24T16:00:26Z</time>
      </trkpt>
      <trkpt lat="45.58928" lon="5.87197">
        <ele>329.29998779297</ele>
        <time>2012-11-24T16:00:40Z</time>
      </trkpt>
      <trkpt lat="45.58918" lon="5.87222">
        <ele>331.09997558594</ele>
        <time>2012-11-24T16:00:53Z</time>
      </trkpt>
      <trkpt lat="45.58915" lon="5.87249">
        <ele>332</ele>
        <time>2012-11-24T16:01:07Z</time>
      </trkpt>
      <trkpt lat="45.58913" lon="5.87276">
        <ele>333.79998779297</ele>
        <time>2012-11-24T16:01:25Z</time>
      </trkpt>
      <trkpt lat="45.58912" lon="5.87304">
        <ele>335.59997558594</ele>
        <time>2012-11-24T16:01:38Z</time>
      </trkpt>
      <trkpt lat="45.58908" lon="5.87331">
        <ele>337.59997558594</ele>
        <time>2012-11-24T16:01:53Z</time>
      </trkpt>
      <trkpt lat="45.58896" lon="5.87351">
        <ele>338.09997558594</ele>
        <time>2012-11-24T16:02:07Z</time>
      </trkpt>
      <trkpt lat="45.58877" lon="5.87359">
        <ele>339.29998779297</ele>
        <time>2012-11-24T16:02:21Z</time>
      </trkpt>
      <trkpt lat="45.58858" lon="5.87353">
        <ele>341.90002441406</ele>
        <time>2012-11-24T16:02:36Z</time>
      </trkpt>
      <trkpt lat="45.5884" lon="5.87346">
        <ele>343.29998779297</ele>
        <time>2012-11-24T16:02:50Z</time>
      </trkpt>
      <trkpt lat="45.58821" lon="5.87337">
        <ele>346</ele>
        <time>2012-11-24T16:03:02Z</time>
      </trkpt>
      <trkpt lat="45.58803" lon="5.87332">
        <ele>347.59997558594</ele>
        <time>2012-11-24T16:03:17Z</time>
      </trkpt>
      <trkpt lat="45.58784" lon="5.87337">
        <ele>348.40002441406</ele>
        <time>2012-11-24T16:03:31Z</time>
      </trkpt>
      <trkpt lat="45.58766" lon="5.8735">
        <ele>349.5</ele>
        <time>2012-11-24T16:03:46Z</time>
      </trkpt>
      <trkpt lat="45.58748" lon="5.87363">
        <ele>352.09997558594</ele>
        <time>2012-11-24T16:04:02Z</time>
      </trkpt>
      <trkpt lat="45.58731" lon="5.87374">
        <ele>353.40002441406</ele>
        <time>2012-11-24T16:04:15Z</time>
      </trkpt>
      <trkpt lat="45.58712" lon="5.87377">
        <ele>354.79998779297</ele>
        <time>2012-11-24T16:04:29Z</time>
      </trkpt>
      <trkpt lat="45.58702" lon="5.87381">
        <ele>356.09997558594</ele>
        <time>2012-11-24T16:04:36Z</time>
      </trkpt>
      <trkpt lat="45.58683" lon="5.87381">
        <ele>357.90002441406</ele>
        <time>2012-11-24T16:04:49Z</time>
      </trkpt>
      <trkpt lat="45.58665" lon="5.87384">
        <ele>358.5</ele>
        <time>2012-11-24T16:05:04Z</time>
      </trkpt>
      <trkpt lat="45.58663" lon="5.87412">
        <ele>359.90002441406</ele>
        <time>2012-11-24T16:05:19Z</time>
      </trkpt>
      <trkpt lat="45.58663" lon="5.87441">
        <ele>362</ele>
        <time>2012-11-24T16:05:33Z</time>
      </trkpt>
      <trkpt lat="45.58662" lon="5.87469">
        <ele>364</ele>
        <time>2012-11-24T16:05:46Z</time>
      </trkpt>
      <trkpt lat="45.58654" lon="5.87496">
        <ele>363.09997558594</ele>
        <time>2012-11-24T16:06:02Z</time>
      </trkpt>
      <trkpt lat="45.58638" lon="5.8751">
        <ele>366.20001220703</ele>
        <time>2012-11-24T16:06:14Z</time>
      </trkpt>
      <trkpt lat="45.58619" lon="5.87507">
        <ele>370.59997558594</ele>
        <time>2012-11-24T16:06:27Z</time>
      </trkpt>
      <trkpt lat="45.58601" lon="5.87496">
        <ele>372.90002441406</ele>
        <time>2012-11-24T16:06:41Z</time>
      </trkpt>
      <trkpt lat="45.58584" lon="5.8748">
        <ele>374.59997558594</ele>
        <time>2012-11-24T16:06:55Z</time>
      </trkpt>
      <trkpt lat="45.58571" lon="5.87461">
        <ele>377.09997558594</ele>
        <time>2012-11-24T16:07:10Z</time>
      </trkpt>
      <trkpt lat="45.58562" lon="5.87475">
        <ele>377.29998779297</ele>
        <time>2012-11-24T16:07:25Z</time>
      </trkpt>
      <trkpt lat="45.5857" lon="5.875">
        <ele>379.20001220703</ele>
        <time>2012-11-24T16:07:39Z</time>
      </trkpt>
      <trkpt lat="45.58573" lon="5.87513">
        <ele>380</ele>
        <time>2012-11-24T16:07:46Z</time>
      </trkpt>
      <trkpt lat="45.58572" lon="5.8754">
        <ele>381.59997558594</ele>
        <time>2012-11-24T16:08:00Z</time>
      </trkpt>
      <trkpt lat="45.58557" lon="5.87559">
        <ele>382.70001220703</ele>
        <time>2012-11-24T16:08:13Z</time>
      </trkpt>
      <trkpt lat="45.58527" lon="5.8754">
        <ele>385.40002441406</ele>
        <time>2012-11-24T16:08:23Z</time>
      </trkpt>
      <trkpt lat="45.58513" lon="5.87523">
        <ele>388.79998779297</ele>
        <time>2012-11-24T16:08:36Z</time>
      </trkpt>
      <trkpt lat="45.58494" lon="5.87515">
        <ele>392.5</ele>
        <time>2012-11-24T16:08:49Z</time>
      </trkpt>
      <trkpt lat="45.58476" lon="5.87507">
        <ele>396.40002441406</ele>
        <time>2012-11-24T16:09:01Z</time>
      </trkpt>
      <trkpt lat="45.58457" lon="5.875">
        <ele>398.20001220703</ele>
        <time>2012-11-24T16:09:15Z</time>
      </trkpt>
      <trkpt lat="45.58438" lon="5.87493">
        <ele>399.09997558594</ele>
        <time>2012-11-24T16:09:29Z</time>
      </trkpt>
      <trkpt lat="45.58429" lon="5.87487">
        <ele>399.90002441406</ele>
        <time>2012-11-24T16:09:36Z</time>
      </trkpt>
      <trkpt lat="45.58414" lon="5.87474">
        <ele>401.09997558594</ele>
        <time>2012-11-24T16:09:48Z</time>
      </trkpt>
      <trkpt lat="45.58397" lon="5.87461">
        <ele>402.09997558594</ele>
        <time>2012-11-24T16:10:02Z</time>
      </trkpt>
      <trkpt lat="45.58379" lon="5.87448">
        <ele>402.70001220703</ele>
        <time>2012-11-24T16:10:17Z</time>
      </trkpt>
      <trkpt lat="45.58355" lon="5.87428">
        <ele>404.70001220703</ele>
        <time>2012-11-24T16:10:37Z</time>
      </trkpt>
      <trkpt lat="45.58328" lon="5.8741">
        <ele>406.79998779297</ele>
        <time>2012-11-24T16:10:57Z</time>
      </trkpt>
      <trkpt lat="45.58302" lon="5.87392">
        <ele>409.20001220703</ele>
        <time>2012-11-24T16:11:18Z</time>
      </trkpt>
      <trkpt lat="45.58285" lon="5.87382">
        <ele>412.79998779297</ele>
        <time>2012-11-24T16:11:32Z</time>
      </trkpt>
      <trkpt lat="45.58268" lon="5.87372">
        <ele>416.20001220703</ele>
        <time>2012-11-24T16:11:44Z</time>
      </trkpt>
      <trkpt lat="45.58239" lon="5.87363">
        <ele>418.79998779297</ele>
        <time>2012-11-24T16:12:06Z</time>
      </trkpt>
      <trkpt lat="45.58212" lon="5.87351">
        <ele>423.40002441406</ele>
        <time>2012-11-24T16:12:30Z</time>
      </trkpt>
      <trkpt lat="45.58183" lon="5.8734">
        <ele>424.90002441406</ele>
        <time>2012-11-24T16:12:50Z</time>
      </trkpt>
      <trkpt lat="45.58154" lon="5.87333">
        <ele>425.90002441406</ele>
        <time>2012-11-24T16:13:09Z</time>
      </trkpt>
      <trkpt lat="45.58135" lon="5.87329">
        <ele>426.90002441406</ele>
        <time>2012-11-24T16:13:23Z</time>
      </trkpt>
      <trkpt lat="45.58116" lon="5.87325">
        <ele>428</ele>
        <time>2012-11-24T16:13:35Z</time>
      </trkpt>
      <trkpt lat="45.58097" lon="5.87321">
        <ele>428.79998779297</ele>
        <time>2012-11-24T16:13:52Z</time>
      </trkpt>
      <trkpt lat="45.58077" lon="5.87315">
        <ele>431.09997558594</ele>
        <time>2012-11-24T16:14:06Z</time>
      </trkpt>
      <trkpt lat="45.58058" lon="5.87308">
        <ele>433.59997558594</ele>
        <time>2012-11-24T16:14:21Z</time>
      </trkpt>
      <trkpt lat="45.5804" lon="5.87298">
        <ele>433.40002441406</ele>
        <time>2012-11-24T16:14:36Z</time>
      </trkpt>
      <trkpt lat="45.58021" lon="5.87288">
        <ele>433.70001220703</ele>
        <time>2012-11-24T16:14:52Z</time>
      </trkpt>
      <trkpt lat="45.58004" lon="5.8728">
        <ele>434.09997558594</ele>
        <time>2012-11-24T16:15:05Z</time>
      </trkpt>
      <trkpt lat="45.57976" lon="5.87265">
        <ele>437</ele>
        <time>2012-11-24T16:15:24Z</time>
      </trkpt>
      <trkpt lat="45.57958" lon="5.87261">
        <ele>438</ele>
        <time>2012-11-24T16:15:37Z</time>
      </trkpt>
      <trkpt lat="45.5794" lon="5.87248">
        <ele>437.09997558594</ele>
        <time>2012-11-24T16:15:50Z</time>
      </trkpt>
      <trkpt lat="45.57923" lon="5.87235">
        <ele>437.29998779297</ele>
        <time>2012-11-24T16:16:03Z</time>
      </trkpt>
      <trkpt lat="45.57904" lon="5.87225">
        <ele>437.70001220703</ele>
        <time>2012-11-24T16:16:17Z</time>
      </trkpt>
      <trkpt lat="45.57885" lon="5.87219">
        <ele>438.29998779297</ele>
        <time>2012-11-24T16:16:30Z</time>
      </trkpt>
      <trkpt lat="45.57868" lon="5.8721">
        <ele>439.70001220703</ele>
        <time>2012-11-24T16:16:42Z</time>
      </trkpt>
      <trkpt lat="45.5785" lon="5.87199">
        <ele>441.79998779297</ele>
        <time>2012-11-24T16:16:54Z</time>
      </trkpt>
      <trkpt lat="45.57841" lon="5.87194">
        <ele>442.5</ele>
        <time>2012-11-24T16:17:00Z</time>
      </trkpt>
      <trkpt lat="45.57824" lon="5.87184">
        <ele>443.70001220703</ele>
        <time>2012-11-24T16:17:12Z</time>
      </trkpt>
      <trkpt lat="45.57804" lon="5.87172">
        <ele>445.20001220703</ele>
        <time>2012-11-24T16:17:26Z</time>
      </trkpt>
      <trkpt lat="45.57795" lon="5.87168">
        <ele>445</ele>
        <time>2012-11-24T16:17:33Z</time>
      </trkpt>
      <trkpt lat="45.57776" lon="5.8716">
        <ele>445.5</ele>
        <time>2012-11-24T16:17:46Z</time>
      </trkpt>
      <trkpt lat="45.57757" lon="5.87154">
        <ele>446.29998779297</ele>
        <time>2012-11-24T16:18:00Z</time>
      </trkpt>
      <trkpt lat="45.57738" lon="5.87146">
        <ele>445.90002441406</ele>
        <time>2012-11-24T16:18:13Z</time>
      </trkpt>
      <trkpt lat="45.57721" lon="5.87139">
        <ele>446.29998779297</ele>
        <time>2012-11-24T16:18:25Z</time>
      </trkpt>
      <trkpt lat="45.57703" lon="5.87131">
        <ele>446.5</ele>
        <time>2012-11-24T16:18:39Z</time>
      </trkpt>
      <trkpt lat="45.57683" lon="5.87124">
        <ele>447.29998779297</ele>
        <time>2012-11-24T16:18:53Z</time>
      </trkpt>
      <trkpt lat="45.57665" lon="5.87117">
        <ele>449</ele>
        <time>2012-11-24T16:19:06Z</time>
      </trkpt>
      <trkpt lat="45.57647" lon="5.87108">
        <ele>449.40002441406</ele>
        <time>2012-11-24T16:19:18Z</time>
      </trkpt>
      <trkpt lat="45.57629" lon="5.87098">
        <ele>449.5</ele>
        <time>2012-11-24T16:19:31Z</time>
      </trkpt>
      <trkpt lat="45.57611" lon="5.87097">
        <ele>449.40002441406</ele>
        <time>2012-11-24T16:19:44Z</time>
      </trkpt>
      <trkpt lat="45.57591" lon="5.87096">
        <ele>449.5</ele>
        <time>2012-11-24T16:19:58Z</time>
      </trkpt>
      <trkpt lat="45.57573" lon="5.87088">
        <ele>451.40002441406</ele>
        <time>2012-11-24T16:20:11Z</time>
      </trkpt>
      <trkpt lat="45.57555" lon="5.87078">
        <ele>451</ele>
        <time>2012-11-24T16:20:26Z</time>
      </trkpt>
      <trkpt lat="45.57546" lon="5.87073">
        <ele>451.40002441406</ele>
        <time>2012-11-24T16:20:32Z</time>
      </trkpt>
      <trkpt lat="45.57527" lon="5.87064">
        <ele>451.40002441406</ele>
        <time>2012-11-24T16:20:43Z</time>
      </trkpt>
      <trkpt lat="45.57519" lon="5.87059">
        <ele>451.5</ele>
        <time>2012-11-24T16:20:49Z</time>
      </trkpt>
      <trkpt lat="45.5751" lon="5.87054">
        <ele>451.90002441406</ele>
        <time>2012-11-24T16:20:55Z</time>
      </trkpt>
      <trkpt lat="45.57501" lon="5.87051">
        <ele>452</ele>
        <time>2012-11-24T16:21:02Z</time>
      </trkpt>
      <trkpt lat="45.57491" lon="5.87048">
        <ele>452.20001220703</ele>
        <time>2012-11-24T16:21:09Z</time>
      </trkpt>
      <trkpt lat="45.57481" lon="5.87045">
        <ele>452.5</ele>
        <time>2012-11-24T16:21:16Z</time>
      </trkpt>
      <trkpt lat="45.57472" lon="5.87042">
        <ele>453.09997558594</ele>
        <time>2012-11-24T16:21:23Z</time>
      </trkpt>
      <trkpt lat="45.57462" lon="5.87036">
        <ele>454.5</ele>
        <time>2012-11-24T16:21:30Z</time>
      </trkpt>
      <trkpt lat="45.57449" lon="5.87017">
        <ele>454.59997558594</ele>
        <time>2012-11-24T16:21:48Z</time>
      </trkpt>
      <trkpt lat="45.57435" lon="5.86998">
        <ele>454.79998779297</ele>
        <time>2012-11-24T16:22:01Z</time>
      </trkpt>
      <trkpt lat="45.57416" lon="5.86987">
        <ele>454.5</ele>
        <time>2012-11-24T16:22:13Z</time>
      </trkpt>
      <trkpt lat="45.57397" lon="5.8698">
        <ele>454.59997558594</ele>
        <time>2012-11-24T16:22:27Z</time>
      </trkpt>
      <trkpt lat="45.57378" lon="5.86974">
        <ele>454.70001220703</ele>
        <time>2012-11-24T16:22:41Z</time>
      </trkpt>
      <trkpt lat="45.5736" lon="5.86968">
        <ele>454.29998779297</ele>
        <time>2012-11-24T16:22:54Z</time>
      </trkpt>
      <trkpt lat="45.5734" lon="5.86966">
        <ele>455.09997558594</ele>
        <time>2012-11-24T16:23:09Z</time>
      </trkpt>
      <trkpt lat="45.5732" lon="5.86965">
        <ele>454.90002441406</ele>
        <time>2012-11-24T16:23:23Z</time>
      </trkpt>
      <trkpt lat="45.573" lon="5.86964">
        <ele>454.59997558594</ele>
        <time>2012-11-24T16:23:37Z</time>
      </trkpt>
      <trkpt lat="45.57281" lon="5.86962">
        <ele>454.90002441406</ele>
        <time>2012-11-24T16:23:50Z</time>
      </trkpt>
      <trkpt lat="45.57261" lon="5.86962">
        <ele>455.5</ele>
        <time>2012-11-24T16:24:02Z</time>
      </trkpt>
      <trkpt lat="45.57241" lon="5.86959">
        <ele>454.90002441406</ele>
        <time>2012-11-24T16:24:15Z</time>
      </trkpt>
      <trkpt lat="45.57222" lon="5.86954">
        <ele>453.70001220703</ele>
        <time>2012-11-24T16:24:28Z</time>
      </trkpt>
      <trkpt lat="45.57204" lon="5.86949">
        <ele>452.59997558594</ele>
        <time>2012-11-24T16:24:40Z</time>
      </trkpt>
      <trkpt lat="45.57185" lon="5.86943">
        <ele>452.90002441406</ele>
        <time>2012-11-24T16:24:53Z</time>
      </trkpt>
      <trkpt lat="45.57166" lon="5.86938">
        <ele>453</ele>
        <time>2012-11-24T16:25:05Z</time>
      </trkpt>
      <trkpt lat="45.57156" lon="5.86936">
        <ele>453.40002441406</ele>
        <time>2012-11-24T16:25:11Z</time>
      </trkpt>
      <trkpt lat="45.57135" lon="5.8693">
        <ele>454.29998779297</ele>
        <time>2012-11-24T16:25:23Z</time>
      </trkpt>
      <trkpt lat="45.57116" lon="5.86921">
        <ele>456.29998779297</ele>
        <time>2012-11-24T16:25:38Z</time>
      </trkpt>
      <trkpt lat="45.57116" lon="5.86907">
        <ele>457.90002441406</ele>
        <time>2012-11-24T16:27:27Z</time>
      </trkpt>
      <trkpt lat="45.57117" lon="5.86894">
        <ele>456.90002441406</ele>
        <time>2012-11-24T16:27:34Z</time>
      </trkpt>
      <trkpt lat="45.57118" lon="5.86881">
        <ele>456.09997558594</ele>
        <time>2012-11-24T16:27:41Z</time>
      </trkpt>
      <trkpt lat="45.5712" lon="5.86867">
        <ele>456.20001220703</ele>
        <time>2012-11-24T16:27:48Z</time>
      </trkpt>
      <trkpt lat="45.57122" lon="5.86853">
        <ele>456.59997558594</ele>
        <time>2012-11-24T16:27:55Z</time>
      </trkpt>
      <trkpt lat="45.57126" lon="5.86827">
        <ele>454.79998779297</ele>
        <time>2012-11-24T16:28:14Z</time>
      </trkpt>
      <trkpt lat="45.57129" lon="5.868">
        <ele>456</ele>
        <time>2012-11-24T16:28:28Z</time>
      </trkpt>
      <trkpt lat="45.5713" lon="5.86786">
        <ele>455.09997558594</ele>
        <time>2012-11-24T16:28:36Z</time>
      </trkpt>
      <trkpt lat="45.57129" lon="5.86772">
        <ele>454.5</ele>
        <time>2012-11-24T16:28:46Z</time>
      </trkpt>
      <trkpt lat="45.57127" lon="5.86758">
        <ele>454.40002441406</ele>
        <time>2012-11-24T16:28:53Z</time>
      </trkpt>
      <trkpt lat="45.57126" lon="5.86743">
        <ele>453.40002441406</ele>
        <time>2012-11-24T16:29:01Z</time>
      </trkpt>
      <trkpt lat="45.57121" lon="5.86717">
        <ele>451.40002441406</ele>
        <time>2012-11-24T16:29:15Z</time>
      </trkpt>
      <trkpt lat="45.5712" lon="5.86689">
        <ele>450.09997558594</ele>
        <time>2012-11-24T16:29:35Z</time>
      </trkpt>
      <trkpt lat="45.57115" lon="5.86662">
        <ele>450.59997558594</ele>
        <time>2012-11-24T16:29:48Z</time>
      </trkpt>
      <trkpt lat="45.57115" lon="5.86635">
        <ele>452</ele>
        <time>2012-11-24T16:30:07Z</time>
      </trkpt>
      <trkpt lat="45.571" lon="5.86604">
        <ele>448.90002441406</ele>
        <time>2012-11-24T16:30:35Z</time>
      </trkpt>
      <trkpt lat="45.57087" lon="5.86585">
        <ele>449.20001220703</ele>
        <time>2012-11-24T16:30:51Z</time>
      </trkpt>
      <trkpt lat="45.57079" lon="5.86561">
        <ele>449.29998779297</ele>
        <time>2012-11-24T16:31:09Z</time>
      </trkpt>
      <trkpt lat="45.57065" lon="5.86546">
        <ele>448.70001220703</ele>
        <time>2012-11-24T16:31:25Z</time>
      </trkpt>
      <trkpt lat="45.57055" lon="5.86521">
        <ele>451.70001220703</ele>
        <time>2012-11-24T16:31:41Z</time>
      </trkpt>
      <trkpt lat="45.57075" lon="5.86516">
        <ele>438.79998779297</ele>
        <time>2012-11-24T16:32:02Z</time>
      </trkpt>
      <trkpt lat="45.57093" lon="5.86523">
        <ele>433.70001220703</ele>
        <time>2012-11-24T16:32:19Z</time>
      </trkpt>
      <trkpt lat="45.57109" lon="5.86512">
        <ele>429.09997558594</ele>
        <time>2012-11-24T16:33:05Z</time>
      </trkpt>
      <trkpt lat="45.57114" lon="5.865">
        <ele>428.20001220703</ele>
        <time>2012-11-24T16:33:15Z</time>
      </trkpt>
      <trkpt lat="45.5711" lon="5.86492">
        <ele>433.90002441406</ele>
        <time>2012-11-24T16:35:55Z</time>
      </trkpt>
    </trkseg>
  </trk>
  <trk>
    <name><![CDATA[Parcours 2012-11-25 10:37]]></name>
    <trkseg>
      <trkpt lat="45.57227" lon="5.85943">
        <ele>483.5</ele>
        <time>2012-11-25T09:42:53Z</time>
      </trkpt>
      <trkpt lat="45.57214" lon="5.85907">
        <ele>487.29998779297</ele>
        <time>2012-11-25T09:43:13Z</time>
      </trkpt>
      <trkpt lat="45.57198" lon="5.85891">
        <ele>486.79998779297</ele>
        <time>2012-11-25T09:43:29Z</time>
      </trkpt>
      <trkpt lat="45.57156" lon="5.85873">
        <ele>483.20001220703</ele>
        <time>2012-11-25T09:44:04Z</time>
      </trkpt>
      <trkpt lat="45.57145" lon="5.85851">
        <ele>484.29998779297</ele>
        <time>2012-11-25T09:44:19Z</time>
      </trkpt>
      <trkpt lat="45.57126" lon="5.85822">
        <ele>485.59997558594</ele>
        <time>2012-11-25T09:44:39Z</time>
      </trkpt>
      <trkpt lat="45.57098" lon="5.8581">
        <ele>487.20001220703</ele>
        <time>2012-11-25T09:45:02Z</time>
      </trkpt>
      <trkpt lat="45.57067" lon="5.85808">
        <ele>489.29998779297</ele>
        <time>2012-11-25T09:45:24Z</time>
      </trkpt>
      <trkpt lat="45.5704" lon="5.85798">
        <ele>489.40002441406</ele>
        <time>2012-11-25T09:45:43Z</time>
      </trkpt>
      <trkpt lat="45.57018" lon="5.85771">
        <ele>492.90002441406</ele>
        <time>2012-11-25T09:46:01Z</time>
      </trkpt>
      <trkpt lat="45.56993" lon="5.85747">
        <ele>495.29998779297</ele>
        <time>2012-11-25T09:46:22Z</time>
      </trkpt>
      <trkpt lat="45.56975" lon="5.85733">
        <ele>496.20001220703</ele>
        <time>2012-11-25T09:46:36Z</time>
      </trkpt>
      <trkpt lat="45.56951" lon="5.85713">
        <ele>495.29998779297</ele>
        <time>2012-11-25T09:46:52Z</time>
      </trkpt>
      <trkpt lat="45.56938" lon="5.8569">
        <ele>495.79998779297</ele>
        <time>2012-11-25T09:47:05Z</time>
      </trkpt>
      <trkpt lat="45.56927" lon="5.85668">
        <ele>497.70001220703</ele>
        <time>2012-11-25T09:47:17Z</time>
      </trkpt>
      <trkpt lat="45.56915" lon="5.85648">
        <ele>499.79998779297</ele>
        <time>2012-11-25T09:47:31Z</time>
      </trkpt>
      <trkpt lat="45.56904" lon="5.85626">
        <ele>501.59997558594</ele>
        <time>2012-11-25T09:47:46Z</time>
      </trkpt>
      <trkpt lat="45.56893" lon="5.85603">
        <ele>503.40002441406</ele>
        <time>2012-11-25T09:48:02Z</time>
      </trkpt>
      <trkpt lat="45.56881" lon="5.8558">
        <ele>506.40002441406</ele>
        <time>2012-11-25T09:48:18Z</time>
      </trkpt>
      <trkpt lat="45.56869" lon="5.85558">
        <ele>507.29998779297</ele>
        <time>2012-11-25T09:48:32Z</time>
      </trkpt>
      <trkpt lat="45.56856" lon="5.85537">
        <ele>509.20001220703</ele>
        <time>2012-11-25T09:48:45Z</time>
      </trkpt>
      <trkpt lat="45.56848" lon="5.85512">
        <ele>512.20001220703</ele>
        <time>2012-11-25T09:49:01Z</time>
      </trkpt>
      <trkpt lat="45.56851" lon="5.85471">
        <ele>516.70001220703</ele>
        <time>2012-11-25T09:49:21Z</time>
      </trkpt>
      <trkpt lat="45.5687" lon="5.85439">
        <ele>516.5</ele>
        <time>2012-11-25T09:49:43Z</time>
      </trkpt>
      <trkpt lat="45.56872" lon="5.85396">
        <ele>520.40002441406</ele>
        <time>2012-11-25T09:50:02Z</time>
      </trkpt>
      <trkpt lat="45.56854" lon="5.85363">
        <ele>517.90002441406</ele>
        <time>2012-11-25T09:50:17Z</time>
      </trkpt>
      <trkpt lat="45.56841" lon="5.85341">
        <ele>516.90002441406</ele>
        <time>2012-11-25T09:50:26Z</time>
      </trkpt>
      <trkpt lat="45.5683" lon="5.85318">
        <ele>517.20001220703</ele>
        <time>2012-11-25T09:50:38Z</time>
      </trkpt>
      <trkpt lat="45.5682" lon="5.85293">
        <ele>519.29998779297</ele>
        <time>2012-11-25T09:50:50Z</time>
      </trkpt>
      <trkpt lat="45.56807" lon="5.85272">
        <ele>522.59997558594</ele>
        <time>2012-11-25T09:51:04Z</time>
      </trkpt>
      <trkpt lat="45.56791" lon="5.85256">
        <ele>525.59997558594</ele>
        <time>2012-11-25T09:51:24Z</time>
      </trkpt>
      <trkpt lat="45.56776" lon="5.85222">
        <ele>528.19995117188</ele>
        <time>2012-11-25T09:51:42Z</time>
      </trkpt>
      <trkpt lat="45.56766" lon="5.85181">
        <ele>535.69995117188</ele>
        <time>2012-11-25T09:52:04Z</time>
      </trkpt>
      <trkpt lat="45.56758" lon="5.85156">
        <ele>538.90002441406</ele>
        <time>2012-11-25T09:52:16Z</time>
      </trkpt>
      <trkpt lat="45.56749" lon="5.85133">
        <ele>542.59997558594</ele>
        <time>2012-11-25T09:52:31Z</time>
      </trkpt>
      <trkpt lat="45.56743" lon="5.85122">
        <ele>544.80004882812</ele>
        <time>2012-11-25T09:52:39Z</time>
      </trkpt>
      <trkpt lat="45.56746" lon="5.85094">
        <ele>549.30004882812</ele>
        <time>2012-11-25T09:52:55Z</time>
      </trkpt>
      <trkpt lat="45.56747" lon="5.85066">
        <ele>554.69995117188</ele>
        <time>2012-11-25T09:53:11Z</time>
      </trkpt>
      <trkpt lat="45.56746" lon="5.85038">
        <ele>558.80004882812</ele>
        <time>2012-11-25T09:53:27Z</time>
      </trkpt>
      <trkpt lat="45.56746" lon="5.84998">
        <ele>563.90002441406</ele>
        <time>2012-11-25T09:53:51Z</time>
      </trkpt>
      <trkpt lat="45.56738" lon="5.84958">
        <ele>564.69995117188</ele>
        <time>2012-11-25T09:54:16Z</time>
      </trkpt>
      <trkpt lat="45.56722" lon="5.84942">
        <ele>563.69995117188</ele>
        <time>2012-11-25T09:54:30Z</time>
      </trkpt>
      <trkpt lat="45.56713" lon="5.84936">
        <ele>564</ele>
        <time>2012-11-25T09:54:37Z</time>
      </trkpt>
      <trkpt lat="45.56694" lon="5.84919">
        <ele>562.69995117188</ele>
        <time>2012-11-25T09:54:47Z</time>
      </trkpt>
      <trkpt lat="45.56679" lon="5.84903">
        <ele>562.40002441406</ele>
        <time>2012-11-25T09:54:57Z</time>
      </trkpt>
      <trkpt lat="45.56669" lon="5.84881">
        <ele>564.19995117188</ele>
        <time>2012-11-25T09:55:12Z</time>
      </trkpt>
      <trkpt lat="45.56665" lon="5.84867">
        <ele>565.90002441406</ele>
        <time>2012-11-25T09:55:20Z</time>
      </trkpt>
      <trkpt lat="45.56657" lon="5.84841">
        <ele>568.30004882812</ele>
        <time>2012-11-25T09:55:36Z</time>
      </trkpt>
      <trkpt lat="45.56653" lon="5.84829">
        <ele>569.30004882812</ele>
        <time>2012-11-25T09:55:43Z</time>
      </trkpt>
      <trkpt lat="45.56649" lon="5.84816">
        <ele>569.09997558594</ele>
        <time>2012-11-25T09:55:50Z</time>
      </trkpt>
      <trkpt lat="45.56636" lon="5.84796">
        <ele>570.80004882812</ele>
        <time>2012-11-25T09:56:03Z</time>
      </trkpt>
      <trkpt lat="45.56629" lon="5.84786">
        <ele>571.5</ele>
        <time>2012-11-25T09:56:10Z</time>
      </trkpt>
      <trkpt lat="45.56624" lon="5.84776">
        <ele>571.5</ele>
        <time>2012-11-25T09:56:17Z</time>
      </trkpt>
      <trkpt lat="45.56619" lon="5.84763">
        <ele>572.5</ele>
        <time>2012-11-25T09:56:25Z</time>
      </trkpt>
      <trkpt lat="45.56619" lon="5.84749">
        <ele>575</ele>
        <time>2012-11-25T09:56:32Z</time>
      </trkpt>
      <trkpt lat="45.56622" lon="5.84721">
        <ele>576.69995117188</ele>
        <time>2012-11-25T09:56:46Z</time>
      </trkpt>
      <trkpt lat="45.56626" lon="5.84693">
        <ele>579.40002441406</ele>
        <time>2012-11-25T09:57:00Z</time>
      </trkpt>
      <trkpt lat="45.56633" lon="5.84669">
        <ele>581.09997558594</ele>
        <time>2012-11-25T09:57:14Z</time>
      </trkpt>
      <trkpt lat="45.56646" lon="5.84634">
        <ele>583.5</ele>
        <time>2012-11-25T09:57:34Z</time>
      </trkpt>
      <trkpt lat="45.56668" lon="5.8462">
        <ele>587.09997558594</ele>
        <time>2012-11-25T09:57:54Z</time>
      </trkpt>
      <trkpt lat="45.56686" lon="5.84617">
        <ele>588.5</ele>
        <time>2012-11-25T09:58:08Z</time>
      </trkpt>
      <trkpt lat="45.56697" lon="5.84596">
        <ele>592.69995117188</ele>
        <time>2012-11-25T09:58:22Z</time>
      </trkpt>
      <trkpt lat="45.56696" lon="5.84583">
        <ele>595.19995117188</ele>
        <time>2012-11-25T09:58:29Z</time>
      </trkpt>
      <trkpt lat="45.56706" lon="5.84545">
        <ele>603.09997558594</ele>
        <time>2012-11-25T09:58:54Z</time>
      </trkpt>
      <trkpt lat="45.56727" lon="5.84519">
        <ele>610.09997558594</ele>
        <time>2012-11-25T09:59:17Z</time>
      </trkpt>
      <trkpt lat="45.56739" lon="5.84497">
        <ele>615</ele>
        <time>2012-11-25T09:59:33Z</time>
      </trkpt>
      <trkpt lat="45.56745" lon="5.84471">
        <ele>617.5</ele>
        <time>2012-11-25T09:59:48Z</time>
      </trkpt>
      <trkpt lat="45.56754" lon="5.84446">
        <ele>619.69995117188</ele>
        <time>2012-11-25T10:00:02Z</time>
      </trkpt>
      <trkpt lat="45.56762" lon="5.84439">
        <ele>619.59997558594</ele>
        <time>2012-11-25T10:00:09Z</time>
      </trkpt>
      <trkpt lat="45.56771" lon="5.84434">
        <ele>619.80004882812</ele>
        <time>2012-11-25T10:00:15Z</time>
      </trkpt>
      <trkpt lat="45.56787" lon="5.84423">
        <ele>620.69995117188</ele>
        <time>2012-11-25T10:00:27Z</time>
      </trkpt>
      <trkpt lat="45.56805" lon="5.84413">
        <ele>621.80004882812</ele>
        <time>2012-11-25T10:00:39Z</time>
      </trkpt>
      <trkpt lat="45.56824" lon="5.84413">
        <ele>622.09997558594</ele>
        <time>2012-11-25T10:00:52Z</time>
      </trkpt>
      <trkpt lat="45.56834" lon="5.84414">
        <ele>621.80004882812</ele>
        <time>2012-11-25T10:00:59Z</time>
      </trkpt>
      <trkpt lat="45.56844" lon="5.84412">
        <ele>622.5</ele>
        <time>2012-11-25T10:01:06Z</time>
      </trkpt>
      <trkpt lat="45.56865" lon="5.84413">
        <ele>622.19995117188</ele>
        <time>2012-11-25T10:01:20Z</time>
      </trkpt>
      <trkpt lat="45.56884" lon="5.8441">
        <ele>622.80004882812</ele>
        <time>2012-11-25T10:01:33Z</time>
      </trkpt>
      <trkpt lat="45.56911" lon="5.84393">
        <ele>622.09997558594</ele>
        <time>2012-11-25T10:01:53Z</time>
      </trkpt>
      <trkpt lat="45.56929" lon="5.8438">
        <ele>623.80004882812</ele>
        <time>2012-11-25T10:02:06Z</time>
      </trkpt>
      <trkpt lat="45.56945" lon="5.84363">
        <ele>626.90002441406</ele>
        <time>2012-11-25T10:02:20Z</time>
      </trkpt>
      <trkpt lat="45.56961" lon="5.84349">
        <ele>629.80004882812</ele>
        <time>2012-11-25T10:02:33Z</time>
      </trkpt>
      <trkpt lat="45.56978" lon="5.84333">
        <ele>631.5</ele>
        <time>2012-11-25T10:02:47Z</time>
      </trkpt>
      <trkpt lat="45.56987" lon="5.84326">
        <ele>631.19995117188</ele>
        <time>2012-11-25T10:02:54Z</time>
      </trkpt>
      <trkpt lat="45.56996" lon="5.8432">
        <ele>631.5</ele>
        <time>2012-11-25T10:03:01Z</time>
      </trkpt>
      <trkpt lat="45.57013" lon="5.84306">
        <ele>632.19995117188</ele>
        <time>2012-11-25T10:03:15Z</time>
      </trkpt>
      <trkpt lat="45.57029" lon="5.84294">
        <ele>633.19995117188</ele>
        <time>2012-11-25T10:03:29Z</time>
      </trkpt>
      <trkpt lat="45.57046" lon="5.8428">
        <ele>634.30004882812</ele>
        <time>2012-11-25T10:03:43Z</time>
      </trkpt>
      <trkpt lat="45.57064" lon="5.84266">
        <ele>636.69995117188</ele>
        <time>2012-11-25T10:03:57Z</time>
      </trkpt>
      <trkpt lat="45.57081" lon="5.84253">
        <ele>637.80004882812</ele>
        <time>2012-11-25T10:04:11Z</time>
      </trkpt>
      <trkpt lat="45.57098" lon="5.84238">
        <ele>637.69995117188</ele>
        <time>2012-11-25T10:04:25Z</time>
      </trkpt>
      <trkpt lat="45.57116" lon="5.84226">
        <ele>639.09997558594</ele>
        <time>2012-11-25T10:04:38Z</time>
      </trkpt>
      <trkpt lat="45.57143" lon="5.8421">
        <ele>639.59997558594</ele>
        <time>2012-11-25T10:04:59Z</time>
      </trkpt>
      <trkpt lat="45.57169" lon="5.84192">
        <ele>640.59997558594</ele>
        <time>2012-11-25T10:05:20Z</time>
      </trkpt>
      <trkpt lat="45.57247" lon="5.84135">
        <ele>650.40002441406</ele>
        <time>2012-11-25T10:06:20Z</time>
      </trkpt>
      <trkpt lat="45.57272" lon="5.84117">
        <ele>654</ele>
        <time>2012-11-25T10:06:39Z</time>
      </trkpt>
      <trkpt lat="45.57291" lon="5.84086">
        <ele>656.19995117188</ele>
        <time>2012-11-25T10:06:58Z</time>
      </trkpt>
      <trkpt lat="45.57303" lon="5.84048">
        <ele>658.09997558594</ele>
        <time>2012-11-25T10:07:19Z</time>
      </trkpt>
      <trkpt lat="45.57307" lon="5.84036">
        <ele>658.19995117188</ele>
        <time>2012-11-25T10:07:49Z</time>
      </trkpt>
      <trkpt lat="45.57273" lon="5.84037">
        <ele>662.40002441406</ele>
        <time>2012-11-25T10:08:08Z</time>
      </trkpt>
      <trkpt lat="45.57248" lon="5.84017">
        <ele>667.5</ele>
        <time>2012-11-25T10:08:29Z</time>
      </trkpt>
      <trkpt lat="45.5722" lon="5.84009">
        <ele>674.5</ele>
        <time>2012-11-25T10:08:51Z</time>
      </trkpt>
      <trkpt lat="45.5719" lon="5.84005">
        <ele>680.19995117188</ele>
        <time>2012-11-25T10:09:10Z</time>
      </trkpt>
      <trkpt lat="45.57163" lon="5.83989">
        <ele>685</ele>
        <time>2012-11-25T10:09:31Z</time>
      </trkpt>
      <trkpt lat="45.57138" lon="5.83966">
        <ele>694.40002441406</ele>
        <time>2012-11-25T10:09:54Z</time>
      </trkpt>
      <trkpt lat="45.57112" lon="5.83948">
        <ele>699.09997558594</ele>
        <time>2012-11-25T10:10:17Z</time>
      </trkpt>
      <trkpt lat="45.57085" lon="5.83926">
        <ele>707.09997558594</ele>
        <time>2012-11-25T10:10:36Z</time>
      </trkpt>
      <trkpt lat="45.57069" lon="5.83912">
        <ele>712.19995117188</ele>
        <time>2012-11-25T10:10:50Z</time>
      </trkpt>
      <trkpt lat="45.57054" lon="5.83897">
        <ele>719.5</ele>
        <time>2012-11-25T10:11:04Z</time>
      </trkpt>
      <trkpt lat="45.5705" lon="5.83886">
        <ele>721.59997558594</ele>
        <time>2012-11-25T10:11:13Z</time>
      </trkpt>
      <trkpt lat="45.57036" lon="5.83868">
        <ele>726.40002441406</ele>
        <time>2012-11-25T10:11:29Z</time>
      </trkpt>
      <trkpt lat="45.57022" lon="5.8385">
        <ele>730.30004882812</ele>
        <time>2012-11-25T10:11:44Z</time>
      </trkpt>
      <trkpt lat="45.5701" lon="5.8383">
        <ele>732.69995117188</ele>
        <time>2012-11-25T10:11:58Z</time>
      </trkpt>
      <trkpt lat="45.56988" lon="5.83827">
        <ele>737.19995117188</ele>
        <time>2012-11-25T10:12:25Z</time>
      </trkpt>
      <trkpt lat="45.5697" lon="5.83809">
        <ele>738.19995117188</ele>
        <time>2012-11-25T10:12:35Z</time>
      </trkpt>
      <trkpt lat="45.56949" lon="5.83804">
        <ele>740.90002441406</ele>
        <time>2012-11-25T10:12:44Z</time>
      </trkpt>
      <trkpt lat="45.5694" lon="5.83799">
        <ele>742.80004882812</ele>
        <time>2012-11-25T10:12:50Z</time>
      </trkpt>
      <trkpt lat="45.56923" lon="5.838">
        <ele>745.90002441406</ele>
        <time>2012-11-25T10:13:03Z</time>
      </trkpt>
      <trkpt lat="45.56905" lon="5.83807">
        <ele>748.40002441406</ele>
        <time>2012-11-25T10:13:19Z</time>
      </trkpt>
      <trkpt lat="45.56885" lon="5.83813">
        <ele>753.40002441406</ele>
        <time>2012-11-25T10:13:34Z</time>
      </trkpt>
      <trkpt lat="45.56856" lon="5.83815">
        <ele>756.90002441406</ele>
        <time>2012-11-25T10:13:54Z</time>
      </trkpt>
      <trkpt lat="45.56829" lon="5.83809">
        <ele>759.69995117188</ele>
        <time>2012-11-25T10:14:16Z</time>
      </trkpt>
      <trkpt lat="45.568" lon="5.83809">
        <ele>765.09997558594</ele>
        <time>2012-11-25T10:14:38Z</time>
      </trkpt>
      <trkpt lat="45.56776" lon="5.8383">
        <ele>769.80004882812</ele>
        <time>2012-11-25T10:14:59Z</time>
      </trkpt>
      <trkpt lat="45.56746" lon="5.83832">
        <ele>771.80004882812</ele>
        <time>2012-11-25T10:15:20Z</time>
      </trkpt>
      <trkpt lat="45.56717" lon="5.8384">
        <ele>772.40002441406</ele>
        <time>2012-11-25T10:15:40Z</time>
      </trkpt>
      <trkpt lat="45.56689" lon="5.83828">
        <ele>774.59997558594</ele>
        <time>2012-11-25T10:15:54Z</time>
      </trkpt>
      <trkpt lat="45.5668" lon="5.83787">
        <ele>778.09997558594</ele>
        <time>2012-11-25T10:16:11Z</time>
      </trkpt>
      <trkpt lat="45.56674" lon="5.83755">
        <ele>780.80004882812</ele>
        <time>2012-11-25T10:16:18Z</time>
      </trkpt>
      <trkpt lat="45.56659" lon="5.8371">
        <ele>782.40002441406</ele>
        <time>2012-11-25T10:16:26Z</time>
      </trkpt>
      <trkpt lat="45.56647" lon="5.83671">
        <ele>785.09997558594</ele>
        <time>2012-11-25T10:16:32Z</time>
      </trkpt>
      <trkpt lat="45.56631" lon="5.83629">
        <ele>787.69995117188</ele>
        <time>2012-11-25T10:16:41Z</time>
      </trkpt>
      <trkpt lat="45.5665" lon="5.8347">
        <ele>796.80004882812</ele>
        <time>2012-11-25T10:17:11Z</time>
      </trkpt>
      <trkpt lat="45.56667" lon="5.83458">
        <ele>800.59997558594</ele>
        <time>2012-11-25T10:17:30Z</time>
      </trkpt>
      <trkpt lat="45.56694" lon="5.83459">
        <ele>799.09997558594</ele>
        <time>2012-11-25T10:17:53Z</time>
      </trkpt>
      <trkpt lat="45.56714" lon="5.83459">
        <ele>797.19995117188</ele>
        <time>2012-11-25T10:18:10Z</time>
      </trkpt>
      <trkpt lat="45.56742" lon="5.83457">
        <ele>795.19995117188</ele>
        <time>2012-11-25T10:18:35Z</time>
      </trkpt>
      <trkpt lat="45.56761" lon="5.83453">
        <ele>795</ele>
        <time>2012-11-25T10:18:48Z</time>
      </trkpt>
      <trkpt lat="45.56782" lon="5.83452">
        <ele>791.90002441406</ele>
        <time>2012-11-25T10:19:02Z</time>
      </trkpt>
      <trkpt lat="45.56801" lon="5.83448">
        <ele>785.40002441406</ele>
        <time>2012-11-25T10:19:18Z</time>
      </trkpt>
      <trkpt lat="45.56829" lon="5.83446">
        <ele>780.19995117188</ele>
        <time>2012-11-25T10:19:45Z</time>
      </trkpt>
      <trkpt lat="45.56858" lon="5.83435">
        <ele>777</ele>
        <time>2012-11-25T10:20:06Z</time>
      </trkpt>
      <trkpt lat="45.56877" lon="5.83426">
        <ele>773.90002441406</ele>
        <time>2012-11-25T10:20:15Z</time>
      </trkpt>
      <trkpt lat="45.56895" lon="5.83404">
        <ele>772.80004882812</ele>
        <time>2012-11-25T10:20:21Z</time>
      </trkpt>
      <trkpt lat="45.56931" lon="5.83378">
        <ele>772.69995117188</ele>
        <time>2012-11-25T10:20:40Z</time>
      </trkpt>
      <trkpt lat="45.56958" lon="5.83374">
        <ele>772.30004882812</ele>
        <time>2012-11-25T10:21:06Z</time>
      </trkpt>
      <trkpt lat="45.56982" lon="5.8335">
        <ele>772.80004882812</ele>
        <time>2012-11-25T10:21:23Z</time>
      </trkpt>
      <trkpt lat="45.5701" lon="5.8334">
        <ele>772.09997558594</ele>
        <time>2012-11-25T10:21:43Z</time>
      </trkpt>
      <trkpt lat="45.5704" lon="5.83343">
        <ele>770.09997558594</ele>
        <time>2012-11-25T10:22:05Z</time>
      </trkpt>
      <trkpt lat="45.5707" lon="5.83344">
        <ele>767</ele>
        <time>2012-11-25T10:22:25Z</time>
      </trkpt>
      <trkpt lat="45.57088" lon="5.83341">
        <ele>765.19995117188</ele>
        <time>2012-11-25T10:22:42Z</time>
      </trkpt>
      <trkpt lat="45.57118" lon="5.83333">
        <ele>761.59997558594</ele>
        <time>2012-11-25T10:23:02Z</time>
      </trkpt>
      <trkpt lat="45.57138" lon="5.83331">
        <ele>757.5</ele>
        <time>2012-11-25T10:23:14Z</time>
      </trkpt>
      <trkpt lat="45.57157" lon="5.83335">
        <ele>755.19995117188</ele>
        <time>2012-11-25T10:23:31Z</time>
      </trkpt>
      <trkpt lat="45.57184" lon="5.83333">
        <ele>751.5</ele>
        <time>2012-11-25T10:23:55Z</time>
      </trkpt>
      <trkpt lat="45.57203" lon="5.83326">
        <ele>747.09997558594</ele>
        <time>2012-11-25T10:24:10Z</time>
      </trkpt>
      <trkpt lat="45.57222" lon="5.83322">
        <ele>743.69995117188</ele>
        <time>2012-11-25T10:24:23Z</time>
      </trkpt>
      <trkpt lat="45.57242" lon="5.83321">
        <ele>740.59997558594</ele>
        <time>2012-11-25T10:24:36Z</time>
      </trkpt>
      <trkpt lat="45.5726" lon="5.83324">
        <ele>734.90002441406</ele>
        <time>2012-11-25T10:24:50Z</time>
      </trkpt>
      <trkpt lat="45.57279" lon="5.83328">
        <ele>730</ele>
        <time>2012-11-25T10:25:05Z</time>
      </trkpt>
      <trkpt lat="45.57296" lon="5.83312">
        <ele>728.40002441406</ele>
        <time>2012-11-25T10:25:16Z</time>
      </trkpt>
      <trkpt lat="45.5731" lon="5.83295">
        <ele>729.09997558594</ele>
        <time>2012-11-25T10:25:28Z</time>
      </trkpt>
      <trkpt lat="45.57326" lon="5.83279">
        <ele>730.40002441406</ele>
        <time>2012-11-25T10:25:39Z</time>
      </trkpt>
      <trkpt lat="45.57341" lon="5.83263">
        <ele>731.09997558594</ele>
        <time>2012-11-25T10:25:49Z</time>
      </trkpt>
      <trkpt lat="45.57355" lon="5.83243">
        <ele>731.5</ele>
        <time>2012-11-25T10:26:03Z</time>
      </trkpt>
      <trkpt lat="45.57368" lon="5.83222">
        <ele>733.09997558594</ele>
        <time>2012-11-25T10:26:17Z</time>
      </trkpt>
      <trkpt lat="45.57376" lon="5.83213">
        <ele>734.09997558594</ele>
        <time>2012-11-25T10:26:24Z</time>
      </trkpt>
      <trkpt lat="45.57385" lon="5.83205">
        <ele>735.19995117188</ele>
        <time>2012-11-25T10:26:31Z</time>
      </trkpt>
      <trkpt lat="45.57401" lon="5.83189">
        <ele>738.19995117188</ele>
        <time>2012-11-25T10:26:45Z</time>
      </trkpt>
      <trkpt lat="45.57417" lon="5.83175">
        <ele>737.69995117188</ele>
        <time>2012-11-25T10:26:58Z</time>
      </trkpt>
      <trkpt lat="45.57443" lon="5.83156">
        <ele>738.59997558594</ele>
        <time>2012-11-25T10:27:18Z</time>
      </trkpt>
      <trkpt lat="45.57468" lon="5.83136">
        <ele>739.69995117188</ele>
        <time>2012-11-25T10:27:39Z</time>
      </trkpt>
      <trkpt lat="45.57495" lon="5.83119">
        <ele>743.59997558594</ele>
        <time>2012-11-25T10:27:56Z</time>
      </trkpt>
      <trkpt lat="45.57514" lon="5.8311">
        <ele>746.90002441406</ele>
        <time>2012-11-25T10:28:08Z</time>
      </trkpt>
      <trkpt lat="45.57543" lon="5.83116">
        <ele>746.90002441406</ele>
        <time>2012-11-25T10:28:27Z</time>
      </trkpt>
      <trkpt lat="45.57572" lon="5.83119">
        <ele>749.69995117188</ele>
        <time>2012-11-25T10:28:47Z</time>
      </trkpt>
      <trkpt lat="45.5763" lon="5.83122">
        <ele>755.19995117188</ele>
        <time>2012-11-25T10:29:23Z</time>
      </trkpt>
      <trkpt lat="45.57659" lon="5.83113">
        <ele>762.59997558594</ele>
        <time>2012-11-25T10:29:45Z</time>
      </trkpt>
      <trkpt lat="45.57687" lon="5.8311">
        <ele>775.59997558594</ele>
        <time>2012-11-25T10:30:05Z</time>
      </trkpt>
      <trkpt lat="45.57706" lon="5.83116">
        <ele>778.90002441406</ele>
        <time>2012-11-25T10:30:23Z</time>
      </trkpt>
      <trkpt lat="45.57726" lon="5.8311">
        <ele>781.80004882812</ele>
        <time>2012-11-25T10:30:33Z</time>
      </trkpt>
      <trkpt lat="45.57745" lon="5.8311">
        <ele>785.59997558594</ele>
        <time>2012-11-25T10:30:50Z</time>
      </trkpt>
      <trkpt lat="45.57748" lon="5.83098">
        <ele>790.90002441406</ele>
        <time>2012-11-25T10:34:14Z</time>
      </trkpt>
      <trkpt lat="45.57713" lon="5.83052">
        <ele>796.69995117188</ele>
        <time>2012-11-25T10:34:38Z</time>
      </trkpt>
      <trkpt lat="45.57701" lon="5.83018">
        <ele>799.09997558594</ele>
        <time>2012-11-25T10:35:02Z</time>
      </trkpt>
      <trkpt lat="45.57677" lon="5.82992">
        <ele>804.19995117188</ele>
        <time>2012-11-25T10:35:25Z</time>
      </trkpt>
      <trkpt lat="45.57689" lon="5.82976">
        <ele>807.40002441406</ele>
        <time>2012-11-25T10:35:56Z</time>
      </trkpt>
      <trkpt lat="45.57718" lon="5.82977">
        <ele>810.59997558594</ele>
        <time>2012-11-25T10:36:20Z</time>
      </trkpt>
      <trkpt lat="45.57745" lon="5.82973">
        <ele>815.19995117188</ele>
        <time>2012-11-25T10:36:45Z</time>
      </trkpt>
      <trkpt lat="45.57804" lon="5.8293">
        <ele>830</ele>
        <time>2012-11-25T10:37:41Z</time>
      </trkpt>
      <trkpt lat="45.57851" lon="5.82915">
        <ele>838.40002441406</ele>
        <time>2012-11-25T10:38:19Z</time>
      </trkpt>
      <trkpt lat="45.57889" lon="5.82903">
        <ele>841.59997558594</ele>
        <time>2012-11-25T10:38:54Z</time>
      </trkpt>
      <trkpt lat="45.57918" lon="5.82892">
        <ele>845.5</ele>
        <time>2012-11-25T10:39:15Z</time>
      </trkpt>
      <trkpt lat="45.57945" lon="5.82879">
        <ele>850.19995117188</ele>
        <time>2012-11-25T10:39:40Z</time>
      </trkpt>
      <trkpt lat="45.57972" lon="5.82861">
        <ele>855.40002441406</ele>
        <time>2012-11-25T10:40:02Z</time>
      </trkpt>
      <trkpt lat="45.57999" lon="5.82857">
        <ele>858.5</ele>
        <time>2012-11-25T10:40:23Z</time>
      </trkpt>
      <trkpt lat="45.58021" lon="5.82884">
        <ele>862.59997558594</ele>
        <time>2012-11-25T10:40:43Z</time>
      </trkpt>
      <trkpt lat="45.58031" lon="5.82888">
        <ele>863.69995117188</ele>
        <time>2012-11-25T10:41:07Z</time>
      </trkpt>
      <trkpt lat="45.58063" lon="5.8284">
        <ele>866</ele>
        <time>2012-11-25T10:41:31Z</time>
      </trkpt>
      <trkpt lat="45.58091" lon="5.82833">
        <ele>866.19995117188</ele>
        <time>2012-11-25T10:41:53Z</time>
      </trkpt>
      <trkpt lat="45.58128" lon="5.82853">
        <ele>868.90002441406</ele>
        <time>2012-11-25T10:42:20Z</time>
      </trkpt>
      <trkpt lat="45.58155" lon="5.82856">
        <ele>869.5</ele>
        <time>2012-11-25T10:42:47Z</time>
      </trkpt>
      <trkpt lat="45.58182" lon="5.82847">
        <ele>873.30004882812</ele>
        <time>2012-11-25T10:43:09Z</time>
      </trkpt>
      <trkpt lat="45.58211" lon="5.82849">
        <ele>873.90002441406</ele>
        <time>2012-11-25T10:43:35Z</time>
      </trkpt>
      <trkpt lat="45.5823" lon="5.82842">
        <ele>874.59997558594</ele>
        <time>2012-11-25T10:43:47Z</time>
      </trkpt>
      <trkpt lat="45.58285" lon="5.82847">
        <ele>884.40002441406</ele>
        <time>2012-11-25T10:44:28Z</time>
      </trkpt>
      <trkpt lat="45.58314" lon="5.82834">
        <ele>889.40002441406</ele>
        <time>2012-11-25T10:44:52Z</time>
      </trkpt>
      <trkpt lat="45.58349" lon="5.82808">
        <ele>893.09997558594</ele>
        <time>2012-11-25T10:45:23Z</time>
      </trkpt>
      <trkpt lat="45.58399" lon="5.82801">
        <ele>906.09997558594</ele>
        <time>2012-11-25T10:46:05Z</time>
      </trkpt>
      <trkpt lat="45.58447" lon="5.82781">
        <ele>916.30004882812</ele>
        <time>2012-11-25T10:46:56Z</time>
      </trkpt>
      <trkpt lat="45.5846" lon="5.82766">
        <ele>920.80004882812</ele>
        <time>2012-11-25T10:47:25Z</time>
      </trkpt>
      <trkpt lat="45.58431" lon="5.82757">
        <ele>925.30004882812</ele>
        <time>2012-11-25T10:47:48Z</time>
      </trkpt>
      <trkpt lat="45.58405" lon="5.82748">
        <ele>927.5</ele>
        <time>2012-11-25T10:48:13Z</time>
      </trkpt>
      <trkpt lat="45.58377" lon="5.82732">
        <ele>928.5</ele>
        <time>2012-11-25T10:48:35Z</time>
      </trkpt>
      <trkpt lat="45.5832" lon="5.82728">
        <ele>937.59997558594</ele>
        <time>2012-11-25T10:49:22Z</time>
      </trkpt>
      <trkpt lat="45.58291" lon="5.82729">
        <ele>936.90002441406</ele>
        <time>2012-11-25T10:49:41Z</time>
      </trkpt>
      <trkpt lat="45.58274" lon="5.82708">
        <ele>940.30004882812</ele>
        <time>2012-11-25T10:50:02Z</time>
      </trkpt>
      <trkpt lat="45.58477" lon="5.82671">
        <ele>953.09997558594</ele>
        <time>2012-11-25T10:52:39Z</time>
      </trkpt>
      <trkpt lat="45.58526" lon="5.82663">
        <ele>960.69995117188</ele>
        <time>2012-11-25T10:53:14Z</time>
      </trkpt>
      <trkpt lat="45.58553" lon="5.8265">
        <ele>965.90002441406</ele>
        <time>2012-11-25T10:53:39Z</time>
      </trkpt>
      <trkpt lat="45.58572" lon="5.82644">
        <ele>966.09997558594</ele>
        <time>2012-11-25T10:53:52Z</time>
      </trkpt>
      <trkpt lat="45.58591" lon="5.82642">
        <ele>966.80004882812</ele>
        <time>2012-11-25T10:54:07Z</time>
      </trkpt>
      <trkpt lat="45.5861" lon="5.82638">
        <ele>972</ele>
        <time>2012-11-25T10:54:22Z</time>
      </trkpt>
      <trkpt lat="45.58629" lon="5.82637">
        <ele>972.90002441406</ele>
        <time>2012-11-25T10:54:37Z</time>
      </trkpt>
      <trkpt lat="45.58658" lon="5.82643">
        <ele>978.40002441406</ele>
        <time>2012-11-25T10:54:58Z</time>
      </trkpt>
      <trkpt lat="45.58682" lon="5.82634">
        <ele>979.90002441406</ele>
        <time>2012-11-25T10:55:23Z</time>
      </trkpt>
      <trkpt lat="45.58577" lon="5.82617">
        <ele>987.59997558594</ele>
        <time>2012-11-25T10:56:41Z</time>
      </trkpt>
      <trkpt lat="45.58304" lon="5.82597">
        <ele>1001.4000244141</ele>
        <time>2012-11-25T11:00:10Z</time>
      </trkpt>
      <trkpt lat="45.58277" lon="5.82594">
        <ele>1004.8000488281</ele>
        <time>2012-11-25T11:00:30Z</time>
      </trkpt>
      <trkpt lat="45.58248" lon="5.82594">
        <ele>1007.8000488281</ele>
        <time>2012-11-25T11:00:49Z</time>
      </trkpt>
      <trkpt lat="45.58223" lon="5.8258">
        <ele>1008.0999755859</ele>
        <time>2012-11-25T11:01:08Z</time>
      </trkpt>
      <trkpt lat="45.58178" lon="5.82567">
        <ele>1015.8000488281</ele>
        <time>2012-11-25T11:01:46Z</time>
      </trkpt>
      <trkpt lat="45.58151" lon="5.82564">
        <ele>1017.6999511719</ele>
        <time>2012-11-25T11:02:05Z</time>
      </trkpt>
      <trkpt lat="45.58123" lon="5.82569">
        <ele>1017.5999755859</ele>
        <time>2012-11-25T11:02:26Z</time>
      </trkpt>
      <trkpt lat="45.58111" lon="5.82579">
        <ele>1021.8000488281</ele>
        <time>2012-11-25T11:04:47Z</time>
      </trkpt>
      <trkpt lat="45.58091" lon="5.82555">
        <ele>1023.8000488281</ele>
        <time>2012-11-25T11:05:09Z</time>
      </trkpt>
      <trkpt lat="45.58064" lon="5.82542">
        <ele>1026.4000244141</ele>
        <time>2012-11-25T11:05:30Z</time>
      </trkpt>
      <trkpt lat="45.58047" lon="5.82528">
        <ele>1028.6999511719</ele>
        <time>2012-11-25T11:05:44Z</time>
      </trkpt>
      <trkpt lat="45.58031" lon="5.82511">
        <ele>1032.0999755859</ele>
        <time>2012-11-25T11:05:57Z</time>
      </trkpt>
      <trkpt lat="45.5802" lon="5.82489">
        <ele>1033.5999755859</ele>
        <time>2012-11-25T11:06:11Z</time>
      </trkpt>
      <trkpt lat="45.58021" lon="5.8246">
        <ele>1036.0999755859</ele>
        <time>2012-11-25T11:06:26Z</time>
      </trkpt>
      <trkpt lat="45.58024" lon="5.82421">
        <ele>1036.3000488281</ele>
        <time>2012-11-25T11:06:45Z</time>
      </trkpt>
      <trkpt lat="45.58034" lon="5.82397">
        <ele>1037.1999511719</ele>
        <time>2012-11-25T11:07:00Z</time>
      </trkpt>
      <trkpt lat="45.5805" lon="5.82365">
        <ele>1039.0999755859</ele>
        <time>2012-11-25T11:07:24Z</time>
      </trkpt>
      <trkpt lat="45.58074" lon="5.82346">
        <ele>1038.5999755859</ele>
        <time>2012-11-25T11:07:45Z</time>
      </trkpt>
      <trkpt lat="45.58104" lon="5.82342">
        <ele>1039</ele>
        <time>2012-11-25T11:08:07Z</time>
      </trkpt>
      <trkpt lat="45.58114" lon="5.82318">
        <ele>1041.5999755859</ele>
        <time>2012-11-25T11:08:18Z</time>
      </trkpt>
      <trkpt lat="45.58124" lon="5.82295">
        <ele>1046.1999511719</ele>
        <time>2012-11-25T11:08:32Z</time>
      </trkpt>
      <trkpt lat="45.58141" lon="5.82288">
        <ele>1052</ele>
        <time>2012-11-25T11:08:47Z</time>
      </trkpt>
      <trkpt lat="45.58151" lon="5.82256">
        <ele>1054.8000488281</ele>
        <time>2012-11-25T11:09:11Z</time>
      </trkpt>
      <trkpt lat="45.58149" lon="5.82227">
        <ele>1056.5999755859</ele>
        <time>2012-11-25T11:09:25Z</time>
      </trkpt>
      <trkpt lat="45.58154" lon="5.82172">
        <ele>1055.9000244141</ele>
        <time>2012-11-25T11:09:56Z</time>
      </trkpt>
      <trkpt lat="45.58148" lon="5.8213">
        <ele>1047.8000488281</ele>
        <time>2012-11-25T11:10:18Z</time>
      </trkpt>
      <trkpt lat="45.58143" lon="5.82091">
        <ele>1049</ele>
        <time>2012-11-25T11:10:41Z</time>
      </trkpt>
      <trkpt lat="45.58098" lon="5.82025">
        <ele>1043.0999755859</ele>
        <time>2012-11-25T11:11:33Z</time>
      </trkpt>
      <trkpt lat="45.58071" lon="5.82019">
        <ele>1038.5999755859</ele>
        <time>2012-11-25T11:11:53Z</time>
      </trkpt>
      <trkpt lat="45.58082" lon="5.81963">
        <ele>1033.6999511719</ele>
        <time>2012-11-25T11:12:48Z</time>
      </trkpt>
      <trkpt lat="45.58068" lon="5.81899">
        <ele>1034.9000244141</ele>
        <time>2012-11-25T11:13:25Z</time>
      </trkpt>
      <trkpt lat="45.58059" lon="5.8186">
        <ele>1034.8000488281</ele>
        <time>2012-11-25T11:13:42Z</time>
      </trkpt>
      <trkpt lat="45.58057" lon="5.81834">
        <ele>1033.1999511719</ele>
        <time>2012-11-25T11:13:54Z</time>
      </trkpt>
      <trkpt lat="45.58042" lon="5.81814">
        <ele>1033.4000244141</ele>
        <time>2012-11-25T11:14:08Z</time>
      </trkpt>
      <trkpt lat="45.5803" lon="5.81794">
        <ele>1024.6999511719</ele>
        <time>2012-11-25T11:14:24Z</time>
      </trkpt>
      <trkpt lat="45.58015" lon="5.81773">
        <ele>1018.4000244141</ele>
        <time>2012-11-25T11:14:38Z</time>
      </trkpt>
      <trkpt lat="45.57999" lon="5.8176">
        <ele>1010.0999755859</ele>
        <time>2012-11-25T11:15:11Z</time>
      </trkpt>
      <trkpt lat="45.57982" lon="5.81775">
        <ele>1007.5999755859</ele>
        <time>2012-11-25T11:15:28Z</time>
      </trkpt>
      <trkpt lat="45.57967" lon="5.81792">
        <ele>1009</ele>
        <time>2012-11-25T11:15:42Z</time>
      </trkpt>
      <trkpt lat="45.57959" lon="5.81801">
        <ele>1010</ele>
        <time>2012-11-25T11:15:48Z</time>
      </trkpt>
      <trkpt lat="45.57931" lon="5.81808">
        <ele>1004.8000488281</ele>
        <time>2012-11-25T11:16:03Z</time>
      </trkpt>
      <trkpt lat="45.5791" lon="5.81779">
        <ele>1005.3000488281</ele>
        <time>2012-11-25T11:16:22Z</time>
      </trkpt>
      <trkpt lat="45.57908" lon="5.8174">
        <ele>1008.5</ele>
        <time>2012-11-25T11:16:40Z</time>
      </trkpt>
      <trkpt lat="45.57911" lon="5.81701">
        <ele>1010.5999755859</ele>
        <time>2012-11-25T11:16:59Z</time>
      </trkpt>
      <trkpt lat="45.57924" lon="5.81653">
        <ele>1013.3000488281</ele>
        <time>2012-11-25T11:17:24Z</time>
      </trkpt>
      <trkpt lat="45.57925" lon="5.81612">
        <ele>1013.4000244141</ele>
        <time>2012-11-25T11:17:50Z</time>
      </trkpt>
      <trkpt lat="45.57915" lon="5.81574">
        <ele>1009.0999755859</ele>
        <time>2012-11-25T11:18:19Z</time>
      </trkpt>
      <trkpt lat="45.57923" lon="5.81535">
        <ele>1005.5</ele>
        <time>2012-11-25T11:18:38Z</time>
      </trkpt>
      <trkpt lat="45.5797" lon="5.8144">
        <ele>991.59997558594</ele>
        <time>2012-11-25T11:19:41Z</time>
      </trkpt>
      <trkpt lat="45.57981" lon="5.81402">
        <ele>989.69995117188</ele>
        <time>2012-11-25T11:20:05Z</time>
      </trkpt>
      <trkpt lat="45.5799" lon="5.81365">
        <ele>988.19995117188</ele>
        <time>2012-11-25T11:20:23Z</time>
      </trkpt>
      <trkpt lat="45.58035" lon="5.81351">
        <ele>977.09997558594</ele>
        <time>2012-11-25T11:20:53Z</time>
      </trkpt>
      <trkpt lat="45.5804" lon="5.81312">
        <ele>976</ele>
        <time>2012-11-25T11:21:12Z</time>
      </trkpt>
      <trkpt lat="45.58051" lon="5.81275">
        <ele>977.69995117188</ele>
        <time>2012-11-25T11:21:34Z</time>
      </trkpt>
      <trkpt lat="45.58062" lon="5.81254">
        <ele>979.69995117188</ele>
        <time>2012-11-25T11:21:47Z</time>
      </trkpt>
      <trkpt lat="45.58073" lon="5.81232">
        <ele>977.5</ele>
        <time>2012-11-25T11:21:59Z</time>
      </trkpt>
      <trkpt lat="45.58092" lon="5.81231">
        <ele>975</ele>
        <time>2012-11-25T11:22:11Z</time>
      </trkpt>
      <trkpt lat="45.58119" lon="5.81249">
        <ele>967.69995117188</ele>
        <time>2012-11-25T11:22:29Z</time>
      </trkpt>
      <trkpt lat="45.58157" lon="5.81288">
        <ele>970.59997558594</ele>
        <time>2012-11-25T11:23:07Z</time>
      </trkpt>
      <trkpt lat="45.58183" lon="5.8127">
        <ele>969.09997558594</ele>
        <time>2012-11-25T11:23:28Z</time>
      </trkpt>
      <trkpt lat="45.58209" lon="5.8125">
        <ele>971.09997558594</ele>
        <time>2012-11-25T11:23:51Z</time>
      </trkpt>
      <trkpt lat="45.58237" lon="5.81245">
        <ele>972</ele>
        <time>2012-11-25T11:24:10Z</time>
      </trkpt>
      <trkpt lat="45.58271" lon="5.81224">
        <ele>972.69995117188</ele>
        <time>2012-11-25T11:24:42Z</time>
      </trkpt>
      <trkpt lat="45.58309" lon="5.81214">
        <ele>970.80004882812</ele>
        <time>2012-11-25T11:25:11Z</time>
      </trkpt>
      <trkpt lat="45.58338" lon="5.81205">
        <ele>974.5</ele>
        <time>2012-11-25T11:25:33Z</time>
      </trkpt>
      <trkpt lat="45.58352" lon="5.81188">
        <ele>974.19995117188</ele>
        <time>2012-11-25T11:25:48Z</time>
      </trkpt>
      <trkpt lat="45.58364" lon="5.81168">
        <ele>974.59997558594</ele>
        <time>2012-11-25T11:26:01Z</time>
      </trkpt>
      <trkpt lat="45.58382" lon="5.81157">
        <ele>973.69995117188</ele>
        <time>2012-11-25T11:26:12Z</time>
      </trkpt>
      <trkpt lat="45.58402" lon="5.81161">
        <ele>971.40002441406</ele>
        <time>2012-11-25T11:26:27Z</time>
      </trkpt>
      <trkpt lat="45.5842" lon="5.81169">
        <ele>972.40002441406</ele>
        <time>2012-11-25T11:26:43Z</time>
      </trkpt>
      <trkpt lat="45.58439" lon="5.81167">
        <ele>974</ele>
        <time>2012-11-25T11:26:56Z</time>
      </trkpt>
      <trkpt lat="45.58454" lon="5.81148">
        <ele>974.90002441406</ele>
        <time>2012-11-25T11:27:13Z</time>
      </trkpt>
      <trkpt lat="45.58466" lon="5.81127">
        <ele>974</ele>
        <time>2012-11-25T11:27:27Z</time>
      </trkpt>
      <trkpt lat="45.58486" lon="5.81126">
        <ele>972.69995117188</ele>
        <time>2012-11-25T11:27:43Z</time>
      </trkpt>
      <trkpt lat="45.58506" lon="5.81128">
        <ele>970.40002441406</ele>
        <time>2012-11-25T11:27:54Z</time>
      </trkpt>
      <trkpt lat="45.58525" lon="5.8112">
        <ele>971.30004882812</ele>
        <time>2012-11-25T11:28:06Z</time>
      </trkpt>
      <trkpt lat="45.58542" lon="5.81109">
        <ele>972.80004882812</ele>
        <time>2012-11-25T11:28:19Z</time>
      </trkpt>
      <trkpt lat="45.5856" lon="5.811">
        <ele>973.90002441406</ele>
        <time>2012-11-25T11:28:34Z</time>
      </trkpt>
      <trkpt lat="45.58579" lon="5.81092">
        <ele>973.5</ele>
        <time>2012-11-25T11:28:49Z</time>
      </trkpt>
      <trkpt lat="45.58598" lon="5.81087">
        <ele>976.40002441406</ele>
        <time>2012-11-25T11:29:05Z</time>
      </trkpt>
      <trkpt lat="45.58617" lon="5.81083">
        <ele>978</ele>
        <time>2012-11-25T11:29:18Z</time>
      </trkpt>
      <trkpt lat="45.58635" lon="5.81073">
        <ele>977.90002441406</ele>
        <time>2012-11-25T11:29:37Z</time>
      </trkpt>
      <trkpt lat="45.58651" lon="5.81059">
        <ele>977.19995117188</ele>
        <time>2012-11-25T11:29:53Z</time>
      </trkpt>
      <trkpt lat="45.58673" lon="5.8103">
        <ele>979</ele>
        <time>2012-11-25T11:30:16Z</time>
      </trkpt>
      <trkpt lat="45.58688" lon="5.81011">
        <ele>978</ele>
        <time>2012-11-25T11:30:30Z</time>
      </trkpt>
      <trkpt lat="45.58705" lon="5.80997">
        <ele>972</ele>
        <time>2012-11-25T11:30:44Z</time>
      </trkpt>
      <trkpt lat="45.58729" lon="5.80989">
        <ele>971.59997558594</ele>
        <time>2012-11-25T11:31:49Z</time>
      </trkpt>
    </trkseg>
  </trk>
  <trk>
    <name><![CDATA[Parcours 2012-11-25 13:05]]></name>
    <trkseg>
      <trkpt lat="45.58727" lon="5.80986">
        <ele>968.69995117188</ele>
        <time>2012-11-25T12:06:12Z</time>
      </trkpt>
      <trkpt lat="45.58735" lon="5.80978">
        <ele>963.69995117188</ele>
        <time>2012-11-25T12:10:24Z</time>
      </trkpt>
      <trkpt lat="45.58726" lon="5.80983">
        <ele>963.19995117188</ele>
        <time>2012-11-25T12:10:34Z</time>
      </trkpt>
      <trkpt lat="45.58722" lon="5.80995">
        <ele>962.40002441406</ele>
        <time>2012-11-25T12:12:33Z</time>
      </trkpt>
      <trkpt lat="45.58718" lon="5.81007">
        <ele>962.5</ele>
        <time>2012-11-25T12:12:40Z</time>
      </trkpt>
      <trkpt lat="45.58714" lon="5.81022">
        <ele>962.59997558594</ele>
        <time>2012-11-25T12:12:48Z</time>
      </trkpt>
      <trkpt lat="45.58715" lon="5.81037">
        <ele>962.80004882812</ele>
        <time>2012-11-25T12:12:52Z</time>
      </trkpt>
      <trkpt lat="45.5872" lon="5.81051">
        <ele>963</ele>
        <time>2012-11-25T12:12:56Z</time>
      </trkpt>
      <trkpt lat="45.58725" lon="5.81062">
        <ele>964</ele>
        <time>2012-11-25T12:13:02Z</time>
      </trkpt>
      <trkpt lat="45.5873" lon="5.81074">
        <ele>965.19995117188</ele>
        <time>2012-11-25T12:13:09Z</time>
      </trkpt>
      <trkpt lat="45.58735" lon="5.81086">
        <ele>966.30004882812</ele>
        <time>2012-11-25T12:13:16Z</time>
      </trkpt>
      <trkpt lat="45.5874" lon="5.81097">
        <ele>968.80004882812</ele>
        <time>2012-11-25T12:13:23Z</time>
      </trkpt>
      <trkpt lat="45.58744" lon="5.8111">
        <ele>972.19995117188</ele>
        <time>2012-11-25T12:13:32Z</time>
      </trkpt>
      <trkpt lat="45.58747" lon="5.81124">
        <ele>973.19995117188</ele>
        <time>2012-11-25T12:13:40Z</time>
      </trkpt>
      <trkpt lat="45.58755" lon="5.81131">
        <ele>975.19995117188</ele>
        <time>2012-11-25T12:14:00Z</time>
      </trkpt>
      <trkpt lat="45.5876" lon="5.81143">
        <ele>975.59997558594</ele>
        <time>2012-11-25T12:14:08Z</time>
      </trkpt>
      <trkpt lat="45.58765" lon="5.81155">
        <ele>976.80004882812</ele>
        <time>2012-11-25T12:14:15Z</time>
      </trkpt>
      <trkpt lat="45.58769" lon="5.81167">
        <ele>977.69995117188</ele>
        <time>2012-11-25T12:14:24Z</time>
      </trkpt>
      <trkpt lat="45.58772" lon="5.81179">
        <ele>978.09997558594</ele>
        <time>2012-11-25T12:14:32Z</time>
      </trkpt>
      <trkpt lat="45.58763" lon="5.81157">
        <ele>979.09997558594</ele>
        <time>2012-11-25T12:15:19Z</time>
      </trkpt>
      <trkpt lat="45.58758" lon="5.81146">
        <ele>979.30004882812</ele>
        <time>2012-11-25T12:15:25Z</time>
      </trkpt>
      <trkpt lat="45.58744" lon="5.81136">
        <ele>977.69995117188</ele>
        <time>2012-11-25T12:15:43Z</time>
      </trkpt>
      <trkpt lat="45.58739" lon="5.81148">
        <ele>976.5</ele>
        <time>2012-11-25T12:15:52Z</time>
      </trkpt>
      <trkpt lat="45.58743" lon="5.81161">
        <ele>976.59997558594</ele>
        <time>2012-11-25T12:16:01Z</time>
      </trkpt>
      <trkpt lat="45.58744" lon="5.81175">
        <ele>976.90002441406</ele>
        <time>2012-11-25T12:16:10Z</time>
      </trkpt>
      <trkpt lat="45.58741" lon="5.81188">
        <ele>977.80004882812</ele>
        <time>2012-11-25T12:16:18Z</time>
      </trkpt>
      <trkpt lat="45.58735" lon="5.81199">
        <ele>980.30004882812</ele>
        <time>2012-11-25T12:16:25Z</time>
      </trkpt>
      <trkpt lat="45.58729" lon="5.8121">
        <ele>981.40002441406</ele>
        <time>2012-11-25T12:16:32Z</time>
      </trkpt>
      <trkpt lat="45.58727" lon="5.81223">
        <ele>981.90002441406</ele>
        <time>2012-11-25T12:16:39Z</time>
      </trkpt>
      <trkpt lat="45.58726" lon="5.81236">
        <ele>982</ele>
        <time>2012-11-25T12:16:46Z</time>
      </trkpt>
      <trkpt lat="45.58723" lon="5.8125">
        <ele>982.59997558594</ele>
        <time>2012-11-25T12:16:53Z</time>
      </trkpt>
      <trkpt lat="45.58719" lon="5.81261">
        <ele>983.40002441406</ele>
        <time>2012-11-25T12:17:00Z</time>
      </trkpt>
      <trkpt lat="45.58719" lon="5.81275">
        <ele>983.09997558594</ele>
        <time>2012-11-25T12:17:08Z</time>
      </trkpt>
      <trkpt lat="45.58722" lon="5.81288">
        <ele>983.80004882812</ele>
        <time>2012-11-25T12:17:15Z</time>
      </trkpt>
      <trkpt lat="45.58729" lon="5.81297">
        <ele>984.40002441406</ele>
        <time>2012-11-25T12:17:22Z</time>
      </trkpt>
      <trkpt lat="45.58737" lon="5.81304">
        <ele>985.5</ele>
        <time>2012-11-25T12:17:29Z</time>
      </trkpt>
      <trkpt lat="45.58744" lon="5.81312">
        <ele>986</ele>
        <time>2012-11-25T12:17:36Z</time>
      </trkpt>
      <trkpt lat="45.58751" lon="5.8132">
        <ele>987.5</ele>
        <time>2012-11-25T12:17:43Z</time>
      </trkpt>
      <trkpt lat="45.58764" lon="5.8134">
        <ele>989.90002441406</ele>
        <time>2012-11-25T12:17:59Z</time>
      </trkpt>
      <trkpt lat="45.58778" lon="5.81361">
        <ele>991.69995117188</ele>
        <time>2012-11-25T12:18:12Z</time>
      </trkpt>
      <trkpt lat="45.5878" lon="5.81374">
        <ele>992.19995117188</ele>
        <time>2012-11-25T12:18:18Z</time>
      </trkpt>
      <trkpt lat="45.58781" lon="5.81387">
        <ele>993.40002441406</ele>
        <time>2012-11-25T12:18:25Z</time>
      </trkpt>
      <trkpt lat="45.58782" lon="5.814">
        <ele>995.59997558594</ele>
        <time>2012-11-25T12:18:32Z</time>
      </trkpt>
      <trkpt lat="45.58798" lon="5.8141">
        <ele>999.30004882812</ele>
        <time>2012-11-25T12:18:49Z</time>
      </trkpt>
      <trkpt lat="45.58815" lon="5.814">
        <ele>1003</ele>
        <time>2012-11-25T12:19:05Z</time>
      </trkpt>
      <trkpt lat="45.58834" lon="5.81394">
        <ele>1005.0999755859</ele>
        <time>2012-11-25T12:19:19Z</time>
      </trkpt>
      <trkpt lat="45.58843" lon="5.81393">
        <ele>1004.6999511719</ele>
        <time>2012-11-25T12:19:25Z</time>
      </trkpt>
      <trkpt lat="45.58852" lon="5.81388">
        <ele>1004.5999755859</ele>
        <time>2012-11-25T12:19:32Z</time>
      </trkpt>
      <trkpt lat="45.58857" lon="5.81376">
        <ele>1003.1999511719</ele>
        <time>2012-11-25T12:19:40Z</time>
      </trkpt>
      <trkpt lat="45.58861" lon="5.81347">
        <ele>1003.5</ele>
        <time>2012-11-25T12:19:50Z</time>
      </trkpt>
      <trkpt lat="45.5886" lon="5.81318">
        <ele>1004.9000244141</ele>
        <time>2012-11-25T12:19:58Z</time>
      </trkpt>
      <trkpt lat="45.58863" lon="5.81291">
        <ele>1008.1999511719</ele>
        <time>2012-11-25T12:20:11Z</time>
      </trkpt>
      <trkpt lat="45.58877" lon="5.81274">
        <ele>1010.4000244141</ele>
        <time>2012-11-25T12:20:26Z</time>
      </trkpt>
      <trkpt lat="45.58893" lon="5.81256">
        <ele>1015.1999511719</ele>
        <time>2012-11-25T12:20:40Z</time>
      </trkpt>
      <trkpt lat="45.58908" lon="5.8124">
        <ele>1020.5999755859</ele>
        <time>2012-11-25T12:20:54Z</time>
      </trkpt>
      <trkpt lat="45.58927" lon="5.81234">
        <ele>1020.1999511719</ele>
        <time>2012-11-25T12:21:05Z</time>
      </trkpt>
      <trkpt lat="45.58945" lon="5.81222">
        <ele>1019.9000244141</ele>
        <time>2012-11-25T12:21:14Z</time>
      </trkpt>
      <trkpt lat="45.58963" lon="5.81191">
        <ele>1022.6999511719</ele>
        <time>2012-11-25T12:21:35Z</time>
      </trkpt>
      <trkpt lat="45.58977" lon="5.81175">
        <ele>1023.9000244141</ele>
        <time>2012-11-25T12:21:49Z</time>
      </trkpt>
      <trkpt lat="45.58993" lon="5.81158">
        <ele>1024.6999511719</ele>
        <time>2012-11-25T12:22:05Z</time>
      </trkpt>
      <trkpt lat="45.59006" lon="5.81136">
        <ele>1025.9000244141</ele>
        <time>2012-11-25T12:22:16Z</time>
      </trkpt>
      <trkpt lat="45.59022" lon="5.81122">
        <ele>1026.5999755859</ele>
        <time>2012-11-25T12:22:25Z</time>
      </trkpt>
      <trkpt lat="45.59036" lon="5.81106">
        <ele>1027.5999755859</ele>
        <time>2012-11-25T12:22:41Z</time>
      </trkpt>
      <trkpt lat="45.59042" lon="5.8108">
        <ele>1029.1999511719</ele>
        <time>2012-11-25T12:22:56Z</time>
      </trkpt>
      <trkpt lat="45.59046" lon="5.81055">
        <ele>1032.5</ele>
        <time>2012-11-25T12:23:12Z</time>
      </trkpt>
      <trkpt lat="45.59052" lon="5.81028">
        <ele>1035.4000244141</ele>
        <time>2012-11-25T12:23:34Z</time>
      </trkpt>
      <trkpt lat="45.59062" lon="5.8099">
        <ele>1036.8000488281</ele>
        <time>2012-11-25T12:23:59Z</time>
      </trkpt>
      <trkpt lat="45.59068" lon="5.80966">
        <ele>1040.0999755859</ele>
        <time>2012-11-25T12:24:15Z</time>
      </trkpt>
      <trkpt lat="45.59077" lon="5.80943">
        <ele>1043.5</ele>
        <time>2012-11-25T12:24:28Z</time>
      </trkpt>
      <trkpt lat="45.59088" lon="5.80921">
        <ele>1046.4000244141</ele>
        <time>2012-11-25T12:24:47Z</time>
      </trkpt>
      <trkpt lat="45.59102" lon="5.80901">
        <ele>1049.5</ele>
        <time>2012-11-25T12:25:05Z</time>
      </trkpt>
      <trkpt lat="45.59118" lon="5.80887">
        <ele>1055.5</ele>
        <time>2012-11-25T12:25:31Z</time>
      </trkpt>
      <trkpt lat="45.59127" lon="5.80864">
        <ele>1062.0999755859</ele>
        <time>2012-11-25T12:25:45Z</time>
      </trkpt>
      <trkpt lat="45.59142" lon="5.80851">
        <ele>1066.8000488281</ele>
        <time>2012-11-25T12:26:02Z</time>
      </trkpt>
      <trkpt lat="45.59159" lon="5.80844">
        <ele>1072.0999755859</ele>
        <time>2012-11-25T12:26:18Z</time>
      </trkpt>
      <trkpt lat="45.59178" lon="5.80842">
        <ele>1076.5</ele>
        <time>2012-11-25T12:26:32Z</time>
      </trkpt>
      <trkpt lat="45.59198" lon="5.80837">
        <ele>1079.3000488281</ele>
        <time>2012-11-25T12:26:45Z</time>
      </trkpt>
      <trkpt lat="45.59216" lon="5.80829">
        <ele>1084</ele>
        <time>2012-11-25T12:26:57Z</time>
      </trkpt>
      <trkpt lat="45.59234" lon="5.80824">
        <ele>1087.3000488281</ele>
        <time>2012-11-25T12:27:10Z</time>
      </trkpt>
      <trkpt lat="45.59254" lon="5.80822">
        <ele>1092.1999511719</ele>
        <time>2012-11-25T12:27:27Z</time>
      </trkpt>
      <trkpt lat="45.59274" lon="5.80823">
        <ele>1094.9000244141</ele>
        <time>2012-11-25T12:27:37Z</time>
      </trkpt>
      <trkpt lat="45.59293" lon="5.80828">
        <ele>1097.8000488281</ele>
        <time>2012-11-25T12:27:53Z</time>
      </trkpt>
      <trkpt lat="45.59312" lon="5.80834">
        <ele>1103.3000488281</ele>
        <time>2012-11-25T12:28:09Z</time>
      </trkpt>
      <trkpt lat="45.59331" lon="5.80839">
        <ele>1103.4000244141</ele>
        <time>2012-11-25T12:28:15Z</time>
      </trkpt>
      <trkpt lat="45.59354" lon="5.80847">
        <ele>1103.8000488281</ele>
        <time>2012-11-25T12:28:21Z</time>
      </trkpt>
      <trkpt lat="45.59383" lon="5.80855">
        <ele>1104.1999511719</ele>
        <time>2012-11-25T12:28:27Z</time>
      </trkpt>
      <trkpt lat="45.59414" lon="5.80861">
        <ele>1105.6999511719</ele>
        <time>2012-11-25T12:28:33Z</time>
      </trkpt>
      <trkpt lat="45.59445" lon="5.80866">
        <ele>1109.5</ele>
        <time>2012-11-25T12:28:41Z</time>
      </trkpt>
      <trkpt lat="45.59465" lon="5.80868">
        <ele>1114.5999755859</ele>
        <time>2012-11-25T12:29:04Z</time>
      </trkpt>
      <trkpt lat="45.59482" lon="5.80879">
        <ele>1117</ele>
        <time>2012-11-25T12:29:16Z</time>
      </trkpt>
      <trkpt lat="45.59499" lon="5.8089">
        <ele>1119.8000488281</ele>
        <time>2012-11-25T12:29:29Z</time>
      </trkpt>
      <trkpt lat="45.59515" lon="5.80903">
        <ele>1122.0999755859</ele>
        <time>2012-11-25T12:29:40Z</time>
      </trkpt>
      <trkpt lat="45.59537" lon="5.80897">
        <ele>1123.1999511719</ele>
        <time>2012-11-25T12:29:50Z</time>
      </trkpt>
      <trkpt lat="45.59557" lon="5.80895">
        <ele>1124.4000244141</ele>
        <time>2012-11-25T12:30:02Z</time>
      </trkpt>
      <trkpt lat="45.59575" lon="5.80899">
        <ele>1126.8000488281</ele>
        <time>2012-11-25T12:30:18Z</time>
      </trkpt>
      <trkpt lat="45.59593" lon="5.80908">
        <ele>1128.3000488281</ele>
        <time>2012-11-25T12:30:32Z</time>
      </trkpt>
      <trkpt lat="45.5961" lon="5.80921">
        <ele>1127.6999511719</ele>
        <time>2012-11-25T12:30:47Z</time>
      </trkpt>
      <trkpt lat="45.59628" lon="5.80935">
        <ele>1127.9000244141</ele>
        <time>2012-11-25T12:31:00Z</time>
      </trkpt>
      <trkpt lat="45.59646" lon="5.80943">
        <ele>1128</ele>
        <time>2012-11-25T12:31:14Z</time>
      </trkpt>
      <trkpt lat="45.59664" lon="5.80945">
        <ele>1128.5999755859</ele>
        <time>2012-11-25T12:31:28Z</time>
      </trkpt>
      <trkpt lat="45.59683" lon="5.80947">
        <ele>1128.6999511719</ele>
        <time>2012-11-25T12:31:44Z</time>
      </trkpt>
      <trkpt lat="45.59686" lon="5.80973">
        <ele>1127.0999755859</ele>
        <time>2012-11-25T12:32:02Z</time>
      </trkpt>
      <trkpt lat="45.59688" lon="5.81">
        <ele>1126.4000244141</ele>
        <time>2012-11-25T12:32:16Z</time>
      </trkpt>
      <trkpt lat="45.59692" lon="5.81026">
        <ele>1125.5</ele>
        <time>2012-11-25T12:32:30Z</time>
      </trkpt>
      <trkpt lat="45.59693" lon="5.81053">
        <ele>1125</ele>
        <time>2012-11-25T12:32:44Z</time>
      </trkpt>
      <trkpt lat="45.59698" lon="5.8108">
        <ele>1125</ele>
        <time>2012-11-25T12:32:58Z</time>
      </trkpt>
      <trkpt lat="45.59706" lon="5.81103">
        <ele>1124.3000488281</ele>
        <time>2012-11-25T12:33:10Z</time>
      </trkpt>
      <trkpt lat="45.59709" lon="5.81116">
        <ele>1124.1999511719</ele>
        <time>2012-11-25T12:33:16Z</time>
      </trkpt>
      <trkpt lat="45.59709" lon="5.81129">
        <ele>1124.1999511719</ele>
        <time>2012-11-25T12:33:22Z</time>
      </trkpt>
      <trkpt lat="45.5971" lon="5.81145">
        <ele>1124.5999755859</ele>
        <time>2012-11-25T12:33:29Z</time>
      </trkpt>
      <trkpt lat="45.59718" lon="5.81154">
        <ele>1124.3000488281</ele>
        <time>2012-11-25T12:33:35Z</time>
      </trkpt>
      <trkpt lat="45.59725" lon="5.81179">
        <ele>1124.1999511719</ele>
        <time>2012-11-25T12:33:50Z</time>
      </trkpt>
      <trkpt lat="45.59728" lon="5.81206">
        <ele>1123.8000488281</ele>
        <time>2012-11-25T12:34:05Z</time>
      </trkpt>
      <trkpt lat="45.59737" lon="5.81231">
        <ele>1123.6999511719</ele>
        <time>2012-11-25T12:34:19Z</time>
      </trkpt>
      <trkpt lat="45.5974" lon="5.8126">
        <ele>1125.5999755859</ele>
        <time>2012-11-25T12:34:33Z</time>
      </trkpt>
      <trkpt lat="45.59742" lon="5.81289">
        <ele>1127.0999755859</ele>
        <time>2012-11-25T12:34:48Z</time>
      </trkpt>
      <trkpt lat="45.59745" lon="5.81302">
        <ele>1128.4000244141</ele>
        <time>2012-11-25T12:34:55Z</time>
      </trkpt>
      <trkpt lat="45.59749" lon="5.81315">
        <ele>1129.3000488281</ele>
        <time>2012-11-25T12:35:01Z</time>
      </trkpt>
      <trkpt lat="45.59764" lon="5.81337">
        <ele>1130.0999755859</ele>
        <time>2012-11-25T12:35:09Z</time>
      </trkpt>
      <trkpt lat="45.5978" lon="5.81353">
        <ele>1132.1999511719</ele>
        <time>2012-11-25T12:35:17Z</time>
      </trkpt>
      <trkpt lat="45.59791" lon="5.81378">
        <ele>1134.9000244141</ele>
        <time>2012-11-25T12:35:31Z</time>
      </trkpt>
      <trkpt lat="45.59801" lon="5.81399">
        <ele>1137</ele>
        <time>2012-11-25T12:35:43Z</time>
      </trkpt>
      <trkpt lat="45.59813" lon="5.81422">
        <ele>1138.1999511719</ele>
        <time>2012-11-25T12:35:57Z</time>
      </trkpt>
      <trkpt lat="45.59828" lon="5.8144">
        <ele>1141.8000488281</ele>
        <time>2012-11-25T12:36:11Z</time>
      </trkpt>
      <trkpt lat="45.59845" lon="5.81454">
        <ele>1143.1999511719</ele>
        <time>2012-11-25T12:36:24Z</time>
      </trkpt>
      <trkpt lat="45.59862" lon="5.81465">
        <ele>1145.0999755859</ele>
        <time>2012-11-25T12:36:35Z</time>
      </trkpt>
      <trkpt lat="45.5988" lon="5.81479">
        <ele>1146.5</ele>
        <time>2012-11-25T12:36:46Z</time>
      </trkpt>
      <trkpt lat="45.59899" lon="5.81492">
        <ele>1145.9000244141</ele>
        <time>2012-11-25T12:36:57Z</time>
      </trkpt>
      <trkpt lat="45.59908" lon="5.81497">
        <ele>1146</ele>
        <time>2012-11-25T12:37:03Z</time>
      </trkpt>
      <trkpt lat="45.59918" lon="5.81502">
        <ele>1146.4000244141</ele>
        <time>2012-11-25T12:37:09Z</time>
      </trkpt>
      <trkpt lat="45.59936" lon="5.8151">
        <ele>1147.6999511719</ele>
        <time>2012-11-25T12:37:21Z</time>
      </trkpt>
      <trkpt lat="45.59955" lon="5.81518">
        <ele>1150</ele>
        <time>2012-11-25T12:37:34Z</time>
      </trkpt>
      <trkpt lat="45.59971" lon="5.81533">
        <ele>1150.1999511719</ele>
        <time>2012-11-25T12:37:46Z</time>
      </trkpt>
      <trkpt lat="45.59977" lon="5.81543">
        <ele>1150.6999511719</ele>
        <time>2012-11-25T12:37:53Z</time>
      </trkpt>
      <trkpt lat="45.59983" lon="5.81555">
        <ele>1150.5</ele>
        <time>2012-11-25T12:38:01Z</time>
      </trkpt>
      <trkpt lat="45.59997" lon="5.81576">
        <ele>1151.0999755859</ele>
        <time>2012-11-25T12:38:14Z</time>
      </trkpt>
      <trkpt lat="45.60011" lon="5.81595">
        <ele>1153.1999511719</ele>
        <time>2012-11-25T12:38:29Z</time>
      </trkpt>
      <trkpt lat="45.60027" lon="5.8161">
        <ele>1156.0999755859</ele>
        <time>2012-11-25T12:38:44Z</time>
      </trkpt>
      <trkpt lat="45.60043" lon="5.81624">
        <ele>1158.1999511719</ele>
        <time>2012-11-25T12:38:57Z</time>
      </trkpt>
      <trkpt lat="45.60061" lon="5.81637">
        <ele>1161</ele>
        <time>2012-11-25T12:39:12Z</time>
      </trkpt>
      <trkpt lat="45.6008" lon="5.81642">
        <ele>1162.1999511719</ele>
        <time>2012-11-25T12:39:26Z</time>
      </trkpt>
      <trkpt lat="45.60092" lon="5.81621">
        <ele>1163</ele>
        <time>2012-11-25T12:39:34Z</time>
      </trkpt>
      <trkpt lat="45.601" lon="5.81594">
        <ele>1164.8000488281</ele>
        <time>2012-11-25T12:39:44Z</time>
      </trkpt>
      <trkpt lat="45.60105" lon="5.81568">
        <ele>1167.4000244141</ele>
        <time>2012-11-25T12:39:58Z</time>
      </trkpt>
      <trkpt lat="45.60106" lon="5.81541">
        <ele>1170.3000488281</ele>
        <time>2012-11-25T12:40:13Z</time>
      </trkpt>
      <trkpt lat="45.60102" lon="5.81514">
        <ele>1175.5</ele>
        <time>2012-11-25T12:40:29Z</time>
      </trkpt>
      <trkpt lat="45.60098" lon="5.81487">
        <ele>1177.0999755859</ele>
        <time>2012-11-25T12:40:42Z</time>
      </trkpt>
      <trkpt lat="45.60097" lon="5.81459">
        <ele>1178.5999755859</ele>
        <time>2012-11-25T12:40:55Z</time>
      </trkpt>
      <trkpt lat="45.60102" lon="5.81433">
        <ele>1181.8000488281</ele>
        <time>2012-11-25T12:41:08Z</time>
      </trkpt>
      <trkpt lat="45.60104" lon="5.81407">
        <ele>1183</ele>
        <time>2012-11-25T12:41:22Z</time>
      </trkpt>
      <trkpt lat="45.60107" lon="5.8138">
        <ele>1183.6999511719</ele>
        <time>2012-11-25T12:41:36Z</time>
      </trkpt>
      <trkpt lat="45.60111" lon="5.81351">
        <ele>1187.4000244141</ele>
        <time>2012-11-25T12:41:50Z</time>
      </trkpt>
      <trkpt lat="45.60114" lon="5.81323">
        <ele>1189.3000488281</ele>
        <time>2012-11-25T12:42:04Z</time>
      </trkpt>
      <trkpt lat="45.60119" lon="5.81296">
        <ele>1191.5999755859</ele>
        <time>2012-11-25T12:42:18Z</time>
      </trkpt>
      <trkpt lat="45.60121" lon="5.81284">
        <ele>1192.0999755859</ele>
        <time>2012-11-25T12:42:25Z</time>
      </trkpt>
      <trkpt lat="45.6012" lon="5.81255">
        <ele>1193.4000244141</ele>
        <time>2012-11-25T12:42:40Z</time>
      </trkpt>
      <trkpt lat="45.60111" lon="5.81229">
        <ele>1192.4000244141</ele>
        <time>2012-11-25T12:42:54Z</time>
      </trkpt>
      <trkpt lat="45.60105" lon="5.81215">
        <ele>1191.0999755859</ele>
        <time>2012-11-25T12:43:01Z</time>
      </trkpt>
      <trkpt lat="45.60093" lon="5.81191">
        <ele>1187.3000488281</ele>
        <time>2012-11-25T12:43:07Z</time>
      </trkpt>
      <trkpt lat="45.60082" lon="5.81166">
        <ele>1187.3000488281</ele>
        <time>2012-11-25T12:43:14Z</time>
      </trkpt>
      <trkpt lat="45.60074" lon="5.81141">
        <ele>1187.6999511719</ele>
        <time>2012-11-25T12:43:26Z</time>
      </trkpt>
      <trkpt lat="45.60067" lon="5.81116">
        <ele>1190.0999755859</ele>
        <time>2012-11-25T12:43:39Z</time>
      </trkpt>
      <trkpt lat="45.60064" lon="5.81102">
        <ele>1191.9000244141</ele>
        <time>2012-11-25T12:43:46Z</time>
      </trkpt>
      <trkpt lat="45.60059" lon="5.81075">
        <ele>1192.5</ele>
        <time>2012-11-25T12:44:00Z</time>
      </trkpt>
      <trkpt lat="45.60064" lon="5.81048">
        <ele>1194</ele>
        <time>2012-11-25T12:44:14Z</time>
      </trkpt>
      <trkpt lat="45.60076" lon="5.81028">
        <ele>1193.6999511719</ele>
        <time>2012-11-25T12:44:27Z</time>
      </trkpt>
      <trkpt lat="45.6009" lon="5.81009">
        <ele>1193.6999511719</ele>
        <time>2012-11-25T12:44:41Z</time>
      </trkpt>
      <trkpt lat="45.60116" lon="5.8099">
        <ele>1195.5999755859</ele>
        <time>2012-11-25T12:45:03Z</time>
      </trkpt>
      <trkpt lat="45.60142" lon="5.8097">
        <ele>1196.6999511719</ele>
        <time>2012-11-25T12:45:23Z</time>
      </trkpt>
      <trkpt lat="45.60157" lon="5.80953">
        <ele>1198.5999755859</ele>
        <time>2012-11-25T12:45:36Z</time>
      </trkpt>
      <trkpt lat="45.60168" lon="5.8093">
        <ele>1198.0999755859</ele>
        <time>2012-11-25T12:45:49Z</time>
      </trkpt>
      <trkpt lat="45.60177" lon="5.80905">
        <ele>1198.5999755859</ele>
        <time>2012-11-25T12:46:03Z</time>
      </trkpt>
      <trkpt lat="45.60184" lon="5.80865">
        <ele>1205.0999755859</ele>
        <time>2012-11-25T12:46:20Z</time>
      </trkpt>
      <trkpt lat="45.60201" lon="5.80832">
        <ele>1208.3000488281</ele>
        <time>2012-11-25T12:46:39Z</time>
      </trkpt>
      <trkpt lat="45.6022" lon="5.80802">
        <ele>1207</ele>
        <time>2012-11-25T12:47:00Z</time>
      </trkpt>
      <trkpt lat="45.60232" lon="5.8078">
        <ele>1206.0999755859</ele>
        <time>2012-11-25T12:47:13Z</time>
      </trkpt>
      <trkpt lat="45.60253" lon="5.80753">
        <ele>1204.3000488281</ele>
        <time>2012-11-25T12:47:32Z</time>
      </trkpt>
      <trkpt lat="45.6027" lon="5.80743">
        <ele>1203.8000488281</ele>
        <time>2012-11-25T12:47:44Z</time>
      </trkpt>
      <trkpt lat="45.60289" lon="5.80736">
        <ele>1202.4000244141</ele>
        <time>2012-11-25T12:47:56Z</time>
      </trkpt>
      <trkpt lat="45.60307" lon="5.80728">
        <ele>1201.3000488281</ele>
        <time>2012-11-25T12:48:08Z</time>
      </trkpt>
      <trkpt lat="45.60322" lon="5.80708">
        <ele>1200.8000488281</ele>
        <time>2012-11-25T12:48:22Z</time>
      </trkpt>
      <trkpt lat="45.60348" lon="5.80694">
        <ele>1202.5</ele>
        <time>2012-11-25T12:48:43Z</time>
      </trkpt>
      <trkpt lat="45.60375" lon="5.80692">
        <ele>1202.9000244141</ele>
        <time>2012-11-25T12:49:02Z</time>
      </trkpt>
      <trkpt lat="45.60394" lon="5.80684">
        <ele>1201.9000244141</ele>
        <time>2012-11-25T12:49:15Z</time>
      </trkpt>
      <trkpt lat="45.60413" lon="5.80674">
        <ele>1201.5</ele>
        <time>2012-11-25T12:49:27Z</time>
      </trkpt>
      <trkpt lat="45.60432" lon="5.80665">
        <ele>1202.0999755859</ele>
        <time>2012-11-25T12:49:41Z</time>
      </trkpt>
      <trkpt lat="45.60451" lon="5.80657">
        <ele>1197.9000244141</ele>
        <time>2012-11-25T12:49:53Z</time>
      </trkpt>
      <trkpt lat="45.6047" lon="5.80655">
        <ele>1195.3000488281</ele>
        <time>2012-11-25T12:50:05Z</time>
      </trkpt>
      <trkpt lat="45.60501" lon="5.80651">
        <ele>1194.1999511719</ele>
        <time>2012-11-25T12:50:17Z</time>
      </trkpt>
      <trkpt lat="45.60519" lon="5.8065">
        <ele>1194.5999755859</ele>
        <time>2012-11-25T12:50:28Z</time>
      </trkpt>
      <trkpt lat="45.60539" lon="5.80647">
        <ele>1191.8000488281</ele>
        <time>2012-11-25T12:50:42Z</time>
      </trkpt>
      <trkpt lat="45.60557" lon="5.80638">
        <ele>1189.3000488281</ele>
        <time>2012-11-25T12:50:56Z</time>
      </trkpt>
      <trkpt lat="45.60585" lon="5.80621">
        <ele>1185.6999511719</ele>
        <time>2012-11-25T12:51:17Z</time>
      </trkpt>
      <trkpt lat="45.60611" lon="5.80604">
        <ele>1184.3000488281</ele>
        <time>2012-11-25T12:51:38Z</time>
      </trkpt>
      <trkpt lat="45.60636" lon="5.80582">
        <ele>1183</ele>
        <time>2012-11-25T12:51:58Z</time>
      </trkpt>
      <trkpt lat="45.60657" lon="5.80554">
        <ele>1180.8000488281</ele>
        <time>2012-11-25T12:52:18Z</time>
      </trkpt>
      <trkpt lat="45.6067" lon="5.80534">
        <ele>1181.1999511719</ele>
        <time>2012-11-25T12:52:29Z</time>
      </trkpt>
      <trkpt lat="45.6068" lon="5.80508">
        <ele>1182.5999755859</ele>
        <time>2012-11-25T12:52:42Z</time>
      </trkpt>
      <trkpt lat="45.60689" lon="5.80485">
        <ele>1184.1999511719</ele>
        <time>2012-11-25T12:52:54Z</time>
      </trkpt>
      <trkpt lat="45.60699" lon="5.8046">
        <ele>1181.8000488281</ele>
        <time>2012-11-25T12:53:08Z</time>
      </trkpt>
      <trkpt lat="45.60714" lon="5.80443">
        <ele>1178</ele>
        <time>2012-11-25T12:53:22Z</time>
      </trkpt>
      <trkpt lat="45.60741" lon="5.80424">
        <ele>1175.1999511719</ele>
        <time>2012-11-25T12:53:43Z</time>
      </trkpt>
      <trkpt lat="45.60759" lon="5.80414">
        <ele>1175.8000488281</ele>
        <time>2012-11-25T12:53:57Z</time>
      </trkpt>
      <trkpt lat="45.60778" lon="5.80404">
        <ele>1177.3000488281</ele>
        <time>2012-11-25T12:54:13Z</time>
      </trkpt>
      <trkpt lat="45.60796" lon="5.80393">
        <ele>1181</ele>
        <time>2012-11-25T12:54:27Z</time>
      </trkpt>
      <trkpt lat="45.60815" lon="5.80383">
        <ele>1183.6999511719</ele>
        <time>2012-11-25T12:54:39Z</time>
      </trkpt>
      <trkpt lat="45.60835" lon="5.80378">
        <ele>1185.6999511719</ele>
        <time>2012-11-25T12:54:53Z</time>
      </trkpt>
      <trkpt lat="45.60864" lon="5.80383">
        <ele>1185</ele>
        <time>2012-11-25T12:55:11Z</time>
      </trkpt>
      <trkpt lat="45.60893" lon="5.80394">
        <ele>1186.1999511719</ele>
        <time>2012-11-25T12:55:31Z</time>
      </trkpt>
      <trkpt lat="45.60922" lon="5.80403">
        <ele>1187</ele>
        <time>2012-11-25T12:55:49Z</time>
      </trkpt>
      <trkpt lat="45.6095" lon="5.80409">
        <ele>1185.5999755859</ele>
        <time>2012-11-25T12:56:09Z</time>
      </trkpt>
      <trkpt lat="45.60969" lon="5.80411">
        <ele>1181.4000244141</ele>
        <time>2012-11-25T12:56:21Z</time>
      </trkpt>
      <trkpt lat="45.60998" lon="5.80408">
        <ele>1178</ele>
        <time>2012-11-25T12:56:43Z</time>
      </trkpt>
      <trkpt lat="45.61025" lon="5.80395">
        <ele>1172.5</ele>
        <time>2012-11-25T12:57:03Z</time>
      </trkpt>
      <trkpt lat="45.61051" lon="5.80371">
        <ele>1166.3000488281</ele>
        <time>2012-11-25T12:57:22Z</time>
      </trkpt>
      <trkpt lat="45.61069" lon="5.8036">
        <ele>1164.9000244141</ele>
        <time>2012-11-25T12:57:34Z</time>
      </trkpt>
      <trkpt lat="45.61085" lon="5.80346">
        <ele>1163.6999511719</ele>
        <time>2012-11-25T12:57:46Z</time>
      </trkpt>
      <trkpt lat="45.61102" lon="5.80336">
        <ele>1160.9000244141</ele>
        <time>2012-11-25T12:57:58Z</time>
      </trkpt>
      <trkpt lat="45.61122" lon="5.8033">
        <ele>1159.4000244141</ele>
        <time>2012-11-25T12:58:12Z</time>
      </trkpt>
      <trkpt lat="45.61142" lon="5.8033">
        <ele>1158.5</ele>
        <time>2012-11-25T12:58:23Z</time>
      </trkpt>
      <trkpt lat="45.6117" lon="5.80328">
        <ele>1158.0999755859</ele>
        <time>2012-11-25T12:58:41Z</time>
      </trkpt>
      <trkpt lat="45.61199" lon="5.8033">
        <ele>1156.1999511719</ele>
        <time>2012-11-25T12:59:01Z</time>
      </trkpt>
      <trkpt lat="45.61226" lon="5.80346">
        <ele>1150.3000488281</ele>
        <time>2012-11-25T12:59:20Z</time>
      </trkpt>
      <trkpt lat="45.61255" lon="5.80345">
        <ele>1148.5</ele>
        <time>2012-11-25T12:59:40Z</time>
      </trkpt>
      <trkpt lat="45.61284" lon="5.80335">
        <ele>1147.3000488281</ele>
        <time>2012-11-25T13:00:02Z</time>
      </trkpt>
      <trkpt lat="45.61301" lon="5.80322">
        <ele>1143.9000244141</ele>
        <time>2012-11-25T13:00:15Z</time>
      </trkpt>
      <trkpt lat="45.61319" lon="5.80311">
        <ele>1141.9000244141</ele>
        <time>2012-11-25T13:00:25Z</time>
      </trkpt>
      <trkpt lat="45.61339" lon="5.80307">
        <ele>1135.9000244141</ele>
        <time>2012-11-25T13:00:36Z</time>
      </trkpt>
      <trkpt lat="45.61358" lon="5.80309">
        <ele>1134.5999755859</ele>
        <time>2012-11-25T13:00:49Z</time>
      </trkpt>
      <trkpt lat="45.61378" lon="5.80316">
        <ele>1134</ele>
        <time>2012-11-25T13:01:03Z</time>
      </trkpt>
      <trkpt lat="45.61396" lon="5.8032">
        <ele>1134.8000488281</ele>
        <time>2012-11-25T13:01:15Z</time>
      </trkpt>
      <trkpt lat="45.61415" lon="5.80323">
        <ele>1132.0999755859</ele>
        <time>2012-11-25T13:01:25Z</time>
      </trkpt>
      <trkpt lat="45.61434" lon="5.80328">
        <ele>1127.9000244141</ele>
        <time>2012-11-25T13:01:37Z</time>
      </trkpt>
      <trkpt lat="45.61463" lon="5.80328">
        <ele>1124.0999755859</ele>
        <time>2012-11-25T13:01:57Z</time>
      </trkpt>
      <trkpt lat="45.61491" lon="5.80333">
        <ele>1121.5</ele>
        <time>2012-11-25T13:02:15Z</time>
      </trkpt>
      <trkpt lat="45.61517" lon="5.80353">
        <ele>1119.0999755859</ele>
        <time>2012-11-25T13:02:33Z</time>
      </trkpt>
      <trkpt lat="45.61533" lon="5.80367">
        <ele>1116.0999755859</ele>
        <time>2012-11-25T13:02:46Z</time>
      </trkpt>
      <trkpt lat="45.61552" lon="5.80379">
        <ele>1113.4000244141</ele>
        <time>2012-11-25T13:02:59Z</time>
      </trkpt>
      <trkpt lat="45.61571" lon="5.80385">
        <ele>1110.9000244141</ele>
        <time>2012-11-25T13:03:11Z</time>
      </trkpt>
      <trkpt lat="45.6158" lon="5.80385">
        <ele>1109.5999755859</ele>
        <time>2012-11-25T13:03:17Z</time>
      </trkpt>
      <trkpt lat="45.61589" lon="5.80382">
        <ele>1105.9000244141</ele>
        <time>2012-11-25T13:03:23Z</time>
      </trkpt>
      <trkpt lat="45.61598" lon="5.80376">
        <ele>1103.5</ele>
        <time>2012-11-25T13:03:29Z</time>
      </trkpt>
      <trkpt lat="45.61611" lon="5.80356">
        <ele>1098.3000488281</ele>
        <time>2012-11-25T13:03:43Z</time>
      </trkpt>
      <trkpt lat="45.61622" lon="5.80331">
        <ele>1083.0999755859</ele>
        <time>2012-11-25T13:08:28Z</time>
      </trkpt>
    </trkseg>
  </trk>
  <trk>
    <name><![CDATA[Parcours 2012-11-25 14:36]]></name>
    <trkseg>
      <trkpt lat="45.61576" lon="5.80288">
        <ele>1081.1999511719</ele>
        <time>2012-11-25T13:37:38Z</time>
      </trkpt>
      <trkpt lat="45.61579" lon="5.80096">
        <ele>1057.5999755859</ele>
        <time>2012-11-25T13:41:31Z</time>
      </trkpt>
      <trkpt lat="45.61574" lon="5.80007">
        <ele>1050.5999755859</ele>
        <time>2012-11-25T13:42:21Z</time>
      </trkpt>
      <trkpt lat="45.61578" lon="5.79973">
        <ele>1041.1999511719</ele>
        <time>2012-11-25T13:42:53Z</time>
      </trkpt>
      <trkpt lat="45.61567" lon="5.79936">
        <ele>1037.4000244141</ele>
        <time>2012-11-25T13:43:18Z</time>
      </trkpt>
      <trkpt lat="45.61551" lon="5.79861">
        <ele>1027</ele>
        <time>2012-11-25T13:44:01Z</time>
      </trkpt>
      <trkpt lat="45.61537" lon="5.79814">
        <ele>1019</ele>
        <time>2012-11-25T13:45:28Z</time>
      </trkpt>
      <trkpt lat="45.61529" lon="5.79766">
        <ele>1002</ele>
        <time>2012-11-25T13:46:30Z</time>
      </trkpt>
      <trkpt lat="45.61528" lon="5.79753">
        <ele>999.80004882812</ele>
        <time>2012-11-25T13:47:04Z</time>
      </trkpt>
      <trkpt lat="45.61499" lon="5.79717">
        <ele>991.09997558594</ele>
        <time>2012-11-25T13:47:22Z</time>
      </trkpt>
      <trkpt lat="45.61473" lon="5.79696">
        <ele>988.5</ele>
        <time>2012-11-25T13:48:47Z</time>
      </trkpt>
      <trkpt lat="45.6139" lon="5.79611">
        <ele>969.19995117188</ele>
        <time>2012-11-25T13:51:19Z</time>
      </trkpt>
      <trkpt lat="45.61313" lon="5.7956">
        <ele>954.5</ele>
        <time>2012-11-25T13:52:31Z</time>
      </trkpt>
      <trkpt lat="45.61273" lon="5.79539">
        <ele>949.80004882812</ele>
        <time>2012-11-25T13:53:09Z</time>
      </trkpt>
      <trkpt lat="45.61236" lon="5.79498">
        <ele>941.5</ele>
        <time>2012-11-25T13:53:48Z</time>
      </trkpt>
      <trkpt lat="45.61222" lon="5.79466">
        <ele>937.19995117188</ele>
        <time>2012-11-25T13:54:15Z</time>
      </trkpt>
      <trkpt lat="45.61198" lon="5.79448">
        <ele>927.19995117188</ele>
        <time>2012-11-25T13:54:50Z</time>
      </trkpt>
      <trkpt lat="45.61183" lon="5.7943">
        <ele>926.09997558594</ele>
        <time>2012-11-25T13:55:04Z</time>
      </trkpt>
      <trkpt lat="45.61174" lon="5.79405">
        <ele>918.90002441406</ele>
        <time>2012-11-25T13:55:26Z</time>
      </trkpt>
      <trkpt lat="45.61163" lon="5.7937">
        <ele>912</ele>
        <time>2012-11-25T13:55:45Z</time>
      </trkpt>
      <trkpt lat="45.61161" lon="5.79343">
        <ele>902.30004882812</ele>
        <time>2012-11-25T13:56:03Z</time>
      </trkpt>
      <trkpt lat="45.61155" lon="5.79316">
        <ele>898.80004882812</ele>
        <time>2012-11-25T13:56:16Z</time>
      </trkpt>
      <trkpt lat="45.61153" lon="5.79274">
        <ele>892.80004882812</ele>
        <time>2012-11-25T13:56:42Z</time>
      </trkpt>
      <trkpt lat="45.61149" lon="5.79247">
        <ele>890.5</ele>
        <time>2012-11-25T13:57:00Z</time>
      </trkpt>
      <trkpt lat="45.61147" lon="5.79208">
        <ele>888.30004882812</ele>
        <time>2012-11-25T13:57:32Z</time>
      </trkpt>
      <trkpt lat="45.61149" lon="5.7914">
        <ele>886.19995117188</ele>
        <time>2012-11-25T13:58:13Z</time>
      </trkpt>
      <trkpt lat="45.61155" lon="5.79088">
        <ele>883</ele>
        <time>2012-11-25T13:58:44Z</time>
      </trkpt>
      <trkpt lat="45.61147" lon="5.79049">
        <ele>884.19995117188</ele>
        <time>2012-11-25T13:59:09Z</time>
      </trkpt>
      <trkpt lat="45.61056" lon="5.78778">
        <ele>844.69995117188</ele>
        <time>2012-11-25T14:02:40Z</time>
      </trkpt>
      <trkpt lat="45.61029" lon="5.78612">
        <ele>805.90002441406</ele>
        <time>2012-11-25T14:04:56Z</time>
      </trkpt>
      <trkpt lat="45.61097" lon="5.78242">
        <ele>745.5</ele>
        <time>2012-11-25T14:09:33Z</time>
      </trkpt>
      <trkpt lat="45.61099" lon="5.78196">
        <ele>727.19995117188</ele>
        <time>2012-11-25T14:13:01Z</time>
      </trkpt>
      <trkpt lat="45.6108" lon="5.7819">
        <ele>726.19995117188</ele>
        <time>2012-11-25T14:13:17Z</time>
      </trkpt>
      <trkpt lat="45.61066" lon="5.78173">
        <ele>725.90002441406</ele>
        <time>2012-11-25T14:13:29Z</time>
      </trkpt>
      <trkpt lat="45.6105" lon="5.78155">
        <ele>724.80004882812</ele>
        <time>2012-11-25T14:13:41Z</time>
      </trkpt>
      <trkpt lat="45.61044" lon="5.78126">
        <ele>717.5</ele>
        <time>2012-11-25T14:13:54Z</time>
      </trkpt>
      <trkpt lat="45.61035" lon="5.78104">
        <ele>713.59997558594</ele>
        <time>2012-11-25T14:14:06Z</time>
      </trkpt>
      <trkpt lat="45.61023" lon="5.78081">
        <ele>711.09997558594</ele>
        <time>2012-11-25T14:14:19Z</time>
      </trkpt>
      <trkpt lat="45.61014" lon="5.78055">
        <ele>708.30004882812</ele>
        <time>2012-11-25T14:14:29Z</time>
      </trkpt>
      <trkpt lat="45.60996" lon="5.78021">
        <ele>705.90002441406</ele>
        <time>2012-11-25T14:14:45Z</time>
      </trkpt>
      <trkpt lat="45.60981" lon="5.78004">
        <ele>703.19995117188</ele>
        <time>2012-11-25T14:14:59Z</time>
      </trkpt>
      <trkpt lat="45.6096" lon="5.77974">
        <ele>699.40002441406</ele>
        <time>2012-11-25T14:15:18Z</time>
      </trkpt>
      <trkpt lat="45.60939" lon="5.77949">
        <ele>697.40002441406</ele>
        <time>2012-11-25T14:15:38Z</time>
      </trkpt>
      <trkpt lat="45.60942" lon="5.77922">
        <ele>695.90002441406</ele>
        <time>2012-11-25T14:15:49Z</time>
      </trkpt>
      <trkpt lat="45.60952" lon="5.779">
        <ele>694.5</ele>
        <time>2012-11-25T14:16:00Z</time>
      </trkpt>
      <trkpt lat="45.60968" lon="5.77862">
        <ele>694.69995117188</ele>
        <time>2012-11-25T14:16:20Z</time>
      </trkpt>
      <trkpt lat="45.60984" lon="5.77845">
        <ele>696.80004882812</ele>
        <time>2012-11-25T14:16:29Z</time>
      </trkpt>
      <trkpt lat="45.61005" lon="5.7783">
        <ele>696.09997558594</ele>
        <time>2012-11-25T14:16:37Z</time>
      </trkpt>
      <trkpt lat="45.61023" lon="5.77819">
        <ele>696.40002441406</ele>
        <time>2012-11-25T14:16:44Z</time>
      </trkpt>
      <trkpt lat="45.61041" lon="5.77814">
        <ele>697.40002441406</ele>
        <time>2012-11-25T14:16:55Z</time>
      </trkpt>
      <trkpt lat="45.6106" lon="5.77818">
        <ele>697.69995117188</ele>
        <time>2012-11-25T14:17:07Z</time>
      </trkpt>
      <trkpt lat="45.61077" lon="5.7783">
        <ele>697.69995117188</ele>
        <time>2012-11-25T14:17:20Z</time>
      </trkpt>
      <trkpt lat="45.61096" lon="5.77837">
        <ele>697.59997558594</ele>
        <time>2012-11-25T14:17:32Z</time>
      </trkpt>
      <trkpt lat="45.61115" lon="5.7784">
        <ele>697.59997558594</ele>
        <time>2012-11-25T14:17:45Z</time>
      </trkpt>
      <trkpt lat="45.6112" lon="5.77814">
        <ele>696.90002441406</ele>
        <time>2012-11-25T14:17:59Z</time>
      </trkpt>
      <trkpt lat="45.61121" lon="5.77788">
        <ele>695.09997558594</ele>
        <time>2012-11-25T14:18:11Z</time>
      </trkpt>
      <trkpt lat="45.61121" lon="5.77761">
        <ele>693.40002441406</ele>
        <time>2012-11-25T14:18:25Z</time>
      </trkpt>
      <trkpt lat="45.61123" lon="5.77718">
        <ele>692.59997558594</ele>
        <time>2012-11-25T14:18:43Z</time>
      </trkpt>
      <trkpt lat="45.61123" lon="5.7769">
        <ele>694</ele>
        <time>2012-11-25T14:18:57Z</time>
      </trkpt>
      <trkpt lat="45.61111" lon="5.77652">
        <ele>693.90002441406</ele>
        <time>2012-11-25T14:19:18Z</time>
      </trkpt>
      <trkpt lat="45.61101" lon="5.7763">
        <ele>694.59997558594</ele>
        <time>2012-11-25T14:19:40Z</time>
      </trkpt>
      <trkpt lat="45.61092" lon="5.77606">
        <ele>694.80004882812</ele>
        <time>2012-11-25T14:19:46Z</time>
      </trkpt>
      <trkpt lat="45.61086" lon="5.77562">
        <ele>694</ele>
        <time>2012-11-25T14:19:52Z</time>
      </trkpt>
      <trkpt lat="45.61083" lon="5.77532">
        <ele>693.09997558594</ele>
        <time>2012-11-25T14:19:56Z</time>
      </trkpt>
      <trkpt lat="45.61077" lon="5.77504">
        <ele>692.40002441406</ele>
        <time>2012-11-25T14:20:00Z</time>
      </trkpt>
      <trkpt lat="45.61069" lon="5.77474">
        <ele>692.09997558594</ele>
        <time>2012-11-25T14:20:05Z</time>
      </trkpt>
      <trkpt lat="45.61061" lon="5.7745">
        <ele>691.5</ele>
        <time>2012-11-25T14:20:20Z</time>
      </trkpt>
      <trkpt lat="45.61057" lon="5.77439">
        <ele>691</ele>
        <time>2012-11-25T14:21:36Z</time>
      </trkpt>
      <trkpt lat="45.61053" lon="5.77411">
        <ele>689.69995117188</ele>
        <time>2012-11-25T14:23:24Z</time>
      </trkpt>
      <trkpt lat="45.6107" lon="5.77394">
        <ele>691.09997558594</ele>
        <time>2012-11-25T14:23:36Z</time>
      </trkpt>
      <trkpt lat="45.6109" lon="5.77383">
        <ele>692.09997558594</ele>
        <time>2012-11-25T14:23:42Z</time>
      </trkpt>
      <trkpt lat="45.61112" lon="5.77373">
        <ele>692.09997558594</ele>
        <time>2012-11-25T14:23:48Z</time>
      </trkpt>
      <trkpt lat="45.6113" lon="5.77368">
        <ele>691.80004882812</ele>
        <time>2012-11-25T14:23:57Z</time>
      </trkpt>
      <trkpt lat="45.61144" lon="5.77352">
        <ele>691</ele>
        <time>2012-11-25T14:24:11Z</time>
      </trkpt>
      <trkpt lat="45.61158" lon="5.77332">
        <ele>690.40002441406</ele>
        <time>2012-11-25T14:24:24Z</time>
      </trkpt>
      <trkpt lat="45.61173" lon="5.77315">
        <ele>687.59997558594</ele>
        <time>2012-11-25T14:24:37Z</time>
      </trkpt>
      <trkpt lat="45.61183" lon="5.77291">
        <ele>682.5</ele>
        <time>2012-11-25T14:24:52Z</time>
      </trkpt>
      <trkpt lat="45.61192" lon="5.77267">
        <ele>678.80004882812</ele>
        <time>2012-11-25T14:25:07Z</time>
      </trkpt>
      <trkpt lat="45.61204" lon="5.77246">
        <ele>677.5</ele>
        <time>2012-11-25T14:25:19Z</time>
      </trkpt>
      <trkpt lat="45.61213" lon="5.77222">
        <ele>674.5</ele>
        <time>2012-11-25T14:25:34Z</time>
      </trkpt>
      <trkpt lat="45.61219" lon="5.77196">
        <ele>673.09997558594</ele>
        <time>2012-11-25T14:25:48Z</time>
      </trkpt>
      <trkpt lat="45.61223" lon="5.7717">
        <ele>672.19995117188</ele>
        <time>2012-11-25T14:26:03Z</time>
      </trkpt>
      <trkpt lat="45.61222" lon="5.77143">
        <ele>673.19995117188</ele>
        <time>2012-11-25T14:26:16Z</time>
      </trkpt>
      <trkpt lat="45.61211" lon="5.77119">
        <ele>671.80004882812</ele>
        <time>2012-11-25T14:26:33Z</time>
      </trkpt>
      <trkpt lat="45.61219" lon="5.77087">
        <ele>668.5</ele>
        <time>2012-11-25T14:26:53Z</time>
      </trkpt>
      <trkpt lat="45.61239" lon="5.77087">
        <ele>667.59997558594</ele>
        <time>2012-11-25T14:27:06Z</time>
      </trkpt>
      <trkpt lat="45.61258" lon="5.7709">
        <ele>668.80004882812</ele>
        <time>2012-11-25T14:27:18Z</time>
      </trkpt>
      <trkpt lat="45.61276" lon="5.77103">
        <ele>667.59997558594</ele>
        <time>2012-11-25T14:27:31Z</time>
      </trkpt>
      <trkpt lat="45.61292" lon="5.7712">
        <ele>665</ele>
        <time>2012-11-25T14:27:45Z</time>
      </trkpt>
      <trkpt lat="45.61301" lon="5.77127">
        <ele>664</ele>
        <time>2012-11-25T14:27:52Z</time>
      </trkpt>
      <trkpt lat="45.61311" lon="5.77129">
        <ele>663</ele>
        <time>2012-11-25T14:27:59Z</time>
      </trkpt>
      <trkpt lat="45.6132" lon="5.77114">
        <ele>658.80004882812</ele>
        <time>2012-11-25T14:28:15Z</time>
      </trkpt>
      <trkpt lat="45.6132" lon="5.77085">
        <ele>656.40002441406</ele>
        <time>2012-11-25T14:28:29Z</time>
      </trkpt>
      <trkpt lat="45.61321" lon="5.77072">
        <ele>656.09997558594</ele>
        <time>2012-11-25T14:28:35Z</time>
      </trkpt>
      <trkpt lat="45.61324" lon="5.77042">
        <ele>655.09997558594</ele>
        <time>2012-11-25T14:28:49Z</time>
      </trkpt>
      <trkpt lat="45.61333" lon="5.77019">
        <ele>654.19995117188</ele>
        <time>2012-11-25T14:29:00Z</time>
      </trkpt>
      <trkpt lat="45.61334" lon="5.76994">
        <ele>649.30004882812</ele>
        <time>2012-11-25T14:29:14Z</time>
      </trkpt>
      <trkpt lat="45.61318" lon="5.76977">
        <ele>645.90002441406</ele>
        <time>2012-11-25T14:29:28Z</time>
      </trkpt>
      <trkpt lat="45.61304" lon="5.7696">
        <ele>642.90002441406</ele>
        <time>2012-11-25T14:29:41Z</time>
      </trkpt>
      <trkpt lat="45.61289" lon="5.76942">
        <ele>641.40002441406</ele>
        <time>2012-11-25T14:29:54Z</time>
      </trkpt>
      <trkpt lat="45.61274" lon="5.76922">
        <ele>637.90002441406</ele>
        <time>2012-11-25T14:30:09Z</time>
      </trkpt>
      <trkpt lat="45.61252" lon="5.76892">
        <ele>636</ele>
        <time>2012-11-25T14:30:29Z</time>
      </trkpt>
      <trkpt lat="45.61247" lon="5.76865">
        <ele>635.30004882812</ele>
        <time>2012-11-25T14:30:40Z</time>
      </trkpt>
      <trkpt lat="45.61251" lon="5.76838">
        <ele>633.90002441406</ele>
        <time>2012-11-25T14:30:51Z</time>
      </trkpt>
      <trkpt lat="45.6126" lon="5.76812">
        <ele>632.09997558594</ele>
        <time>2012-11-25T14:31:03Z</time>
      </trkpt>
      <trkpt lat="45.61268" lon="5.76788">
        <ele>630.40002441406</ele>
        <time>2012-11-25T14:31:15Z</time>
      </trkpt>
      <trkpt lat="45.61277" lon="5.76763">
        <ele>627.90002441406</ele>
        <time>2012-11-25T14:31:28Z</time>
      </trkpt>
      <trkpt lat="45.61278" lon="5.76751">
        <ele>627.19995117188</ele>
        <time>2012-11-25T14:31:34Z</time>
      </trkpt>
      <trkpt lat="45.61276" lon="5.76737">
        <ele>626.59997558594</ele>
        <time>2012-11-25T14:31:41Z</time>
      </trkpt>
      <trkpt lat="45.6127" lon="5.76726">
        <ele>624.90002441406</ele>
        <time>2012-11-25T14:31:48Z</time>
      </trkpt>
      <trkpt lat="45.61255" lon="5.76708">
        <ele>622.80004882812</ele>
        <time>2012-11-25T14:32:02Z</time>
      </trkpt>
      <trkpt lat="45.6124" lon="5.7669">
        <ele>621.5</ele>
        <time>2012-11-25T14:32:14Z</time>
      </trkpt>
      <trkpt lat="45.61225" lon="5.76671">
        <ele>619.59997558594</ele>
        <time>2012-11-25T14:32:28Z</time>
      </trkpt>
      <trkpt lat="45.61211" lon="5.76653">
        <ele>618.5</ele>
        <time>2012-11-25T14:32:40Z</time>
      </trkpt>
      <trkpt lat="45.612" lon="5.7663">
        <ele>616.30004882812</ele>
        <time>2012-11-25T14:32:54Z</time>
      </trkpt>
      <trkpt lat="45.61196" lon="5.76603">
        <ele>614.69995117188</ele>
        <time>2012-11-25T14:33:06Z</time>
      </trkpt>
      <trkpt lat="45.61199" lon="5.76577">
        <ele>612.90002441406</ele>
        <time>2012-11-25T14:33:19Z</time>
      </trkpt>
      <trkpt lat="45.612" lon="5.76564">
        <ele>612.09997558594</ele>
        <time>2012-11-25T14:33:28Z</time>
      </trkpt>
      <trkpt lat="45.61197" lon="5.76536">
        <ele>611.90002441406</ele>
        <time>2012-11-25T14:33:48Z</time>
      </trkpt>
      <trkpt lat="45.61194" lon="5.76523">
        <ele>611.5</ele>
        <time>2012-11-25T14:33:56Z</time>
      </trkpt>
      <trkpt lat="45.61175" lon="5.76524">
        <ele>609.80004882812</ele>
        <time>2012-11-25T14:34:10Z</time>
      </trkpt>
      <trkpt lat="45.61155" lon="5.7653">
        <ele>610.09997558594</ele>
        <time>2012-11-25T14:34:22Z</time>
      </trkpt>
      <trkpt lat="45.61136" lon="5.76536">
        <ele>610.80004882812</ele>
        <time>2012-11-25T14:34:34Z</time>
      </trkpt>
      <trkpt lat="45.61117" lon="5.76544">
        <ele>610.59997558594</ele>
        <time>2012-11-25T14:34:46Z</time>
      </trkpt>
      <trkpt lat="45.61099" lon="5.76545">
        <ele>609.69995117188</ele>
        <time>2012-11-25T14:35:17Z</time>
      </trkpt>
      <trkpt lat="45.61097" lon="5.76532">
        <ele>608.19995117188</ele>
        <time>2012-11-25T14:35:23Z</time>
      </trkpt>
      <trkpt lat="45.61095" lon="5.76505">
        <ele>607.30004882812</ele>
        <time>2012-11-25T14:35:36Z</time>
      </trkpt>
      <trkpt lat="45.61093" lon="5.76479">
        <ele>606.40002441406</ele>
        <time>2012-11-25T14:35:49Z</time>
      </trkpt>
      <trkpt lat="45.61094" lon="5.76453">
        <ele>603.59997558594</ele>
        <time>2012-11-25T14:36:01Z</time>
      </trkpt>
      <trkpt lat="45.61093" lon="5.76426">
        <ele>601.40002441406</ele>
        <time>2012-11-25T14:36:13Z</time>
      </trkpt>
      <trkpt lat="45.61091" lon="5.76412">
        <ele>600.5</ele>
        <time>2012-11-25T14:36:19Z</time>
      </trkpt>
      <trkpt lat="45.6109" lon="5.76397">
        <ele>598.19995117188</ele>
        <time>2012-11-25T14:36:26Z</time>
      </trkpt>
      <trkpt lat="45.61088" lon="5.76382">
        <ele>596.59997558594</ele>
        <time>2012-11-25T14:36:33Z</time>
      </trkpt>
      <trkpt lat="45.61086" lon="5.76369">
        <ele>595.30004882812</ele>
        <time>2012-11-25T14:36:40Z</time>
      </trkpt>
      <trkpt lat="45.61082" lon="5.76355">
        <ele>594.30004882812</ele>
        <time>2012-11-25T14:36:46Z</time>
      </trkpt>
      <trkpt lat="45.6108" lon="5.76341">
        <ele>591.90002441406</ele>
        <time>2012-11-25T14:36:56Z</time>
      </trkpt>
      <trkpt lat="45.61077" lon="5.76328">
        <ele>589.40002441406</ele>
        <time>2012-11-25T14:37:02Z</time>
      </trkpt>
      <trkpt lat="45.61075" lon="5.76315">
        <ele>587.59997558594</ele>
        <time>2012-11-25T14:37:08Z</time>
      </trkpt>
      <trkpt lat="45.61073" lon="5.76302">
        <ele>586.30004882812</ele>
        <time>2012-11-25T14:37:14Z</time>
      </trkpt>
      <trkpt lat="45.61069" lon="5.76277">
        <ele>582.5</ele>
        <time>2012-11-25T14:37:26Z</time>
      </trkpt>
      <trkpt lat="45.61067" lon="5.76264">
        <ele>580.59997558594</ele>
        <time>2012-11-25T14:37:32Z</time>
      </trkpt>
      <trkpt lat="45.61064" lon="5.76251">
        <ele>579.40002441406</ele>
        <time>2012-11-25T14:37:38Z</time>
      </trkpt>
      <trkpt lat="45.61063" lon="5.76238">
        <ele>578</ele>
        <time>2012-11-25T14:37:44Z</time>
      </trkpt>
      <trkpt lat="45.61062" lon="5.76224">
        <ele>576.80004882812</ele>
        <time>2012-11-25T14:37:50Z</time>
      </trkpt>
      <trkpt lat="45.6106" lon="5.76197">
        <ele>574.19995117188</ele>
        <time>2012-11-25T14:38:03Z</time>
      </trkpt>
      <trkpt lat="45.61059" lon="5.76183">
        <ele>572.09997558594</ele>
        <time>2012-11-25T14:38:11Z</time>
      </trkpt>
      <trkpt lat="45.61057" lon="5.76169">
        <ele>570.90002441406</ele>
        <time>2012-11-25T14:38:18Z</time>
      </trkpt>
      <trkpt lat="45.61056" lon="5.76156">
        <ele>569.90002441406</ele>
        <time>2012-11-25T14:38:25Z</time>
      </trkpt>
      <trkpt lat="45.61054" lon="5.76141">
        <ele>569.80004882812</ele>
        <time>2012-11-25T14:38:32Z</time>
      </trkpt>
      <trkpt lat="45.61051" lon="5.76128">
        <ele>570</ele>
        <time>2012-11-25T14:38:38Z</time>
      </trkpt>
      <trkpt lat="45.61048" lon="5.76115">
        <ele>568.59997558594</ele>
        <time>2012-11-25T14:38:45Z</time>
      </trkpt>
      <trkpt lat="45.61046" lon="5.76101">
        <ele>567.69995117188</ele>
        <time>2012-11-25T14:38:52Z</time>
      </trkpt>
      <trkpt lat="45.61044" lon="5.76088">
        <ele>567.40002441406</ele>
        <time>2012-11-25T14:38:59Z</time>
      </trkpt>
      <trkpt lat="45.61042" lon="5.76075">
        <ele>566.30004882812</ele>
        <time>2012-11-25T14:39:06Z</time>
      </trkpt>
      <trkpt lat="45.61043" lon="5.76061">
        <ele>565.09997558594</ele>
        <time>2012-11-25T14:39:13Z</time>
      </trkpt>
      <trkpt lat="45.61042" lon="5.76047">
        <ele>564.30004882812</ele>
        <time>2012-11-25T14:39:20Z</time>
      </trkpt>
      <trkpt lat="45.61039" lon="5.76034">
        <ele>563.30004882812</ele>
        <time>2012-11-25T14:39:27Z</time>
      </trkpt>
      <trkpt lat="45.61036" lon="5.76022">
        <ele>562.40002441406</ele>
        <time>2012-11-25T14:39:33Z</time>
      </trkpt>
      <trkpt lat="45.61034" lon="5.76008">
        <ele>561.5</ele>
        <time>2012-11-25T14:39:40Z</time>
      </trkpt>
      <trkpt lat="45.61029" lon="5.75981">
        <ele>560.30004882812</ele>
        <time>2012-11-25T14:39:53Z</time>
      </trkpt>
      <trkpt lat="45.61022" lon="5.75955">
        <ele>559.80004882812</ele>
        <time>2012-11-25T14:40:06Z</time>
      </trkpt>
      <trkpt lat="45.61018" lon="5.75941">
        <ele>558.40002441406</ele>
        <time>2012-11-25T14:40:13Z</time>
      </trkpt>
      <trkpt lat="45.61008" lon="5.75917">
        <ele>557.30004882812</ele>
        <time>2012-11-25T14:40:26Z</time>
      </trkpt>
      <trkpt lat="45.60997" lon="5.7589">
        <ele>556</ele>
        <time>2012-11-25T14:40:36Z</time>
      </trkpt>
      <trkpt lat="45.60986" lon="5.75868">
        <ele>555.90002441406</ele>
        <time>2012-11-25T14:40:42Z</time>
      </trkpt>
      <trkpt lat="45.60973" lon="5.75845">
        <ele>555.90002441406</ele>
        <time>2012-11-25T14:40:52Z</time>
      </trkpt>
      <trkpt lat="45.60962" lon="5.75823">
        <ele>556.69995117188</ele>
        <time>2012-11-25T14:41:05Z</time>
      </trkpt>
      <trkpt lat="45.60952" lon="5.75801">
        <ele>553.69995117188</ele>
        <time>2012-11-25T14:41:19Z</time>
      </trkpt>
      <trkpt lat="45.60943" lon="5.75779">
        <ele>554.40002441406</ele>
        <time>2012-11-25T14:41:31Z</time>
      </trkpt>
      <trkpt lat="45.60936" lon="5.75753">
        <ele>555.40002441406</ele>
        <time>2012-11-25T14:41:43Z</time>
      </trkpt>
      <trkpt lat="45.60932" lon="5.75726">
        <ele>555.19995117188</ele>
        <time>2012-11-25T14:41:56Z</time>
      </trkpt>
      <trkpt lat="45.6093" lon="5.75699">
        <ele>555.09997558594</ele>
        <time>2012-11-25T14:42:09Z</time>
      </trkpt>
      <trkpt lat="45.6093" lon="5.75686">
        <ele>554.90002441406</ele>
        <time>2012-11-25T14:42:15Z</time>
      </trkpt>
      <trkpt lat="45.60928" lon="5.75673">
        <ele>555</ele>
        <time>2012-11-25T14:42:21Z</time>
      </trkpt>
      <trkpt lat="45.60927" lon="5.7566">
        <ele>554.90002441406</ele>
        <time>2012-11-25T14:42:27Z</time>
      </trkpt>
      <trkpt lat="45.60927" lon="5.75647">
        <ele>554.80004882812</ele>
        <time>2012-11-25T14:42:33Z</time>
      </trkpt>
      <trkpt lat="45.60927" lon="5.75633">
        <ele>554.80004882812</ele>
        <time>2012-11-25T14:42:39Z</time>
      </trkpt>
      <trkpt lat="45.60927" lon="5.75619">
        <ele>555.19995117188</ele>
        <time>2012-11-25T14:42:45Z</time>
      </trkpt>
      <trkpt lat="45.60928" lon="5.75607">
        <ele>555.80004882812</ele>
        <time>2012-11-25T14:42:51Z</time>
      </trkpt>
      <trkpt lat="45.60928" lon="5.75593">
        <ele>557.30004882812</ele>
        <time>2012-11-25T14:42:57Z</time>
      </trkpt>
      <trkpt lat="45.6093" lon="5.7558">
        <ele>557.59997558594</ele>
        <time>2012-11-25T14:43:03Z</time>
      </trkpt>
      <trkpt lat="45.60931" lon="5.75567">
        <ele>558.19995117188</ele>
        <time>2012-11-25T14:43:09Z</time>
      </trkpt>
      <trkpt lat="45.60932" lon="5.75554">
        <ele>559.09997558594</ele>
        <time>2012-11-25T14:43:15Z</time>
      </trkpt>
      <trkpt lat="45.60932" lon="5.75541">
        <ele>559.69995117188</ele>
        <time>2012-11-25T14:43:21Z</time>
      </trkpt>
      <trkpt lat="45.60933" lon="5.75528">
        <ele>560.09997558594</ele>
        <time>2012-11-25T14:43:27Z</time>
      </trkpt>
      <trkpt lat="45.60932" lon="5.75515">
        <ele>560.90002441406</ele>
        <time>2012-11-25T14:43:33Z</time>
      </trkpt>
      <trkpt lat="45.60931" lon="5.75501">
        <ele>561.80004882812</ele>
        <time>2012-11-25T14:43:39Z</time>
      </trkpt>
      <trkpt lat="45.6093" lon="5.75488">
        <ele>562.30004882812</ele>
        <time>2012-11-25T14:43:45Z</time>
      </trkpt>
      <trkpt lat="45.60929" lon="5.75475">
        <ele>562.69995117188</ele>
        <time>2012-11-25T14:43:51Z</time>
      </trkpt>
      <trkpt lat="45.60928" lon="5.75462">
        <ele>563.30004882812</ele>
        <time>2012-11-25T14:43:57Z</time>
      </trkpt>
      <trkpt lat="45.60928" lon="5.75446">
        <ele>564.40002441406</ele>
        <time>2012-11-25T14:44:04Z</time>
      </trkpt>
      <trkpt lat="45.60927" lon="5.75432">
        <ele>565.09997558594</ele>
        <time>2012-11-25T14:44:11Z</time>
      </trkpt>
      <trkpt lat="45.60925" lon="5.75404">
        <ele>567.09997558594</ele>
        <time>2012-11-25T14:44:24Z</time>
      </trkpt>
      <trkpt lat="45.60923" lon="5.75391">
        <ele>568.30004882812</ele>
        <time>2012-11-25T14:44:30Z</time>
      </trkpt>
      <trkpt lat="45.60922" lon="5.75376">
        <ele>568.80004882812</ele>
        <time>2012-11-25T14:44:37Z</time>
      </trkpt>
      <trkpt lat="45.60921" lon="5.75363">
        <ele>569.19995117188</ele>
        <time>2012-11-25T14:44:43Z</time>
      </trkpt>
      <trkpt lat="45.60919" lon="5.75349">
        <ele>570.19995117188</ele>
        <time>2012-11-25T14:44:50Z</time>
      </trkpt>
      <trkpt lat="45.60919" lon="5.75335">
        <ele>570.09997558594</ele>
        <time>2012-11-25T14:44:56Z</time>
      </trkpt>
      <trkpt lat="45.6092" lon="5.75308">
        <ele>571.19995117188</ele>
        <time>2012-11-25T14:45:08Z</time>
      </trkpt>
      <trkpt lat="45.60923" lon="5.75281">
        <ele>571.5</ele>
        <time>2012-11-25T14:45:20Z</time>
      </trkpt>
      <trkpt lat="45.60927" lon="5.75255">
        <ele>572.19995117188</ele>
        <time>2012-11-25T14:45:33Z</time>
      </trkpt>
      <trkpt lat="45.60929" lon="5.75242">
        <ele>573</ele>
        <time>2012-11-25T14:45:39Z</time>
      </trkpt>
      <trkpt lat="45.6093" lon="5.75228">
        <ele>574</ele>
        <time>2012-11-25T14:45:45Z</time>
      </trkpt>
      <trkpt lat="45.60931" lon="5.75214">
        <ele>575.59997558594</ele>
        <time>2012-11-25T14:45:51Z</time>
      </trkpt>
      <trkpt lat="45.60932" lon="5.75201">
        <ele>576.90002441406</ele>
        <time>2012-11-25T14:45:57Z</time>
      </trkpt>
      <trkpt lat="45.60935" lon="5.75187">
        <ele>577.30004882812</ele>
        <time>2012-11-25T14:46:05Z</time>
      </trkpt>
      <trkpt lat="45.60937" lon="5.75161">
        <ele>578.80004882812</ele>
        <time>2012-11-25T14:46:18Z</time>
      </trkpt>
      <trkpt lat="45.60937" lon="5.75147">
        <ele>580.5</ele>
        <time>2012-11-25T14:46:24Z</time>
      </trkpt>
      <trkpt lat="45.60936" lon="5.75132">
        <ele>583.19995117188</ele>
        <time>2012-11-25T14:46:30Z</time>
      </trkpt>
      <trkpt lat="45.60935" lon="5.75118">
        <ele>586.30004882812</ele>
        <time>2012-11-25T14:46:35Z</time>
      </trkpt>
      <trkpt lat="45.60931" lon="5.75084">
        <ele>586.19995117188</ele>
        <time>2012-11-25T14:46:46Z</time>
      </trkpt>
      <trkpt lat="45.60934" lon="5.75054">
        <ele>586.80004882812</ele>
        <time>2012-11-25T14:46:50Z</time>
      </trkpt>
      <trkpt lat="45.60936" lon="5.75042">
        <ele>587.09997558594</ele>
        <time>2012-11-25T14:46:52Z</time>
      </trkpt>
      <trkpt lat="45.60939" lon="5.75025">
        <ele>588</ele>
        <time>2012-11-25T14:46:55Z</time>
      </trkpt>
      <trkpt lat="45.60939" lon="5.75012">
        <ele>590.19995117188</ele>
        <time>2012-11-25T14:47:00Z</time>
      </trkpt>
      <trkpt lat="45.60938" lon="5.74998">
        <ele>593.09997558594</ele>
        <time>2012-11-25T14:47:08Z</time>
      </trkpt>
      <trkpt lat="45.60938" lon="5.74985">
        <ele>594.59997558594</ele>
        <time>2012-11-25T14:47:17Z</time>
      </trkpt>
      <trkpt lat="45.60935" lon="5.74955">
        <ele>596.5</ele>
        <time>2012-11-25T14:47:47Z</time>
      </trkpt>
      <trkpt lat="45.60938" lon="5.74928">
        <ele>597.19995117188</ele>
        <time>2012-11-25T14:48:01Z</time>
      </trkpt>
      <trkpt lat="45.60938" lon="5.74914">
        <ele>598.30004882812</ele>
        <time>2012-11-25T14:48:08Z</time>
      </trkpt>
      <trkpt lat="45.60938" lon="5.74901">
        <ele>600</ele>
        <time>2012-11-25T14:48:15Z</time>
      </trkpt>
      <trkpt lat="45.60938" lon="5.74887">
        <ele>601.09997558594</ele>
        <time>2012-11-25T14:48:21Z</time>
      </trkpt>
      <trkpt lat="45.60939" lon="5.74873">
        <ele>601.69995117188</ele>
        <time>2012-11-25T14:48:28Z</time>
      </trkpt>
      <trkpt lat="45.6094" lon="5.74859">
        <ele>601.90002441406</ele>
        <time>2012-11-25T14:48:35Z</time>
      </trkpt>
      <trkpt lat="45.60941" lon="5.74845">
        <ele>602.19995117188</ele>
        <time>2012-11-25T14:48:42Z</time>
      </trkpt>
      <trkpt lat="45.60941" lon="5.74831">
        <ele>602.90002441406</ele>
        <time>2012-11-25T14:48:49Z</time>
      </trkpt>
      <trkpt lat="45.60941" lon="5.74816">
        <ele>603.59997558594</ele>
        <time>2012-11-25T14:48:56Z</time>
      </trkpt>
      <trkpt lat="45.60941" lon="5.74803">
        <ele>605.30004882812</ele>
        <time>2012-11-25T14:49:02Z</time>
      </trkpt>
      <trkpt lat="45.6094" lon="5.7479">
        <ele>606.90002441406</ele>
        <time>2012-11-25T14:49:08Z</time>
      </trkpt>
      <trkpt lat="45.6094" lon="5.74777">
        <ele>607.59997558594</ele>
        <time>2012-11-25T14:49:15Z</time>
      </trkpt>
      <trkpt lat="45.60943" lon="5.74763">
        <ele>608.30004882812</ele>
        <time>2012-11-25T14:49:24Z</time>
      </trkpt>
      <trkpt lat="45.60948" lon="5.74736">
        <ele>609</ele>
        <time>2012-11-25T14:49:39Z</time>
      </trkpt>
      <trkpt lat="45.60948" lon="5.74723">
        <ele>611.90002441406</ele>
        <time>2012-11-25T14:49:44Z</time>
      </trkpt>
      <trkpt lat="45.60948" lon="5.74709">
        <ele>612.5</ele>
        <time>2012-11-25T14:49:50Z</time>
      </trkpt>
      <trkpt lat="45.60948" lon="5.74696">
        <ele>614.19995117188</ele>
        <time>2012-11-25T14:49:56Z</time>
      </trkpt>
      <trkpt lat="45.60949" lon="5.74683">
        <ele>616</ele>
        <time>2012-11-25T14:50:02Z</time>
      </trkpt>
      <trkpt lat="45.6095" lon="5.74669">
        <ele>617.80004882812</ele>
        <time>2012-11-25T14:50:09Z</time>
      </trkpt>
      <trkpt lat="45.6095" lon="5.74656">
        <ele>619.19995117188</ele>
        <time>2012-11-25T14:50:15Z</time>
      </trkpt>
      <trkpt lat="45.60951" lon="5.74641">
        <ele>620</ele>
        <time>2012-11-25T14:50:22Z</time>
      </trkpt>
      <trkpt lat="45.60951" lon="5.74627">
        <ele>620.90002441406</ele>
        <time>2012-11-25T14:50:28Z</time>
      </trkpt>
      <trkpt lat="45.60952" lon="5.746">
        <ele>623.5</ele>
        <time>2012-11-25T14:50:41Z</time>
      </trkpt>
      <trkpt lat="45.60955" lon="5.74587">
        <ele>624.09997558594</ele>
        <time>2012-11-25T14:50:48Z</time>
      </trkpt>
      <trkpt lat="45.60962" lon="5.74579">
        <ele>624.19995117188</ele>
        <time>2012-11-25T14:50:53Z</time>
      </trkpt>
      <trkpt lat="45.60971" lon="5.74583">
        <ele>624.30004882812</ele>
        <time>2012-11-25T14:50:59Z</time>
      </trkpt>
      <trkpt lat="45.60987" lon="5.74596">
        <ele>625.09997558594</ele>
        <time>2012-11-25T14:51:11Z</time>
      </trkpt>
      <trkpt lat="45.60996" lon="5.74604">
        <ele>627.30004882812</ele>
        <time>2012-11-25T14:51:17Z</time>
      </trkpt>
      <trkpt lat="45.61003" lon="5.74615">
        <ele>628.09997558594</ele>
        <time>2012-11-25T14:51:24Z</time>
      </trkpt>
      <trkpt lat="45.61011" lon="5.74623">
        <ele>629.09997558594</ele>
        <time>2012-11-25T14:51:31Z</time>
      </trkpt>
      <trkpt lat="45.61019" lon="5.74632">
        <ele>629.90002441406</ele>
        <time>2012-11-25T14:51:38Z</time>
      </trkpt>
      <trkpt lat="45.61026" lon="5.74642">
        <ele>631.09997558594</ele>
        <time>2012-11-25T14:52:02Z</time>
      </trkpt>
      <trkpt lat="45.61035" lon="5.7465">
        <ele>633.69995117188</ele>
        <time>2012-11-25T14:53:17Z</time>
      </trkpt>
      <trkpt lat="45.61043" lon="5.74656">
        <ele>634.09997558594</ele>
        <time>2012-11-25T14:53:27Z</time>
      </trkpt>
      <trkpt lat="45.61052" lon="5.74663">
        <ele>634.59997558594</ele>
        <time>2012-11-25T14:53:34Z</time>
      </trkpt>
      <trkpt lat="45.6106" lon="5.7467">
        <ele>635.59997558594</ele>
        <time>2012-11-25T14:53:41Z</time>
      </trkpt>
      <trkpt lat="45.61071" lon="5.74673">
        <ele>636.30004882812</ele>
        <time>2012-11-25T14:53:47Z</time>
      </trkpt>
      <trkpt lat="45.6108" lon="5.7467">
        <ele>638.19995117188</ele>
        <time>2012-11-25T14:53:51Z</time>
      </trkpt>
      <trkpt lat="45.61089" lon="5.74664">
        <ele>638.59997558594</ele>
        <time>2012-11-25T14:53:57Z</time>
      </trkpt>
      <trkpt lat="45.61098" lon="5.74657">
        <ele>638.59997558594</ele>
        <time>2012-11-25T14:54:03Z</time>
      </trkpt>
      <trkpt lat="45.61108" lon="5.74654">
        <ele>639.40002441406</ele>
        <time>2012-11-25T14:54:08Z</time>
      </trkpt>
      <trkpt lat="45.61126" lon="5.74647">
        <ele>642</ele>
        <time>2012-11-25T14:54:24Z</time>
      </trkpt>
      <trkpt lat="45.61135" lon="5.74642">
        <ele>642.59997558594</ele>
        <time>2012-11-25T14:54:31Z</time>
      </trkpt>
      <trkpt lat="45.61143" lon="5.74637">
        <ele>643.59997558594</ele>
        <time>2012-11-25T14:54:37Z</time>
      </trkpt>
      <trkpt lat="45.61153" lon="5.74631">
        <ele>646.30004882812</ele>
        <time>2012-11-25T14:54:43Z</time>
      </trkpt>
      <trkpt lat="45.61162" lon="5.74622">
        <ele>647.69995117188</ele>
        <time>2012-11-25T14:54:49Z</time>
      </trkpt>
      <trkpt lat="45.61172" lon="5.74614">
        <ele>648.69995117188</ele>
        <time>2012-11-25T14:54:53Z</time>
      </trkpt>
      <trkpt lat="45.6118" lon="5.74602">
        <ele>649.59997558594</ele>
        <time>2012-11-25T14:54:56Z</time>
      </trkpt>
      <trkpt lat="45.61186" lon="5.7459">
        <ele>651</ele>
        <time>2012-11-25T14:54:58Z</time>
      </trkpt>
      <trkpt lat="45.61192" lon="5.74577">
        <ele>652.40002441406</ele>
        <time>2012-11-25T14:55:00Z</time>
      </trkpt>
      <trkpt lat="45.61197" lon="5.74563">
        <ele>653.80004882812</ele>
        <time>2012-11-25T14:55:02Z</time>
      </trkpt>
      <trkpt lat="45.61202" lon="5.74549">
        <ele>655</ele>
        <time>2012-11-25T14:55:04Z</time>
      </trkpt>
      <trkpt lat="45.61207" lon="5.74535">
        <ele>656.30004882812</ele>
        <time>2012-11-25T14:55:06Z</time>
      </trkpt>
      <trkpt lat="45.61213" lon="5.74519">
        <ele>658</ele>
        <time>2012-11-25T14:55:08Z</time>
      </trkpt>
      <trkpt lat="45.6122" lon="5.74498">
        <ele>660.5</ele>
        <time>2012-11-25T14:55:10Z</time>
      </trkpt>
      <trkpt lat="45.6123" lon="5.74477">
        <ele>663</ele>
        <time>2012-11-25T14:55:12Z</time>
      </trkpt>
      <trkpt lat="45.61241" lon="5.74461">
        <ele>664.40002441406</ele>
        <time>2012-11-25T14:55:14Z</time>
      </trkpt>
      <trkpt lat="45.61268" lon="5.74444">
        <ele>667.80004882812</ele>
        <time>2012-11-25T14:55:18Z</time>
      </trkpt>
      <trkpt lat="45.61293" lon="5.7444">
        <ele>670.09997558594</ele>
        <time>2012-11-25T14:55:22Z</time>
      </trkpt>
      <trkpt lat="45.61313" lon="5.74436">
        <ele>673</ele>
        <time>2012-11-25T14:55:26Z</time>
      </trkpt>
      <trkpt lat="45.61324" lon="5.74433">
        <ele>674.59997558594</ele>
        <time>2012-11-25T14:55:29Z</time>
      </trkpt>
      <trkpt lat="45.61335" lon="5.7443">
        <ele>676.69995117188</ele>
        <time>2012-11-25T14:55:34Z</time>
      </trkpt>
      <trkpt lat="45.61344" lon="5.74425">
        <ele>678.90002441406</ele>
        <time>2012-11-25T14:55:38Z</time>
      </trkpt>
      <trkpt lat="45.61354" lon="5.74417">
        <ele>681</ele>
        <time>2012-11-25T14:55:42Z</time>
      </trkpt>
      <trkpt lat="45.61375" lon="5.74399">
        <ele>682.59997558594</ele>
        <time>2012-11-25T14:55:48Z</time>
      </trkpt>
      <trkpt lat="45.61384" lon="5.7439">
        <ele>683.09997558594</ele>
        <time>2012-11-25T14:55:51Z</time>
      </trkpt>
      <trkpt lat="45.61392" lon="5.74381">
        <ele>683.69995117188</ele>
        <time>2012-11-25T14:55:54Z</time>
      </trkpt>
      <trkpt lat="45.61399" lon="5.7437">
        <ele>684.30004882812</ele>
        <time>2012-11-25T14:55:58Z</time>
      </trkpt>
      <trkpt lat="45.61405" lon="5.74359">
        <ele>684.69995117188</ele>
        <time>2012-11-25T14:56:05Z</time>
      </trkpt>
      <trkpt lat="45.6141" lon="5.74347">
        <ele>683.5</ele>
        <time>2012-11-25T14:56:13Z</time>
      </trkpt>
      <trkpt lat="45.61416" lon="5.74336">
        <ele>682.59997558594</ele>
        <time>2012-11-25T14:56:20Z</time>
      </trkpt>
      <trkpt lat="45.61421" lon="5.74324">
        <ele>681.5</ele>
        <time>2012-11-25T14:56:27Z</time>
      </trkpt>
      <trkpt lat="45.61429" lon="5.74316">
        <ele>680.40002441406</ele>
        <time>2012-11-25T14:56:34Z</time>
      </trkpt>
      <trkpt lat="45.6144" lon="5.74313">
        <ele>679.40002441406</ele>
        <time>2012-11-25T14:56:40Z</time>
      </trkpt>
      <trkpt lat="45.61449" lon="5.74309">
        <ele>678.30004882812</ele>
        <time>2012-11-25T14:56:46Z</time>
      </trkpt>
      <trkpt lat="45.61458" lon="5.74302">
        <ele>677.5</ele>
        <time>2012-11-25T14:56:52Z</time>
      </trkpt>
      <trkpt lat="45.61459" lon="5.74283">
        <ele>676.90002441406</ele>
        <time>2012-11-25T14:56:57Z</time>
      </trkpt>
      <trkpt lat="45.6145" lon="5.74251">
        <ele>676.90002441406</ele>
        <time>2012-11-25T14:57:01Z</time>
      </trkpt>
      <trkpt lat="45.61445" lon="5.74235">
        <ele>676.90002441406</ele>
        <time>2012-11-25T14:57:03Z</time>
      </trkpt>
      <trkpt lat="45.6144" lon="5.7422">
        <ele>677.30004882812</ele>
        <time>2012-11-25T14:57:05Z</time>
      </trkpt>
      <trkpt lat="45.61435" lon="5.74206">
        <ele>677.90002441406</ele>
        <time>2012-11-25T14:57:07Z</time>
      </trkpt>
      <trkpt lat="45.6143" lon="5.74192">
        <ele>678.09997558594</ele>
        <time>2012-11-25T14:57:09Z</time>
      </trkpt>
      <trkpt lat="45.61425" lon="5.74178">
        <ele>678.09997558594</ele>
        <time>2012-11-25T14:57:11Z</time>
      </trkpt>
      <trkpt lat="45.6142" lon="5.74164">
        <ele>678.5</ele>
        <time>2012-11-25T14:57:13Z</time>
      </trkpt>
      <trkpt lat="45.61415" lon="5.7415">
        <ele>678.80004882812</ele>
        <time>2012-11-25T14:57:15Z</time>
      </trkpt>
      <trkpt lat="45.6141" lon="5.74136">
        <ele>678.80004882812</ele>
        <time>2012-11-25T14:57:17Z</time>
      </trkpt>
      <trkpt lat="45.61405" lon="5.74124">
        <ele>679</ele>
        <time>2012-11-25T14:57:19Z</time>
      </trkpt>
      <trkpt lat="45.61394" lon="5.74099">
        <ele>678.90002441406</ele>
        <time>2012-11-25T14:57:23Z</time>
      </trkpt>
      <trkpt lat="45.61388" lon="5.7407">
        <ele>679.19995117188</ele>
        <time>2012-11-25T14:57:27Z</time>
      </trkpt>
      <trkpt lat="45.61397" lon="5.7404">
        <ele>679.40002441406</ele>
        <time>2012-11-25T14:57:31Z</time>
      </trkpt>
      <trkpt lat="45.61413" lon="5.74012">
        <ele>679.40002441406</ele>
        <time>2012-11-25T14:57:35Z</time>
      </trkpt>
      <trkpt lat="45.61425" lon="5.73987">
        <ele>679.19995117188</ele>
        <time>2012-11-25T14:57:39Z</time>
      </trkpt>
      <trkpt lat="45.6144" lon="5.73964">
        <ele>679.40002441406</ele>
        <time>2012-11-25T14:57:44Z</time>
      </trkpt>
      <trkpt lat="45.61445" lon="5.73937">
        <ele>678.19995117188</ele>
        <time>2012-11-25T14:57:54Z</time>
      </trkpt>
      <trkpt lat="45.61445" lon="5.73921">
        <ele>678.5</ele>
        <time>2012-11-25T14:57:59Z</time>
      </trkpt>
      <trkpt lat="45.61443" lon="5.73908">
        <ele>679.19995117188</ele>
        <time>2012-11-25T14:58:04Z</time>
      </trkpt>
      <trkpt lat="45.61439" lon="5.73893">
        <ele>680.30004882812</ele>
        <time>2012-11-25T14:58:09Z</time>
      </trkpt>
      <trkpt lat="45.61435" lon="5.73881">
        <ele>680.80004882812</ele>
        <time>2012-11-25T14:58:15Z</time>
      </trkpt>
      <trkpt lat="45.6143" lon="5.73869">
        <ele>681</ele>
        <time>2012-11-25T14:58:20Z</time>
      </trkpt>
      <trkpt lat="45.61427" lon="5.73856">
        <ele>681.19995117188</ele>
        <time>2012-11-25T14:58:24Z</time>
      </trkpt>
      <trkpt lat="45.61426" lon="5.7384">
        <ele>681.19995117188</ele>
        <time>2012-11-25T14:58:27Z</time>
      </trkpt>
      <trkpt lat="45.61425" lon="5.73824">
        <ele>680.59997558594</ele>
        <time>2012-11-25T14:58:30Z</time>
      </trkpt>
      <trkpt lat="45.61424" lon="5.73808">
        <ele>680.5</ele>
        <time>2012-11-25T14:58:33Z</time>
      </trkpt>
      <trkpt lat="45.61425" lon="5.73793">
        <ele>680.40002441406</ele>
        <time>2012-11-25T14:58:36Z</time>
      </trkpt>
      <trkpt lat="45.6143" lon="5.73778">
        <ele>680.59997558594</ele>
        <time>2012-11-25T14:58:39Z</time>
      </trkpt>
      <trkpt lat="45.61445" lon="5.73759">
        <ele>680.90002441406</ele>
        <time>2012-11-25T14:58:48Z</time>
      </trkpt>
      <trkpt lat="45.61448" lon="5.73746">
        <ele>680.40002441406</ele>
        <time>2012-11-25T14:58:55Z</time>
      </trkpt>
      <trkpt lat="45.61448" lon="5.73731">
        <ele>679.40002441406</ele>
        <time>2012-11-25T14:59:02Z</time>
      </trkpt>
      <trkpt lat="45.61444" lon="5.73719">
        <ele>678.90002441406</ele>
        <time>2012-11-25T14:59:08Z</time>
      </trkpt>
      <trkpt lat="45.6144" lon="5.73707">
        <ele>678</ele>
        <time>2012-11-25T14:59:14Z</time>
      </trkpt>
      <trkpt lat="45.61437" lon="5.73695">
        <ele>678.09997558594</ele>
        <time>2012-11-25T14:59:24Z</time>
      </trkpt>
      <trkpt lat="45.61436" lon="5.73681">
        <ele>677.19995117188</ele>
        <time>2012-11-25T14:59:37Z</time>
      </trkpt>
      <trkpt lat="45.61442" lon="5.7367">
        <ele>677</ele>
        <time>2012-11-25T14:59:44Z</time>
      </trkpt>
      <trkpt lat="45.6145" lon="5.73662">
        <ele>677</ele>
        <time>2012-11-25T14:59:51Z</time>
      </trkpt>
      <trkpt lat="45.61459" lon="5.73655">
        <ele>676</ele>
        <time>2012-11-25T14:59:58Z</time>
      </trkpt>
      <trkpt lat="45.61466" lon="5.73646">
        <ele>676.19995117188</ele>
        <time>2012-11-25T15:00:04Z</time>
      </trkpt>
      <trkpt lat="45.61473" lon="5.73636">
        <ele>675.80004882812</ele>
        <time>2012-11-25T15:00:11Z</time>
      </trkpt>
      <trkpt lat="45.6148" lon="5.73625">
        <ele>675.19995117188</ele>
        <time>2012-11-25T15:00:18Z</time>
      </trkpt>
      <trkpt lat="45.61486" lon="5.73614">
        <ele>674.5</ele>
        <time>2012-11-25T15:00:24Z</time>
      </trkpt>
      <trkpt lat="45.61491" lon="5.73601">
        <ele>674.69995117188</ele>
        <time>2012-11-25T15:00:30Z</time>
      </trkpt>
      <trkpt lat="45.61494" lon="5.73588">
        <ele>673.69995117188</ele>
        <time>2012-11-25T15:00:36Z</time>
      </trkpt>
      <trkpt lat="45.61498" lon="5.73575">
        <ele>673</ele>
        <time>2012-11-25T15:00:42Z</time>
      </trkpt>
      <trkpt lat="45.61502" lon="5.73564">
        <ele>672.30004882812</ele>
        <time>2012-11-25T15:00:48Z</time>
      </trkpt>
      <trkpt lat="45.61507" lon="5.73551">
        <ele>672.30004882812</ele>
        <time>2012-11-25T15:00:54Z</time>
      </trkpt>
      <trkpt lat="45.61512" lon="5.73538">
        <ele>672.30004882812</ele>
        <time>2012-11-25T15:01:00Z</time>
      </trkpt>
      <trkpt lat="45.61517" lon="5.73525">
        <ele>672.59997558594</ele>
        <time>2012-11-25T15:01:05Z</time>
      </trkpt>
      <trkpt lat="45.61521" lon="5.73512">
        <ele>673.69995117188</ele>
        <time>2012-11-25T15:01:10Z</time>
      </trkpt>
      <trkpt lat="45.61531" lon="5.73489">
        <ele>674</ele>
        <time>2012-11-25T15:01:23Z</time>
      </trkpt>
      <trkpt lat="45.61542" lon="5.73466">
        <ele>672.69995117188</ele>
        <time>2012-11-25T15:01:36Z</time>
      </trkpt>
      <trkpt lat="45.61546" lon="5.73452">
        <ele>672.90002441406</ele>
        <time>2012-11-25T15:01:42Z</time>
      </trkpt>
      <trkpt lat="45.61553" lon="5.73426">
        <ele>675.69995117188</ele>
        <time>2012-11-25T15:01:53Z</time>
      </trkpt>
      <trkpt lat="45.61562" lon="5.73401">
        <ele>678</ele>
        <time>2012-11-25T15:02:05Z</time>
      </trkpt>
      <trkpt lat="45.61565" lon="5.73388">
        <ele>680.09997558594</ele>
        <time>2012-11-25T15:02:11Z</time>
      </trkpt>
      <trkpt lat="45.61568" lon="5.73374">
        <ele>682.09997558594</ele>
        <time>2012-11-25T15:02:17Z</time>
      </trkpt>
      <trkpt lat="45.61571" lon="5.7336">
        <ele>684</ele>
        <time>2012-11-25T15:02:23Z</time>
      </trkpt>
      <trkpt lat="45.61575" lon="5.73348">
        <ele>685.5</ele>
        <time>2012-11-25T15:02:29Z</time>
      </trkpt>
      <trkpt lat="45.61582" lon="5.73337">
        <ele>685.5</ele>
        <time>2012-11-25T15:02:45Z</time>
      </trkpt>
      <trkpt lat="45.61638" lon="5.73397">
        <ele>678.5</ele>
        <time>2012-11-25T15:03:03Z</time>
      </trkpt>
      <trkpt lat="45.61665" lon="5.73416">
        <ele>677.90002441406</ele>
        <time>2012-11-25T15:03:20Z</time>
      </trkpt>
      <trkpt lat="45.61691" lon="5.73436">
        <ele>679.59997558594</ele>
        <time>2012-11-25T15:03:40Z</time>
      </trkpt>
      <trkpt lat="45.61708" lon="5.73446">
        <ele>679.5</ele>
        <time>2012-11-25T15:03:53Z</time>
      </trkpt>
      <trkpt lat="45.61727" lon="5.73453">
        <ele>680</ele>
        <time>2012-11-25T15:04:07Z</time>
      </trkpt>
      <trkpt lat="45.61746" lon="5.73454">
        <ele>681.69995117188</ele>
        <time>2012-11-25T15:04:20Z</time>
      </trkpt>
      <trkpt lat="45.61775" lon="5.73447">
        <ele>684.90002441406</ele>
        <time>2012-11-25T15:04:40Z</time>
      </trkpt>
      <trkpt lat="45.61794" lon="5.7344">
        <ele>685.40002441406</ele>
        <time>2012-11-25T15:04:53Z</time>
      </trkpt>
      <trkpt lat="45.61823" lon="5.7343">
        <ele>687.69995117188</ele>
        <time>2012-11-25T15:05:14Z</time>
      </trkpt>
      <trkpt lat="45.61842" lon="5.73424">
        <ele>687.40002441406</ele>
        <time>2012-11-25T15:05:26Z</time>
      </trkpt>
      <trkpt lat="45.61861" lon="5.73417">
        <ele>689</ele>
        <time>2012-11-25T15:05:38Z</time>
      </trkpt>
      <trkpt lat="45.61881" lon="5.73413">
        <ele>691.09997558594</ele>
        <time>2012-11-25T15:05:50Z</time>
      </trkpt>
      <trkpt lat="45.61899" lon="5.73407">
        <ele>694.80004882812</ele>
        <time>2012-11-25T15:06:02Z</time>
      </trkpt>
      <trkpt lat="45.61918" lon="5.73403">
        <ele>696.90002441406</ele>
        <time>2012-11-25T15:06:16Z</time>
      </trkpt>
      <trkpt lat="45.61939" lon="5.73399">
        <ele>698.69995117188</ele>
        <time>2012-11-25T15:06:30Z</time>
      </trkpt>
      <trkpt lat="45.61958" lon="5.73399">
        <ele>700.09997558594</ele>
        <time>2012-11-25T15:06:42Z</time>
      </trkpt>
      <trkpt lat="45.61985" lon="5.7339">
        <ele>702.90002441406</ele>
        <time>2012-11-25T15:06:59Z</time>
      </trkpt>
      <trkpt lat="45.62002" lon="5.73377">
        <ele>705.59997558594</ele>
        <time>2012-11-25T15:07:11Z</time>
      </trkpt>
      <trkpt lat="45.62018" lon="5.73364">
        <ele>707.90002441406</ele>
        <time>2012-11-25T15:07:23Z</time>
      </trkpt>
      <trkpt lat="45.62028" lon="5.73342">
        <ele>711</ele>
        <time>2012-11-25T15:07:35Z</time>
      </trkpt>
      <trkpt lat="45.62033" lon="5.73314">
        <ele>714.09997558594</ele>
        <time>2012-11-25T15:07:48Z</time>
      </trkpt>
      <trkpt lat="45.62036" lon="5.73286">
        <ele>715</ele>
        <time>2012-11-25T15:07:56Z</time>
      </trkpt>
      <trkpt lat="45.62034" lon="5.73255">
        <ele>715.69995117188</ele>
        <time>2012-11-25T15:08:02Z</time>
      </trkpt>
      <trkpt lat="45.62032" lon="5.73227">
        <ele>716.19995117188</ele>
        <time>2012-11-25T15:08:08Z</time>
      </trkpt>
      <trkpt lat="45.62025" lon="5.73201">
        <ele>717.19995117188</ele>
        <time>2012-11-25T15:08:21Z</time>
      </trkpt>
      <trkpt lat="45.62019" lon="5.73191">
        <ele>718.30004882812</ele>
        <time>2012-11-25T15:08:27Z</time>
      </trkpt>
      <trkpt lat="45.62005" lon="5.73172">
        <ele>719.80004882812</ele>
        <time>2012-11-25T15:08:39Z</time>
      </trkpt>
      <trkpt lat="45.6199" lon="5.73155">
        <ele>719.69995117188</ele>
        <time>2012-11-25T15:08:52Z</time>
      </trkpt>
      <trkpt lat="45.61977" lon="5.73135">
        <ele>719.80004882812</ele>
        <time>2012-11-25T15:09:03Z</time>
      </trkpt>
      <trkpt lat="45.61974" lon="5.73123">
        <ele>719.90002441406</ele>
        <time>2012-11-25T15:09:10Z</time>
      </trkpt>
      <trkpt lat="45.61976" lon="5.7311">
        <ele>719.80004882812</ele>
        <time>2012-11-25T15:09:16Z</time>
      </trkpt>
      <trkpt lat="45.61988" lon="5.73086">
        <ele>719.69995117188</ele>
        <time>2012-11-25T15:09:25Z</time>
      </trkpt>
      <trkpt lat="45.62" lon="5.73065">
        <ele>719.80004882812</ele>
        <time>2012-11-25T15:09:36Z</time>
      </trkpt>
      <trkpt lat="45.62014" lon="5.73044">
        <ele>720.80004882812</ele>
        <time>2012-11-25T15:09:49Z</time>
      </trkpt>
      <trkpt lat="45.62026" lon="5.73023">
        <ele>720.5</ele>
        <time>2012-11-25T15:10:01Z</time>
      </trkpt>
      <trkpt lat="45.62037" lon="5.73003">
        <ele>720.90002441406</ele>
        <time>2012-11-25T15:10:12Z</time>
      </trkpt>
      <trkpt lat="45.62052" lon="5.72984">
        <ele>723.09997558594</ele>
        <time>2012-11-25T15:10:27Z</time>
      </trkpt>
      <trkpt lat="45.62069" lon="5.72972">
        <ele>723.09997558594</ele>
        <time>2012-11-25T15:10:40Z</time>
      </trkpt>
      <trkpt lat="45.62088" lon="5.72967">
        <ele>723</ele>
        <time>2012-11-25T15:10:54Z</time>
      </trkpt>
      <trkpt lat="45.62108" lon="5.72963">
        <ele>723.40002441406</ele>
        <time>2012-11-25T15:11:08Z</time>
      </trkpt>
      <trkpt lat="45.62127" lon="5.72959">
        <ele>721.69995117188</ele>
        <time>2012-11-25T15:11:20Z</time>
      </trkpt>
      <trkpt lat="45.62145" lon="5.72948">
        <ele>720.90002441406</ele>
        <time>2012-11-25T15:11:34Z</time>
      </trkpt>
      <trkpt lat="45.62153" lon="5.7294">
        <ele>720.5</ele>
        <time>2012-11-25T15:11:41Z</time>
      </trkpt>
      <trkpt lat="45.62159" lon="5.7293">
        <ele>719.90002441406</ele>
        <time>2012-11-25T15:11:47Z</time>
      </trkpt>
      <trkpt lat="45.62166" lon="5.7292">
        <ele>719.59997558594</ele>
        <time>2012-11-25T15:11:53Z</time>
      </trkpt>
      <trkpt lat="45.62172" lon="5.7291">
        <ele>718.80004882812</ele>
        <time>2012-11-25T15:11:59Z</time>
      </trkpt>
      <trkpt lat="45.6218" lon="5.729">
        <ele>718.59997558594</ele>
        <time>2012-11-25T15:12:06Z</time>
      </trkpt>
      <trkpt lat="45.62189" lon="5.72895">
        <ele>718.80004882812</ele>
        <time>2012-11-25T15:12:12Z</time>
      </trkpt>
      <trkpt lat="45.62208" lon="5.72888">
        <ele>719.40002441406</ele>
        <time>2012-11-25T15:12:25Z</time>
      </trkpt>
      <trkpt lat="45.62227" lon="5.72887">
        <ele>717.59997558594</ele>
        <time>2012-11-25T15:12:38Z</time>
      </trkpt>
      <trkpt lat="45.62236" lon="5.72884">
        <ele>716.80004882812</ele>
        <time>2012-11-25T15:12:44Z</time>
      </trkpt>
      <trkpt lat="45.62245" lon="5.72879">
        <ele>715.69995117188</ele>
        <time>2012-11-25T15:12:50Z</time>
      </trkpt>
      <trkpt lat="45.62253" lon="5.72871">
        <ele>716.19995117188</ele>
        <time>2012-11-25T15:12:56Z</time>
      </trkpt>
      <trkpt lat="45.62261" lon="5.7286">
        <ele>715.40002441406</ele>
        <time>2012-11-25T15:13:03Z</time>
      </trkpt>
      <trkpt lat="45.62265" lon="5.72849">
        <ele>715.19995117188</ele>
        <time>2012-11-25T15:13:09Z</time>
      </trkpt>
      <trkpt lat="45.6227" lon="5.72836">
        <ele>715.40002441406</ele>
        <time>2012-11-25T15:13:15Z</time>
      </trkpt>
      <trkpt lat="45.62273" lon="5.72824">
        <ele>715</ele>
        <time>2012-11-25T15:13:20Z</time>
      </trkpt>
      <trkpt lat="45.62277" lon="5.7281">
        <ele>716.19995117188</ele>
        <time>2012-11-25T15:13:26Z</time>
      </trkpt>
      <trkpt lat="45.6229" lon="5.72789">
        <ele>716.30004882812</ele>
        <time>2012-11-25T15:13:37Z</time>
      </trkpt>
      <trkpt lat="45.62317" lon="5.72772">
        <ele>715.69995117188</ele>
        <time>2012-11-25T15:13:47Z</time>
      </trkpt>
      <trkpt lat="45.62335" lon="5.72758">
        <ele>715.5</ele>
        <time>2012-11-25T15:13:55Z</time>
      </trkpt>
      <trkpt lat="45.62353" lon="5.72744">
        <ele>715.09997558594</ele>
        <time>2012-11-25T15:14:02Z</time>
      </trkpt>
      <trkpt lat="45.6237" lon="5.72734">
        <ele>713.59997558594</ele>
        <time>2012-11-25T15:14:14Z</time>
      </trkpt>
      <trkpt lat="45.62388" lon="5.72721">
        <ele>713.30004882812</ele>
        <time>2012-11-25T15:14:27Z</time>
      </trkpt>
      <trkpt lat="45.62406" lon="5.72708">
        <ele>715.30004882812</ele>
        <time>2012-11-25T15:14:41Z</time>
      </trkpt>
      <trkpt lat="45.62414" lon="5.72702">
        <ele>715</ele>
        <time>2012-11-25T15:14:48Z</time>
      </trkpt>
      <trkpt lat="45.62423" lon="5.72696">
        <ele>714.80004882812</ele>
        <time>2012-11-25T15:14:54Z</time>
      </trkpt>
      <trkpt lat="45.62432" lon="5.7269">
        <ele>714.5</ele>
        <time>2012-11-25T15:15:01Z</time>
      </trkpt>
      <trkpt lat="45.6244" lon="5.72684">
        <ele>714.09997558594</ele>
        <time>2012-11-25T15:15:06Z</time>
      </trkpt>
      <trkpt lat="45.62457" lon="5.72671">
        <ele>716.90002441406</ele>
        <time>2012-11-25T15:16:08Z</time>
      </trkpt>
      <trkpt lat="45.62466" lon="5.72668">
        <ele>717.09997558594</ele>
        <time>2012-11-25T15:16:13Z</time>
      </trkpt>
      <trkpt lat="45.62486" lon="5.72661">
        <ele>719.09997558594</ele>
        <time>2012-11-25T15:16:27Z</time>
      </trkpt>
      <trkpt lat="45.62505" lon="5.72652">
        <ele>725.5</ele>
        <time>2012-11-25T15:16:43Z</time>
      </trkpt>
      <trkpt lat="45.62523" lon="5.72642">
        <ele>728.90002441406</ele>
        <time>2012-11-25T15:17:00Z</time>
      </trkpt>
      <trkpt lat="45.62541" lon="5.72635">
        <ele>728.40002441406</ele>
        <time>2012-11-25T15:17:15Z</time>
      </trkpt>
      <trkpt lat="45.62559" lon="5.72631">
        <ele>727.90002441406</ele>
        <time>2012-11-25T15:17:27Z</time>
      </trkpt>
      <trkpt lat="45.62577" lon="5.72627">
        <ele>728</ele>
        <time>2012-11-25T15:17:41Z</time>
      </trkpt>
      <trkpt lat="45.62595" lon="5.72624">
        <ele>727.09997558594</ele>
        <time>2012-11-25T15:17:56Z</time>
      </trkpt>
      <trkpt lat="45.62615" lon="5.7262">
        <ele>725.90002441406</ele>
        <time>2012-11-25T15:18:11Z</time>
      </trkpt>
      <trkpt lat="45.62634" lon="5.72617">
        <ele>725.30004882812</ele>
        <time>2012-11-25T15:18:26Z</time>
      </trkpt>
      <trkpt lat="45.62653" lon="5.72617">
        <ele>724.90002441406</ele>
        <time>2012-11-25T15:19:25Z</time>
      </trkpt>
      <trkpt lat="45.6265" lon="5.7263">
        <ele>721.19995117188</ele>
        <time>2012-11-25T15:19:39Z</time>
      </trkpt>
      <trkpt lat="45.62637" lon="5.72649">
        <ele>718.69995117188</ele>
        <time>2012-11-25T15:19:52Z</time>
      </trkpt>
      <trkpt lat="45.62634" lon="5.72662">
        <ele>717</ele>
        <time>2012-11-25T15:19:59Z</time>
      </trkpt>
      <trkpt lat="45.62635" lon="5.72651">
        <ele>710.09997558594</ele>
        <time>2012-11-25T15:26:03Z</time>
      </trkpt>
      <trkpt lat="45.62639" lon="5.72653">
        <ele>704</ele>
        <time>2012-11-25T15:28:36Z</time>
      </trkpt>
      <trkpt lat="45.6263" lon="5.72649">
        <ele>706.80004882812</ele>
        <time>2012-11-25T15:29:58Z</time>
      </trkpt>
    </trkseg>
  </trk>
</gpx>